<?xml version="1.0" encoding="UTF-8" standalone="no" ?>
<gpx xmlns="http://www.topografix.com/GPX/1/1" xmlns:xsi="http://www.w3.org/2001/XMLSchema-instance" xsi:schemaLocation="http://www.topografix.com/GPX/1/1 http://www.topografix.com/GPX/1/1/gpx.xsd" version="1.1" creator="VisuGPX - https://www.visugpx.com">
  <metadata>
    <name>Tour du Jura, dernier jour</name>
    <desc><![CDATA[Arrivée sous la chaleur à  Lons, désert le Dimanche !]]></desc>
  </metadata>
  <trk>
    <name><![CDATA[Tour du Jura, dernier jour]]></name>
    <trkseg>
      <trkpt lat="46.71044" lon="5.63103">
        <ele>308</ele>
        <time>2023-09-03T10:02:25Z</time>
      </trkpt>
      <trkpt lat="46.71043" lon="5.63103">
        <ele>307.4</ele>
        <time>2023-09-03T10:02:26Z</time>
      </trkpt>
      <trkpt lat="46.71041" lon="5.63103">
        <ele>307.4</ele>
        <time>2023-09-03T10:02:27Z</time>
      </trkpt>
      <trkpt lat="46.7104" lon="5.63102">
        <ele>307.4</ele>
        <time>2023-09-03T10:02:28Z</time>
      </trkpt>
      <trkpt lat="46.71039" lon="5.63102">
        <ele>307</ele>
        <time>2023-09-03T10:02:29Z</time>
      </trkpt>
      <trkpt lat="46.71037" lon="5.63102">
        <ele>307</ele>
        <time>2023-09-03T10:02:30Z</time>
      </trkpt>
      <trkpt lat="46.71035" lon="5.63101">
        <ele>307</ele>
        <time>2023-09-03T10:02:31Z</time>
      </trkpt>
      <trkpt lat="46.71033" lon="5.631">
        <ele>307</ele>
        <time>2023-09-03T10:02:32Z</time>
      </trkpt>
      <trkpt lat="46.71032" lon="5.631">
        <ele>306.4</ele>
        <time>2023-09-03T10:02:33Z</time>
      </trkpt>
      <trkpt lat="46.71029" lon="5.63099">
        <ele>306.2</ele>
        <time>2023-09-03T10:02:34Z</time>
      </trkpt>
      <trkpt lat="46.71028" lon="5.63098">
        <ele>306.2</ele>
        <time>2023-09-03T10:02:35Z</time>
      </trkpt>
      <trkpt lat="46.71026" lon="5.63098">
        <ele>306.2</ele>
        <time>2023-09-03T10:02:36Z</time>
      </trkpt>
      <trkpt lat="46.71024" lon="5.63096">
        <ele>305.6</ele>
        <time>2023-09-03T10:02:37Z</time>
      </trkpt>
      <trkpt lat="46.71023" lon="5.63096">
        <ele>305.6</ele>
        <time>2023-09-03T10:02:38Z</time>
      </trkpt>
      <trkpt lat="46.7102" lon="5.63095">
        <ele>305.4</ele>
        <time>2023-09-03T10:02:39Z</time>
      </trkpt>
      <trkpt lat="46.71019" lon="5.63094">
        <ele>305.4</ele>
        <time>2023-09-03T10:02:40Z</time>
      </trkpt>
      <trkpt lat="46.71018" lon="5.63093">
        <ele>305.4</ele>
        <time>2023-09-03T10:02:41Z</time>
      </trkpt>
      <trkpt lat="46.71016" lon="5.63091">
        <ele>305.4</ele>
        <time>2023-09-03T10:02:42Z</time>
      </trkpt>
      <trkpt lat="46.71014" lon="5.6309">
        <ele>304</ele>
        <time>2023-09-03T10:02:43Z</time>
      </trkpt>
      <trkpt lat="46.71013" lon="5.63089">
        <ele>304</ele>
        <time>2023-09-03T10:02:44Z</time>
      </trkpt>
      <trkpt lat="46.71011" lon="5.63088">
        <ele>304</ele>
        <time>2023-09-03T10:02:45Z</time>
      </trkpt>
      <trkpt lat="46.71009" lon="5.63087">
        <ele>304</ele>
        <time>2023-09-03T10:02:46Z</time>
      </trkpt>
      <trkpt lat="46.71008" lon="5.63085">
        <ele>304</ele>
        <time>2023-09-03T10:02:47Z</time>
      </trkpt>
      <trkpt lat="46.71006" lon="5.63084">
        <ele>302.6</ele>
        <time>2023-09-03T10:02:48Z</time>
      </trkpt>
      <trkpt lat="46.71005" lon="5.63082">
        <ele>302.6</ele>
        <time>2023-09-03T10:02:49Z</time>
      </trkpt>
      <trkpt lat="46.71002" lon="5.6308">
        <ele>302.6</ele>
        <time>2023-09-03T10:02:50Z</time>
      </trkpt>
      <trkpt lat="46.71001" lon="5.6308">
        <ele>302.6</ele>
        <time>2023-09-03T10:02:51Z</time>
      </trkpt>
      <trkpt lat="46.70999" lon="5.63077">
        <ele>301.6</ele>
        <time>2023-09-03T10:02:52Z</time>
      </trkpt>
      <trkpt lat="46.70998" lon="5.63076">
        <ele>301</ele>
        <time>2023-09-03T10:02:53Z</time>
      </trkpt>
      <trkpt lat="46.70995" lon="5.63074">
        <ele>301</ele>
        <time>2023-09-03T10:02:54Z</time>
      </trkpt>
      <trkpt lat="46.70994" lon="5.63073">
        <ele>301</ele>
        <time>2023-09-03T10:02:55Z</time>
      </trkpt>
      <trkpt lat="46.70992" lon="5.63072">
        <ele>300</ele>
        <time>2023-09-03T10:02:56Z</time>
      </trkpt>
      <trkpt lat="46.70989" lon="5.63071">
        <ele>300</ele>
        <time>2023-09-03T10:02:57Z</time>
      </trkpt>
      <trkpt lat="46.70988" lon="5.6307">
        <ele>299.4</ele>
        <time>2023-09-03T10:02:58Z</time>
      </trkpt>
      <trkpt lat="46.70985" lon="5.6307">
        <ele>299.4</ele>
        <time>2023-09-03T10:02:59Z</time>
      </trkpt>
      <trkpt lat="46.70984" lon="5.6307">
        <ele>298.6</ele>
        <time>2023-09-03T10:03:00Z</time>
      </trkpt>
      <trkpt lat="46.70983" lon="5.63069">
        <ele>298.6</ele>
        <time>2023-09-03T10:03:01Z</time>
      </trkpt>
      <trkpt lat="46.70981" lon="5.63069">
        <ele>298.4</ele>
        <time>2023-09-03T10:03:02Z</time>
      </trkpt>
      <trkpt lat="46.70978" lon="5.63068">
        <ele>298.4</ele>
        <time>2023-09-03T10:03:03Z</time>
      </trkpt>
      <trkpt lat="46.70977" lon="5.63068">
        <ele>298.4</ele>
        <time>2023-09-03T10:03:04Z</time>
      </trkpt>
      <trkpt lat="46.70976" lon="5.63068">
        <ele>297.4</ele>
        <time>2023-09-03T10:03:05Z</time>
      </trkpt>
      <trkpt lat="46.70973" lon="5.63068">
        <ele>297.2</ele>
        <time>2023-09-03T10:03:06Z</time>
      </trkpt>
      <trkpt lat="46.70972" lon="5.63068">
        <ele>297.2</ele>
        <time>2023-09-03T10:03:07Z</time>
      </trkpt>
      <trkpt lat="46.70971" lon="5.63068">
        <ele>297.2</ele>
        <time>2023-09-03T10:03:08Z</time>
      </trkpt>
      <trkpt lat="46.70968" lon="5.63068">
        <ele>296.4</ele>
        <time>2023-09-03T10:03:09Z</time>
      </trkpt>
      <trkpt lat="46.70966" lon="5.63068">
        <ele>296.4</ele>
        <time>2023-09-03T10:03:10Z</time>
      </trkpt>
      <trkpt lat="46.70964" lon="5.63067">
        <ele>296.2</ele>
        <time>2023-09-03T10:03:11Z</time>
      </trkpt>
      <trkpt lat="46.70963" lon="5.63067">
        <ele>296.2</ele>
        <time>2023-09-03T10:03:12Z</time>
      </trkpt>
      <trkpt lat="46.7096" lon="5.63067">
        <ele>296.2</ele>
        <time>2023-09-03T10:03:13Z</time>
      </trkpt>
      <trkpt lat="46.70959" lon="5.63066">
        <ele>295.4</ele>
        <time>2023-09-03T10:03:14Z</time>
      </trkpt>
      <trkpt lat="46.70957" lon="5.63066">
        <ele>295.2</ele>
        <time>2023-09-03T10:03:15Z</time>
      </trkpt>
      <trkpt lat="46.70954" lon="5.63066">
        <ele>295.2</ele>
        <time>2023-09-03T10:03:16Z</time>
      </trkpt>
      <trkpt lat="46.70953" lon="5.63066">
        <ele>295.2</ele>
        <time>2023-09-03T10:03:17Z</time>
      </trkpt>
      <trkpt lat="46.7095" lon="5.63065">
        <ele>294.4</ele>
        <time>2023-09-03T10:03:18Z</time>
      </trkpt>
      <trkpt lat="46.7095" lon="5.63064">
        <ele>294.2</ele>
        <time>2023-09-03T10:03:19Z</time>
      </trkpt>
      <trkpt lat="46.70947" lon="5.63063">
        <ele>294.2</ele>
        <time>2023-09-03T10:03:20Z</time>
      </trkpt>
      <trkpt lat="46.70946" lon="5.63063">
        <ele>294.2</ele>
        <time>2023-09-03T10:03:21Z</time>
      </trkpt>
      <trkpt lat="46.70943" lon="5.63061">
        <ele>293.4</ele>
        <time>2023-09-03T10:03:22Z</time>
      </trkpt>
      <trkpt lat="46.70942" lon="5.63061">
        <ele>293.4</ele>
        <time>2023-09-03T10:03:23Z</time>
      </trkpt>
      <trkpt lat="46.70941" lon="5.6306">
        <ele>293.2</ele>
        <time>2023-09-03T10:03:24Z</time>
      </trkpt>
      <trkpt lat="46.70939" lon="5.63059">
        <ele>293.2</ele>
        <time>2023-09-03T10:03:25Z</time>
      </trkpt>
      <trkpt lat="46.70937" lon="5.63059">
        <ele>293.2</ele>
        <time>2023-09-03T10:03:26Z</time>
      </trkpt>
      <trkpt lat="46.70935" lon="5.63058">
        <ele>292.2</ele>
        <time>2023-09-03T10:03:27Z</time>
      </trkpt>
      <trkpt lat="46.70934" lon="5.63057">
        <ele>292.2</ele>
        <time>2023-09-03T10:03:28Z</time>
      </trkpt>
      <trkpt lat="46.70932" lon="5.63056">
        <ele>292.2</ele>
        <time>2023-09-03T10:03:29Z</time>
      </trkpt>
      <trkpt lat="46.7093" lon="5.63055">
        <ele>292</ele>
        <time>2023-09-03T10:03:30Z</time>
      </trkpt>
      <trkpt lat="46.70929" lon="5.63054">
        <ele>292</ele>
        <time>2023-09-03T10:03:31Z</time>
      </trkpt>
      <trkpt lat="46.70926" lon="5.63052">
        <ele>291.8</ele>
        <time>2023-09-03T10:03:32Z</time>
      </trkpt>
      <trkpt lat="46.70925" lon="5.63052">
        <ele>291.8</ele>
        <time>2023-09-03T10:03:33Z</time>
      </trkpt>
      <trkpt lat="46.70922" lon="5.6305">
        <ele>291.8</ele>
        <time>2023-09-03T10:03:34Z</time>
      </trkpt>
      <trkpt lat="46.70921" lon="5.6305">
        <ele>291.8</ele>
        <time>2023-09-03T10:03:35Z</time>
      </trkpt>
      <trkpt lat="46.70919" lon="5.63047">
        <ele>291.8</ele>
        <time>2023-09-03T10:03:36Z</time>
      </trkpt>
      <trkpt lat="46.70918" lon="5.63047">
        <ele>291.2</ele>
        <time>2023-09-03T10:03:37Z</time>
      </trkpt>
      <trkpt lat="46.70917" lon="5.63045">
        <ele>291</ele>
        <time>2023-09-03T10:03:38Z</time>
      </trkpt>
      <trkpt lat="46.70914" lon="5.63042">
        <ele>291</ele>
        <time>2023-09-03T10:03:39Z</time>
      </trkpt>
      <trkpt lat="46.70913" lon="5.63042">
        <ele>291</ele>
        <time>2023-09-03T10:03:40Z</time>
      </trkpt>
      <trkpt lat="46.70911" lon="5.63039">
        <ele>291</ele>
        <time>2023-09-03T10:03:41Z</time>
      </trkpt>
      <trkpt lat="46.70911" lon="5.63038">
        <ele>290.2</ele>
        <time>2023-09-03T10:03:42Z</time>
      </trkpt>
      <trkpt lat="46.70909" lon="5.63036">
        <ele>290.2</ele>
        <time>2023-09-03T10:03:43Z</time>
      </trkpt>
      <trkpt lat="46.70908" lon="5.63035">
        <ele>290.2</ele>
        <time>2023-09-03T10:03:44Z</time>
      </trkpt>
      <trkpt lat="46.70907" lon="5.63033">
        <ele>289.4</ele>
        <time>2023-09-03T10:03:45Z</time>
      </trkpt>
      <trkpt lat="46.70905" lon="5.6303">
        <ele>289.4</ele>
        <time>2023-09-03T10:03:46Z</time>
      </trkpt>
      <trkpt lat="46.70904" lon="5.63029">
        <ele>289.2</ele>
        <time>2023-09-03T10:03:47Z</time>
      </trkpt>
      <trkpt lat="46.70903" lon="5.63027">
        <ele>289.2</ele>
        <time>2023-09-03T10:03:48Z</time>
      </trkpt>
      <trkpt lat="46.70901" lon="5.63023">
        <ele>289.2</ele>
        <time>2023-09-03T10:03:49Z</time>
      </trkpt>
      <trkpt lat="46.709" lon="5.63022">
        <ele>288.8</ele>
        <time>2023-09-03T10:03:50Z</time>
      </trkpt>
      <trkpt lat="46.70898" lon="5.63019">
        <ele>288.4</ele>
        <time>2023-09-03T10:03:51Z</time>
      </trkpt>
      <trkpt lat="46.70898" lon="5.63018">
        <ele>288.4</ele>
        <time>2023-09-03T10:03:52Z</time>
      </trkpt>
      <trkpt lat="46.70897" lon="5.63016">
        <ele>288.4</ele>
        <time>2023-09-03T10:03:53Z</time>
      </trkpt>
      <trkpt lat="46.70895" lon="5.63014">
        <ele>287.6</ele>
        <time>2023-09-03T10:03:54Z</time>
      </trkpt>
      <trkpt lat="46.70893" lon="5.63011">
        <ele>287.2</ele>
        <time>2023-09-03T10:03:55Z</time>
      </trkpt>
      <trkpt lat="46.70893" lon="5.6301">
        <ele>287.2</ele>
        <time>2023-09-03T10:03:56Z</time>
      </trkpt>
      <trkpt lat="46.70891" lon="5.63008">
        <ele>287.2</ele>
        <time>2023-09-03T10:03:57Z</time>
      </trkpt>
      <trkpt lat="46.70889" lon="5.63005">
        <ele>287.2</ele>
        <time>2023-09-03T10:03:58Z</time>
      </trkpt>
      <trkpt lat="46.70889" lon="5.63003">
        <ele>286.2</ele>
        <time>2023-09-03T10:03:59Z</time>
      </trkpt>
      <trkpt lat="46.70887" lon="5.63001">
        <ele>285.8</ele>
        <time>2023-09-03T10:04:00Z</time>
      </trkpt>
      <trkpt lat="46.70886" lon="5.62997">
        <ele>285.8</ele>
        <time>2023-09-03T10:04:01Z</time>
      </trkpt>
      <trkpt lat="46.70883" lon="5.62992">
        <ele>285.8</ele>
        <time>2023-09-03T10:04:02Z</time>
      </trkpt>
      <trkpt lat="46.70882" lon="5.6299">
        <ele>284.8</ele>
        <time>2023-09-03T10:04:03Z</time>
      </trkpt>
      <trkpt lat="46.7088" lon="5.62986">
        <ele>282.8</ele>
        <time>2023-09-03T10:04:04Z</time>
      </trkpt>
      <trkpt lat="46.70878" lon="5.62982">
        <ele>282.8</ele>
        <time>2023-09-03T10:04:05Z</time>
      </trkpt>
      <trkpt lat="46.70877" lon="5.62978">
        <ele>282.8</ele>
        <time>2023-09-03T10:04:06Z</time>
      </trkpt>
      <trkpt lat="46.70874" lon="5.62973">
        <ele>283.2</ele>
        <time>2023-09-03T10:04:07Z</time>
      </trkpt>
      <trkpt lat="46.70873" lon="5.62971">
        <ele>283.2</ele>
        <time>2023-09-03T10:04:08Z</time>
      </trkpt>
      <trkpt lat="46.70871" lon="5.62968">
        <ele>283.2</ele>
        <time>2023-09-03T10:04:09Z</time>
      </trkpt>
      <trkpt lat="46.70869" lon="5.62965">
        <ele>282.8</ele>
        <time>2023-09-03T10:04:10Z</time>
      </trkpt>
      <trkpt lat="46.70868" lon="5.62963">
        <ele>282.8</ele>
        <time>2023-09-03T10:04:11Z</time>
      </trkpt>
      <trkpt lat="46.70866" lon="5.62961">
        <ele>282.8</ele>
        <time>2023-09-03T10:04:12Z</time>
      </trkpt>
      <trkpt lat="46.70864" lon="5.62958">
        <ele>282</ele>
        <time>2023-09-03T10:04:13Z</time>
      </trkpt>
      <trkpt lat="46.70863" lon="5.62958">
        <ele>282</ele>
        <time>2023-09-03T10:04:14Z</time>
      </trkpt>
      <trkpt lat="46.7086" lon="5.62954">
        <ele>281.6</ele>
        <time>2023-09-03T10:04:15Z</time>
      </trkpt>
      <trkpt lat="46.70859" lon="5.62953">
        <ele>281.6</ele>
        <time>2023-09-03T10:04:16Z</time>
      </trkpt>
      <trkpt lat="46.70856" lon="5.62949">
        <ele>280.8</ele>
        <time>2023-09-03T10:04:17Z</time>
      </trkpt>
      <trkpt lat="46.70855" lon="5.62948">
        <ele>280.8</ele>
        <time>2023-09-03T10:04:18Z</time>
      </trkpt>
      <trkpt lat="46.70853" lon="5.62946">
        <ele>280.8</ele>
        <time>2023-09-03T10:04:19Z</time>
      </trkpt>
      <trkpt lat="46.7085" lon="5.62945">
        <ele>280.8</ele>
        <time>2023-09-03T10:04:20Z</time>
      </trkpt>
      <trkpt lat="46.70848" lon="5.62944">
        <ele>280.8</ele>
        <time>2023-09-03T10:04:21Z</time>
      </trkpt>
      <trkpt lat="46.70846" lon="5.62943">
        <ele>280.8</ele>
        <time>2023-09-03T10:04:22Z</time>
      </trkpt>
      <trkpt lat="46.70844" lon="5.62942">
        <ele>280.2</ele>
        <time>2023-09-03T10:04:23Z</time>
      </trkpt>
      <trkpt lat="46.70842" lon="5.62941">
        <ele>280.2</ele>
        <time>2023-09-03T10:04:24Z</time>
      </trkpt>
      <trkpt lat="46.7084" lon="5.6294">
        <ele>280.2</ele>
        <time>2023-09-03T10:04:25Z</time>
      </trkpt>
      <trkpt lat="46.70836" lon="5.6294">
        <ele>279.8</ele>
        <time>2023-09-03T10:04:26Z</time>
      </trkpt>
      <trkpt lat="46.70835" lon="5.6294">
        <ele>279.6</ele>
        <time>2023-09-03T10:04:27Z</time>
      </trkpt>
      <trkpt lat="46.70832" lon="5.62939">
        <ele>279.6</ele>
        <time>2023-09-03T10:04:28Z</time>
      </trkpt>
      <trkpt lat="46.70831" lon="5.62939">
        <ele>279.6</ele>
        <time>2023-09-03T10:04:29Z</time>
      </trkpt>
      <trkpt lat="46.70828" lon="5.62938">
        <ele>279.6</ele>
        <time>2023-09-03T10:04:30Z</time>
      </trkpt>
      <trkpt lat="46.70825" lon="5.62937">
        <ele>279.6</ele>
        <time>2023-09-03T10:04:31Z</time>
      </trkpt>
      <trkpt lat="46.70824" lon="5.62937">
        <ele>279.6</ele>
        <time>2023-09-03T10:04:32Z</time>
      </trkpt>
      <trkpt lat="46.70821" lon="5.62937">
        <ele>279.6</ele>
        <time>2023-09-03T10:04:33Z</time>
      </trkpt>
      <trkpt lat="46.7082" lon="5.62936">
        <ele>279.6</ele>
        <time>2023-09-03T10:04:34Z</time>
      </trkpt>
      <trkpt lat="46.70818" lon="5.62935">
        <ele>279.4</ele>
        <time>2023-09-03T10:04:35Z</time>
      </trkpt>
      <trkpt lat="46.70815" lon="5.62935">
        <ele>279.4</ele>
        <time>2023-09-03T10:04:36Z</time>
      </trkpt>
      <trkpt lat="46.70812" lon="5.62934">
        <ele>279.4</ele>
        <time>2023-09-03T10:04:37Z</time>
      </trkpt>
      <trkpt lat="46.7081" lon="5.62934">
        <ele>279.4</ele>
        <time>2023-09-03T10:04:38Z</time>
      </trkpt>
      <trkpt lat="46.70808" lon="5.62934">
        <ele>279</ele>
        <time>2023-09-03T10:04:39Z</time>
      </trkpt>
      <trkpt lat="46.70806" lon="5.62934">
        <ele>279.2</ele>
        <time>2023-09-03T10:04:40Z</time>
      </trkpt>
      <trkpt lat="46.70803" lon="5.62933">
        <ele>279.2</ele>
        <time>2023-09-03T10:04:41Z</time>
      </trkpt>
      <trkpt lat="46.70801" lon="5.62933">
        <ele>279.2</ele>
        <time>2023-09-03T10:04:42Z</time>
      </trkpt>
      <trkpt lat="46.70799" lon="5.62932">
        <ele>278.8</ele>
        <time>2023-09-03T10:04:43Z</time>
      </trkpt>
      <trkpt lat="46.70795" lon="5.62932">
        <ele>278.8</ele>
        <time>2023-09-03T10:04:44Z</time>
      </trkpt>
      <trkpt lat="46.70794" lon="5.62932">
        <ele>278.8</ele>
        <time>2023-09-03T10:04:45Z</time>
      </trkpt>
      <trkpt lat="46.7079" lon="5.62931">
        <ele>278.8</ele>
        <time>2023-09-03T10:04:46Z</time>
      </trkpt>
      <trkpt lat="46.70789" lon="5.6293">
        <ele>278.8</ele>
        <time>2023-09-03T10:04:47Z</time>
      </trkpt>
      <trkpt lat="46.70787" lon="5.62929">
        <ele>278.6</ele>
        <time>2023-09-03T10:04:48Z</time>
      </trkpt>
      <trkpt lat="46.70783" lon="5.62927">
        <ele>278.8</ele>
        <time>2023-09-03T10:04:49Z</time>
      </trkpt>
      <trkpt lat="46.70782" lon="5.62926">
        <ele>278.8</ele>
        <time>2023-09-03T10:04:50Z</time>
      </trkpt>
      <trkpt lat="46.7078" lon="5.62925">
        <ele>278.8</ele>
        <time>2023-09-03T10:04:51Z</time>
      </trkpt>
      <trkpt lat="46.70778" lon="5.62923">
        <ele>278.6</ele>
        <time>2023-09-03T10:04:52Z</time>
      </trkpt>
      <trkpt lat="46.70776" lon="5.62921">
        <ele>278.4</ele>
        <time>2023-09-03T10:04:53Z</time>
      </trkpt>
      <trkpt lat="46.70774" lon="5.62919">
        <ele>278.4</ele>
        <time>2023-09-03T10:04:54Z</time>
      </trkpt>
      <trkpt lat="46.70772" lon="5.62917">
        <ele>278.4</ele>
        <time>2023-09-03T10:04:55Z</time>
      </trkpt>
      <trkpt lat="46.70771" lon="5.62915">
        <ele>278.4</ele>
        <time>2023-09-03T10:04:56Z</time>
      </trkpt>
      <trkpt lat="46.70769" lon="5.62913">
        <ele>278.4</ele>
        <time>2023-09-03T10:04:57Z</time>
      </trkpt>
      <trkpt lat="46.70768" lon="5.62911">
        <ele>278</ele>
        <time>2023-09-03T10:04:58Z</time>
      </trkpt>
      <trkpt lat="46.70766" lon="5.62908">
        <ele>278</ele>
        <time>2023-09-03T10:04:59Z</time>
      </trkpt>
      <trkpt lat="46.70764" lon="5.62906">
        <ele>278</ele>
        <time>2023-09-03T10:05:00Z</time>
      </trkpt>
      <trkpt lat="46.70762" lon="5.62904">
        <ele>278</ele>
        <time>2023-09-03T10:05:01Z</time>
      </trkpt>
      <trkpt lat="46.70759" lon="5.62902">
        <ele>277.6</ele>
        <time>2023-09-03T10:05:02Z</time>
      </trkpt>
      <trkpt lat="46.70758" lon="5.62901">
        <ele>277.6</ele>
        <time>2023-09-03T10:05:03Z</time>
      </trkpt>
      <trkpt lat="46.70756" lon="5.629">
        <ele>277.6</ele>
        <time>2023-09-03T10:05:04Z</time>
      </trkpt>
      <trkpt lat="46.70752" lon="5.62898">
        <ele>277.6</ele>
        <time>2023-09-03T10:05:05Z</time>
      </trkpt>
      <trkpt lat="46.70751" lon="5.62898">
        <ele>277.2</ele>
        <time>2023-09-03T10:05:06Z</time>
      </trkpt>
      <trkpt lat="46.70749" lon="5.62897">
        <ele>277.2</ele>
        <time>2023-09-03T10:05:07Z</time>
      </trkpt>
      <trkpt lat="46.70747" lon="5.62897">
        <ele>277.2</ele>
        <time>2023-09-03T10:05:08Z</time>
      </trkpt>
      <trkpt lat="46.70745" lon="5.62898">
        <ele>277.2</ele>
        <time>2023-09-03T10:05:09Z</time>
      </trkpt>
      <trkpt lat="46.70743" lon="5.62899">
        <ele>277.2</ele>
        <time>2023-09-03T10:05:10Z</time>
      </trkpt>
      <trkpt lat="46.70741" lon="5.629">
        <ele>277.2</ele>
        <time>2023-09-03T10:05:11Z</time>
      </trkpt>
      <trkpt lat="46.70739" lon="5.62901">
        <ele>277</ele>
        <time>2023-09-03T10:05:12Z</time>
      </trkpt>
      <trkpt lat="46.70735" lon="5.62903">
        <ele>277</ele>
        <time>2023-09-03T10:05:13Z</time>
      </trkpt>
      <trkpt lat="46.70734" lon="5.62904">
        <ele>277</ele>
        <time>2023-09-03T10:05:14Z</time>
      </trkpt>
      <trkpt lat="46.7073" lon="5.62906">
        <ele>277.4</ele>
        <time>2023-09-03T10:05:15Z</time>
      </trkpt>
      <trkpt lat="46.70729" lon="5.62906">
        <ele>277.4</ele>
        <time>2023-09-03T10:05:16Z</time>
      </trkpt>
      <trkpt lat="46.70727" lon="5.62907">
        <ele>277.4</ele>
        <time>2023-09-03T10:05:17Z</time>
      </trkpt>
      <trkpt lat="46.70723" lon="5.62909">
        <ele>277.4</ele>
        <time>2023-09-03T10:05:18Z</time>
      </trkpt>
      <trkpt lat="46.70722" lon="5.62909">
        <ele>277.4</ele>
        <time>2023-09-03T10:05:19Z</time>
      </trkpt>
      <trkpt lat="46.70719" lon="5.6291">
        <ele>277.4</ele>
        <time>2023-09-03T10:05:20Z</time>
      </trkpt>
      <trkpt lat="46.70717" lon="5.6291">
        <ele>277.4</ele>
        <time>2023-09-03T10:05:21Z</time>
      </trkpt>
      <trkpt lat="46.70714" lon="5.62911">
        <ele>277.4</ele>
        <time>2023-09-03T10:05:22Z</time>
      </trkpt>
      <trkpt lat="46.70713" lon="5.62911">
        <ele>277.4</ele>
        <time>2023-09-03T10:05:23Z</time>
      </trkpt>
      <trkpt lat="46.70711" lon="5.62912">
        <ele>277.6</ele>
        <time>2023-09-03T10:05:24Z</time>
      </trkpt>
      <trkpt lat="46.70707" lon="5.62913">
        <ele>277.8</ele>
        <time>2023-09-03T10:05:25Z</time>
      </trkpt>
      <trkpt lat="46.70706" lon="5.62913">
        <ele>277.8</ele>
        <time>2023-09-03T10:05:26Z</time>
      </trkpt>
      <trkpt lat="46.70704" lon="5.62914">
        <ele>277.8</ele>
        <time>2023-09-03T10:05:27Z</time>
      </trkpt>
      <trkpt lat="46.70702" lon="5.62915">
        <ele>278</ele>
        <time>2023-09-03T10:05:28Z</time>
      </trkpt>
      <trkpt lat="46.707" lon="5.62916">
        <ele>278</ele>
        <time>2023-09-03T10:05:29Z</time>
      </trkpt>
      <trkpt lat="46.70696" lon="5.62917">
        <ele>278.2</ele>
        <time>2023-09-03T10:05:30Z</time>
      </trkpt>
      <trkpt lat="46.70695" lon="5.62917">
        <ele>278.2</ele>
        <time>2023-09-03T10:05:31Z</time>
      </trkpt>
      <trkpt lat="46.70692" lon="5.62918">
        <ele>278.2</ele>
        <time>2023-09-03T10:05:32Z</time>
      </trkpt>
      <trkpt lat="46.70689" lon="5.62918">
        <ele>278.2</ele>
        <time>2023-09-03T10:05:33Z</time>
      </trkpt>
      <trkpt lat="46.70688" lon="5.62919">
        <ele>278.4</ele>
        <time>2023-09-03T10:05:34Z</time>
      </trkpt>
      <trkpt lat="46.70685" lon="5.62919">
        <ele>278.4</ele>
        <time>2023-09-03T10:05:35Z</time>
      </trkpt>
      <trkpt lat="46.70683" lon="5.62919">
        <ele>278.4</ele>
        <time>2023-09-03T10:05:36Z</time>
      </trkpt>
      <trkpt lat="46.7068" lon="5.6292">
        <ele>278.6</ele>
        <time>2023-09-03T10:05:37Z</time>
      </trkpt>
      <trkpt lat="46.70678" lon="5.6292">
        <ele>279</ele>
        <time>2023-09-03T10:05:38Z</time>
      </trkpt>
      <trkpt lat="46.70674" lon="5.6292">
        <ele>279</ele>
        <time>2023-09-03T10:05:39Z</time>
      </trkpt>
      <trkpt lat="46.70673" lon="5.62921">
        <ele>279</ele>
        <time>2023-09-03T10:05:40Z</time>
      </trkpt>
      <trkpt lat="46.70669" lon="5.6292">
        <ele>279</ele>
        <time>2023-09-03T10:05:41Z</time>
      </trkpt>
      <trkpt lat="46.70668" lon="5.6292">
        <ele>279</ele>
        <time>2023-09-03T10:05:42Z</time>
      </trkpt>
      <trkpt lat="46.70666" lon="5.6292">
        <ele>279.2</ele>
        <time>2023-09-03T10:05:43Z</time>
      </trkpt>
      <trkpt lat="46.70662" lon="5.6292">
        <ele>279.2</ele>
        <time>2023-09-03T10:05:44Z</time>
      </trkpt>
      <trkpt lat="46.70661" lon="5.6292">
        <ele>279.2</ele>
        <time>2023-09-03T10:05:45Z</time>
      </trkpt>
      <trkpt lat="46.70659" lon="5.6292">
        <ele>279.2</ele>
        <time>2023-09-03T10:05:46Z</time>
      </trkpt>
      <trkpt lat="46.70656" lon="5.62919">
        <ele>279.2</ele>
        <time>2023-09-03T10:05:47Z</time>
      </trkpt>
      <trkpt lat="46.70653" lon="5.62919">
        <ele>279.4</ele>
        <time>2023-09-03T10:05:48Z</time>
      </trkpt>
      <trkpt lat="46.70652" lon="5.62919">
        <ele>279.4</ele>
        <time>2023-09-03T10:05:49Z</time>
      </trkpt>
      <trkpt lat="46.70649" lon="5.62919">
        <ele>279.4</ele>
        <time>2023-09-03T10:05:50Z</time>
      </trkpt>
      <trkpt lat="46.70646" lon="5.62919">
        <ele>279.6</ele>
        <time>2023-09-03T10:05:51Z</time>
      </trkpt>
      <trkpt lat="46.70645" lon="5.62919">
        <ele>280</ele>
        <time>2023-09-03T10:05:52Z</time>
      </trkpt>
      <trkpt lat="46.70642" lon="5.62919">
        <ele>280</ele>
        <time>2023-09-03T10:05:53Z</time>
      </trkpt>
      <trkpt lat="46.70641" lon="5.62919">
        <ele>280</ele>
        <time>2023-09-03T10:05:54Z</time>
      </trkpt>
      <trkpt lat="46.70637" lon="5.62919">
        <ele>280</ele>
        <time>2023-09-03T10:05:55Z</time>
      </trkpt>
      <trkpt lat="46.70636" lon="5.62919">
        <ele>280.2</ele>
        <time>2023-09-03T10:05:56Z</time>
      </trkpt>
      <trkpt lat="46.70633" lon="5.6292">
        <ele>280.2</ele>
        <time>2023-09-03T10:05:57Z</time>
      </trkpt>
      <trkpt lat="46.70632" lon="5.6292">
        <ele>280.2</ele>
        <time>2023-09-03T10:05:58Z</time>
      </trkpt>
      <trkpt lat="46.7063" lon="5.6292">
        <ele>280.2</ele>
        <time>2023-09-03T10:05:59Z</time>
      </trkpt>
      <trkpt lat="46.70626" lon="5.6292">
        <ele>280.6</ele>
        <time>2023-09-03T10:06:00Z</time>
      </trkpt>
      <trkpt lat="46.70625" lon="5.6292">
        <ele>278</ele>
        <time>2023-09-03T10:06:01Z</time>
      </trkpt>
      <trkpt lat="46.70623" lon="5.6292">
        <ele>278</ele>
        <time>2023-09-03T10:06:02Z</time>
      </trkpt>
      <trkpt lat="46.70621" lon="5.6292">
        <ele>278</ele>
        <time>2023-09-03T10:06:03Z</time>
      </trkpt>
      <trkpt lat="46.70619" lon="5.6292">
        <ele>279</ele>
        <time>2023-09-03T10:06:04Z</time>
      </trkpt>
      <trkpt lat="46.70617" lon="5.6292">
        <ele>279.6</ele>
        <time>2023-09-03T10:06:05Z</time>
      </trkpt>
      <trkpt lat="46.70615" lon="5.6292">
        <ele>279.6</ele>
        <time>2023-09-03T10:06:06Z</time>
      </trkpt>
      <trkpt lat="46.70613" lon="5.6292">
        <ele>279.6</ele>
        <time>2023-09-03T10:06:07Z</time>
      </trkpt>
      <trkpt lat="46.7061" lon="5.6292">
        <ele>280.6</ele>
        <time>2023-09-03T10:06:08Z</time>
      </trkpt>
      <trkpt lat="46.70608" lon="5.62919">
        <ele>280.6</ele>
        <time>2023-09-03T10:06:09Z</time>
      </trkpt>
      <trkpt lat="46.70605" lon="5.62918">
        <ele>280.6</ele>
        <time>2023-09-03T10:06:10Z</time>
      </trkpt>
      <trkpt lat="46.70604" lon="5.62918">
        <ele>280.6</ele>
        <time>2023-09-03T10:06:11Z</time>
      </trkpt>
      <trkpt lat="46.70601" lon="5.62918">
        <ele>280</ele>
        <time>2023-09-03T10:06:12Z</time>
      </trkpt>
      <trkpt lat="46.70599" lon="5.62917">
        <ele>279.8</ele>
        <time>2023-09-03T10:06:13Z</time>
      </trkpt>
      <trkpt lat="46.70597" lon="5.62917">
        <ele>279.8</ele>
        <time>2023-09-03T10:06:14Z</time>
      </trkpt>
      <trkpt lat="46.70595" lon="5.62916">
        <ele>279.8</ele>
        <time>2023-09-03T10:06:15Z</time>
      </trkpt>
      <trkpt lat="46.70593" lon="5.62916">
        <ele>279.8</ele>
        <time>2023-09-03T10:06:16Z</time>
      </trkpt>
      <trkpt lat="46.7059" lon="5.62916">
        <ele>279.4</ele>
        <time>2023-09-03T10:06:17Z</time>
      </trkpt>
      <trkpt lat="46.70588" lon="5.62916">
        <ele>279.4</ele>
        <time>2023-09-03T10:06:18Z</time>
      </trkpt>
      <trkpt lat="46.70586" lon="5.62916">
        <ele>279.4</ele>
        <time>2023-09-03T10:06:19Z</time>
      </trkpt>
      <trkpt lat="46.70584" lon="5.62916">
        <ele>279.4</ele>
        <time>2023-09-03T10:06:20Z</time>
      </trkpt>
      <trkpt lat="46.70582" lon="5.62915">
        <ele>279.2</ele>
        <time>2023-09-03T10:06:21Z</time>
      </trkpt>
      <trkpt lat="46.70579" lon="5.62914">
        <ele>279.2</ele>
        <time>2023-09-03T10:06:22Z</time>
      </trkpt>
      <trkpt lat="46.70577" lon="5.62914">
        <ele>279.2</ele>
        <time>2023-09-03T10:06:23Z</time>
      </trkpt>
      <trkpt lat="46.70575" lon="5.62913">
        <ele>278.8</ele>
        <time>2023-09-03T10:06:24Z</time>
      </trkpt>
      <trkpt lat="46.70574" lon="5.62911">
        <ele>278.8</ele>
        <time>2023-09-03T10:06:25Z</time>
      </trkpt>
      <trkpt lat="46.70573" lon="5.62909">
        <ele>278.6</ele>
        <time>2023-09-03T10:06:26Z</time>
      </trkpt>
      <trkpt lat="46.70572" lon="5.62909">
        <ele>278.6</ele>
        <time>2023-09-03T10:06:27Z</time>
      </trkpt>
      <trkpt lat="46.70571" lon="5.62908">
        <ele>278.6</ele>
        <time>2023-09-03T10:06:28Z</time>
      </trkpt>
      <trkpt lat="46.7057" lon="5.62907">
        <ele>278.2</ele>
        <time>2023-09-03T10:06:34Z</time>
      </trkpt>
      <trkpt lat="46.70569" lon="5.62906">
        <ele>277.6</ele>
        <time>2023-09-03T10:06:35Z</time>
      </trkpt>
      <trkpt lat="46.70568" lon="5.62905">
        <ele>277.6</ele>
        <time>2023-09-03T10:06:36Z</time>
      </trkpt>
      <trkpt lat="46.70566" lon="5.62902">
        <ele>277.6</ele>
        <time>2023-09-03T10:06:37Z</time>
      </trkpt>
      <trkpt lat="46.70565" lon="5.62901">
        <ele>277.6</ele>
        <time>2023-09-03T10:06:38Z</time>
      </trkpt>
      <trkpt lat="46.70563" lon="5.62897">
        <ele>277.2</ele>
        <time>2023-09-03T10:06:39Z</time>
      </trkpt>
      <trkpt lat="46.70562" lon="5.62896">
        <ele>276.8</ele>
        <time>2023-09-03T10:06:40Z</time>
      </trkpt>
      <trkpt lat="46.7056" lon="5.62892">
        <ele>276.8</ele>
        <time>2023-09-03T10:06:41Z</time>
      </trkpt>
      <trkpt lat="46.70559" lon="5.62891">
        <ele>276.8</ele>
        <time>2023-09-03T10:06:42Z</time>
      </trkpt>
      <trkpt lat="46.70558" lon="5.62888">
        <ele>276.2</ele>
        <time>2023-09-03T10:06:43Z</time>
      </trkpt>
      <trkpt lat="46.70556" lon="5.62884">
        <ele>275.8</ele>
        <time>2023-09-03T10:06:44Z</time>
      </trkpt>
      <trkpt lat="46.70556" lon="5.62882">
        <ele>275.8</ele>
        <time>2023-09-03T10:06:45Z</time>
      </trkpt>
      <trkpt lat="46.70554" lon="5.6288">
        <ele>275.8</ele>
        <time>2023-09-03T10:06:46Z</time>
      </trkpt>
      <trkpt lat="46.70552" lon="5.62875">
        <ele>275.8</ele>
        <time>2023-09-03T10:06:47Z</time>
      </trkpt>
      <trkpt lat="46.70551" lon="5.62874">
        <ele>275</ele>
        <time>2023-09-03T10:06:48Z</time>
      </trkpt>
      <trkpt lat="46.70549" lon="5.62871">
        <ele>275</ele>
        <time>2023-09-03T10:06:49Z</time>
      </trkpt>
      <trkpt lat="46.70548" lon="5.62869">
        <ele>275</ele>
        <time>2023-09-03T10:06:50Z</time>
      </trkpt>
      <trkpt lat="46.70546" lon="5.62866">
        <ele>275</ele>
        <time>2023-09-03T10:06:51Z</time>
      </trkpt>
      <trkpt lat="46.70545" lon="5.62865">
        <ele>274.4</ele>
        <time>2023-09-03T10:06:52Z</time>
      </trkpt>
      <trkpt lat="46.70543" lon="5.62862">
        <ele>274</ele>
        <time>2023-09-03T10:06:53Z</time>
      </trkpt>
      <trkpt lat="46.70542" lon="5.6286">
        <ele>274</ele>
        <time>2023-09-03T10:06:54Z</time>
      </trkpt>
      <trkpt lat="46.7054" lon="5.62857">
        <ele>274</ele>
        <time>2023-09-03T10:06:55Z</time>
      </trkpt>
      <trkpt lat="46.70539" lon="5.62855">
        <ele>273.2</ele>
        <time>2023-09-03T10:06:56Z</time>
      </trkpt>
      <trkpt lat="46.70537" lon="5.62853">
        <ele>273.2</ele>
        <time>2023-09-03T10:06:57Z</time>
      </trkpt>
      <trkpt lat="46.70535" lon="5.6285">
        <ele>273</ele>
        <time>2023-09-03T10:06:58Z</time>
      </trkpt>
      <trkpt lat="46.70534" lon="5.62847">
        <ele>273</ele>
        <time>2023-09-03T10:06:59Z</time>
      </trkpt>
      <trkpt lat="46.70531" lon="5.62843">
        <ele>273</ele>
        <time>2023-09-03T10:07:00Z</time>
      </trkpt>
      <trkpt lat="46.7053" lon="5.62842">
        <ele>273</ele>
        <time>2023-09-03T10:07:01Z</time>
      </trkpt>
      <trkpt lat="46.70528" lon="5.62839">
        <ele>271.6</ele>
        <time>2023-09-03T10:07:02Z</time>
      </trkpt>
      <trkpt lat="46.70524" lon="5.62836">
        <ele>271.6</ele>
        <time>2023-09-03T10:07:03Z</time>
      </trkpt>
      <trkpt lat="46.70523" lon="5.62835">
        <ele>271.6</ele>
        <time>2023-09-03T10:07:04Z</time>
      </trkpt>
      <trkpt lat="46.70521" lon="5.62833">
        <ele>271.6</ele>
        <time>2023-09-03T10:07:05Z</time>
      </trkpt>
      <trkpt lat="46.70519" lon="5.62831">
        <ele>270.4</ele>
        <time>2023-09-03T10:07:06Z</time>
      </trkpt>
      <trkpt lat="46.70518" lon="5.62828">
        <ele>270.4</ele>
        <time>2023-09-03T10:07:07Z</time>
      </trkpt>
      <trkpt lat="46.70516" lon="5.62826">
        <ele>270.4</ele>
        <time>2023-09-03T10:07:08Z</time>
      </trkpt>
      <trkpt lat="46.70514" lon="5.62825">
        <ele>270.4</ele>
        <time>2023-09-03T10:07:09Z</time>
      </trkpt>
      <trkpt lat="46.70512" lon="5.62823">
        <ele>270.4</ele>
        <time>2023-09-03T10:07:10Z</time>
      </trkpt>
      <trkpt lat="46.7051" lon="5.62821">
        <ele>269.2</ele>
        <time>2023-09-03T10:07:11Z</time>
      </trkpt>
      <trkpt lat="46.70508" lon="5.62819">
        <ele>269.2</ele>
        <time>2023-09-03T10:07:12Z</time>
      </trkpt>
      <trkpt lat="46.70506" lon="5.62817">
        <ele>269.2</ele>
        <time>2023-09-03T10:07:13Z</time>
      </trkpt>
      <trkpt lat="46.70505" lon="5.62816">
        <ele>268.6</ele>
        <time>2023-09-03T10:07:14Z</time>
      </trkpt>
      <trkpt lat="46.70503" lon="5.62814">
        <ele>268.4</ele>
        <time>2023-09-03T10:07:15Z</time>
      </trkpt>
      <trkpt lat="46.705" lon="5.62812">
        <ele>268.4</ele>
        <time>2023-09-03T10:07:16Z</time>
      </trkpt>
      <trkpt lat="46.705" lon="5.62811">
        <ele>268.4</ele>
        <time>2023-09-03T10:07:17Z</time>
      </trkpt>
      <trkpt lat="46.70497" lon="5.62809">
        <ele>268.4</ele>
        <time>2023-09-03T10:07:18Z</time>
      </trkpt>
      <trkpt lat="46.70496" lon="5.62808">
        <ele>268.4</ele>
        <time>2023-09-03T10:07:19Z</time>
      </trkpt>
      <trkpt lat="46.70494" lon="5.62807">
        <ele>268.4</ele>
        <time>2023-09-03T10:07:20Z</time>
      </trkpt>
      <trkpt lat="46.70491" lon="5.62804">
        <ele>267.8</ele>
        <time>2023-09-03T10:07:21Z</time>
      </trkpt>
      <trkpt lat="46.7049" lon="5.62804">
        <ele>267.8</ele>
        <time>2023-09-03T10:07:22Z</time>
      </trkpt>
      <trkpt lat="46.70488" lon="5.62803">
        <ele>267.8</ele>
        <time>2023-09-03T10:07:23Z</time>
      </trkpt>
      <trkpt lat="46.70486" lon="5.62801">
        <ele>267.4</ele>
        <time>2023-09-03T10:07:24Z</time>
      </trkpt>
      <trkpt lat="46.70484" lon="5.628">
        <ele>267</ele>
        <time>2023-09-03T10:07:25Z</time>
      </trkpt>
      <trkpt lat="46.70482" lon="5.62798">
        <ele>267</ele>
        <time>2023-09-03T10:07:26Z</time>
      </trkpt>
      <trkpt lat="46.7048" lon="5.62796">
        <ele>267</ele>
        <time>2023-09-03T10:07:27Z</time>
      </trkpt>
      <trkpt lat="46.70478" lon="5.62794">
        <ele>266.2</ele>
        <time>2023-09-03T10:07:28Z</time>
      </trkpt>
      <trkpt lat="46.70477" lon="5.62793">
        <ele>266</ele>
        <time>2023-09-03T10:07:29Z</time>
      </trkpt>
      <trkpt lat="46.70475" lon="5.62792">
        <ele>266</ele>
        <time>2023-09-03T10:07:30Z</time>
      </trkpt>
      <trkpt lat="46.70472" lon="5.6279">
        <ele>266</ele>
        <time>2023-09-03T10:07:31Z</time>
      </trkpt>
      <trkpt lat="46.70471" lon="5.62789">
        <ele>266</ele>
        <time>2023-09-03T10:07:32Z</time>
      </trkpt>
      <trkpt lat="46.70469" lon="5.62788">
        <ele>265.6</ele>
        <time>2023-09-03T10:07:33Z</time>
      </trkpt>
      <trkpt lat="46.70468" lon="5.62787">
        <ele>265.4</ele>
        <time>2023-09-03T10:07:34Z</time>
      </trkpt>
      <trkpt lat="46.70465" lon="5.62786">
        <ele>265.4</ele>
        <time>2023-09-03T10:07:35Z</time>
      </trkpt>
      <trkpt lat="46.70465" lon="5.62785">
        <ele>265.4</ele>
        <time>2023-09-03T10:07:36Z</time>
      </trkpt>
      <trkpt lat="46.70462" lon="5.62784">
        <ele>265.4</ele>
        <time>2023-09-03T10:07:37Z</time>
      </trkpt>
      <trkpt lat="46.70461" lon="5.62783">
        <ele>265</ele>
        <time>2023-09-03T10:07:38Z</time>
      </trkpt>
      <trkpt lat="46.70459" lon="5.62782">
        <ele>265</ele>
        <time>2023-09-03T10:07:39Z</time>
      </trkpt>
      <trkpt lat="46.70458" lon="5.6278">
        <ele>265</ele>
        <time>2023-09-03T10:07:40Z</time>
      </trkpt>
      <trkpt lat="46.70456" lon="5.62779">
        <ele>265</ele>
        <time>2023-09-03T10:07:41Z</time>
      </trkpt>
      <trkpt lat="46.70453" lon="5.62777">
        <ele>265</ele>
        <time>2023-09-03T10:07:42Z</time>
      </trkpt>
      <trkpt lat="46.70452" lon="5.62777">
        <ele>264.4</ele>
        <time>2023-09-03T10:07:43Z</time>
      </trkpt>
      <trkpt lat="46.70449" lon="5.62775">
        <ele>264.4</ele>
        <time>2023-09-03T10:07:44Z</time>
      </trkpt>
      <trkpt lat="46.70448" lon="5.62774">
        <ele>264.4</ele>
        <time>2023-09-03T10:07:45Z</time>
      </trkpt>
      <trkpt lat="46.70446" lon="5.62771">
        <ele>264.6</ele>
        <time>2023-09-03T10:07:46Z</time>
      </trkpt>
      <trkpt lat="46.70445" lon="5.6277">
        <ele>264.8</ele>
        <time>2023-09-03T10:07:47Z</time>
      </trkpt>
      <trkpt lat="46.70444" lon="5.62768">
        <ele>264.8</ele>
        <time>2023-09-03T10:07:48Z</time>
      </trkpt>
      <trkpt lat="46.70442" lon="5.62767">
        <ele>264.8</ele>
        <time>2023-09-03T10:07:49Z</time>
      </trkpt>
      <trkpt lat="46.7044" lon="5.62766">
        <ele>265.2</ele>
        <time>2023-09-03T10:07:50Z</time>
      </trkpt>
      <trkpt lat="46.70438" lon="5.62764">
        <ele>264.8</ele>
        <time>2023-09-03T10:07:51Z</time>
      </trkpt>
      <trkpt lat="46.70436" lon="5.62761">
        <ele>264.8</ele>
        <time>2023-09-03T10:07:52Z</time>
      </trkpt>
      <trkpt lat="46.70435" lon="5.6276">
        <ele>264.8</ele>
        <time>2023-09-03T10:07:53Z</time>
      </trkpt>
      <trkpt lat="46.70433" lon="5.62758">
        <ele>264.8</ele>
        <time>2023-09-03T10:07:54Z</time>
      </trkpt>
      <trkpt lat="46.70431" lon="5.62756">
        <ele>265.4</ele>
        <time>2023-09-03T10:07:55Z</time>
      </trkpt>
      <trkpt lat="46.7043" lon="5.62754">
        <ele>265.4</ele>
        <time>2023-09-03T10:07:56Z</time>
      </trkpt>
      <trkpt lat="46.70428" lon="5.62752">
        <ele>265.4</ele>
        <time>2023-09-03T10:07:57Z</time>
      </trkpt>
      <trkpt lat="46.70425" lon="5.6275">
        <ele>265.4</ele>
        <time>2023-09-03T10:07:58Z</time>
      </trkpt>
      <trkpt lat="46.70424" lon="5.62749">
        <ele>265.4</ele>
        <time>2023-09-03T10:07:59Z</time>
      </trkpt>
      <trkpt lat="46.70422" lon="5.62749">
        <ele>266.2</ele>
        <time>2023-09-03T10:08:00Z</time>
      </trkpt>
      <trkpt lat="46.70419" lon="5.62748">
        <ele>266.2</ele>
        <time>2023-09-03T10:08:01Z</time>
      </trkpt>
      <trkpt lat="46.70417" lon="5.62748">
        <ele>266.2</ele>
        <time>2023-09-03T10:08:02Z</time>
      </trkpt>
      <trkpt lat="46.70416" lon="5.62748">
        <ele>266.2</ele>
        <time>2023-09-03T10:08:03Z</time>
      </trkpt>
      <trkpt lat="46.70413" lon="5.62749">
        <ele>266.8</ele>
        <time>2023-09-03T10:08:04Z</time>
      </trkpt>
      <trkpt lat="46.70411" lon="5.62749">
        <ele>266.8</ele>
        <time>2023-09-03T10:08:05Z</time>
      </trkpt>
      <trkpt lat="46.70408" lon="5.6275">
        <ele>267</ele>
        <time>2023-09-03T10:08:06Z</time>
      </trkpt>
      <trkpt lat="46.70407" lon="5.6275">
        <ele>267</ele>
        <time>2023-09-03T10:08:07Z</time>
      </trkpt>
      <trkpt lat="46.70405" lon="5.62752">
        <ele>267</ele>
        <time>2023-09-03T10:08:08Z</time>
      </trkpt>
      <trkpt lat="46.70403" lon="5.62753">
        <ele>267.6</ele>
        <time>2023-09-03T10:08:09Z</time>
      </trkpt>
      <trkpt lat="46.70402" lon="5.62754">
        <ele>268</ele>
        <time>2023-09-03T10:08:10Z</time>
      </trkpt>
      <trkpt lat="46.704" lon="5.62755">
        <ele>268</ele>
        <time>2023-09-03T10:08:11Z</time>
      </trkpt>
      <trkpt lat="46.70398" lon="5.62758">
        <ele>268</ele>
        <time>2023-09-03T10:08:12Z</time>
      </trkpt>
      <trkpt lat="46.70396" lon="5.62761">
        <ele>268.6</ele>
        <time>2023-09-03T10:08:13Z</time>
      </trkpt>
      <trkpt lat="46.70393" lon="5.62765">
        <ele>268.6</ele>
        <time>2023-09-03T10:08:14Z</time>
      </trkpt>
      <trkpt lat="46.70393" lon="5.62767">
        <ele>269</ele>
        <time>2023-09-03T10:08:15Z</time>
      </trkpt>
      <trkpt lat="46.70391" lon="5.62769">
        <ele>269</ele>
        <time>2023-09-03T10:08:16Z</time>
      </trkpt>
      <trkpt lat="46.70391" lon="5.62771">
        <ele>269</ele>
        <time>2023-09-03T10:08:17Z</time>
      </trkpt>
      <trkpt lat="46.7039" lon="5.62773">
        <ele>270</ele>
        <time>2023-09-03T10:08:18Z</time>
      </trkpt>
      <trkpt lat="46.7039" lon="5.62775">
        <ele>270.4</ele>
        <time>2023-09-03T10:08:19Z</time>
      </trkpt>
      <trkpt lat="46.70389" lon="5.62777">
        <ele>270.4</ele>
        <time>2023-09-03T10:08:20Z</time>
      </trkpt>
      <trkpt lat="46.70388" lon="5.62779">
        <ele>270.4</ele>
        <time>2023-09-03T10:08:21Z</time>
      </trkpt>
      <trkpt lat="46.70387" lon="5.62783">
        <ele>271.4</ele>
        <time>2023-09-03T10:08:22Z</time>
      </trkpt>
      <trkpt lat="46.70387" lon="5.62784">
        <ele>272</ele>
        <time>2023-09-03T10:08:23Z</time>
      </trkpt>
      <trkpt lat="46.70385" lon="5.62788">
        <ele>272</ele>
        <time>2023-09-03T10:08:24Z</time>
      </trkpt>
      <trkpt lat="46.70385" lon="5.6279">
        <ele>272</ele>
        <time>2023-09-03T10:08:25Z</time>
      </trkpt>
      <trkpt lat="46.70384" lon="5.62793">
        <ele>272.8</ele>
        <time>2023-09-03T10:08:26Z</time>
      </trkpt>
      <trkpt lat="46.70383" lon="5.62796">
        <ele>273.4</ele>
        <time>2023-09-03T10:08:27Z</time>
      </trkpt>
      <trkpt lat="46.70381" lon="5.628">
        <ele>273.4</ele>
        <time>2023-09-03T10:08:28Z</time>
      </trkpt>
      <trkpt lat="46.7038" lon="5.62802">
        <ele>273.4</ele>
        <time>2023-09-03T10:08:29Z</time>
      </trkpt>
      <trkpt lat="46.70379" lon="5.62804">
        <ele>273.4</ele>
        <time>2023-09-03T10:08:30Z</time>
      </trkpt>
      <trkpt lat="46.70376" lon="5.62807">
        <ele>274.4</ele>
        <time>2023-09-03T10:08:31Z</time>
      </trkpt>
      <trkpt lat="46.70375" lon="5.62808">
        <ele>274.8</ele>
        <time>2023-09-03T10:08:32Z</time>
      </trkpt>
      <trkpt lat="46.70372" lon="5.62811">
        <ele>274.8</ele>
        <time>2023-09-03T10:08:33Z</time>
      </trkpt>
      <trkpt lat="46.70371" lon="5.62814">
        <ele>274.8</ele>
        <time>2023-09-03T10:08:34Z</time>
      </trkpt>
      <trkpt lat="46.70369" lon="5.62817">
        <ele>275.6</ele>
        <time>2023-09-03T10:08:35Z</time>
      </trkpt>
      <trkpt lat="46.70368" lon="5.62819">
        <ele>276.2</ele>
        <time>2023-09-03T10:08:36Z</time>
      </trkpt>
      <trkpt lat="46.70366" lon="5.62822">
        <ele>276.2</ele>
        <time>2023-09-03T10:08:37Z</time>
      </trkpt>
      <trkpt lat="46.70364" lon="5.62825">
        <ele>276.2</ele>
        <time>2023-09-03T10:08:38Z</time>
      </trkpt>
      <trkpt lat="46.70362" lon="5.62827">
        <ele>276.2</ele>
        <time>2023-09-03T10:08:39Z</time>
      </trkpt>
      <trkpt lat="46.70361" lon="5.6283">
        <ele>277.2</ele>
        <time>2023-09-03T10:08:40Z</time>
      </trkpt>
      <trkpt lat="46.70359" lon="5.62832">
        <ele>277.2</ele>
        <time>2023-09-03T10:08:41Z</time>
      </trkpt>
      <trkpt lat="46.70357" lon="5.62834">
        <ele>277.8</ele>
        <time>2023-09-03T10:08:42Z</time>
      </trkpt>
      <trkpt lat="46.70354" lon="5.62837">
        <ele>277.8</ele>
        <time>2023-09-03T10:08:43Z</time>
      </trkpt>
      <trkpt lat="46.70353" lon="5.62838">
        <ele>277.8</ele>
        <time>2023-09-03T10:08:44Z</time>
      </trkpt>
      <trkpt lat="46.70351" lon="5.62839">
        <ele>278.8</ele>
        <time>2023-09-03T10:08:45Z</time>
      </trkpt>
      <trkpt lat="46.70349" lon="5.62841">
        <ele>279</ele>
        <time>2023-09-03T10:08:46Z</time>
      </trkpt>
      <trkpt lat="46.70347" lon="5.62843">
        <ele>279</ele>
        <time>2023-09-03T10:08:47Z</time>
      </trkpt>
      <trkpt lat="46.70345" lon="5.62844">
        <ele>279</ele>
        <time>2023-09-03T10:08:48Z</time>
      </trkpt>
      <trkpt lat="46.70342" lon="5.62846">
        <ele>280</ele>
        <time>2023-09-03T10:08:49Z</time>
      </trkpt>
      <trkpt lat="46.70341" lon="5.62846">
        <ele>280.4</ele>
        <time>2023-09-03T10:08:50Z</time>
      </trkpt>
      <trkpt lat="46.70339" lon="5.62847">
        <ele>280.4</ele>
        <time>2023-09-03T10:08:51Z</time>
      </trkpt>
      <trkpt lat="46.70335" lon="5.62849">
        <ele>280.4</ele>
        <time>2023-09-03T10:08:52Z</time>
      </trkpt>
      <trkpt lat="46.70334" lon="5.6285">
        <ele>280.4</ele>
        <time>2023-09-03T10:08:53Z</time>
      </trkpt>
      <trkpt lat="46.70332" lon="5.6285">
        <ele>281.2</ele>
        <time>2023-09-03T10:08:54Z</time>
      </trkpt>
      <trkpt lat="46.7033" lon="5.62851">
        <ele>281.6</ele>
        <time>2023-09-03T10:08:55Z</time>
      </trkpt>
      <trkpt lat="46.70328" lon="5.62852">
        <ele>281.6</ele>
        <time>2023-09-03T10:08:56Z</time>
      </trkpt>
      <trkpt lat="46.70326" lon="5.62852">
        <ele>281.6</ele>
        <time>2023-09-03T10:08:57Z</time>
      </trkpt>
      <trkpt lat="46.70323" lon="5.62853">
        <ele>282.4</ele>
        <time>2023-09-03T10:08:58Z</time>
      </trkpt>
      <trkpt lat="46.7032" lon="5.62853">
        <ele>282.6</ele>
        <time>2023-09-03T10:08:59Z</time>
      </trkpt>
      <trkpt lat="46.70318" lon="5.62853">
        <ele>282.6</ele>
        <time>2023-09-03T10:09:00Z</time>
      </trkpt>
      <trkpt lat="46.70316" lon="5.62853">
        <ele>282.6</ele>
        <time>2023-09-03T10:09:01Z</time>
      </trkpt>
      <trkpt lat="46.70314" lon="5.62853">
        <ele>282.6</ele>
        <time>2023-09-03T10:09:02Z</time>
      </trkpt>
      <trkpt lat="46.70311" lon="5.62853">
        <ele>283.2</ele>
        <time>2023-09-03T10:09:03Z</time>
      </trkpt>
      <trkpt lat="46.70307" lon="5.62853">
        <ele>283.4</ele>
        <time>2023-09-03T10:09:04Z</time>
      </trkpt>
      <trkpt lat="46.70306" lon="5.62853">
        <ele>283.4</ele>
        <time>2023-09-03T10:09:05Z</time>
      </trkpt>
      <trkpt lat="46.70302" lon="5.62852">
        <ele>283.4</ele>
        <time>2023-09-03T10:09:06Z</time>
      </trkpt>
      <trkpt lat="46.70301" lon="5.62852">
        <ele>283.4</ele>
        <time>2023-09-03T10:09:07Z</time>
      </trkpt>
      <trkpt lat="46.70297" lon="5.62852">
        <ele>284.2</ele>
        <time>2023-09-03T10:09:08Z</time>
      </trkpt>
      <trkpt lat="46.70296" lon="5.62852">
        <ele>284.2</ele>
        <time>2023-09-03T10:09:09Z</time>
      </trkpt>
      <trkpt lat="46.70292" lon="5.62851">
        <ele>284.2</ele>
        <time>2023-09-03T10:09:10Z</time>
      </trkpt>
      <trkpt lat="46.70291" lon="5.62851">
        <ele>284.8</ele>
        <time>2023-09-03T10:09:11Z</time>
      </trkpt>
      <trkpt lat="46.70288" lon="5.62851">
        <ele>284.8</ele>
        <time>2023-09-03T10:09:12Z</time>
      </trkpt>
      <trkpt lat="46.70285" lon="5.62849">
        <ele>284.8</ele>
        <time>2023-09-03T10:09:13Z</time>
      </trkpt>
      <trkpt lat="46.70284" lon="5.62849">
        <ele>284.8</ele>
        <time>2023-09-03T10:09:14Z</time>
      </trkpt>
      <trkpt lat="46.70282" lon="5.62848">
        <ele>285.6</ele>
        <time>2023-09-03T10:09:15Z</time>
      </trkpt>
      <trkpt lat="46.7028" lon="5.62847">
        <ele>285.6</ele>
        <time>2023-09-03T10:09:16Z</time>
      </trkpt>
      <trkpt lat="46.70277" lon="5.62847">
        <ele>286</ele>
        <time>2023-09-03T10:09:17Z</time>
      </trkpt>
      <trkpt lat="46.70275" lon="5.62846">
        <ele>286</ele>
        <time>2023-09-03T10:09:18Z</time>
      </trkpt>
      <trkpt lat="46.70273" lon="5.62846">
        <ele>286</ele>
        <time>2023-09-03T10:09:19Z</time>
      </trkpt>
      <trkpt lat="46.7027" lon="5.62845">
        <ele>286.2</ele>
        <time>2023-09-03T10:09:20Z</time>
      </trkpt>
      <trkpt lat="46.70268" lon="5.62843">
        <ele>286.4</ele>
        <time>2023-09-03T10:09:21Z</time>
      </trkpt>
      <trkpt lat="46.70266" lon="5.62842">
        <ele>286.4</ele>
        <time>2023-09-03T10:09:22Z</time>
      </trkpt>
      <trkpt lat="46.70263" lon="5.6284">
        <ele>286.4</ele>
        <time>2023-09-03T10:09:23Z</time>
      </trkpt>
      <trkpt lat="46.70262" lon="5.62839">
        <ele>286.4</ele>
        <time>2023-09-03T10:09:24Z</time>
      </trkpt>
      <trkpt lat="46.70259" lon="5.62837">
        <ele>286.4</ele>
        <time>2023-09-03T10:09:25Z</time>
      </trkpt>
      <trkpt lat="46.70258" lon="5.62836">
        <ele>287.2</ele>
        <time>2023-09-03T10:09:26Z</time>
      </trkpt>
      <trkpt lat="46.70254" lon="5.62834">
        <ele>287.4</ele>
        <time>2023-09-03T10:09:27Z</time>
      </trkpt>
      <trkpt lat="46.70253" lon="5.62833">
        <ele>287.4</ele>
        <time>2023-09-03T10:09:28Z</time>
      </trkpt>
      <trkpt lat="46.70251" lon="5.62831">
        <ele>287.4</ele>
        <time>2023-09-03T10:09:29Z</time>
      </trkpt>
      <trkpt lat="46.70249" lon="5.62829">
        <ele>287.4</ele>
        <time>2023-09-03T10:09:30Z</time>
      </trkpt>
      <trkpt lat="46.70247" lon="5.62827">
        <ele>287.8</ele>
        <time>2023-09-03T10:09:31Z</time>
      </trkpt>
      <trkpt lat="46.70245" lon="5.62825">
        <ele>287.8</ele>
        <time>2023-09-03T10:09:32Z</time>
      </trkpt>
      <trkpt lat="46.70242" lon="5.62822">
        <ele>287.8</ele>
        <time>2023-09-03T10:09:33Z</time>
      </trkpt>
      <trkpt lat="46.70241" lon="5.62821">
        <ele>287.8</ele>
        <time>2023-09-03T10:09:34Z</time>
      </trkpt>
      <trkpt lat="46.7024" lon="5.62819">
        <ele>287.8</ele>
        <time>2023-09-03T10:09:35Z</time>
      </trkpt>
      <trkpt lat="46.70238" lon="5.62817">
        <ele>287.8</ele>
        <time>2023-09-03T10:09:36Z</time>
      </trkpt>
      <trkpt lat="46.70236" lon="5.62815">
        <ele>287.8</ele>
        <time>2023-09-03T10:09:37Z</time>
      </trkpt>
      <trkpt lat="46.70233" lon="5.62813">
        <ele>287.8</ele>
        <time>2023-09-03T10:09:38Z</time>
      </trkpt>
      <trkpt lat="46.70231" lon="5.62811">
        <ele>287.8</ele>
        <time>2023-09-03T10:09:39Z</time>
      </trkpt>
      <trkpt lat="46.70229" lon="5.6281">
        <ele>287.2</ele>
        <time>2023-09-03T10:09:40Z</time>
      </trkpt>
      <trkpt lat="46.70227" lon="5.62808">
        <ele>287.2</ele>
        <time>2023-09-03T10:09:41Z</time>
      </trkpt>
      <trkpt lat="46.70223" lon="5.62806">
        <ele>287.2</ele>
        <time>2023-09-03T10:09:42Z</time>
      </trkpt>
      <trkpt lat="46.70222" lon="5.62806">
        <ele>287.2</ele>
        <time>2023-09-03T10:09:43Z</time>
      </trkpt>
      <trkpt lat="46.7022" lon="5.62805">
        <ele>287.4</ele>
        <time>2023-09-03T10:09:44Z</time>
      </trkpt>
      <trkpt lat="46.70217" lon="5.62804">
        <ele>287.4</ele>
        <time>2023-09-03T10:09:45Z</time>
      </trkpt>
      <trkpt lat="46.70214" lon="5.62804">
        <ele>287.4</ele>
        <time>2023-09-03T10:09:46Z</time>
      </trkpt>
      <trkpt lat="46.70212" lon="5.62804">
        <ele>287.2</ele>
        <time>2023-09-03T10:09:47Z</time>
      </trkpt>
      <trkpt lat="46.70209" lon="5.62804">
        <ele>287.2</ele>
        <time>2023-09-03T10:09:48Z</time>
      </trkpt>
      <trkpt lat="46.70205" lon="5.62803">
        <ele>287</ele>
        <time>2023-09-03T10:09:49Z</time>
      </trkpt>
      <trkpt lat="46.70204" lon="5.62803">
        <ele>287</ele>
        <time>2023-09-03T10:09:50Z</time>
      </trkpt>
      <trkpt lat="46.702" lon="5.62802">
        <ele>287</ele>
        <time>2023-09-03T10:09:51Z</time>
      </trkpt>
      <trkpt lat="46.70199" lon="5.62802">
        <ele>287.4</ele>
        <time>2023-09-03T10:09:52Z</time>
      </trkpt>
      <trkpt lat="46.70195" lon="5.62802">
        <ele>287.4</ele>
        <time>2023-09-03T10:09:53Z</time>
      </trkpt>
      <trkpt lat="46.70194" lon="5.62802">
        <ele>287.4</ele>
        <time>2023-09-03T10:09:54Z</time>
      </trkpt>
      <trkpt lat="46.7019" lon="5.62802">
        <ele>287.4</ele>
        <time>2023-09-03T10:09:55Z</time>
      </trkpt>
      <trkpt lat="46.70189" lon="5.62802">
        <ele>287.4</ele>
        <time>2023-09-03T10:09:56Z</time>
      </trkpt>
      <trkpt lat="46.70187" lon="5.62802">
        <ele>287.6</ele>
        <time>2023-09-03T10:09:57Z</time>
      </trkpt>
      <trkpt lat="46.70183" lon="5.62802">
        <ele>287.6</ele>
        <time>2023-09-03T10:09:58Z</time>
      </trkpt>
      <trkpt lat="46.70182" lon="5.62801">
        <ele>287.6</ele>
        <time>2023-09-03T10:09:59Z</time>
      </trkpt>
      <trkpt lat="46.7018" lon="5.628">
        <ele>287.6</ele>
        <time>2023-09-03T10:10:00Z</time>
      </trkpt>
      <trkpt lat="46.70177" lon="5.62799">
        <ele>287.6</ele>
        <time>2023-09-03T10:10:01Z</time>
      </trkpt>
      <trkpt lat="46.70175" lon="5.62799">
        <ele>287.8</ele>
        <time>2023-09-03T10:10:02Z</time>
      </trkpt>
      <trkpt lat="46.70171" lon="5.62799">
        <ele>287.8</ele>
        <time>2023-09-03T10:10:03Z</time>
      </trkpt>
      <trkpt lat="46.7017" lon="5.62799">
        <ele>287.8</ele>
        <time>2023-09-03T10:10:04Z</time>
      </trkpt>
      <trkpt lat="46.70166" lon="5.62798">
        <ele>288.2</ele>
        <time>2023-09-03T10:10:05Z</time>
      </trkpt>
      <trkpt lat="46.70164" lon="5.62798">
        <ele>288.2</ele>
        <time>2023-09-03T10:10:06Z</time>
      </trkpt>
      <trkpt lat="46.70162" lon="5.62798">
        <ele>288.4</ele>
        <time>2023-09-03T10:10:07Z</time>
      </trkpt>
      <trkpt lat="46.70159" lon="5.62797">
        <ele>288.4</ele>
        <time>2023-09-03T10:10:08Z</time>
      </trkpt>
      <trkpt lat="46.70158" lon="5.62797">
        <ele>288.4</ele>
        <time>2023-09-03T10:10:09Z</time>
      </trkpt>
      <trkpt lat="46.70156" lon="5.62797">
        <ele>288.8</ele>
        <time>2023-09-03T10:10:10Z</time>
      </trkpt>
      <trkpt lat="46.70153" lon="5.62796">
        <ele>288.8</ele>
        <time>2023-09-03T10:10:11Z</time>
      </trkpt>
      <trkpt lat="46.7015" lon="5.62796">
        <ele>289.2</ele>
        <time>2023-09-03T10:10:12Z</time>
      </trkpt>
      <trkpt lat="46.70148" lon="5.62796">
        <ele>289.2</ele>
        <time>2023-09-03T10:10:13Z</time>
      </trkpt>
      <trkpt lat="46.70146" lon="5.62795">
        <ele>289.2</ele>
        <time>2023-09-03T10:10:14Z</time>
      </trkpt>
      <trkpt lat="46.70144" lon="5.62795">
        <ele>289.8</ele>
        <time>2023-09-03T10:10:15Z</time>
      </trkpt>
      <trkpt lat="46.70141" lon="5.62796">
        <ele>290</ele>
        <time>2023-09-03T10:10:16Z</time>
      </trkpt>
      <trkpt lat="46.70139" lon="5.62797">
        <ele>290</ele>
        <time>2023-09-03T10:10:17Z</time>
      </trkpt>
      <trkpt lat="46.70137" lon="5.62798">
        <ele>290</ele>
        <time>2023-09-03T10:10:18Z</time>
      </trkpt>
      <trkpt lat="46.70134" lon="5.62799">
        <ele>290.6</ele>
        <time>2023-09-03T10:10:19Z</time>
      </trkpt>
      <trkpt lat="46.70132" lon="5.62799">
        <ele>291</ele>
        <time>2023-09-03T10:10:20Z</time>
      </trkpt>
      <trkpt lat="46.7013" lon="5.62799">
        <ele>291</ele>
        <time>2023-09-03T10:10:21Z</time>
      </trkpt>
      <trkpt lat="46.70127" lon="5.628">
        <ele>291</ele>
        <time>2023-09-03T10:10:22Z</time>
      </trkpt>
      <trkpt lat="46.70125" lon="5.62799">
        <ele>291.8</ele>
        <time>2023-09-03T10:10:23Z</time>
      </trkpt>
      <trkpt lat="46.70122" lon="5.62799">
        <ele>292</ele>
        <time>2023-09-03T10:10:24Z</time>
      </trkpt>
      <trkpt lat="46.70121" lon="5.62799">
        <ele>292</ele>
        <time>2023-09-03T10:10:25Z</time>
      </trkpt>
      <trkpt lat="46.70118" lon="5.62799">
        <ele>292</ele>
        <time>2023-09-03T10:10:26Z</time>
      </trkpt>
      <trkpt lat="46.70116" lon="5.62798">
        <ele>292</ele>
        <time>2023-09-03T10:10:27Z</time>
      </trkpt>
      <trkpt lat="46.70114" lon="5.62797">
        <ele>292.8</ele>
        <time>2023-09-03T10:10:28Z</time>
      </trkpt>
      <trkpt lat="46.7011" lon="5.62796">
        <ele>293.2</ele>
        <time>2023-09-03T10:10:29Z</time>
      </trkpt>
      <trkpt lat="46.70109" lon="5.62795">
        <ele>293.2</ele>
        <time>2023-09-03T10:10:30Z</time>
      </trkpt>
      <trkpt lat="46.70107" lon="5.62794">
        <ele>293.2</ele>
        <time>2023-09-03T10:10:31Z</time>
      </trkpt>
      <trkpt lat="46.70105" lon="5.62793">
        <ele>293.2</ele>
        <time>2023-09-03T10:10:32Z</time>
      </trkpt>
      <trkpt lat="46.70103" lon="5.62792">
        <ele>294</ele>
        <time>2023-09-03T10:10:33Z</time>
      </trkpt>
      <trkpt lat="46.70102" lon="5.62792">
        <ele>294</ele>
        <time>2023-09-03T10:10:34Z</time>
      </trkpt>
      <trkpt lat="46.701" lon="5.6279">
        <ele>294</ele>
        <time>2023-09-03T10:10:35Z</time>
      </trkpt>
      <trkpt lat="46.70099" lon="5.62789">
        <ele>294.8</ele>
        <time>2023-09-03T10:10:36Z</time>
      </trkpt>
      <trkpt lat="46.70095" lon="5.62787">
        <ele>295.4</ele>
        <time>2023-09-03T10:10:37Z</time>
      </trkpt>
      <trkpt lat="46.70094" lon="5.62787">
        <ele>295.4</ele>
        <time>2023-09-03T10:10:38Z</time>
      </trkpt>
      <trkpt lat="46.7009" lon="5.62785">
        <ele>295.4</ele>
        <time>2023-09-03T10:10:39Z</time>
      </trkpt>
      <trkpt lat="46.70089" lon="5.62785">
        <ele>295.4</ele>
        <time>2023-09-03T10:10:40Z</time>
      </trkpt>
      <trkpt lat="46.70087" lon="5.62783">
        <ele>296.4</ele>
        <time>2023-09-03T10:10:41Z</time>
      </trkpt>
      <trkpt lat="46.70084" lon="5.62783">
        <ele>296.6</ele>
        <time>2023-09-03T10:10:42Z</time>
      </trkpt>
      <trkpt lat="46.70081" lon="5.62782">
        <ele>296.6</ele>
        <time>2023-09-03T10:10:43Z</time>
      </trkpt>
      <trkpt lat="46.70079" lon="5.62782">
        <ele>296.6</ele>
        <time>2023-09-03T10:10:44Z</time>
      </trkpt>
      <trkpt lat="46.70075" lon="5.62781">
        <ele>296.6</ele>
        <time>2023-09-03T10:10:45Z</time>
      </trkpt>
      <trkpt lat="46.70073" lon="5.62781">
        <ele>297.6</ele>
        <time>2023-09-03T10:10:46Z</time>
      </trkpt>
      <trkpt lat="46.70071" lon="5.62781">
        <ele>297.6</ele>
        <time>2023-09-03T10:10:47Z</time>
      </trkpt>
      <trkpt lat="46.70069" lon="5.6278">
        <ele>297.6</ele>
        <time>2023-09-03T10:10:48Z</time>
      </trkpt>
      <trkpt lat="46.70066" lon="5.6278">
        <ele>297.6</ele>
        <time>2023-09-03T10:10:49Z</time>
      </trkpt>
      <trkpt lat="46.70063" lon="5.62781">
        <ele>297.6</ele>
        <time>2023-09-03T10:10:50Z</time>
      </trkpt>
      <trkpt lat="46.70061" lon="5.62781">
        <ele>298.2</ele>
        <time>2023-09-03T10:10:51Z</time>
      </trkpt>
      <trkpt lat="46.70059" lon="5.62781">
        <ele>298.8</ele>
        <time>2023-09-03T10:10:52Z</time>
      </trkpt>
      <trkpt lat="46.70056" lon="5.62781">
        <ele>298.8</ele>
        <time>2023-09-03T10:10:53Z</time>
      </trkpt>
      <trkpt lat="46.70054" lon="5.62782">
        <ele>298.8</ele>
        <time>2023-09-03T10:10:54Z</time>
      </trkpt>
      <trkpt lat="46.70051" lon="5.62782">
        <ele>299.8</ele>
        <time>2023-09-03T10:10:55Z</time>
      </trkpt>
      <trkpt lat="46.70049" lon="5.62783">
        <ele>299.8</ele>
        <time>2023-09-03T10:10:56Z</time>
      </trkpt>
      <trkpt lat="46.70047" lon="5.62783">
        <ele>299.8</ele>
        <time>2023-09-03T10:10:57Z</time>
      </trkpt>
      <trkpt lat="46.70044" lon="5.62782">
        <ele>299.8</ele>
        <time>2023-09-03T10:10:58Z</time>
      </trkpt>
      <trkpt lat="46.70042" lon="5.62782">
        <ele>299.8</ele>
        <time>2023-09-03T10:10:59Z</time>
      </trkpt>
      <trkpt lat="46.7004" lon="5.62782">
        <ele>300.8</ele>
        <time>2023-09-03T10:11:00Z</time>
      </trkpt>
      <trkpt lat="46.70036" lon="5.62782">
        <ele>301.4</ele>
        <time>2023-09-03T10:11:01Z</time>
      </trkpt>
      <trkpt lat="46.70035" lon="5.62782">
        <ele>301.4</ele>
        <time>2023-09-03T10:11:02Z</time>
      </trkpt>
      <trkpt lat="46.70032" lon="5.62782">
        <ele>301.4</ele>
        <time>2023-09-03T10:11:03Z</time>
      </trkpt>
      <trkpt lat="46.70029" lon="5.62781">
        <ele>302.2</ele>
        <time>2023-09-03T10:11:04Z</time>
      </trkpt>
      <trkpt lat="46.70027" lon="5.62781">
        <ele>302.4</ele>
        <time>2023-09-03T10:11:05Z</time>
      </trkpt>
      <trkpt lat="46.70024" lon="5.6278">
        <ele>302.4</ele>
        <time>2023-09-03T10:11:06Z</time>
      </trkpt>
      <trkpt lat="46.70022" lon="5.62779">
        <ele>302.4</ele>
        <time>2023-09-03T10:11:07Z</time>
      </trkpt>
      <trkpt lat="46.70019" lon="5.62777">
        <ele>303.4</ele>
        <time>2023-09-03T10:11:08Z</time>
      </trkpt>
      <trkpt lat="46.70017" lon="5.62775">
        <ele>303.4</ele>
        <time>2023-09-03T10:11:09Z</time>
      </trkpt>
      <trkpt lat="46.70014" lon="5.62773">
        <ele>303.6</ele>
        <time>2023-09-03T10:11:10Z</time>
      </trkpt>
      <trkpt lat="46.70013" lon="5.62772">
        <ele>303.6</ele>
        <time>2023-09-03T10:11:11Z</time>
      </trkpt>
      <trkpt lat="46.70009" lon="5.62769">
        <ele>303.6</ele>
        <time>2023-09-03T10:11:12Z</time>
      </trkpt>
      <trkpt lat="46.70008" lon="5.62768">
        <ele>303.6</ele>
        <time>2023-09-03T10:11:13Z</time>
      </trkpt>
      <trkpt lat="46.70005" lon="5.62766">
        <ele>304.4</ele>
        <time>2023-09-03T10:11:14Z</time>
      </trkpt>
      <trkpt lat="46.70004" lon="5.62765">
        <ele>304.4</ele>
        <time>2023-09-03T10:11:15Z</time>
      </trkpt>
      <trkpt lat="46.7" lon="5.62763">
        <ele>304.4</ele>
        <time>2023-09-03T10:11:16Z</time>
      </trkpt>
      <trkpt lat="46.69999" lon="5.62763">
        <ele>304.4</ele>
        <time>2023-09-03T10:11:17Z</time>
      </trkpt>
      <trkpt lat="46.69996" lon="5.62763">
        <ele>305</ele>
        <time>2023-09-03T10:11:18Z</time>
      </trkpt>
      <trkpt lat="46.69995" lon="5.62763">
        <ele>305</ele>
        <time>2023-09-03T10:11:19Z</time>
      </trkpt>
      <trkpt lat="46.69992" lon="5.62763">
        <ele>305</ele>
        <time>2023-09-03T10:11:20Z</time>
      </trkpt>
      <trkpt lat="46.69991" lon="5.62764">
        <ele>305</ele>
        <time>2023-09-03T10:11:21Z</time>
      </trkpt>
      <trkpt lat="46.69989" lon="5.62765">
        <ele>305.2</ele>
        <time>2023-09-03T10:11:22Z</time>
      </trkpt>
      <trkpt lat="46.69986" lon="5.62766">
        <ele>305.8</ele>
        <time>2023-09-03T10:11:23Z</time>
      </trkpt>
      <trkpt lat="46.69985" lon="5.62767">
        <ele>305.8</ele>
        <time>2023-09-03T10:11:24Z</time>
      </trkpt>
      <trkpt lat="46.69982" lon="5.62768">
        <ele>305.8</ele>
        <time>2023-09-03T10:11:25Z</time>
      </trkpt>
      <trkpt lat="46.6998" lon="5.62769">
        <ele>306.2</ele>
        <time>2023-09-03T10:11:26Z</time>
      </trkpt>
      <trkpt lat="46.69978" lon="5.6277">
        <ele>306.2</ele>
        <time>2023-09-03T10:11:27Z</time>
      </trkpt>
      <trkpt lat="46.69976" lon="5.62771">
        <ele>306.4</ele>
        <time>2023-09-03T10:11:28Z</time>
      </trkpt>
      <trkpt lat="46.69973" lon="5.62772">
        <ele>306.4</ele>
        <time>2023-09-03T10:11:29Z</time>
      </trkpt>
      <trkpt lat="46.69971" lon="5.62772">
        <ele>306.4</ele>
        <time>2023-09-03T10:11:30Z</time>
      </trkpt>
      <trkpt lat="46.69967" lon="5.62772">
        <ele>306.4</ele>
        <time>2023-09-03T10:11:31Z</time>
      </trkpt>
      <trkpt lat="46.69966" lon="5.62772">
        <ele>306.8</ele>
        <time>2023-09-03T10:11:32Z</time>
      </trkpt>
      <trkpt lat="46.69962" lon="5.62772">
        <ele>307</ele>
        <time>2023-09-03T10:11:33Z</time>
      </trkpt>
      <trkpt lat="46.69961" lon="5.62772">
        <ele>307</ele>
        <time>2023-09-03T10:11:34Z</time>
      </trkpt>
      <trkpt lat="46.69957" lon="5.62771">
        <ele>307</ele>
        <time>2023-09-03T10:11:35Z</time>
      </trkpt>
      <trkpt lat="46.69956" lon="5.62771">
        <ele>307</ele>
        <time>2023-09-03T10:11:36Z</time>
      </trkpt>
      <trkpt lat="46.69954" lon="5.62771">
        <ele>307.6</ele>
        <time>2023-09-03T10:11:37Z</time>
      </trkpt>
      <trkpt lat="46.69951" lon="5.6277">
        <ele>307.6</ele>
        <time>2023-09-03T10:11:38Z</time>
      </trkpt>
      <trkpt lat="46.69948" lon="5.62769">
        <ele>307.6</ele>
        <time>2023-09-03T10:11:39Z</time>
      </trkpt>
      <trkpt lat="46.69947" lon="5.62768">
        <ele>307.6</ele>
        <time>2023-09-03T10:11:40Z</time>
      </trkpt>
      <trkpt lat="46.69944" lon="5.62767">
        <ele>307.6</ele>
        <time>2023-09-03T10:11:41Z</time>
      </trkpt>
      <trkpt lat="46.69941" lon="5.62766">
        <ele>307.8</ele>
        <time>2023-09-03T10:11:42Z</time>
      </trkpt>
      <trkpt lat="46.6994" lon="5.62765">
        <ele>307.8</ele>
        <time>2023-09-03T10:11:43Z</time>
      </trkpt>
      <trkpt lat="46.69938" lon="5.62765">
        <ele>307.8</ele>
        <time>2023-09-03T10:11:44Z</time>
      </trkpt>
      <trkpt lat="46.69936" lon="5.62764">
        <ele>307.8</ele>
        <time>2023-09-03T10:11:45Z</time>
      </trkpt>
      <trkpt lat="46.69933" lon="5.62763">
        <ele>308</ele>
        <time>2023-09-03T10:11:46Z</time>
      </trkpt>
      <trkpt lat="46.69931" lon="5.62763">
        <ele>308</ele>
        <time>2023-09-03T10:11:47Z</time>
      </trkpt>
      <trkpt lat="46.69929" lon="5.62762">
        <ele>308</ele>
        <time>2023-09-03T10:11:48Z</time>
      </trkpt>
      <trkpt lat="46.69925" lon="5.62762">
        <ele>308</ele>
        <time>2023-09-03T10:11:49Z</time>
      </trkpt>
      <trkpt lat="46.69924" lon="5.62761">
        <ele>308.4</ele>
        <time>2023-09-03T10:11:50Z</time>
      </trkpt>
      <trkpt lat="46.69922" lon="5.62761">
        <ele>308.4</ele>
        <time>2023-09-03T10:11:51Z</time>
      </trkpt>
      <trkpt lat="46.69918" lon="5.62761">
        <ele>308.4</ele>
        <time>2023-09-03T10:11:52Z</time>
      </trkpt>
      <trkpt lat="46.69917" lon="5.62761">
        <ele>308.4</ele>
        <time>2023-09-03T10:11:53Z</time>
      </trkpt>
      <trkpt lat="46.69913" lon="5.62761">
        <ele>308.6</ele>
        <time>2023-09-03T10:11:54Z</time>
      </trkpt>
      <trkpt lat="46.69912" lon="5.62761">
        <ele>309.2</ele>
        <time>2023-09-03T10:11:55Z</time>
      </trkpt>
      <trkpt lat="46.69909" lon="5.62761">
        <ele>309.2</ele>
        <time>2023-09-03T10:11:56Z</time>
      </trkpt>
      <trkpt lat="46.69908" lon="5.62761">
        <ele>309.2</ele>
        <time>2023-09-03T10:11:57Z</time>
      </trkpt>
      <trkpt lat="46.69905" lon="5.62762">
        <ele>309.8</ele>
        <time>2023-09-03T10:11:58Z</time>
      </trkpt>
      <trkpt lat="46.69904" lon="5.62762">
        <ele>309.8</ele>
        <time>2023-09-03T10:11:59Z</time>
      </trkpt>
      <trkpt lat="46.699" lon="5.62763">
        <ele>310</ele>
        <time>2023-09-03T10:12:00Z</time>
      </trkpt>
      <trkpt lat="46.69899" lon="5.62764">
        <ele>310</ele>
        <time>2023-09-03T10:12:01Z</time>
      </trkpt>
      <trkpt lat="46.69897" lon="5.62765">
        <ele>310</ele>
        <time>2023-09-03T10:12:02Z</time>
      </trkpt>
      <trkpt lat="46.69896" lon="5.62765">
        <ele>310</ele>
        <time>2023-09-03T10:12:03Z</time>
      </trkpt>
      <trkpt lat="46.69892" lon="5.62766">
        <ele>310.6</ele>
        <time>2023-09-03T10:12:04Z</time>
      </trkpt>
      <trkpt lat="46.69891" lon="5.62766">
        <ele>310.6</ele>
        <time>2023-09-03T10:12:05Z</time>
      </trkpt>
      <trkpt lat="46.69889" lon="5.62767">
        <ele>310.6</ele>
        <time>2023-09-03T10:12:06Z</time>
      </trkpt>
      <trkpt lat="46.69888" lon="5.62768">
        <ele>311.6</ele>
        <time>2023-09-03T10:12:07Z</time>
      </trkpt>
      <trkpt lat="46.69886" lon="5.62769">
        <ele>311.8</ele>
        <time>2023-09-03T10:12:08Z</time>
      </trkpt>
      <trkpt lat="46.69884" lon="5.6277">
        <ele>311.8</ele>
        <time>2023-09-03T10:12:09Z</time>
      </trkpt>
      <trkpt lat="46.69882" lon="5.62771">
        <ele>311.8</ele>
        <time>2023-09-03T10:12:10Z</time>
      </trkpt>
      <trkpt lat="46.6988" lon="5.62773">
        <ele>311.8</ele>
        <time>2023-09-03T10:12:11Z</time>
      </trkpt>
      <trkpt lat="46.69878" lon="5.62775">
        <ele>312.8</ele>
        <time>2023-09-03T10:12:12Z</time>
      </trkpt>
      <trkpt lat="46.69876" lon="5.62776">
        <ele>312.8</ele>
        <time>2023-09-03T10:12:13Z</time>
      </trkpt>
      <trkpt lat="46.69873" lon="5.62778">
        <ele>313</ele>
        <time>2023-09-03T10:12:14Z</time>
      </trkpt>
      <trkpt lat="46.69872" lon="5.62779">
        <ele>313</ele>
        <time>2023-09-03T10:12:15Z</time>
      </trkpt>
      <trkpt lat="46.6987" lon="5.62781">
        <ele>313</ele>
        <time>2023-09-03T10:12:16Z</time>
      </trkpt>
      <trkpt lat="46.69868" lon="5.62783">
        <ele>313</ele>
        <time>2023-09-03T10:12:17Z</time>
      </trkpt>
      <trkpt lat="46.69866" lon="5.62786">
        <ele>313.2</ele>
        <time>2023-09-03T10:12:18Z</time>
      </trkpt>
      <trkpt lat="46.69866" lon="5.62787">
        <ele>313.2</ele>
        <time>2023-09-03T10:12:19Z</time>
      </trkpt>
      <trkpt lat="46.69864" lon="5.62789">
        <ele>313.2</ele>
        <time>2023-09-03T10:12:20Z</time>
      </trkpt>
      <trkpt lat="46.69862" lon="5.62791">
        <ele>313.2</ele>
        <time>2023-09-03T10:12:21Z</time>
      </trkpt>
      <trkpt lat="46.69861" lon="5.62793">
        <ele>314</ele>
        <time>2023-09-03T10:12:22Z</time>
      </trkpt>
      <trkpt lat="46.6986" lon="5.62796">
        <ele>314</ele>
        <time>2023-09-03T10:12:23Z</time>
      </trkpt>
      <trkpt lat="46.69858" lon="5.62798">
        <ele>314</ele>
        <time>2023-09-03T10:12:24Z</time>
      </trkpt>
      <trkpt lat="46.69856" lon="5.62802">
        <ele>314</ele>
        <time>2023-09-03T10:12:25Z</time>
      </trkpt>
      <trkpt lat="46.69856" lon="5.62804">
        <ele>314.4</ele>
        <time>2023-09-03T10:12:26Z</time>
      </trkpt>
      <trkpt lat="46.69854" lon="5.62808">
        <ele>314.4</ele>
        <time>2023-09-03T10:12:27Z</time>
      </trkpt>
      <trkpt lat="46.69853" lon="5.62809">
        <ele>314.4</ele>
        <time>2023-09-03T10:12:28Z</time>
      </trkpt>
      <trkpt lat="46.69852" lon="5.62811">
        <ele>314.4</ele>
        <time>2023-09-03T10:12:29Z</time>
      </trkpt>
      <trkpt lat="46.6985" lon="5.62813">
        <ele>314.8</ele>
        <time>2023-09-03T10:12:30Z</time>
      </trkpt>
      <trkpt lat="46.69849" lon="5.62815">
        <ele>315</ele>
        <time>2023-09-03T10:12:31Z</time>
      </trkpt>
      <trkpt lat="46.69848" lon="5.62817">
        <ele>315</ele>
        <time>2023-09-03T10:12:32Z</time>
      </trkpt>
      <trkpt lat="46.69847" lon="5.62819">
        <ele>315</ele>
        <time>2023-09-03T10:12:33Z</time>
      </trkpt>
      <trkpt lat="46.69846" lon="5.62821">
        <ele>315</ele>
        <time>2023-09-03T10:12:34Z</time>
      </trkpt>
      <trkpt lat="46.69845" lon="5.62823">
        <ele>315</ele>
        <time>2023-09-03T10:12:35Z</time>
      </trkpt>
      <trkpt lat="46.69843" lon="5.62826">
        <ele>314.8</ele>
        <time>2023-09-03T10:12:36Z</time>
      </trkpt>
      <trkpt lat="46.69842" lon="5.62828">
        <ele>314.8</ele>
        <time>2023-09-03T10:12:37Z</time>
      </trkpt>
      <trkpt lat="46.6984" lon="5.62831">
        <ele>314.8</ele>
        <time>2023-09-03T10:12:38Z</time>
      </trkpt>
      <trkpt lat="46.69839" lon="5.62832">
        <ele>315</ele>
        <time>2023-09-03T10:12:39Z</time>
      </trkpt>
      <trkpt lat="46.69837" lon="5.62835">
        <ele>315</ele>
        <time>2023-09-03T10:12:40Z</time>
      </trkpt>
      <trkpt lat="46.69836" lon="5.62836">
        <ele>315</ele>
        <time>2023-09-03T10:12:41Z</time>
      </trkpt>
      <trkpt lat="46.69833" lon="5.62839">
        <ele>315</ele>
        <time>2023-09-03T10:12:42Z</time>
      </trkpt>
      <trkpt lat="46.69833" lon="5.6284">
        <ele>315.6</ele>
        <time>2023-09-03T10:12:43Z</time>
      </trkpt>
      <trkpt lat="46.6983" lon="5.62843">
        <ele>315.4</ele>
        <time>2023-09-03T10:12:44Z</time>
      </trkpt>
      <trkpt lat="46.69829" lon="5.62844">
        <ele>315.4</ele>
        <time>2023-09-03T10:12:45Z</time>
      </trkpt>
      <trkpt lat="46.69827" lon="5.62845">
        <ele>315.4</ele>
        <time>2023-09-03T10:12:46Z</time>
      </trkpt>
      <trkpt lat="46.69824" lon="5.62846">
        <ele>315.4</ele>
        <time>2023-09-03T10:12:47Z</time>
      </trkpt>
      <trkpt lat="46.69823" lon="5.62847">
        <ele>315.8</ele>
        <time>2023-09-03T10:12:48Z</time>
      </trkpt>
      <trkpt lat="46.69821" lon="5.62848">
        <ele>315.8</ele>
        <time>2023-09-03T10:12:49Z</time>
      </trkpt>
      <trkpt lat="46.69819" lon="5.62848">
        <ele>315.8</ele>
        <time>2023-09-03T10:12:50Z</time>
      </trkpt>
      <trkpt lat="46.69817" lon="5.62849">
        <ele>315.8</ele>
        <time>2023-09-03T10:12:51Z</time>
      </trkpt>
      <trkpt lat="46.69815" lon="5.62849">
        <ele>316</ele>
        <time>2023-09-03T10:12:52Z</time>
      </trkpt>
      <trkpt lat="46.69813" lon="5.6285">
        <ele>316.2</ele>
        <time>2023-09-03T10:12:53Z</time>
      </trkpt>
      <trkpt lat="46.69811" lon="5.6285">
        <ele>316.2</ele>
        <time>2023-09-03T10:12:54Z</time>
      </trkpt>
      <trkpt lat="46.69809" lon="5.6285">
        <ele>316.2</ele>
        <time>2023-09-03T10:12:55Z</time>
      </trkpt>
      <trkpt lat="46.69807" lon="5.6285">
        <ele>316.2</ele>
        <time>2023-09-03T10:12:56Z</time>
      </trkpt>
      <trkpt lat="46.69805" lon="5.62849">
        <ele>316.2</ele>
        <time>2023-09-03T10:12:57Z</time>
      </trkpt>
      <trkpt lat="46.69802" lon="5.62848">
        <ele>316.2</ele>
        <time>2023-09-03T10:12:58Z</time>
      </trkpt>
      <trkpt lat="46.69801" lon="5.62848">
        <ele>316</ele>
        <time>2023-09-03T10:12:59Z</time>
      </trkpt>
      <trkpt lat="46.69798" lon="5.62848">
        <ele>316</ele>
        <time>2023-09-03T10:13:00Z</time>
      </trkpt>
      <trkpt lat="46.69796" lon="5.62847">
        <ele>316</ele>
        <time>2023-09-03T10:13:01Z</time>
      </trkpt>
      <trkpt lat="46.69794" lon="5.62848">
        <ele>316.2</ele>
        <time>2023-09-03T10:13:02Z</time>
      </trkpt>
      <trkpt lat="46.69792" lon="5.62847">
        <ele>316.4</ele>
        <time>2023-09-03T10:13:03Z</time>
      </trkpt>
      <trkpt lat="46.6979" lon="5.62848">
        <ele>316.4</ele>
        <time>2023-09-03T10:13:04Z</time>
      </trkpt>
      <trkpt lat="46.69787" lon="5.62848">
        <ele>316.4</ele>
        <time>2023-09-03T10:13:05Z</time>
      </trkpt>
      <trkpt lat="46.69785" lon="5.62848">
        <ele>316.4</ele>
        <time>2023-09-03T10:13:06Z</time>
      </trkpt>
      <trkpt lat="46.69783" lon="5.62849">
        <ele>316.4</ele>
        <time>2023-09-03T10:13:07Z</time>
      </trkpt>
      <trkpt lat="46.69781" lon="5.62851">
        <ele>317</ele>
        <time>2023-09-03T10:13:08Z</time>
      </trkpt>
      <trkpt lat="46.69779" lon="5.62853">
        <ele>317</ele>
        <time>2023-09-03T10:13:09Z</time>
      </trkpt>
      <trkpt lat="46.69777" lon="5.62855">
        <ele>317</ele>
        <time>2023-09-03T10:13:10Z</time>
      </trkpt>
      <trkpt lat="46.69776" lon="5.62857">
        <ele>317.2</ele>
        <time>2023-09-03T10:13:11Z</time>
      </trkpt>
      <trkpt lat="46.69774" lon="5.6286">
        <ele>317.4</ele>
        <time>2023-09-03T10:13:12Z</time>
      </trkpt>
      <trkpt lat="46.69772" lon="5.62863">
        <ele>317.4</ele>
        <time>2023-09-03T10:13:13Z</time>
      </trkpt>
      <trkpt lat="46.6977" lon="5.62866">
        <ele>317.4</ele>
        <time>2023-09-03T10:13:14Z</time>
      </trkpt>
      <trkpt lat="46.69769" lon="5.62867">
        <ele>317.8</ele>
        <time>2023-09-03T10:13:15Z</time>
      </trkpt>
      <trkpt lat="46.69767" lon="5.62869">
        <ele>317.6</ele>
        <time>2023-09-03T10:13:16Z</time>
      </trkpt>
      <trkpt lat="46.69766" lon="5.62872">
        <ele>317.6</ele>
        <time>2023-09-03T10:13:17Z</time>
      </trkpt>
      <trkpt lat="46.69764" lon="5.62874">
        <ele>317.6</ele>
        <time>2023-09-03T10:13:18Z</time>
      </trkpt>
      <trkpt lat="46.69762" lon="5.62878">
        <ele>317.6</ele>
        <time>2023-09-03T10:13:19Z</time>
      </trkpt>
      <trkpt lat="46.69761" lon="5.62879">
        <ele>317.6</ele>
        <time>2023-09-03T10:13:20Z</time>
      </trkpt>
      <trkpt lat="46.69759" lon="5.62883">
        <ele>317.8</ele>
        <time>2023-09-03T10:13:21Z</time>
      </trkpt>
      <trkpt lat="46.69758" lon="5.62885">
        <ele>317.8</ele>
        <time>2023-09-03T10:13:22Z</time>
      </trkpt>
      <trkpt lat="46.69755" lon="5.62889">
        <ele>317.8</ele>
        <time>2023-09-03T10:13:23Z</time>
      </trkpt>
      <trkpt lat="46.69755" lon="5.62891">
        <ele>318</ele>
        <time>2023-09-03T10:13:24Z</time>
      </trkpt>
      <trkpt lat="46.69753" lon="5.62894">
        <ele>318.4</ele>
        <time>2023-09-03T10:13:25Z</time>
      </trkpt>
      <trkpt lat="46.69752" lon="5.62898">
        <ele>318.4</ele>
        <time>2023-09-03T10:13:26Z</time>
      </trkpt>
      <trkpt lat="46.6975" lon="5.62903">
        <ele>318.4</ele>
        <time>2023-09-03T10:13:27Z</time>
      </trkpt>
      <trkpt lat="46.6975" lon="5.62905">
        <ele>318.2</ele>
        <time>2023-09-03T10:13:28Z</time>
      </trkpt>
      <trkpt lat="46.69749" lon="5.62909">
        <ele>318.4</ele>
        <time>2023-09-03T10:13:29Z</time>
      </trkpt>
      <trkpt lat="46.69748" lon="5.62915">
        <ele>318.4</ele>
        <time>2023-09-03T10:13:30Z</time>
      </trkpt>
      <trkpt lat="46.69748" lon="5.62917">
        <ele>318.4</ele>
        <time>2023-09-03T10:13:31Z</time>
      </trkpt>
      <trkpt lat="46.69747" lon="5.6292">
        <ele>318.4</ele>
        <time>2023-09-03T10:13:32Z</time>
      </trkpt>
      <trkpt lat="46.69745" lon="5.62922">
        <ele>319.2</ele>
        <time>2023-09-03T10:13:33Z</time>
      </trkpt>
      <trkpt lat="46.69743" lon="5.62924">
        <ele>319.2</ele>
        <time>2023-09-03T10:13:34Z</time>
      </trkpt>
      <trkpt lat="46.69742" lon="5.62925">
        <ele>319.2</ele>
        <time>2023-09-03T10:13:35Z</time>
      </trkpt>
      <trkpt lat="46.6974" lon="5.62925">
        <ele>319.2</ele>
        <time>2023-09-03T10:13:36Z</time>
      </trkpt>
      <trkpt lat="46.69738" lon="5.62924">
        <ele>319.2</ele>
        <time>2023-09-03T10:13:37Z</time>
      </trkpt>
      <trkpt lat="46.69736" lon="5.62921">
        <ele>320</ele>
        <time>2023-09-03T10:13:38Z</time>
      </trkpt>
      <trkpt lat="46.69736" lon="5.62915">
        <ele>320.4</ele>
        <time>2023-09-03T10:13:39Z</time>
      </trkpt>
      <trkpt lat="46.69736" lon="5.62913">
        <ele>320.4</ele>
        <time>2023-09-03T10:13:40Z</time>
      </trkpt>
      <trkpt lat="46.69737" lon="5.62907">
        <ele>320.4</ele>
        <time>2023-09-03T10:13:41Z</time>
      </trkpt>
      <trkpt lat="46.69737" lon="5.62905">
        <ele>320.4</ele>
        <time>2023-09-03T10:13:42Z</time>
      </trkpt>
      <trkpt lat="46.69738" lon="5.62898">
        <ele>321</ele>
        <time>2023-09-03T10:13:43Z</time>
      </trkpt>
      <trkpt lat="46.69738" lon="5.62896">
        <ele>321.4</ele>
        <time>2023-09-03T10:13:44Z</time>
      </trkpt>
      <trkpt lat="46.69739" lon="5.62892">
        <ele>321.4</ele>
        <time>2023-09-03T10:13:45Z</time>
      </trkpt>
      <trkpt lat="46.69739" lon="5.62888">
        <ele>321.4</ele>
        <time>2023-09-03T10:13:46Z</time>
      </trkpt>
      <trkpt lat="46.69739" lon="5.62882">
        <ele>321.8</ele>
        <time>2023-09-03T10:13:47Z</time>
      </trkpt>
      <trkpt lat="46.6974" lon="5.62881">
        <ele>322.4</ele>
        <time>2023-09-03T10:13:48Z</time>
      </trkpt>
      <trkpt lat="46.6974" lon="5.62875">
        <ele>322.4</ele>
        <time>2023-09-03T10:13:49Z</time>
      </trkpt>
      <trkpt lat="46.6974" lon="5.62874">
        <ele>322.4</ele>
        <time>2023-09-03T10:13:50Z</time>
      </trkpt>
      <trkpt lat="46.6974" lon="5.6287">
        <ele>322.4</ele>
        <time>2023-09-03T10:13:51Z</time>
      </trkpt>
      <trkpt lat="46.6974" lon="5.62867">
        <ele>322.6</ele>
        <time>2023-09-03T10:13:52Z</time>
      </trkpt>
      <trkpt lat="46.6974" lon="5.62863">
        <ele>322.6</ele>
        <time>2023-09-03T10:13:53Z</time>
      </trkpt>
      <trkpt lat="46.69739" lon="5.6286">
        <ele>322.6</ele>
        <time>2023-09-03T10:13:54Z</time>
      </trkpt>
      <trkpt lat="46.69739" lon="5.62856">
        <ele>322.6</ele>
        <time>2023-09-03T10:13:55Z</time>
      </trkpt>
      <trkpt lat="46.69738" lon="5.62851">
        <ele>323</ele>
        <time>2023-09-03T10:13:56Z</time>
      </trkpt>
      <trkpt lat="46.69738" lon="5.6285">
        <ele>322.8</ele>
        <time>2023-09-03T10:13:57Z</time>
      </trkpt>
      <trkpt lat="46.69738" lon="5.62847">
        <ele>322.8</ele>
        <time>2023-09-03T10:13:58Z</time>
      </trkpt>
      <trkpt lat="46.69738" lon="5.62844">
        <ele>322.8</ele>
        <time>2023-09-03T10:13:59Z</time>
      </trkpt>
      <trkpt lat="46.69738" lon="5.62841">
        <ele>322.8</ele>
        <time>2023-09-03T10:14:00Z</time>
      </trkpt>
      <trkpt lat="46.69737" lon="5.62838">
        <ele>322.8</ele>
        <time>2023-09-03T10:14:01Z</time>
      </trkpt>
      <trkpt lat="46.69736" lon="5.62835">
        <ele>322.8</ele>
        <time>2023-09-03T10:14:02Z</time>
      </trkpt>
      <trkpt lat="46.69735" lon="5.6283">
        <ele>322.8</ele>
        <time>2023-09-03T10:14:03Z</time>
      </trkpt>
      <trkpt lat="46.69735" lon="5.62828">
        <ele>322.8</ele>
        <time>2023-09-03T10:14:04Z</time>
      </trkpt>
      <trkpt lat="46.69734" lon="5.62823">
        <ele>322.8</ele>
        <time>2023-09-03T10:14:05Z</time>
      </trkpt>
      <trkpt lat="46.69734" lon="5.62822">
        <ele>323</ele>
        <time>2023-09-03T10:14:06Z</time>
      </trkpt>
      <trkpt lat="46.69734" lon="5.62817">
        <ele>323</ele>
        <time>2023-09-03T10:14:07Z</time>
      </trkpt>
      <trkpt lat="46.69734" lon="5.62815">
        <ele>323</ele>
        <time>2023-09-03T10:14:08Z</time>
      </trkpt>
      <trkpt lat="46.69734" lon="5.62811">
        <ele>322.6</ele>
        <time>2023-09-03T10:14:09Z</time>
      </trkpt>
      <trkpt lat="46.69734" lon="5.62809">
        <ele>322.6</ele>
        <time>2023-09-03T10:14:10Z</time>
      </trkpt>
      <trkpt lat="46.69734" lon="5.62806">
        <ele>322.6</ele>
        <time>2023-09-03T10:14:11Z</time>
      </trkpt>
      <trkpt lat="46.69735" lon="5.62802">
        <ele>322.6</ele>
        <time>2023-09-03T10:14:12Z</time>
      </trkpt>
      <trkpt lat="46.69736" lon="5.628">
        <ele>322.6</ele>
        <time>2023-09-03T10:14:13Z</time>
      </trkpt>
      <trkpt lat="46.69737" lon="5.62797">
        <ele>322.8</ele>
        <time>2023-09-03T10:14:14Z</time>
      </trkpt>
      <trkpt lat="46.69738" lon="5.62794">
        <ele>322.8</ele>
        <time>2023-09-03T10:14:15Z</time>
      </trkpt>
      <trkpt lat="46.69739" lon="5.62791">
        <ele>322.8</ele>
        <time>2023-09-03T10:14:16Z</time>
      </trkpt>
      <trkpt lat="46.69741" lon="5.62788">
        <ele>322.8</ele>
        <time>2023-09-03T10:14:17Z</time>
      </trkpt>
      <trkpt lat="46.69742" lon="5.62785">
        <ele>323.2</ele>
        <time>2023-09-03T10:14:18Z</time>
      </trkpt>
      <trkpt lat="46.69744" lon="5.62782">
        <ele>323.8</ele>
        <time>2023-09-03T10:14:19Z</time>
      </trkpt>
      <trkpt lat="46.69745" lon="5.62779">
        <ele>323.8</ele>
        <time>2023-09-03T10:14:20Z</time>
      </trkpt>
      <trkpt lat="46.69747" lon="5.62776">
        <ele>323.8</ele>
        <time>2023-09-03T10:14:21Z</time>
      </trkpt>
      <trkpt lat="46.69748" lon="5.62774">
        <ele>323.8</ele>
        <time>2023-09-03T10:14:22Z</time>
      </trkpt>
      <trkpt lat="46.69751" lon="5.6277">
        <ele>324</ele>
        <time>2023-09-03T10:14:23Z</time>
      </trkpt>
      <trkpt lat="46.69752" lon="5.62768">
        <ele>324</ele>
        <time>2023-09-03T10:14:24Z</time>
      </trkpt>
      <trkpt lat="46.69753" lon="5.62766">
        <ele>324</ele>
        <time>2023-09-03T10:14:25Z</time>
      </trkpt>
      <trkpt lat="46.69754" lon="5.62763">
        <ele>324</ele>
        <time>2023-09-03T10:14:26Z</time>
      </trkpt>
      <trkpt lat="46.69755" lon="5.6276">
        <ele>324.6</ele>
        <time>2023-09-03T10:14:27Z</time>
      </trkpt>
      <trkpt lat="46.69757" lon="5.62757">
        <ele>324.6</ele>
        <time>2023-09-03T10:14:28Z</time>
      </trkpt>
      <trkpt lat="46.69758" lon="5.62754">
        <ele>325</ele>
        <time>2023-09-03T10:14:29Z</time>
      </trkpt>
      <trkpt lat="46.69759" lon="5.62752">
        <ele>325</ele>
        <time>2023-09-03T10:14:30Z</time>
      </trkpt>
      <trkpt lat="46.6976" lon="5.62749">
        <ele>325</ele>
        <time>2023-09-03T10:14:31Z</time>
      </trkpt>
      <trkpt lat="46.69762" lon="5.62744">
        <ele>325.6</ele>
        <time>2023-09-03T10:14:32Z</time>
      </trkpt>
      <trkpt lat="46.69762" lon="5.62742">
        <ele>325.6</ele>
        <time>2023-09-03T10:14:33Z</time>
      </trkpt>
      <trkpt lat="46.69764" lon="5.62738">
        <ele>325.6</ele>
        <time>2023-09-03T10:14:34Z</time>
      </trkpt>
      <trkpt lat="46.69764" lon="5.62736">
        <ele>325.6</ele>
        <time>2023-09-03T10:14:35Z</time>
      </trkpt>
      <trkpt lat="46.69765" lon="5.62733">
        <ele>326</ele>
        <time>2023-09-03T10:14:36Z</time>
      </trkpt>
      <trkpt lat="46.69766" lon="5.62728">
        <ele>326.4</ele>
        <time>2023-09-03T10:14:37Z</time>
      </trkpt>
      <trkpt lat="46.69766" lon="5.62727">
        <ele>326.4</ele>
        <time>2023-09-03T10:14:38Z</time>
      </trkpt>
      <trkpt lat="46.69767" lon="5.62722">
        <ele>326.4</ele>
        <time>2023-09-03T10:14:39Z</time>
      </trkpt>
      <trkpt lat="46.69767" lon="5.6272">
        <ele>326.4</ele>
        <time>2023-09-03T10:14:40Z</time>
      </trkpt>
      <trkpt lat="46.69767" lon="5.62717">
        <ele>326.8</ele>
        <time>2023-09-03T10:14:41Z</time>
      </trkpt>
      <trkpt lat="46.69768" lon="5.62715">
        <ele>326.6</ele>
        <time>2023-09-03T10:14:42Z</time>
      </trkpt>
      <trkpt lat="46.69769" lon="5.62712">
        <ele>326.6</ele>
        <time>2023-09-03T10:14:43Z</time>
      </trkpt>
      <trkpt lat="46.69769" lon="5.62706">
        <ele>326.6</ele>
        <time>2023-09-03T10:14:44Z</time>
      </trkpt>
      <trkpt lat="46.69769" lon="5.62705">
        <ele>326.6</ele>
        <time>2023-09-03T10:14:45Z</time>
      </trkpt>
      <trkpt lat="46.6977" lon="5.627">
        <ele>326.8</ele>
        <time>2023-09-03T10:14:46Z</time>
      </trkpt>
      <trkpt lat="46.69771" lon="5.62698">
        <ele>326.8</ele>
        <time>2023-09-03T10:14:47Z</time>
      </trkpt>
      <trkpt lat="46.69771" lon="5.62693">
        <ele>326.8</ele>
        <time>2023-09-03T10:14:48Z</time>
      </trkpt>
      <trkpt lat="46.69771" lon="5.62691">
        <ele>326.8</ele>
        <time>2023-09-03T10:14:49Z</time>
      </trkpt>
      <trkpt lat="46.69772" lon="5.62686">
        <ele>327.4</ele>
        <time>2023-09-03T10:14:50Z</time>
      </trkpt>
      <trkpt lat="46.69773" lon="5.62685">
        <ele>327.4</ele>
        <time>2023-09-03T10:14:51Z</time>
      </trkpt>
      <trkpt lat="46.69774" lon="5.6268">
        <ele>327.4</ele>
        <time>2023-09-03T10:14:52Z</time>
      </trkpt>
      <trkpt lat="46.69775" lon="5.62679">
        <ele>327.4</ele>
        <time>2023-09-03T10:14:53Z</time>
      </trkpt>
      <trkpt lat="46.69775" lon="5.62676">
        <ele>327.4</ele>
        <time>2023-09-03T10:14:54Z</time>
      </trkpt>
      <trkpt lat="46.69776" lon="5.62673">
        <ele>328</ele>
        <time>2023-09-03T10:14:55Z</time>
      </trkpt>
      <trkpt lat="46.69777" lon="5.62669">
        <ele>328</ele>
        <time>2023-09-03T10:14:56Z</time>
      </trkpt>
      <trkpt lat="46.69779" lon="5.62665">
        <ele>328</ele>
        <time>2023-09-03T10:14:57Z</time>
      </trkpt>
      <trkpt lat="46.6978" lon="5.62663">
        <ele>328.4</ele>
        <time>2023-09-03T10:14:58Z</time>
      </trkpt>
      <trkpt lat="46.69782" lon="5.62659">
        <ele>328.8</ele>
        <time>2023-09-03T10:14:59Z</time>
      </trkpt>
      <trkpt lat="46.69782" lon="5.62658">
        <ele>328.8</ele>
        <time>2023-09-03T10:15:00Z</time>
      </trkpt>
      <trkpt lat="46.69784" lon="5.62654">
        <ele>328.8</ele>
        <time>2023-09-03T10:15:01Z</time>
      </trkpt>
      <trkpt lat="46.69785" lon="5.62652">
        <ele>328.8</ele>
        <time>2023-09-03T10:15:02Z</time>
      </trkpt>
      <trkpt lat="46.69786" lon="5.6265">
        <ele>329.8</ele>
        <time>2023-09-03T10:15:03Z</time>
      </trkpt>
      <trkpt lat="46.69788" lon="5.62645">
        <ele>330</ele>
        <time>2023-09-03T10:15:04Z</time>
      </trkpt>
      <trkpt lat="46.69789" lon="5.62644">
        <ele>330</ele>
        <time>2023-09-03T10:15:05Z</time>
      </trkpt>
      <trkpt lat="46.6979" lon="5.6264">
        <ele>330</ele>
        <time>2023-09-03T10:15:06Z</time>
      </trkpt>
      <trkpt lat="46.69792" lon="5.62637">
        <ele>330</ele>
        <time>2023-09-03T10:15:07Z</time>
      </trkpt>
      <trkpt lat="46.69793" lon="5.62635">
        <ele>330.8</ele>
        <time>2023-09-03T10:15:08Z</time>
      </trkpt>
      <trkpt lat="46.69794" lon="5.62632">
        <ele>331.2</ele>
        <time>2023-09-03T10:15:09Z</time>
      </trkpt>
      <trkpt lat="46.69795" lon="5.62629">
        <ele>331.2</ele>
        <time>2023-09-03T10:15:10Z</time>
      </trkpt>
      <trkpt lat="46.69796" lon="5.62626">
        <ele>331.2</ele>
        <time>2023-09-03T10:15:11Z</time>
      </trkpt>
      <trkpt lat="46.69797" lon="5.62624">
        <ele>332</ele>
        <time>2023-09-03T10:15:12Z</time>
      </trkpt>
      <trkpt lat="46.69799" lon="5.62619">
        <ele>332</ele>
        <time>2023-09-03T10:15:13Z</time>
      </trkpt>
      <trkpt lat="46.698" lon="5.62618">
        <ele>332.2</ele>
        <time>2023-09-03T10:15:14Z</time>
      </trkpt>
      <trkpt lat="46.69802" lon="5.62614">
        <ele>332.2</ele>
        <time>2023-09-03T10:15:15Z</time>
      </trkpt>
      <trkpt lat="46.69803" lon="5.62612">
        <ele>332.2</ele>
        <time>2023-09-03T10:15:16Z</time>
      </trkpt>
      <trkpt lat="46.69805" lon="5.6261">
        <ele>333.2</ele>
        <time>2023-09-03T10:15:17Z</time>
      </trkpt>
      <trkpt lat="46.69806" lon="5.62607">
        <ele>333.4</ele>
        <time>2023-09-03T10:15:18Z</time>
      </trkpt>
      <trkpt lat="46.69807" lon="5.62604">
        <ele>333.4</ele>
        <time>2023-09-03T10:15:19Z</time>
      </trkpt>
      <trkpt lat="46.6981" lon="5.62601">
        <ele>333.4</ele>
        <time>2023-09-03T10:15:20Z</time>
      </trkpt>
      <trkpt lat="46.69811" lon="5.626">
        <ele>334.2</ele>
        <time>2023-09-03T10:15:21Z</time>
      </trkpt>
      <trkpt lat="46.69813" lon="5.62598">
        <ele>334.4</ele>
        <time>2023-09-03T10:15:22Z</time>
      </trkpt>
      <trkpt lat="46.69815" lon="5.62596">
        <ele>334.4</ele>
        <time>2023-09-03T10:15:23Z</time>
      </trkpt>
      <trkpt lat="46.69817" lon="5.62593">
        <ele>334.4</ele>
        <time>2023-09-03T10:15:24Z</time>
      </trkpt>
      <trkpt lat="46.6982" lon="5.6259">
        <ele>334.4</ele>
        <time>2023-09-03T10:15:25Z</time>
      </trkpt>
      <trkpt lat="46.69821" lon="5.62589">
        <ele>335.2</ele>
        <time>2023-09-03T10:15:26Z</time>
      </trkpt>
      <trkpt lat="46.69824" lon="5.62586">
        <ele>335.4</ele>
        <time>2023-09-03T10:15:27Z</time>
      </trkpt>
      <trkpt lat="46.69825" lon="5.62585">
        <ele>335.4</ele>
        <time>2023-09-03T10:15:28Z</time>
      </trkpt>
      <trkpt lat="46.69828" lon="5.62582">
        <ele>335.4</ele>
        <time>2023-09-03T10:15:29Z</time>
      </trkpt>
      <trkpt lat="46.69829" lon="5.62581">
        <ele>336.2</ele>
        <time>2023-09-03T10:15:30Z</time>
      </trkpt>
      <trkpt lat="46.69832" lon="5.62577">
        <ele>336.4</ele>
        <time>2023-09-03T10:15:31Z</time>
      </trkpt>
      <trkpt lat="46.69833" lon="5.62576">
        <ele>336.4</ele>
        <time>2023-09-03T10:15:32Z</time>
      </trkpt>
      <trkpt lat="46.69836" lon="5.62573">
        <ele>336.4</ele>
        <time>2023-09-03T10:15:33Z</time>
      </trkpt>
      <trkpt lat="46.69837" lon="5.62572">
        <ele>336.4</ele>
        <time>2023-09-03T10:15:34Z</time>
      </trkpt>
      <trkpt lat="46.69839" lon="5.6257">
        <ele>337.2</ele>
        <time>2023-09-03T10:15:35Z</time>
      </trkpt>
      <trkpt lat="46.69842" lon="5.62566">
        <ele>337.4</ele>
        <time>2023-09-03T10:15:36Z</time>
      </trkpt>
      <trkpt lat="46.69843" lon="5.62565">
        <ele>337.4</ele>
        <time>2023-09-03T10:15:37Z</time>
      </trkpt>
      <trkpt lat="46.69844" lon="5.62562">
        <ele>337.4</ele>
        <time>2023-09-03T10:15:38Z</time>
      </trkpt>
      <trkpt lat="46.69846" lon="5.6256">
        <ele>338</ele>
        <time>2023-09-03T10:15:39Z</time>
      </trkpt>
      <trkpt lat="46.69847" lon="5.62558">
        <ele>338.2</ele>
        <time>2023-09-03T10:15:40Z</time>
      </trkpt>
      <trkpt lat="46.6985" lon="5.62554">
        <ele>338.2</ele>
        <time>2023-09-03T10:15:41Z</time>
      </trkpt>
      <trkpt lat="46.69851" lon="5.62553">
        <ele>338.2</ele>
        <time>2023-09-03T10:15:42Z</time>
      </trkpt>
      <trkpt lat="46.69853" lon="5.62549">
        <ele>338.2</ele>
        <time>2023-09-03T10:15:43Z</time>
      </trkpt>
      <trkpt lat="46.69854" lon="5.62548">
        <ele>338.2</ele>
        <time>2023-09-03T10:15:44Z</time>
      </trkpt>
      <trkpt lat="46.69856" lon="5.62545">
        <ele>339</ele>
        <time>2023-09-03T10:15:45Z</time>
      </trkpt>
      <trkpt lat="46.69859" lon="5.62542">
        <ele>339</ele>
        <time>2023-09-03T10:15:46Z</time>
      </trkpt>
      <trkpt lat="46.6986" lon="5.62541">
        <ele>339</ele>
        <time>2023-09-03T10:15:47Z</time>
      </trkpt>
      <trkpt lat="46.69862" lon="5.62538">
        <ele>339</ele>
        <time>2023-09-03T10:15:48Z</time>
      </trkpt>
      <trkpt lat="46.69863" lon="5.62536">
        <ele>339.6</ele>
        <time>2023-09-03T10:15:49Z</time>
      </trkpt>
      <trkpt lat="46.69866" lon="5.62532">
        <ele>339.8</ele>
        <time>2023-09-03T10:15:50Z</time>
      </trkpt>
      <trkpt lat="46.69867" lon="5.62531">
        <ele>339.8</ele>
        <time>2023-09-03T10:15:51Z</time>
      </trkpt>
      <trkpt lat="46.6987" lon="5.62527">
        <ele>339.8</ele>
        <time>2023-09-03T10:15:52Z</time>
      </trkpt>
      <trkpt lat="46.69871" lon="5.62526">
        <ele>340.6</ele>
        <time>2023-09-03T10:15:53Z</time>
      </trkpt>
      <trkpt lat="46.69873" lon="5.62524">
        <ele>340.8</ele>
        <time>2023-09-03T10:15:54Z</time>
      </trkpt>
      <trkpt lat="46.69876" lon="5.62521">
        <ele>340.8</ele>
        <time>2023-09-03T10:15:55Z</time>
      </trkpt>
      <trkpt lat="46.69877" lon="5.6252">
        <ele>340.8</ele>
        <time>2023-09-03T10:15:56Z</time>
      </trkpt>
      <trkpt lat="46.6988" lon="5.62517">
        <ele>340.8</ele>
        <time>2023-09-03T10:15:57Z</time>
      </trkpt>
      <trkpt lat="46.69881" lon="5.62517">
        <ele>341.4</ele>
        <time>2023-09-03T10:15:58Z</time>
      </trkpt>
      <trkpt lat="46.69883" lon="5.62515">
        <ele>341.6</ele>
        <time>2023-09-03T10:15:59Z</time>
      </trkpt>
      <trkpt lat="46.69885" lon="5.62514">
        <ele>341.6</ele>
        <time>2023-09-03T10:16:00Z</time>
      </trkpt>
      <trkpt lat="46.69887" lon="5.62513">
        <ele>341.6</ele>
        <time>2023-09-03T10:16:01Z</time>
      </trkpt>
      <trkpt lat="46.6989" lon="5.6251">
        <ele>342</ele>
        <time>2023-09-03T10:16:02Z</time>
      </trkpt>
      <trkpt lat="46.69891" lon="5.6251">
        <ele>342.6</ele>
        <time>2023-09-03T10:16:03Z</time>
      </trkpt>
      <trkpt lat="46.69893" lon="5.62508">
        <ele>342.6</ele>
        <time>2023-09-03T10:16:04Z</time>
      </trkpt>
      <trkpt lat="46.69896" lon="5.62506">
        <ele>342.6</ele>
        <time>2023-09-03T10:16:05Z</time>
      </trkpt>
      <trkpt lat="46.69897" lon="5.62505">
        <ele>343.2</ele>
        <time>2023-09-03T10:16:06Z</time>
      </trkpt>
      <trkpt lat="46.699" lon="5.62503">
        <ele>343.2</ele>
        <time>2023-09-03T10:16:07Z</time>
      </trkpt>
      <trkpt lat="46.69901" lon="5.62503">
        <ele>343.6</ele>
        <time>2023-09-03T10:16:08Z</time>
      </trkpt>
      <trkpt lat="46.69905" lon="5.62501">
        <ele>343.6</ele>
        <time>2023-09-03T10:16:09Z</time>
      </trkpt>
      <trkpt lat="46.69906" lon="5.625">
        <ele>343.6</ele>
        <time>2023-09-03T10:16:10Z</time>
      </trkpt>
      <trkpt lat="46.69909" lon="5.62498">
        <ele>344.2</ele>
        <time>2023-09-03T10:16:11Z</time>
      </trkpt>
      <trkpt lat="46.69909" lon="5.62498">
        <ele>344.6</ele>
        <time>2023-09-03T10:16:12Z</time>
      </trkpt>
      <trkpt lat="46.69912" lon="5.62496">
        <ele>344.6</ele>
        <time>2023-09-03T10:16:13Z</time>
      </trkpt>
      <trkpt lat="46.69913" lon="5.62495">
        <ele>344.6</ele>
        <time>2023-09-03T10:16:14Z</time>
      </trkpt>
      <trkpt lat="46.69916" lon="5.62493">
        <ele>345.4</ele>
        <time>2023-09-03T10:16:15Z</time>
      </trkpt>
      <trkpt lat="46.69917" lon="5.62492">
        <ele>345.8</ele>
        <time>2023-09-03T10:16:16Z</time>
      </trkpt>
      <trkpt lat="46.6992" lon="5.62491">
        <ele>345.8</ele>
        <time>2023-09-03T10:16:17Z</time>
      </trkpt>
      <trkpt lat="46.69924" lon="5.62489">
        <ele>345.8</ele>
        <time>2023-09-03T10:16:18Z</time>
      </trkpt>
      <trkpt lat="46.69925" lon="5.62489">
        <ele>345.8</ele>
        <time>2023-09-03T10:16:19Z</time>
      </trkpt>
      <trkpt lat="46.69927" lon="5.62487">
        <ele>345.8</ele>
        <time>2023-09-03T10:16:20Z</time>
      </trkpt>
      <trkpt lat="46.69929" lon="5.62485">
        <ele>346.8</ele>
        <time>2023-09-03T10:16:21Z</time>
      </trkpt>
      <trkpt lat="46.69931" lon="5.62484">
        <ele>346.8</ele>
        <time>2023-09-03T10:16:22Z</time>
      </trkpt>
      <trkpt lat="46.69934" lon="5.62481">
        <ele>346.8</ele>
        <time>2023-09-03T10:16:23Z</time>
      </trkpt>
      <trkpt lat="46.69935" lon="5.6248">
        <ele>347.6</ele>
        <time>2023-09-03T10:16:24Z</time>
      </trkpt>
      <trkpt lat="46.69938" lon="5.62477">
        <ele>347.8</ele>
        <time>2023-09-03T10:16:25Z</time>
      </trkpt>
      <trkpt lat="46.69939" lon="5.62476">
        <ele>347.8</ele>
        <time>2023-09-03T10:16:26Z</time>
      </trkpt>
      <trkpt lat="46.69941" lon="5.62475">
        <ele>347.8</ele>
        <time>2023-09-03T10:16:27Z</time>
      </trkpt>
      <trkpt lat="46.69944" lon="5.62473">
        <ele>348.6</ele>
        <time>2023-09-03T10:16:28Z</time>
      </trkpt>
      <trkpt lat="46.69945" lon="5.62472">
        <ele>348.8</ele>
        <time>2023-09-03T10:16:29Z</time>
      </trkpt>
      <trkpt lat="46.69948" lon="5.6247">
        <ele>348.8</ele>
        <time>2023-09-03T10:16:30Z</time>
      </trkpt>
      <trkpt lat="46.69949" lon="5.62469">
        <ele>348.8</ele>
        <time>2023-09-03T10:16:31Z</time>
      </trkpt>
      <trkpt lat="46.6995" lon="5.62467">
        <ele>348.8</ele>
        <time>2023-09-03T10:16:32Z</time>
      </trkpt>
      <trkpt lat="46.69952" lon="5.62466">
        <ele>348.8</ele>
        <time>2023-09-03T10:16:33Z</time>
      </trkpt>
      <trkpt lat="46.69955" lon="5.62463">
        <ele>349.4</ele>
        <time>2023-09-03T10:16:34Z</time>
      </trkpt>
      <trkpt lat="46.69956" lon="5.62462">
        <ele>349.6</ele>
        <time>2023-09-03T10:16:35Z</time>
      </trkpt>
      <trkpt lat="46.69959" lon="5.62459">
        <ele>349.6</ele>
        <time>2023-09-03T10:16:36Z</time>
      </trkpt>
      <trkpt lat="46.6996" lon="5.62457">
        <ele>349.6</ele>
        <time>2023-09-03T10:16:37Z</time>
      </trkpt>
      <trkpt lat="46.69962" lon="5.62455">
        <ele>350</ele>
        <time>2023-09-03T10:16:38Z</time>
      </trkpt>
      <trkpt lat="46.69965" lon="5.62451">
        <ele>350.8</ele>
        <time>2023-09-03T10:16:39Z</time>
      </trkpt>
      <trkpt lat="46.69966" lon="5.62449">
        <ele>350.8</ele>
        <time>2023-09-03T10:16:40Z</time>
      </trkpt>
      <trkpt lat="46.69969" lon="5.62446">
        <ele>350.8</ele>
        <time>2023-09-03T10:16:41Z</time>
      </trkpt>
      <trkpt lat="46.6997" lon="5.62445">
        <ele>350.8</ele>
        <time>2023-09-03T10:16:42Z</time>
      </trkpt>
      <trkpt lat="46.69972" lon="5.62444">
        <ele>350.8</ele>
        <time>2023-09-03T10:16:43Z</time>
      </trkpt>
      <trkpt lat="46.69975" lon="5.62442">
        <ele>351.2</ele>
        <time>2023-09-03T10:16:44Z</time>
      </trkpt>
      <trkpt lat="46.69976" lon="5.62441">
        <ele>351.2</ele>
        <time>2023-09-03T10:16:45Z</time>
      </trkpt>
      <trkpt lat="46.69978" lon="5.62438">
        <ele>351.2</ele>
        <time>2023-09-03T10:16:46Z</time>
      </trkpt>
      <trkpt lat="46.6998" lon="5.62437">
        <ele>351.8</ele>
        <time>2023-09-03T10:16:47Z</time>
      </trkpt>
      <trkpt lat="46.69982" lon="5.62436">
        <ele>351.8</ele>
        <time>2023-09-03T10:16:48Z</time>
      </trkpt>
      <trkpt lat="46.69984" lon="5.62435">
        <ele>351.8</ele>
        <time>2023-09-03T10:16:49Z</time>
      </trkpt>
      <trkpt lat="46.69986" lon="5.62434">
        <ele>351.8</ele>
        <time>2023-09-03T10:16:50Z</time>
      </trkpt>
      <trkpt lat="46.69989" lon="5.62434">
        <ele>352.2</ele>
        <time>2023-09-03T10:16:51Z</time>
      </trkpt>
      <trkpt lat="46.6999" lon="5.62434">
        <ele>352.2</ele>
        <time>2023-09-03T10:16:52Z</time>
      </trkpt>
      <trkpt lat="46.69992" lon="5.62434">
        <ele>352.6</ele>
        <time>2023-09-03T10:16:53Z</time>
      </trkpt>
      <trkpt lat="46.69993" lon="5.62434">
        <ele>352.6</ele>
        <time>2023-09-03T10:16:54Z</time>
      </trkpt>
      <trkpt lat="46.69996" lon="5.62434">
        <ele>352.6</ele>
        <time>2023-09-03T10:16:55Z</time>
      </trkpt>
      <trkpt lat="46.69997" lon="5.62435">
        <ele>353</ele>
        <time>2023-09-03T10:16:56Z</time>
      </trkpt>
      <trkpt lat="46.69999" lon="5.62435">
        <ele>353.2</ele>
        <time>2023-09-03T10:16:57Z</time>
      </trkpt>
      <trkpt lat="46.70001" lon="5.62435">
        <ele>353.2</ele>
        <time>2023-09-03T10:16:58Z</time>
      </trkpt>
      <trkpt lat="46.70004" lon="5.62435">
        <ele>353.2</ele>
        <time>2023-09-03T10:16:59Z</time>
      </trkpt>
      <trkpt lat="46.70006" lon="5.62436">
        <ele>354</ele>
        <time>2023-09-03T10:17:00Z</time>
      </trkpt>
      <trkpt lat="46.70008" lon="5.62436">
        <ele>354.2</ele>
        <time>2023-09-03T10:17:01Z</time>
      </trkpt>
      <trkpt lat="46.7001" lon="5.62436">
        <ele>354.2</ele>
        <time>2023-09-03T10:17:02Z</time>
      </trkpt>
      <trkpt lat="46.70012" lon="5.62436">
        <ele>354.2</ele>
        <time>2023-09-03T10:17:03Z</time>
      </trkpt>
      <trkpt lat="46.70016" lon="5.62437">
        <ele>354.8</ele>
        <time>2023-09-03T10:17:04Z</time>
      </trkpt>
      <trkpt lat="46.70017" lon="5.62437">
        <ele>354.8</ele>
        <time>2023-09-03T10:17:05Z</time>
      </trkpt>
      <trkpt lat="46.7002" lon="5.62436">
        <ele>355.2</ele>
        <time>2023-09-03T10:17:06Z</time>
      </trkpt>
      <trkpt lat="46.70023" lon="5.62436">
        <ele>355.2</ele>
        <time>2023-09-03T10:17:07Z</time>
      </trkpt>
      <trkpt lat="46.70024" lon="5.62436">
        <ele>355.2</ele>
        <time>2023-09-03T10:17:08Z</time>
      </trkpt>
      <trkpt lat="46.70026" lon="5.62435">
        <ele>355.8</ele>
        <time>2023-09-03T10:17:09Z</time>
      </trkpt>
      <trkpt lat="46.7003" lon="5.62434">
        <ele>356.2</ele>
        <time>2023-09-03T10:17:10Z</time>
      </trkpt>
      <trkpt lat="46.70031" lon="5.62433">
        <ele>356.2</ele>
        <time>2023-09-03T10:17:11Z</time>
      </trkpt>
      <trkpt lat="46.70034" lon="5.62432">
        <ele>356.2</ele>
        <time>2023-09-03T10:17:12Z</time>
      </trkpt>
      <trkpt lat="46.70036" lon="5.62431">
        <ele>356.2</ele>
        <time>2023-09-03T10:17:13Z</time>
      </trkpt>
      <trkpt lat="46.70039" lon="5.6243">
        <ele>357</ele>
        <time>2023-09-03T10:17:14Z</time>
      </trkpt>
      <trkpt lat="46.7004" lon="5.62429">
        <ele>357</ele>
        <time>2023-09-03T10:17:15Z</time>
      </trkpt>
      <trkpt lat="46.70043" lon="5.62427">
        <ele>357</ele>
        <time>2023-09-03T10:17:16Z</time>
      </trkpt>
      <trkpt lat="46.70044" lon="5.62427">
        <ele>357</ele>
        <time>2023-09-03T10:17:17Z</time>
      </trkpt>
      <trkpt lat="46.70048" lon="5.62425">
        <ele>357</ele>
        <time>2023-09-03T10:17:18Z</time>
      </trkpt>
      <trkpt lat="46.70049" lon="5.62425">
        <ele>357.6</ele>
        <time>2023-09-03T10:17:19Z</time>
      </trkpt>
      <trkpt lat="46.70051" lon="5.62424">
        <ele>358.2</ele>
        <time>2023-09-03T10:17:20Z</time>
      </trkpt>
      <trkpt lat="46.70055" lon="5.62422">
        <ele>358.2</ele>
        <time>2023-09-03T10:17:21Z</time>
      </trkpt>
      <trkpt lat="46.70056" lon="5.62422">
        <ele>358.2</ele>
        <time>2023-09-03T10:17:22Z</time>
      </trkpt>
      <trkpt lat="46.70059" lon="5.6242">
        <ele>358.8</ele>
        <time>2023-09-03T10:17:23Z</time>
      </trkpt>
      <trkpt lat="46.7006" lon="5.6242">
        <ele>359</ele>
        <time>2023-09-03T10:17:24Z</time>
      </trkpt>
      <trkpt lat="46.70063" lon="5.62418">
        <ele>359</ele>
        <time>2023-09-03T10:17:25Z</time>
      </trkpt>
      <trkpt lat="46.70066" lon="5.62417">
        <ele>359</ele>
        <time>2023-09-03T10:17:26Z</time>
      </trkpt>
      <trkpt lat="46.70067" lon="5.62416">
        <ele>359</ele>
        <time>2023-09-03T10:17:27Z</time>
      </trkpt>
      <trkpt lat="46.7007" lon="5.62415">
        <ele>359.8</ele>
        <time>2023-09-03T10:17:28Z</time>
      </trkpt>
      <trkpt lat="46.70073" lon="5.62414">
        <ele>360</ele>
        <time>2023-09-03T10:17:29Z</time>
      </trkpt>
      <trkpt lat="46.70074" lon="5.62413">
        <ele>360</ele>
        <time>2023-09-03T10:17:30Z</time>
      </trkpt>
      <trkpt lat="46.70077" lon="5.62412">
        <ele>360</ele>
        <time>2023-09-03T10:17:31Z</time>
      </trkpt>
      <trkpt lat="46.70079" lon="5.62411">
        <ele>360.2</ele>
        <time>2023-09-03T10:17:32Z</time>
      </trkpt>
      <trkpt lat="46.70081" lon="5.6241">
        <ele>360.8</ele>
        <time>2023-09-03T10:17:33Z</time>
      </trkpt>
      <trkpt lat="46.70084" lon="5.62409">
        <ele>360.8</ele>
        <time>2023-09-03T10:17:34Z</time>
      </trkpt>
      <trkpt lat="46.70085" lon="5.62408">
        <ele>360.8</ele>
        <time>2023-09-03T10:17:35Z</time>
      </trkpt>
      <trkpt lat="46.70088" lon="5.62407">
        <ele>360.8</ele>
        <time>2023-09-03T10:17:36Z</time>
      </trkpt>
      <trkpt lat="46.70089" lon="5.62406">
        <ele>360.8</ele>
        <time>2023-09-03T10:17:37Z</time>
      </trkpt>
      <trkpt lat="46.70093" lon="5.62404">
        <ele>361.6</ele>
        <time>2023-09-03T10:17:38Z</time>
      </trkpt>
      <trkpt lat="46.70094" lon="5.62403">
        <ele>361.6</ele>
        <time>2023-09-03T10:17:39Z</time>
      </trkpt>
      <trkpt lat="46.70097" lon="5.624">
        <ele>361.6</ele>
        <time>2023-09-03T10:17:40Z</time>
      </trkpt>
      <trkpt lat="46.70098" lon="5.62399">
        <ele>362.4</ele>
        <time>2023-09-03T10:17:41Z</time>
      </trkpt>
      <trkpt lat="46.701" lon="5.62398">
        <ele>362.8</ele>
        <time>2023-09-03T10:17:42Z</time>
      </trkpt>
      <trkpt lat="46.70102" lon="5.62397">
        <ele>362.8</ele>
        <time>2023-09-03T10:17:43Z</time>
      </trkpt>
      <trkpt lat="46.70104" lon="5.62396">
        <ele>362.8</ele>
        <time>2023-09-03T10:17:44Z</time>
      </trkpt>
      <trkpt lat="46.70106" lon="5.62395">
        <ele>363.4</ele>
        <time>2023-09-03T10:17:45Z</time>
      </trkpt>
      <trkpt lat="46.70108" lon="5.62394">
        <ele>363.6</ele>
        <time>2023-09-03T10:17:46Z</time>
      </trkpt>
      <trkpt lat="46.70111" lon="5.62393">
        <ele>363.6</ele>
        <time>2023-09-03T10:17:47Z</time>
      </trkpt>
      <trkpt lat="46.70112" lon="5.62393">
        <ele>363.6</ele>
        <time>2023-09-03T10:17:48Z</time>
      </trkpt>
      <trkpt lat="46.70115" lon="5.62393">
        <ele>363.6</ele>
        <time>2023-09-03T10:17:49Z</time>
      </trkpt>
      <trkpt lat="46.70116" lon="5.62393">
        <ele>364.4</ele>
        <time>2023-09-03T10:17:50Z</time>
      </trkpt>
      <trkpt lat="46.70118" lon="5.62392">
        <ele>364.8</ele>
        <time>2023-09-03T10:17:51Z</time>
      </trkpt>
      <trkpt lat="46.70122" lon="5.62391">
        <ele>364.8</ele>
        <time>2023-09-03T10:17:52Z</time>
      </trkpt>
      <trkpt lat="46.70123" lon="5.6239">
        <ele>364.8</ele>
        <time>2023-09-03T10:17:53Z</time>
      </trkpt>
      <trkpt lat="46.70125" lon="5.6239">
        <ele>365.6</ele>
        <time>2023-09-03T10:17:54Z</time>
      </trkpt>
      <trkpt lat="46.70127" lon="5.62389">
        <ele>365.6</ele>
        <time>2023-09-03T10:17:55Z</time>
      </trkpt>
      <trkpt lat="46.70128" lon="5.62389">
        <ele>366</ele>
        <time>2023-09-03T10:17:56Z</time>
      </trkpt>
      <trkpt lat="46.7013" lon="5.62388">
        <ele>366</ele>
        <time>2023-09-03T10:17:57Z</time>
      </trkpt>
      <trkpt lat="46.70132" lon="5.62387">
        <ele>366</ele>
        <time>2023-09-03T10:17:58Z</time>
      </trkpt>
      <trkpt lat="46.70133" lon="5.62385">
        <ele>366</ele>
        <time>2023-09-03T10:17:59Z</time>
      </trkpt>
      <trkpt lat="46.70135" lon="5.62384">
        <ele>367</ele>
        <time>2023-09-03T10:18:00Z</time>
      </trkpt>
      <trkpt lat="46.70137" lon="5.62383">
        <ele>367</ele>
        <time>2023-09-03T10:18:01Z</time>
      </trkpt>
      <trkpt lat="46.70139" lon="5.62382">
        <ele>367</ele>
        <time>2023-09-03T10:18:02Z</time>
      </trkpt>
      <trkpt lat="46.70141" lon="5.62382">
        <ele>367</ele>
        <time>2023-09-03T10:18:03Z</time>
      </trkpt>
      <trkpt lat="46.70143" lon="5.62381">
        <ele>368</ele>
        <time>2023-09-03T10:18:04Z</time>
      </trkpt>
      <trkpt lat="46.70145" lon="5.62381">
        <ele>368.4</ele>
        <time>2023-09-03T10:18:05Z</time>
      </trkpt>
      <trkpt lat="46.70147" lon="5.6238">
        <ele>368.4</ele>
        <time>2023-09-03T10:18:06Z</time>
      </trkpt>
      <trkpt lat="46.70151" lon="5.62378">
        <ele>368.4</ele>
        <time>2023-09-03T10:18:07Z</time>
      </trkpt>
      <trkpt lat="46.70152" lon="5.62377">
        <ele>369.2</ele>
        <time>2023-09-03T10:18:08Z</time>
      </trkpt>
      <trkpt lat="46.70153" lon="5.62377">
        <ele>369.4</ele>
        <time>2023-09-03T10:18:09Z</time>
      </trkpt>
      <trkpt lat="46.70155" lon="5.62376">
        <ele>369.4</ele>
        <time>2023-09-03T10:18:10Z</time>
      </trkpt>
      <trkpt lat="46.70157" lon="5.62375">
        <ele>369.4</ele>
        <time>2023-09-03T10:18:11Z</time>
      </trkpt>
      <trkpt lat="46.7016" lon="5.62375">
        <ele>369.4</ele>
        <time>2023-09-03T10:18:12Z</time>
      </trkpt>
      <trkpt lat="46.70161" lon="5.62375">
        <ele>370.4</ele>
        <time>2023-09-03T10:18:13Z</time>
      </trkpt>
      <trkpt lat="46.70164" lon="5.62374">
        <ele>370.8</ele>
        <time>2023-09-03T10:18:14Z</time>
      </trkpt>
      <trkpt lat="46.70166" lon="5.62373">
        <ele>370.8</ele>
        <time>2023-09-03T10:18:15Z</time>
      </trkpt>
      <trkpt lat="46.70169" lon="5.62373">
        <ele>370.8</ele>
        <time>2023-09-03T10:18:16Z</time>
      </trkpt>
      <trkpt lat="46.7017" lon="5.62373">
        <ele>371.8</ele>
        <time>2023-09-03T10:18:17Z</time>
      </trkpt>
      <trkpt lat="46.70173" lon="5.62372">
        <ele>372</ele>
        <time>2023-09-03T10:18:18Z</time>
      </trkpt>
      <trkpt lat="46.70174" lon="5.62372">
        <ele>372</ele>
        <time>2023-09-03T10:18:19Z</time>
      </trkpt>
      <trkpt lat="46.70176" lon="5.62371">
        <ele>372</ele>
        <time>2023-09-03T10:18:20Z</time>
      </trkpt>
      <trkpt lat="46.70178" lon="5.6237">
        <ele>372</ele>
        <time>2023-09-03T10:18:21Z</time>
      </trkpt>
      <trkpt lat="46.70181" lon="5.62368">
        <ele>373</ele>
        <time>2023-09-03T10:18:22Z</time>
      </trkpt>
      <trkpt lat="46.70182" lon="5.62368">
        <ele>373.4</ele>
        <time>2023-09-03T10:18:23Z</time>
      </trkpt>
      <trkpt lat="46.70185" lon="5.62367">
        <ele>373.4</ele>
        <time>2023-09-03T10:18:24Z</time>
      </trkpt>
      <trkpt lat="46.70186" lon="5.62366">
        <ele>373.4</ele>
        <time>2023-09-03T10:18:25Z</time>
      </trkpt>
      <trkpt lat="46.70188" lon="5.62365">
        <ele>373.8</ele>
        <time>2023-09-03T10:18:26Z</time>
      </trkpt>
      <trkpt lat="46.7019" lon="5.62364">
        <ele>374.2</ele>
        <time>2023-09-03T10:18:27Z</time>
      </trkpt>
      <trkpt lat="46.70192" lon="5.62363">
        <ele>374.2</ele>
        <time>2023-09-03T10:18:28Z</time>
      </trkpt>
      <trkpt lat="46.70195" lon="5.62361">
        <ele>374.2</ele>
        <time>2023-09-03T10:18:29Z</time>
      </trkpt>
      <trkpt lat="46.70196" lon="5.62361">
        <ele>374.2</ele>
        <time>2023-09-03T10:18:30Z</time>
      </trkpt>
      <trkpt lat="46.702" lon="5.62359">
        <ele>375</ele>
        <time>2023-09-03T10:18:31Z</time>
      </trkpt>
      <trkpt lat="46.70201" lon="5.62359">
        <ele>375.2</ele>
        <time>2023-09-03T10:18:32Z</time>
      </trkpt>
      <trkpt lat="46.70205" lon="5.62357">
        <ele>375.2</ele>
        <time>2023-09-03T10:18:33Z</time>
      </trkpt>
      <trkpt lat="46.70206" lon="5.62356">
        <ele>375.2</ele>
        <time>2023-09-03T10:18:34Z</time>
      </trkpt>
      <trkpt lat="46.70208" lon="5.62355">
        <ele>376.2</ele>
        <time>2023-09-03T10:18:35Z</time>
      </trkpt>
      <trkpt lat="46.70211" lon="5.62353">
        <ele>376.4</ele>
        <time>2023-09-03T10:18:36Z</time>
      </trkpt>
      <trkpt lat="46.70212" lon="5.62353">
        <ele>376.4</ele>
        <time>2023-09-03T10:18:37Z</time>
      </trkpt>
      <trkpt lat="46.70214" lon="5.62351">
        <ele>376.4</ele>
        <time>2023-09-03T10:18:38Z</time>
      </trkpt>
      <trkpt lat="46.70216" lon="5.6235">
        <ele>376.4</ele>
        <time>2023-09-03T10:18:39Z</time>
      </trkpt>
      <trkpt lat="46.70219" lon="5.62349">
        <ele>377.2</ele>
        <time>2023-09-03T10:18:40Z</time>
      </trkpt>
      <trkpt lat="46.70221" lon="5.62347">
        <ele>377.2</ele>
        <time>2023-09-03T10:18:41Z</time>
      </trkpt>
      <trkpt lat="46.70223" lon="5.62346">
        <ele>377.6</ele>
        <time>2023-09-03T10:18:42Z</time>
      </trkpt>
      <trkpt lat="46.70225" lon="5.62345">
        <ele>377.6</ele>
        <time>2023-09-03T10:18:43Z</time>
      </trkpt>
      <trkpt lat="46.70227" lon="5.62343">
        <ele>377.6</ele>
        <time>2023-09-03T10:18:44Z</time>
      </trkpt>
      <trkpt lat="46.7023" lon="5.62341">
        <ele>378.2</ele>
        <time>2023-09-03T10:18:45Z</time>
      </trkpt>
      <trkpt lat="46.70231" lon="5.6234">
        <ele>378.4</ele>
        <time>2023-09-03T10:18:46Z</time>
      </trkpt>
      <trkpt lat="46.70233" lon="5.62338">
        <ele>378.4</ele>
        <time>2023-09-03T10:18:47Z</time>
      </trkpt>
      <trkpt lat="46.70236" lon="5.62337">
        <ele>378.4</ele>
        <time>2023-09-03T10:18:48Z</time>
      </trkpt>
      <trkpt lat="46.70239" lon="5.62334">
        <ele>379</ele>
        <time>2023-09-03T10:18:49Z</time>
      </trkpt>
      <trkpt lat="46.7024" lon="5.62333">
        <ele>379.2</ele>
        <time>2023-09-03T10:18:50Z</time>
      </trkpt>
      <trkpt lat="46.70243" lon="5.62332">
        <ele>379.2</ele>
        <time>2023-09-03T10:18:51Z</time>
      </trkpt>
      <trkpt lat="46.70247" lon="5.6233">
        <ele>379.2</ele>
        <time>2023-09-03T10:18:52Z</time>
      </trkpt>
      <trkpt lat="46.70248" lon="5.6233">
        <ele>379.8</ele>
        <time>2023-09-03T10:18:53Z</time>
      </trkpt>
      <trkpt lat="46.70251" lon="5.62328">
        <ele>379.8</ele>
        <time>2023-09-03T10:18:54Z</time>
      </trkpt>
      <trkpt lat="46.70254" lon="5.62326">
        <ele>379.8</ele>
        <time>2023-09-03T10:18:55Z</time>
      </trkpt>
      <trkpt lat="46.70255" lon="5.62326">
        <ele>379.8</ele>
        <time>2023-09-03T10:18:56Z</time>
      </trkpt>
      <trkpt lat="46.70258" lon="5.62324">
        <ele>379.8</ele>
        <time>2023-09-03T10:18:57Z</time>
      </trkpt>
      <trkpt lat="46.7026" lon="5.62323">
        <ele>380.4</ele>
        <time>2023-09-03T10:18:58Z</time>
      </trkpt>
      <trkpt lat="46.70262" lon="5.62322">
        <ele>380.6</ele>
        <time>2023-09-03T10:18:59Z</time>
      </trkpt>
      <trkpt lat="46.70264" lon="5.62321">
        <ele>380.6</ele>
        <time>2023-09-03T10:19:00Z</time>
      </trkpt>
      <trkpt lat="46.70267" lon="5.62319">
        <ele>380.6</ele>
        <time>2023-09-03T10:19:01Z</time>
      </trkpt>
      <trkpt lat="46.70268" lon="5.62318">
        <ele>381.4</ele>
        <time>2023-09-03T10:19:02Z</time>
      </trkpt>
      <trkpt lat="46.7027" lon="5.62317">
        <ele>381.6</ele>
        <time>2023-09-03T10:19:03Z</time>
      </trkpt>
      <trkpt lat="46.70274" lon="5.62317">
        <ele>381.6</ele>
        <time>2023-09-03T10:19:04Z</time>
      </trkpt>
      <trkpt lat="46.70275" lon="5.62316">
        <ele>381.6</ele>
        <time>2023-09-03T10:19:05Z</time>
      </trkpt>
      <trkpt lat="46.70279" lon="5.62315">
        <ele>382.2</ele>
        <time>2023-09-03T10:19:06Z</time>
      </trkpt>
      <trkpt lat="46.70281" lon="5.62315">
        <ele>382.2</ele>
        <time>2023-09-03T10:19:07Z</time>
      </trkpt>
      <trkpt lat="46.70284" lon="5.62314">
        <ele>382.4</ele>
        <time>2023-09-03T10:19:08Z</time>
      </trkpt>
      <trkpt lat="46.70288" lon="5.62313">
        <ele>382.4</ele>
        <time>2023-09-03T10:19:09Z</time>
      </trkpt>
      <trkpt lat="46.70289" lon="5.62313">
        <ele>382.4</ele>
        <time>2023-09-03T10:19:10Z</time>
      </trkpt>
      <trkpt lat="46.70291" lon="5.62312">
        <ele>383</ele>
        <time>2023-09-03T10:19:11Z</time>
      </trkpt>
      <trkpt lat="46.70294" lon="5.62311">
        <ele>383.6</ele>
        <time>2023-09-03T10:19:12Z</time>
      </trkpt>
      <trkpt lat="46.70297" lon="5.62311">
        <ele>383.6</ele>
        <time>2023-09-03T10:19:13Z</time>
      </trkpt>
      <trkpt lat="46.70301" lon="5.62309">
        <ele>383.6</ele>
        <time>2023-09-03T10:19:14Z</time>
      </trkpt>
      <trkpt lat="46.70302" lon="5.62309">
        <ele>383.6</ele>
        <time>2023-09-03T10:19:15Z</time>
      </trkpt>
      <trkpt lat="46.70306" lon="5.62308">
        <ele>383.6</ele>
        <time>2023-09-03T10:19:16Z</time>
      </trkpt>
      <trkpt lat="46.70307" lon="5.62307">
        <ele>384.8</ele>
        <time>2023-09-03T10:19:17Z</time>
      </trkpt>
      <trkpt lat="46.70311" lon="5.62306">
        <ele>384.8</ele>
        <time>2023-09-03T10:19:18Z</time>
      </trkpt>
      <trkpt lat="46.70312" lon="5.62306">
        <ele>384.8</ele>
        <time>2023-09-03T10:19:19Z</time>
      </trkpt>
      <trkpt lat="46.70316" lon="5.62305">
        <ele>384.8</ele>
        <time>2023-09-03T10:19:20Z</time>
      </trkpt>
      <trkpt lat="46.70317" lon="5.62305">
        <ele>385.8</ele>
        <time>2023-09-03T10:19:21Z</time>
      </trkpt>
      <trkpt lat="46.70321" lon="5.62303">
        <ele>385.8</ele>
        <time>2023-09-03T10:19:22Z</time>
      </trkpt>
      <trkpt lat="46.70322" lon="5.62303">
        <ele>385.8</ele>
        <time>2023-09-03T10:19:23Z</time>
      </trkpt>
      <trkpt lat="46.70326" lon="5.62302">
        <ele>385.8</ele>
        <time>2023-09-03T10:19:24Z</time>
      </trkpt>
      <trkpt lat="46.70327" lon="5.62302">
        <ele>386.6</ele>
        <time>2023-09-03T10:19:25Z</time>
      </trkpt>
      <trkpt lat="46.70331" lon="5.623">
        <ele>386.8</ele>
        <time>2023-09-03T10:19:26Z</time>
      </trkpt>
      <trkpt lat="46.70332" lon="5.623">
        <ele>386.8</ele>
        <time>2023-09-03T10:19:27Z</time>
      </trkpt>
      <trkpt lat="46.70336" lon="5.62298">
        <ele>386.8</ele>
        <time>2023-09-03T10:19:28Z</time>
      </trkpt>
      <trkpt lat="46.70337" lon="5.62298">
        <ele>386.8</ele>
        <time>2023-09-03T10:19:29Z</time>
      </trkpt>
      <trkpt lat="46.70341" lon="5.62297">
        <ele>387.2</ele>
        <time>2023-09-03T10:19:30Z</time>
      </trkpt>
      <trkpt lat="46.70342" lon="5.62296">
        <ele>387.6</ele>
        <time>2023-09-03T10:19:31Z</time>
      </trkpt>
      <trkpt lat="46.70344" lon="5.62295">
        <ele>387.6</ele>
        <time>2023-09-03T10:19:32Z</time>
      </trkpt>
      <trkpt lat="46.70347" lon="5.62295">
        <ele>387.6</ele>
        <time>2023-09-03T10:19:33Z</time>
      </trkpt>
      <trkpt lat="46.70349" lon="5.62294">
        <ele>388</ele>
        <time>2023-09-03T10:19:34Z</time>
      </trkpt>
      <trkpt lat="46.70352" lon="5.62293">
        <ele>388.4</ele>
        <time>2023-09-03T10:19:35Z</time>
      </trkpt>
      <trkpt lat="46.70353" lon="5.62293">
        <ele>388.4</ele>
        <time>2023-09-03T10:19:36Z</time>
      </trkpt>
      <trkpt lat="46.70357" lon="5.62292">
        <ele>388.4</ele>
        <time>2023-09-03T10:19:37Z</time>
      </trkpt>
      <trkpt lat="46.70358" lon="5.62292">
        <ele>388.8</ele>
        <time>2023-09-03T10:19:38Z</time>
      </trkpt>
      <trkpt lat="46.70361" lon="5.62291">
        <ele>388.8</ele>
        <time>2023-09-03T10:19:39Z</time>
      </trkpt>
      <trkpt lat="46.70363" lon="5.62291">
        <ele>389</ele>
        <time>2023-09-03T10:19:40Z</time>
      </trkpt>
      <trkpt lat="46.70365" lon="5.62291">
        <ele>389</ele>
        <time>2023-09-03T10:19:41Z</time>
      </trkpt>
      <trkpt lat="46.70369" lon="5.6229">
        <ele>389</ele>
        <time>2023-09-03T10:19:42Z</time>
      </trkpt>
      <trkpt lat="46.7037" lon="5.6229">
        <ele>389.8</ele>
        <time>2023-09-03T10:19:43Z</time>
      </trkpt>
      <trkpt lat="46.70374" lon="5.6229">
        <ele>390</ele>
        <time>2023-09-03T10:19:44Z</time>
      </trkpt>
      <trkpt lat="46.70376" lon="5.6229">
        <ele>390</ele>
        <time>2023-09-03T10:19:45Z</time>
      </trkpt>
      <trkpt lat="46.70378" lon="5.62289">
        <ele>390</ele>
        <time>2023-09-03T10:19:46Z</time>
      </trkpt>
      <trkpt lat="46.70381" lon="5.62289">
        <ele>390.6</ele>
        <time>2023-09-03T10:19:47Z</time>
      </trkpt>
      <trkpt lat="46.70383" lon="5.62288">
        <ele>390.8</ele>
        <time>2023-09-03T10:19:48Z</time>
      </trkpt>
      <trkpt lat="46.70385" lon="5.62287">
        <ele>390.8</ele>
        <time>2023-09-03T10:19:49Z</time>
      </trkpt>
      <trkpt lat="46.70389" lon="5.62286">
        <ele>390.8</ele>
        <time>2023-09-03T10:19:50Z</time>
      </trkpt>
      <trkpt lat="46.7039" lon="5.62286">
        <ele>391</ele>
        <time>2023-09-03T10:19:51Z</time>
      </trkpt>
      <trkpt lat="46.70394" lon="5.62285">
        <ele>391.2</ele>
        <time>2023-09-03T10:19:52Z</time>
      </trkpt>
      <trkpt lat="46.70395" lon="5.62285">
        <ele>391.2</ele>
        <time>2023-09-03T10:19:53Z</time>
      </trkpt>
      <trkpt lat="46.70399" lon="5.62284">
        <ele>391.2</ele>
        <time>2023-09-03T10:19:54Z</time>
      </trkpt>
      <trkpt lat="46.704" lon="5.62283">
        <ele>391.2</ele>
        <time>2023-09-03T10:19:55Z</time>
      </trkpt>
      <trkpt lat="46.70402" lon="5.62282">
        <ele>391.8</ele>
        <time>2023-09-03T10:19:56Z</time>
      </trkpt>
      <trkpt lat="46.70405" lon="5.62281">
        <ele>392</ele>
        <time>2023-09-03T10:19:57Z</time>
      </trkpt>
      <trkpt lat="46.70407" lon="5.6228">
        <ele>392</ele>
        <time>2023-09-03T10:19:58Z</time>
      </trkpt>
      <trkpt lat="46.70409" lon="5.62279">
        <ele>392</ele>
        <time>2023-09-03T10:19:59Z</time>
      </trkpt>
      <trkpt lat="46.70412" lon="5.62278">
        <ele>392</ele>
        <time>2023-09-03T10:20:00Z</time>
      </trkpt>
      <trkpt lat="46.70413" lon="5.62278">
        <ele>392.2</ele>
        <time>2023-09-03T10:20:01Z</time>
      </trkpt>
      <trkpt lat="46.70416" lon="5.62276">
        <ele>392.6</ele>
        <time>2023-09-03T10:20:02Z</time>
      </trkpt>
      <trkpt lat="46.70417" lon="5.62275">
        <ele>392.6</ele>
        <time>2023-09-03T10:20:03Z</time>
      </trkpt>
      <trkpt lat="46.7042" lon="5.62274">
        <ele>392.6</ele>
        <time>2023-09-03T10:20:04Z</time>
      </trkpt>
      <trkpt lat="46.70422" lon="5.62272">
        <ele>392.6</ele>
        <time>2023-09-03T10:20:05Z</time>
      </trkpt>
      <trkpt lat="46.70424" lon="5.62271">
        <ele>393</ele>
        <time>2023-09-03T10:20:06Z</time>
      </trkpt>
      <trkpt lat="46.70427" lon="5.62269">
        <ele>393</ele>
        <time>2023-09-03T10:20:07Z</time>
      </trkpt>
      <trkpt lat="46.70429" lon="5.62268">
        <ele>393</ele>
        <time>2023-09-03T10:20:08Z</time>
      </trkpt>
      <trkpt lat="46.70431" lon="5.62267">
        <ele>393</ele>
        <time>2023-09-03T10:20:09Z</time>
      </trkpt>
      <trkpt lat="46.70433" lon="5.62266">
        <ele>393.8</ele>
        <time>2023-09-03T10:20:10Z</time>
      </trkpt>
      <trkpt lat="46.70435" lon="5.62264">
        <ele>394</ele>
        <time>2023-09-03T10:20:11Z</time>
      </trkpt>
      <trkpt lat="46.70437" lon="5.62263">
        <ele>394</ele>
        <time>2023-09-03T10:20:12Z</time>
      </trkpt>
      <trkpt lat="46.70439" lon="5.62261">
        <ele>394</ele>
        <time>2023-09-03T10:20:13Z</time>
      </trkpt>
      <trkpt lat="46.70442" lon="5.62259">
        <ele>394.6</ele>
        <time>2023-09-03T10:20:14Z</time>
      </trkpt>
      <trkpt lat="46.70443" lon="5.62258">
        <ele>394.6</ele>
        <time>2023-09-03T10:20:15Z</time>
      </trkpt>
      <trkpt lat="46.70445" lon="5.62256">
        <ele>394.6</ele>
        <time>2023-09-03T10:20:16Z</time>
      </trkpt>
      <trkpt lat="46.70448" lon="5.62255">
        <ele>394.6</ele>
        <time>2023-09-03T10:20:17Z</time>
      </trkpt>
      <trkpt lat="46.7045" lon="5.62253">
        <ele>394.6</ele>
        <time>2023-09-03T10:20:18Z</time>
      </trkpt>
      <trkpt lat="46.70454" lon="5.62251">
        <ele>395.2</ele>
        <time>2023-09-03T10:20:19Z</time>
      </trkpt>
      <trkpt lat="46.70455" lon="5.6225">
        <ele>395.4</ele>
        <time>2023-09-03T10:20:20Z</time>
      </trkpt>
      <trkpt lat="46.70458" lon="5.62248">
        <ele>395.4</ele>
        <time>2023-09-03T10:20:21Z</time>
      </trkpt>
      <trkpt lat="46.7046" lon="5.62247">
        <ele>395.4</ele>
        <time>2023-09-03T10:20:22Z</time>
      </trkpt>
      <trkpt lat="46.70462" lon="5.62246">
        <ele>395.8</ele>
        <time>2023-09-03T10:20:23Z</time>
      </trkpt>
      <trkpt lat="46.70464" lon="5.62244">
        <ele>396</ele>
        <time>2023-09-03T10:20:24Z</time>
      </trkpt>
      <trkpt lat="46.70467" lon="5.62242">
        <ele>396</ele>
        <time>2023-09-03T10:20:25Z</time>
      </trkpt>
      <trkpt lat="46.70469" lon="5.6224">
        <ele>396</ele>
        <time>2023-09-03T10:20:26Z</time>
      </trkpt>
      <trkpt lat="46.70471" lon="5.62239">
        <ele>396</ele>
        <time>2023-09-03T10:20:27Z</time>
      </trkpt>
      <trkpt lat="46.70474" lon="5.62237">
        <ele>396.6</ele>
        <time>2023-09-03T10:20:28Z</time>
      </trkpt>
      <trkpt lat="46.70477" lon="5.62235">
        <ele>396.6</ele>
        <time>2023-09-03T10:20:29Z</time>
      </trkpt>
      <trkpt lat="46.70478" lon="5.62234">
        <ele>396.6</ele>
        <time>2023-09-03T10:20:30Z</time>
      </trkpt>
      <trkpt lat="46.70481" lon="5.62232">
        <ele>396.6</ele>
        <time>2023-09-03T10:20:31Z</time>
      </trkpt>
      <trkpt lat="46.70483" lon="5.62231">
        <ele>396.6</ele>
        <time>2023-09-03T10:20:32Z</time>
      </trkpt>
      <trkpt lat="46.70487" lon="5.6223">
        <ele>397.2</ele>
        <time>2023-09-03T10:20:33Z</time>
      </trkpt>
      <trkpt lat="46.70489" lon="5.62229">
        <ele>397.2</ele>
        <time>2023-09-03T10:20:34Z</time>
      </trkpt>
      <trkpt lat="46.70493" lon="5.62228">
        <ele>397.2</ele>
        <time>2023-09-03T10:20:35Z</time>
      </trkpt>
      <trkpt lat="46.70494" lon="5.62228">
        <ele>397.2</ele>
        <time>2023-09-03T10:20:36Z</time>
      </trkpt>
      <trkpt lat="46.70497" lon="5.62227">
        <ele>398</ele>
        <time>2023-09-03T10:20:37Z</time>
      </trkpt>
      <trkpt lat="46.70501" lon="5.62225">
        <ele>398.2</ele>
        <time>2023-09-03T10:20:38Z</time>
      </trkpt>
      <trkpt lat="46.70503" lon="5.62225">
        <ele>398.2</ele>
        <time>2023-09-03T10:20:39Z</time>
      </trkpt>
      <trkpt lat="46.70505" lon="5.62224">
        <ele>398.2</ele>
        <time>2023-09-03T10:20:40Z</time>
      </trkpt>
      <trkpt lat="46.7051" lon="5.62224">
        <ele>398.2</ele>
        <time>2023-09-03T10:20:41Z</time>
      </trkpt>
      <trkpt lat="46.70511" lon="5.62223">
        <ele>398.2</ele>
        <time>2023-09-03T10:20:42Z</time>
      </trkpt>
      <trkpt lat="46.70515" lon="5.62223">
        <ele>398.4</ele>
        <time>2023-09-03T10:20:43Z</time>
      </trkpt>
      <trkpt lat="46.70517" lon="5.62223">
        <ele>398.4</ele>
        <time>2023-09-03T10:20:44Z</time>
      </trkpt>
      <trkpt lat="46.70521" lon="5.62222">
        <ele>398.4</ele>
        <time>2023-09-03T10:20:45Z</time>
      </trkpt>
      <trkpt lat="46.70523" lon="5.62222">
        <ele>398.4</ele>
        <time>2023-09-03T10:20:46Z</time>
      </trkpt>
      <trkpt lat="46.70525" lon="5.62221">
        <ele>398.6</ele>
        <time>2023-09-03T10:20:47Z</time>
      </trkpt>
      <trkpt lat="46.70528" lon="5.62221">
        <ele>399.2</ele>
        <time>2023-09-03T10:20:48Z</time>
      </trkpt>
      <trkpt lat="46.70531" lon="5.6222">
        <ele>399.2</ele>
        <time>2023-09-03T10:20:49Z</time>
      </trkpt>
      <trkpt lat="46.70535" lon="5.62219">
        <ele>399.2</ele>
        <time>2023-09-03T10:20:50Z</time>
      </trkpt>
      <trkpt lat="46.70536" lon="5.62219">
        <ele>399.2</ele>
        <time>2023-09-03T10:20:51Z</time>
      </trkpt>
      <trkpt lat="46.7054" lon="5.62218">
        <ele>399.4</ele>
        <time>2023-09-03T10:20:52Z</time>
      </trkpt>
      <trkpt lat="46.70542" lon="5.62218">
        <ele>399.4</ele>
        <time>2023-09-03T10:20:53Z</time>
      </trkpt>
      <trkpt lat="46.70545" lon="5.62217">
        <ele>399.4</ele>
        <time>2023-09-03T10:20:54Z</time>
      </trkpt>
      <trkpt lat="46.70547" lon="5.62217">
        <ele>399.4</ele>
        <time>2023-09-03T10:20:55Z</time>
      </trkpt>
      <trkpt lat="46.70551" lon="5.62216">
        <ele>399.4</ele>
        <time>2023-09-03T10:20:56Z</time>
      </trkpt>
      <trkpt lat="46.70552" lon="5.62215">
        <ele>399.4</ele>
        <time>2023-09-03T10:20:57Z</time>
      </trkpt>
      <trkpt lat="46.70556" lon="5.62215">
        <ele>399.4</ele>
        <time>2023-09-03T10:20:58Z</time>
      </trkpt>
      <trkpt lat="46.70557" lon="5.62214">
        <ele>399.4</ele>
        <time>2023-09-03T10:20:59Z</time>
      </trkpt>
      <trkpt lat="46.70561" lon="5.62214">
        <ele>399.4</ele>
        <time>2023-09-03T10:21:00Z</time>
      </trkpt>
      <trkpt lat="46.70562" lon="5.62214">
        <ele>399.8</ele>
        <time>2023-09-03T10:21:01Z</time>
      </trkpt>
      <trkpt lat="46.70565" lon="5.62214">
        <ele>399.8</ele>
        <time>2023-09-03T10:21:02Z</time>
      </trkpt>
      <trkpt lat="46.70569" lon="5.62213">
        <ele>399.8</ele>
        <time>2023-09-03T10:21:03Z</time>
      </trkpt>
      <trkpt lat="46.7057" lon="5.62214">
        <ele>400</ele>
        <time>2023-09-03T10:21:04Z</time>
      </trkpt>
      <trkpt lat="46.70574" lon="5.62213">
        <ele>400.2</ele>
        <time>2023-09-03T10:21:05Z</time>
      </trkpt>
      <trkpt lat="46.70575" lon="5.62213">
        <ele>400.2</ele>
        <time>2023-09-03T10:21:06Z</time>
      </trkpt>
      <trkpt lat="46.70578" lon="5.62213">
        <ele>400.2</ele>
        <time>2023-09-03T10:21:07Z</time>
      </trkpt>
      <trkpt lat="46.7058" lon="5.62212">
        <ele>400.2</ele>
        <time>2023-09-03T10:21:08Z</time>
      </trkpt>
      <trkpt lat="46.70584" lon="5.62211">
        <ele>400.2</ele>
        <time>2023-09-03T10:21:09Z</time>
      </trkpt>
      <trkpt lat="46.70586" lon="5.62211">
        <ele>400.2</ele>
        <time>2023-09-03T10:21:10Z</time>
      </trkpt>
      <trkpt lat="46.7059" lon="5.6221">
        <ele>400.2</ele>
        <time>2023-09-03T10:21:11Z</time>
      </trkpt>
      <trkpt lat="46.70591" lon="5.6221">
        <ele>400.2</ele>
        <time>2023-09-03T10:21:12Z</time>
      </trkpt>
      <trkpt lat="46.70594" lon="5.6221">
        <ele>400.4</ele>
        <time>2023-09-03T10:21:13Z</time>
      </trkpt>
      <trkpt lat="46.70596" lon="5.62209">
        <ele>400.6</ele>
        <time>2023-09-03T10:21:14Z</time>
      </trkpt>
      <trkpt lat="46.70598" lon="5.62208">
        <ele>400.6</ele>
        <time>2023-09-03T10:21:15Z</time>
      </trkpt>
      <trkpt lat="46.70602" lon="5.62208">
        <ele>400.6</ele>
        <time>2023-09-03T10:21:16Z</time>
      </trkpt>
      <trkpt lat="46.70603" lon="5.62208">
        <ele>400.8</ele>
        <time>2023-09-03T10:21:17Z</time>
      </trkpt>
      <trkpt lat="46.70606" lon="5.62206">
        <ele>400.8</ele>
        <time>2023-09-03T10:21:18Z</time>
      </trkpt>
      <trkpt lat="46.7061" lon="5.62205">
        <ele>400.8</ele>
        <time>2023-09-03T10:21:19Z</time>
      </trkpt>
      <trkpt lat="46.70611" lon="5.62205">
        <ele>400.8</ele>
        <time>2023-09-03T10:21:20Z</time>
      </trkpt>
      <trkpt lat="46.70615" lon="5.62205">
        <ele>400.8</ele>
        <time>2023-09-03T10:21:21Z</time>
      </trkpt>
      <trkpt lat="46.70616" lon="5.62205">
        <ele>401</ele>
        <time>2023-09-03T10:21:22Z</time>
      </trkpt>
      <trkpt lat="46.70619" lon="5.62206">
        <ele>401.2</ele>
        <time>2023-09-03T10:21:23Z</time>
      </trkpt>
      <trkpt lat="46.70623" lon="5.62207">
        <ele>401.2</ele>
        <time>2023-09-03T10:21:24Z</time>
      </trkpt>
      <trkpt lat="46.70624" lon="5.62207">
        <ele>401.2</ele>
        <time>2023-09-03T10:21:25Z</time>
      </trkpt>
      <trkpt lat="46.70628" lon="5.62207">
        <ele>401.2</ele>
        <time>2023-09-03T10:21:26Z</time>
      </trkpt>
      <trkpt lat="46.70629" lon="5.62207">
        <ele>401.6</ele>
        <time>2023-09-03T10:21:27Z</time>
      </trkpt>
      <trkpt lat="46.70633" lon="5.62208">
        <ele>401.6</ele>
        <time>2023-09-03T10:21:28Z</time>
      </trkpt>
      <trkpt lat="46.70634" lon="5.62208">
        <ele>401.6</ele>
        <time>2023-09-03T10:21:29Z</time>
      </trkpt>
      <trkpt lat="46.70638" lon="5.62208">
        <ele>401.6</ele>
        <time>2023-09-03T10:21:30Z</time>
      </trkpt>
      <trkpt lat="46.7064" lon="5.62208">
        <ele>401.6</ele>
        <time>2023-09-03T10:21:31Z</time>
      </trkpt>
      <trkpt lat="46.70642" lon="5.62207">
        <ele>402</ele>
        <time>2023-09-03T10:21:32Z</time>
      </trkpt>
      <trkpt lat="46.70645" lon="5.62207">
        <ele>402</ele>
        <time>2023-09-03T10:21:33Z</time>
      </trkpt>
      <trkpt lat="46.70648" lon="5.62207">
        <ele>402</ele>
        <time>2023-09-03T10:21:34Z</time>
      </trkpt>
      <trkpt lat="46.70651" lon="5.62207">
        <ele>402</ele>
        <time>2023-09-03T10:21:35Z</time>
      </trkpt>
      <trkpt lat="46.70653" lon="5.62207">
        <ele>402.4</ele>
        <time>2023-09-03T10:21:36Z</time>
      </trkpt>
      <trkpt lat="46.70656" lon="5.62207">
        <ele>402.4</ele>
        <time>2023-09-03T10:21:37Z</time>
      </trkpt>
      <trkpt lat="46.70658" lon="5.62207">
        <ele>402.4</ele>
        <time>2023-09-03T10:21:38Z</time>
      </trkpt>
      <trkpt lat="46.70662" lon="5.62206">
        <ele>402.4</ele>
        <time>2023-09-03T10:21:39Z</time>
      </trkpt>
      <trkpt lat="46.70663" lon="5.62206">
        <ele>402.8</ele>
        <time>2023-09-03T10:21:40Z</time>
      </trkpt>
      <trkpt lat="46.70667" lon="5.62205">
        <ele>402.8</ele>
        <time>2023-09-03T10:21:41Z</time>
      </trkpt>
      <trkpt lat="46.70668" lon="5.62205">
        <ele>403</ele>
        <time>2023-09-03T10:21:42Z</time>
      </trkpt>
      <trkpt lat="46.70672" lon="5.62204">
        <ele>403</ele>
        <time>2023-09-03T10:21:43Z</time>
      </trkpt>
      <trkpt lat="46.70673" lon="5.62204">
        <ele>403</ele>
        <time>2023-09-03T10:21:44Z</time>
      </trkpt>
      <trkpt lat="46.70675" lon="5.62203">
        <ele>403</ele>
        <time>2023-09-03T10:21:45Z</time>
      </trkpt>
      <trkpt lat="46.70677" lon="5.62203">
        <ele>403.4</ele>
        <time>2023-09-03T10:21:46Z</time>
      </trkpt>
      <trkpt lat="46.70679" lon="5.62203">
        <ele>403.4</ele>
        <time>2023-09-03T10:21:47Z</time>
      </trkpt>
      <trkpt lat="46.70682" lon="5.62202">
        <ele>403.4</ele>
        <time>2023-09-03T10:21:48Z</time>
      </trkpt>
      <trkpt lat="46.70684" lon="5.62201">
        <ele>403.8</ele>
        <time>2023-09-03T10:21:49Z</time>
      </trkpt>
      <trkpt lat="46.70686" lon="5.62201">
        <ele>403.8</ele>
        <time>2023-09-03T10:21:50Z</time>
      </trkpt>
      <trkpt lat="46.70689" lon="5.62199">
        <ele>403.8</ele>
        <time>2023-09-03T10:21:51Z</time>
      </trkpt>
      <trkpt lat="46.7069" lon="5.62199">
        <ele>403.8</ele>
        <time>2023-09-03T10:21:52Z</time>
      </trkpt>
      <trkpt lat="46.70693" lon="5.62198">
        <ele>403.8</ele>
        <time>2023-09-03T10:21:53Z</time>
      </trkpt>
      <trkpt lat="46.70694" lon="5.62197">
        <ele>403.8</ele>
        <time>2023-09-03T10:21:54Z</time>
      </trkpt>
      <trkpt lat="46.70697" lon="5.62196">
        <ele>404.2</ele>
        <time>2023-09-03T10:21:55Z</time>
      </trkpt>
      <trkpt lat="46.70698" lon="5.62195">
        <ele>404.2</ele>
        <time>2023-09-03T10:21:56Z</time>
      </trkpt>
      <trkpt lat="46.70701" lon="5.62193">
        <ele>404.2</ele>
        <time>2023-09-03T10:21:57Z</time>
      </trkpt>
      <trkpt lat="46.70702" lon="5.62192">
        <ele>404.2</ele>
        <time>2023-09-03T10:21:58Z</time>
      </trkpt>
      <trkpt lat="46.70704" lon="5.6219">
        <ele>404.4</ele>
        <time>2023-09-03T10:21:59Z</time>
      </trkpt>
      <trkpt lat="46.70706" lon="5.62187">
        <ele>404.6</ele>
        <time>2023-09-03T10:22:00Z</time>
      </trkpt>
      <trkpt lat="46.70707" lon="5.62187">
        <ele>404.6</ele>
        <time>2023-09-03T10:22:01Z</time>
      </trkpt>
      <trkpt lat="46.70709" lon="5.62184">
        <ele>404.6</ele>
        <time>2023-09-03T10:22:02Z</time>
      </trkpt>
      <trkpt lat="46.7071" lon="5.62183">
        <ele>405</ele>
        <time>2023-09-03T10:22:03Z</time>
      </trkpt>
      <trkpt lat="46.70711" lon="5.6218">
        <ele>404.8</ele>
        <time>2023-09-03T10:22:04Z</time>
      </trkpt>
      <trkpt lat="46.70712" lon="5.62179">
        <ele>404.8</ele>
        <time>2023-09-03T10:22:05Z</time>
      </trkpt>
      <trkpt lat="46.70713" lon="5.62178">
        <ele>404.8</ele>
        <time>2023-09-03T10:22:06Z</time>
      </trkpt>
      <trkpt lat="46.70714" lon="5.62178">
        <ele>404.8</ele>
        <time>2023-09-03T10:22:07Z</time>
      </trkpt>
      <trkpt lat="46.70714" lon="5.62177">
        <ele>405</ele>
        <time>2023-09-03T10:22:08Z</time>
      </trkpt>
      <trkpt lat="46.70715" lon="5.62176">
        <ele>405</ele>
        <time>2023-09-03T10:22:09Z</time>
      </trkpt>
      <trkpt lat="46.70716" lon="5.62175">
        <ele>405</ele>
        <time>2023-09-03T10:22:10Z</time>
      </trkpt>
      <trkpt lat="46.70717" lon="5.62174">
        <ele>405</ele>
        <time>2023-09-03T10:22:11Z</time>
      </trkpt>
      <trkpt lat="46.70718" lon="5.62174">
        <ele>405</ele>
        <time>2023-09-03T10:22:12Z</time>
      </trkpt>
      <trkpt lat="46.70719" lon="5.62173">
        <ele>405.4</ele>
        <time>2023-09-03T10:22:13Z</time>
      </trkpt>
      <trkpt lat="46.70721" lon="5.62171">
        <ele>405.4</ele>
        <time>2023-09-03T10:22:14Z</time>
      </trkpt>
      <trkpt lat="46.70723" lon="5.62169">
        <ele>405.4</ele>
        <time>2023-09-03T10:22:15Z</time>
      </trkpt>
      <trkpt lat="46.70724" lon="5.62168">
        <ele>405.4</ele>
        <time>2023-09-03T10:22:16Z</time>
      </trkpt>
      <trkpt lat="46.70726" lon="5.62166">
        <ele>405.6</ele>
        <time>2023-09-03T10:22:17Z</time>
      </trkpt>
      <trkpt lat="46.70727" lon="5.62165">
        <ele>409</ele>
        <time>2023-09-03T10:22:53Z</time>
      </trkpt>
      <trkpt lat="46.70729" lon="5.62164">
        <ele>409</ele>
        <time>2023-09-03T10:22:54Z</time>
      </trkpt>
      <trkpt lat="46.7073" lon="5.62162">
        <ele>409</ele>
        <time>2023-09-03T10:22:55Z</time>
      </trkpt>
      <trkpt lat="46.70732" lon="5.62161">
        <ele>409</ele>
        <time>2023-09-03T10:22:56Z</time>
      </trkpt>
      <trkpt lat="46.70734" lon="5.62159">
        <ele>409.4</ele>
        <time>2023-09-03T10:22:57Z</time>
      </trkpt>
      <trkpt lat="46.70736" lon="5.62157">
        <ele>409.4</ele>
        <time>2023-09-03T10:22:58Z</time>
      </trkpt>
      <trkpt lat="46.70737" lon="5.62155">
        <ele>409.4</ele>
        <time>2023-09-03T10:22:59Z</time>
      </trkpt>
      <trkpt lat="46.70739" lon="5.62153">
        <ele>409.4</ele>
        <time>2023-09-03T10:23:00Z</time>
      </trkpt>
      <trkpt lat="46.70741" lon="5.62152">
        <ele>409.4</ele>
        <time>2023-09-03T10:23:01Z</time>
      </trkpt>
      <trkpt lat="46.70744" lon="5.62149">
        <ele>409.4</ele>
        <time>2023-09-03T10:23:02Z</time>
      </trkpt>
      <trkpt lat="46.70744" lon="5.62148">
        <ele>410</ele>
        <time>2023-09-03T10:23:03Z</time>
      </trkpt>
      <trkpt lat="46.70747" lon="5.62145">
        <ele>410</ele>
        <time>2023-09-03T10:23:04Z</time>
      </trkpt>
      <trkpt lat="46.70748" lon="5.62144">
        <ele>410</ele>
        <time>2023-09-03T10:23:05Z</time>
      </trkpt>
      <trkpt lat="46.7075" lon="5.62142">
        <ele>410.8</ele>
        <time>2023-09-03T10:23:06Z</time>
      </trkpt>
      <trkpt lat="46.70752" lon="5.6214">
        <ele>410.8</ele>
        <time>2023-09-03T10:23:07Z</time>
      </trkpt>
      <trkpt lat="46.70754" lon="5.62139">
        <ele>410.8</ele>
        <time>2023-09-03T10:23:08Z</time>
      </trkpt>
      <trkpt lat="46.70755" lon="5.62137">
        <ele>410.8</ele>
        <time>2023-09-03T10:23:09Z</time>
      </trkpt>
      <trkpt lat="46.70757" lon="5.62135">
        <ele>410.8</ele>
        <time>2023-09-03T10:23:10Z</time>
      </trkpt>
      <trkpt lat="46.70759" lon="5.62133">
        <ele>410.8</ele>
        <time>2023-09-03T10:23:11Z</time>
      </trkpt>
      <trkpt lat="46.7076" lon="5.62132">
        <ele>411.4</ele>
        <time>2023-09-03T10:23:12Z</time>
      </trkpt>
      <trkpt lat="46.70763" lon="5.62129">
        <ele>411.4</ele>
        <time>2023-09-03T10:23:13Z</time>
      </trkpt>
      <trkpt lat="46.70764" lon="5.62128">
        <ele>411.4</ele>
        <time>2023-09-03T10:23:14Z</time>
      </trkpt>
      <trkpt lat="46.70766" lon="5.62127">
        <ele>412</ele>
        <time>2023-09-03T10:23:15Z</time>
      </trkpt>
      <trkpt lat="46.70768" lon="5.62124">
        <ele>412.2</ele>
        <time>2023-09-03T10:23:16Z</time>
      </trkpt>
      <trkpt lat="46.70769" lon="5.62123">
        <ele>412.2</ele>
        <time>2023-09-03T10:23:17Z</time>
      </trkpt>
      <trkpt lat="46.70772" lon="5.62121">
        <ele>412.2</ele>
        <time>2023-09-03T10:23:18Z</time>
      </trkpt>
      <trkpt lat="46.70773" lon="5.6212">
        <ele>412.8</ele>
        <time>2023-09-03T10:23:19Z</time>
      </trkpt>
      <trkpt lat="46.70775" lon="5.62119">
        <ele>413</ele>
        <time>2023-09-03T10:23:20Z</time>
      </trkpt>
      <trkpt lat="46.70777" lon="5.62116">
        <ele>413</ele>
        <time>2023-09-03T10:23:21Z</time>
      </trkpt>
      <trkpt lat="46.70779" lon="5.62112">
        <ele>413</ele>
        <time>2023-09-03T10:23:22Z</time>
      </trkpt>
      <trkpt lat="46.7078" lon="5.6211">
        <ele>413</ele>
        <time>2023-09-03T10:23:23Z</time>
      </trkpt>
      <trkpt lat="46.70782" lon="5.62108">
        <ele>413.2</ele>
        <time>2023-09-03T10:23:24Z</time>
      </trkpt>
      <trkpt lat="46.70784" lon="5.62105">
        <ele>413.2</ele>
        <time>2023-09-03T10:23:25Z</time>
      </trkpt>
      <trkpt lat="46.70785" lon="5.62103">
        <ele>413.6</ele>
        <time>2023-09-03T10:23:26Z</time>
      </trkpt>
      <trkpt lat="46.70789" lon="5.621">
        <ele>413.6</ele>
        <time>2023-09-03T10:23:27Z</time>
      </trkpt>
      <trkpt lat="46.7079" lon="5.62099">
        <ele>413.6</ele>
        <time>2023-09-03T10:23:28Z</time>
      </trkpt>
      <trkpt lat="46.70793" lon="5.62096">
        <ele>414</ele>
        <time>2023-09-03T10:23:29Z</time>
      </trkpt>
      <trkpt lat="46.70794" lon="5.62095">
        <ele>414.2</ele>
        <time>2023-09-03T10:23:30Z</time>
      </trkpt>
      <trkpt lat="46.70796" lon="5.62091">
        <ele>414.2</ele>
        <time>2023-09-03T10:23:31Z</time>
      </trkpt>
      <trkpt lat="46.70796" lon="5.6209">
        <ele>414.2</ele>
        <time>2023-09-03T10:23:32Z</time>
      </trkpt>
      <trkpt lat="46.70798" lon="5.62087">
        <ele>415.2</ele>
        <time>2023-09-03T10:23:33Z</time>
      </trkpt>
      <trkpt lat="46.70799" lon="5.62085">
        <ele>415.4</ele>
        <time>2023-09-03T10:23:34Z</time>
      </trkpt>
      <trkpt lat="46.70801" lon="5.62083">
        <ele>415.4</ele>
        <time>2023-09-03T10:23:35Z</time>
      </trkpt>
      <trkpt lat="46.70802" lon="5.62082">
        <ele>415.4</ele>
        <time>2023-09-03T10:23:36Z</time>
      </trkpt>
      <trkpt lat="46.70803" lon="5.62082">
        <ele>416.2</ele>
        <time>2023-09-03T10:23:37Z</time>
      </trkpt>
      <trkpt lat="46.70805" lon="5.62081">
        <ele>416.6</ele>
        <time>2023-09-03T10:23:38Z</time>
      </trkpt>
      <trkpt lat="46.70805" lon="5.62081">
        <ele>416.6</ele>
        <time>2023-09-03T10:23:39Z</time>
      </trkpt>
      <trkpt lat="46.70805" lon="5.62081">
        <ele>416.6</ele>
        <time>2023-09-03T10:23:40Z</time>
      </trkpt>
      <trkpt lat="46.70805" lon="5.6208">
        <ele>416.6</ele>
        <time>2023-09-03T10:23:41Z</time>
      </trkpt>
      <trkpt lat="46.70806" lon="5.6208">
        <ele>421.2</ele>
        <time>2023-09-03T10:24:15Z</time>
      </trkpt>
      <trkpt lat="46.70806" lon="5.6208">
        <ele>421.2</ele>
        <time>2023-09-03T10:24:16Z</time>
      </trkpt>
      <trkpt lat="46.70806" lon="5.62079">
        <ele>421.2</ele>
        <time>2023-09-03T10:24:17Z</time>
      </trkpt>
      <trkpt lat="46.70806" lon="5.62079">
        <ele>431.2</ele>
        <time>2023-09-03T10:27:33Z</time>
      </trkpt>
      <trkpt lat="46.70806" lon="5.62079">
        <ele>431.2</ele>
        <time>2023-09-03T10:27:34Z</time>
      </trkpt>
      <trkpt lat="46.70807" lon="5.62078">
        <ele>431.2</ele>
        <time>2023-09-03T10:27:35Z</time>
      </trkpt>
      <trkpt lat="46.70807" lon="5.62078">
        <ele>431.6</ele>
        <time>2023-09-03T10:27:36Z</time>
      </trkpt>
      <trkpt lat="46.70807" lon="5.62078">
        <ele>432.2</ele>
        <time>2023-09-03T10:28:07Z</time>
      </trkpt>
      <trkpt lat="46.70807" lon="5.62078">
        <ele>432.2</ele>
        <time>2023-09-03T10:28:08Z</time>
      </trkpt>
      <trkpt lat="46.70807" lon="5.62077">
        <ele>432</ele>
        <time>2023-09-03T10:28:09Z</time>
      </trkpt>
      <trkpt lat="46.70804" lon="5.62074">
        <ele>432</ele>
        <time>2023-09-03T10:28:10Z</time>
      </trkpt>
      <trkpt lat="46.70803" lon="5.62073">
        <ele>432</ele>
        <time>2023-09-03T10:28:11Z</time>
      </trkpt>
      <trkpt lat="46.70801" lon="5.6207">
        <ele>432</ele>
        <time>2023-09-03T10:28:12Z</time>
      </trkpt>
      <trkpt lat="46.70798" lon="5.62068">
        <ele>431.6</ele>
        <time>2023-09-03T10:28:13Z</time>
      </trkpt>
      <trkpt lat="46.70795" lon="5.62063">
        <ele>431.6</ele>
        <time>2023-09-03T10:28:14Z</time>
      </trkpt>
      <trkpt lat="46.70794" lon="5.62061">
        <ele>431.6</ele>
        <time>2023-09-03T10:28:15Z</time>
      </trkpt>
      <trkpt lat="46.70791" lon="5.62057">
        <ele>430.6</ele>
        <time>2023-09-03T10:28:16Z</time>
      </trkpt>
      <trkpt lat="46.70787" lon="5.62052">
        <ele>430.4</ele>
        <time>2023-09-03T10:28:17Z</time>
      </trkpt>
      <trkpt lat="46.70786" lon="5.6205">
        <ele>430.4</ele>
        <time>2023-09-03T10:28:18Z</time>
      </trkpt>
      <trkpt lat="46.70783" lon="5.62043">
        <ele>430.4</ele>
        <time>2023-09-03T10:28:19Z</time>
      </trkpt>
      <trkpt lat="46.70782" lon="5.62041">
        <ele>430.4</ele>
        <time>2023-09-03T10:28:20Z</time>
      </trkpt>
      <trkpt lat="46.70779" lon="5.62034">
        <ele>429.4</ele>
        <time>2023-09-03T10:28:21Z</time>
      </trkpt>
      <trkpt lat="46.70777" lon="5.62032">
        <ele>429</ele>
        <time>2023-09-03T10:28:22Z</time>
      </trkpt>
      <trkpt lat="46.70775" lon="5.62028">
        <ele>429</ele>
        <time>2023-09-03T10:28:23Z</time>
      </trkpt>
      <trkpt lat="46.70773" lon="5.62023">
        <ele>429</ele>
        <time>2023-09-03T10:28:24Z</time>
      </trkpt>
      <trkpt lat="46.7077" lon="5.62018">
        <ele>428</ele>
        <time>2023-09-03T10:28:25Z</time>
      </trkpt>
      <trkpt lat="46.70768" lon="5.62014">
        <ele>428</ele>
        <time>2023-09-03T10:28:26Z</time>
      </trkpt>
      <trkpt lat="46.70763" lon="5.62007">
        <ele>427</ele>
        <time>2023-09-03T10:28:27Z</time>
      </trkpt>
      <trkpt lat="46.70762" lon="5.62004">
        <ele>427</ele>
        <time>2023-09-03T10:28:28Z</time>
      </trkpt>
      <trkpt lat="46.70759" lon="5.61999">
        <ele>427</ele>
        <time>2023-09-03T10:28:29Z</time>
      </trkpt>
      <trkpt lat="46.70754" lon="5.61991">
        <ele>426</ele>
        <time>2023-09-03T10:28:30Z</time>
      </trkpt>
      <trkpt lat="46.70753" lon="5.61989">
        <ele>425.4</ele>
        <time>2023-09-03T10:28:31Z</time>
      </trkpt>
      <trkpt lat="46.70749" lon="5.61983">
        <ele>425.4</ele>
        <time>2023-09-03T10:28:32Z</time>
      </trkpt>
      <trkpt lat="46.70744" lon="5.61976">
        <ele>425.4</ele>
        <time>2023-09-03T10:28:33Z</time>
      </trkpt>
      <trkpt lat="46.70737" lon="5.61967">
        <ele>424.4</ele>
        <time>2023-09-03T10:28:34Z</time>
      </trkpt>
      <trkpt lat="46.70735" lon="5.61964">
        <ele>423.6</ele>
        <time>2023-09-03T10:28:35Z</time>
      </trkpt>
      <trkpt lat="46.70728" lon="5.61955">
        <ele>423.6</ele>
        <time>2023-09-03T10:28:36Z</time>
      </trkpt>
      <trkpt lat="46.70725" lon="5.61953">
        <ele>423.6</ele>
        <time>2023-09-03T10:28:37Z</time>
      </trkpt>
      <trkpt lat="46.7072" lon="5.61947">
        <ele>422.6</ele>
        <time>2023-09-03T10:28:38Z</time>
      </trkpt>
      <trkpt lat="46.70713" lon="5.6194">
        <ele>422</ele>
        <time>2023-09-03T10:28:39Z</time>
      </trkpt>
      <trkpt lat="46.70711" lon="5.61938">
        <ele>422</ele>
        <time>2023-09-03T10:28:40Z</time>
      </trkpt>
      <trkpt lat="46.70706" lon="5.61933">
        <ele>422</ele>
        <time>2023-09-03T10:28:41Z</time>
      </trkpt>
      <trkpt lat="46.70699" lon="5.61926">
        <ele>422</ele>
        <time>2023-09-03T10:28:42Z</time>
      </trkpt>
      <trkpt lat="46.70697" lon="5.61923">
        <ele>421</ele>
        <time>2023-09-03T10:28:43Z</time>
      </trkpt>
      <trkpt lat="46.70693" lon="5.61918">
        <ele>421</ele>
        <time>2023-09-03T10:28:44Z</time>
      </trkpt>
      <trkpt lat="46.70687" lon="5.6191">
        <ele>420.8</ele>
        <time>2023-09-03T10:28:45Z</time>
      </trkpt>
      <trkpt lat="46.70686" lon="5.61907">
        <ele>420.8</ele>
        <time>2023-09-03T10:28:46Z</time>
      </trkpt>
      <trkpt lat="46.70683" lon="5.61901">
        <ele>420.8</ele>
        <time>2023-09-03T10:28:47Z</time>
      </trkpt>
      <trkpt lat="46.7068" lon="5.61895">
        <ele>419.8</ele>
        <time>2023-09-03T10:28:48Z</time>
      </trkpt>
      <trkpt lat="46.70678" lon="5.61888">
        <ele>418.8</ele>
        <time>2023-09-03T10:28:49Z</time>
      </trkpt>
      <trkpt lat="46.70676" lon="5.61882">
        <ele>418.8</ele>
        <time>2023-09-03T10:28:50Z</time>
      </trkpt>
      <trkpt lat="46.70674" lon="5.61875">
        <ele>418.8</ele>
        <time>2023-09-03T10:28:51Z</time>
      </trkpt>
      <trkpt lat="46.70673" lon="5.61866">
        <ele>417.8</ele>
        <time>2023-09-03T10:28:52Z</time>
      </trkpt>
      <trkpt lat="46.70672" lon="5.61863">
        <ele>417.8</ele>
        <time>2023-09-03T10:28:53Z</time>
      </trkpt>
      <trkpt lat="46.70671" lon="5.61854">
        <ele>417.2</ele>
        <time>2023-09-03T10:28:54Z</time>
      </trkpt>
      <trkpt lat="46.70671" lon="5.61851">
        <ele>417.2</ele>
        <time>2023-09-03T10:28:55Z</time>
      </trkpt>
      <trkpt lat="46.70671" lon="5.61845">
        <ele>417.2</ele>
        <time>2023-09-03T10:28:56Z</time>
      </trkpt>
      <trkpt lat="46.70671" lon="5.61837">
        <ele>417.2</ele>
        <time>2023-09-03T10:28:57Z</time>
      </trkpt>
      <trkpt lat="46.70671" lon="5.61835">
        <ele>416.2</ele>
        <time>2023-09-03T10:28:58Z</time>
      </trkpt>
      <trkpt lat="46.7067" lon="5.6183">
        <ele>415.4</ele>
        <time>2023-09-03T10:28:59Z</time>
      </trkpt>
      <trkpt lat="46.7067" lon="5.61822">
        <ele>415.4</ele>
        <time>2023-09-03T10:29:00Z</time>
      </trkpt>
      <trkpt lat="46.7067" lon="5.61819">
        <ele>415.4</ele>
        <time>2023-09-03T10:29:01Z</time>
      </trkpt>
      <trkpt lat="46.70669" lon="5.61812">
        <ele>414.8</ele>
        <time>2023-09-03T10:29:02Z</time>
      </trkpt>
      <trkpt lat="46.70669" lon="5.61809">
        <ele>414.4</ele>
        <time>2023-09-03T10:29:03Z</time>
      </trkpt>
      <trkpt lat="46.70668" lon="5.61804">
        <ele>414.4</ele>
        <time>2023-09-03T10:29:04Z</time>
      </trkpt>
      <trkpt lat="46.70666" lon="5.61799">
        <ele>414.4</ele>
        <time>2023-09-03T10:29:05Z</time>
      </trkpt>
      <trkpt lat="46.70665" lon="5.61794">
        <ele>414.4</ele>
        <time>2023-09-03T10:29:06Z</time>
      </trkpt>
      <trkpt lat="46.70664" lon="5.6179">
        <ele>413.4</ele>
        <time>2023-09-03T10:29:07Z</time>
      </trkpt>
      <trkpt lat="46.70662" lon="5.61785">
        <ele>413.2</ele>
        <time>2023-09-03T10:29:08Z</time>
      </trkpt>
      <trkpt lat="46.7066" lon="5.6178">
        <ele>413.2</ele>
        <time>2023-09-03T10:29:09Z</time>
      </trkpt>
      <trkpt lat="46.70659" lon="5.61775">
        <ele>413.2</ele>
        <time>2023-09-03T10:29:10Z</time>
      </trkpt>
      <trkpt lat="46.70657" lon="5.6177">
        <ele>412.2</ele>
        <time>2023-09-03T10:29:11Z</time>
      </trkpt>
      <trkpt lat="46.70654" lon="5.61764">
        <ele>412.2</ele>
        <time>2023-09-03T10:29:12Z</time>
      </trkpt>
      <trkpt lat="46.70653" lon="5.61761">
        <ele>411.6</ele>
        <time>2023-09-03T10:29:13Z</time>
      </trkpt>
      <trkpt lat="46.70651" lon="5.61757">
        <ele>411.6</ele>
        <time>2023-09-03T10:29:14Z</time>
      </trkpt>
      <trkpt lat="46.70648" lon="5.61749">
        <ele>411.6</ele>
        <time>2023-09-03T10:29:15Z</time>
      </trkpt>
      <trkpt lat="46.70647" lon="5.61746">
        <ele>410.6</ele>
        <time>2023-09-03T10:29:16Z</time>
      </trkpt>
      <trkpt lat="46.70645" lon="5.61741">
        <ele>410.2</ele>
        <time>2023-09-03T10:29:17Z</time>
      </trkpt>
      <trkpt lat="46.70641" lon="5.61732">
        <ele>410.2</ele>
        <time>2023-09-03T10:29:18Z</time>
      </trkpt>
      <trkpt lat="46.7064" lon="5.61729">
        <ele>410.2</ele>
        <time>2023-09-03T10:29:19Z</time>
      </trkpt>
      <trkpt lat="46.70636" lon="5.61719">
        <ele>410.2</ele>
        <time>2023-09-03T10:29:20Z</time>
      </trkpt>
      <trkpt lat="46.70635" lon="5.61716">
        <ele>409.2</ele>
        <time>2023-09-03T10:29:21Z</time>
      </trkpt>
      <trkpt lat="46.70632" lon="5.61709">
        <ele>407.8</ele>
        <time>2023-09-03T10:29:22Z</time>
      </trkpt>
      <trkpt lat="46.70627" lon="5.61704">
        <ele>407.8</ele>
        <time>2023-09-03T10:29:23Z</time>
      </trkpt>
      <trkpt lat="46.70622" lon="5.61698">
        <ele>407.8</ele>
        <time>2023-09-03T10:29:24Z</time>
      </trkpt>
      <trkpt lat="46.70614" lon="5.61691">
        <ele>406.8</ele>
        <time>2023-09-03T10:29:25Z</time>
      </trkpt>
      <trkpt lat="46.70611" lon="5.61688">
        <ele>406.8</ele>
        <time>2023-09-03T10:29:26Z</time>
      </trkpt>
      <trkpt lat="46.70602" lon="5.61682">
        <ele>406.4</ele>
        <time>2023-09-03T10:29:27Z</time>
      </trkpt>
      <trkpt lat="46.70599" lon="5.6168">
        <ele>406.4</ele>
        <time>2023-09-03T10:29:28Z</time>
      </trkpt>
      <trkpt lat="46.70592" lon="5.61676">
        <ele>406.4</ele>
        <time>2023-09-03T10:29:29Z</time>
      </trkpt>
      <trkpt lat="46.70582" lon="5.61673">
        <ele>405.4</ele>
        <time>2023-09-03T10:29:30Z</time>
      </trkpt>
      <trkpt lat="46.70578" lon="5.61672">
        <ele>405.4</ele>
        <time>2023-09-03T10:29:31Z</time>
      </trkpt>
      <trkpt lat="46.70571" lon="5.61671">
        <ele>405.6</ele>
        <time>2023-09-03T10:29:32Z</time>
      </trkpt>
      <trkpt lat="46.7056" lon="5.61668">
        <ele>405.6</ele>
        <time>2023-09-03T10:29:33Z</time>
      </trkpt>
      <trkpt lat="46.70556" lon="5.61668">
        <ele>405.6</ele>
        <time>2023-09-03T10:29:34Z</time>
      </trkpt>
      <trkpt lat="46.70549" lon="5.61666">
        <ele>404.6</ele>
        <time>2023-09-03T10:29:35Z</time>
      </trkpt>
      <trkpt lat="46.70538" lon="5.61662">
        <ele>404.2</ele>
        <time>2023-09-03T10:29:36Z</time>
      </trkpt>
      <trkpt lat="46.70534" lon="5.61661">
        <ele>404.2</ele>
        <time>2023-09-03T10:29:37Z</time>
      </trkpt>
      <trkpt lat="46.70522" lon="5.61657">
        <ele>404.2</ele>
        <time>2023-09-03T10:29:38Z</time>
      </trkpt>
      <trkpt lat="46.70518" lon="5.61656">
        <ele>403.4</ele>
        <time>2023-09-03T10:29:39Z</time>
      </trkpt>
      <trkpt lat="46.70506" lon="5.61653">
        <ele>403.4</ele>
        <time>2023-09-03T10:29:40Z</time>
      </trkpt>
      <trkpt lat="46.70502" lon="5.61652">
        <ele>402.8</ele>
        <time>2023-09-03T10:29:41Z</time>
      </trkpt>
      <trkpt lat="46.70489" lon="5.61649">
        <ele>402.8</ele>
        <time>2023-09-03T10:29:42Z</time>
      </trkpt>
      <trkpt lat="46.70485" lon="5.61647">
        <ele>402.8</ele>
        <time>2023-09-03T10:29:43Z</time>
      </trkpt>
      <trkpt lat="46.70477" lon="5.61645">
        <ele>402.8</ele>
        <time>2023-09-03T10:29:44Z</time>
      </trkpt>
      <trkpt lat="46.70469" lon="5.61642">
        <ele>402.6</ele>
        <time>2023-09-03T10:29:45Z</time>
      </trkpt>
      <trkpt lat="46.70462" lon="5.6164">
        <ele>401.8</ele>
        <time>2023-09-03T10:29:46Z</time>
      </trkpt>
      <trkpt lat="46.70455" lon="5.61636">
        <ele>401.8</ele>
        <time>2023-09-03T10:29:47Z</time>
      </trkpt>
      <trkpt lat="46.70444" lon="5.61631">
        <ele>401.8</ele>
        <time>2023-09-03T10:29:48Z</time>
      </trkpt>
      <trkpt lat="46.70441" lon="5.61629">
        <ele>401.8</ele>
        <time>2023-09-03T10:29:49Z</time>
      </trkpt>
      <trkpt lat="46.70435" lon="5.61625">
        <ele>402.6</ele>
        <time>2023-09-03T10:29:50Z</time>
      </trkpt>
      <trkpt lat="46.70427" lon="5.61618">
        <ele>402.6</ele>
        <time>2023-09-03T10:29:51Z</time>
      </trkpt>
      <trkpt lat="46.70425" lon="5.61616">
        <ele>402.6</ele>
        <time>2023-09-03T10:29:52Z</time>
      </trkpt>
      <trkpt lat="46.7042" lon="5.61611">
        <ele>402.6</ele>
        <time>2023-09-03T10:29:53Z</time>
      </trkpt>
      <trkpt lat="46.70412" lon="5.61605">
        <ele>402.6</ele>
        <time>2023-09-03T10:29:54Z</time>
      </trkpt>
      <trkpt lat="46.7041" lon="5.61603">
        <ele>402.6</ele>
        <time>2023-09-03T10:29:55Z</time>
      </trkpt>
      <trkpt lat="46.70405" lon="5.61599">
        <ele>402.6</ele>
        <time>2023-09-03T10:29:56Z</time>
      </trkpt>
      <trkpt lat="46.70401" lon="5.61594">
        <ele>402.6</ele>
        <time>2023-09-03T10:29:57Z</time>
      </trkpt>
      <trkpt lat="46.70394" lon="5.61588">
        <ele>402.6</ele>
        <time>2023-09-03T10:29:58Z</time>
      </trkpt>
      <trkpt lat="46.70392" lon="5.61586">
        <ele>402</ele>
        <time>2023-09-03T10:29:59Z</time>
      </trkpt>
      <trkpt lat="46.70387" lon="5.61582">
        <ele>401.6</ele>
        <time>2023-09-03T10:30:00Z</time>
      </trkpt>
      <trkpt lat="46.70381" lon="5.61576">
        <ele>401.6</ele>
        <time>2023-09-03T10:30:01Z</time>
      </trkpt>
      <trkpt lat="46.70378" lon="5.61574">
        <ele>401.6</ele>
        <time>2023-09-03T10:30:02Z</time>
      </trkpt>
      <trkpt lat="46.70371" lon="5.61567">
        <ele>400.8</ele>
        <time>2023-09-03T10:30:03Z</time>
      </trkpt>
      <trkpt lat="46.70369" lon="5.61564">
        <ele>400.6</ele>
        <time>2023-09-03T10:30:04Z</time>
      </trkpt>
      <trkpt lat="46.70362" lon="5.61556">
        <ele>400.6</ele>
        <time>2023-09-03T10:30:05Z</time>
      </trkpt>
      <trkpt lat="46.7036" lon="5.61552">
        <ele>400.6</ele>
        <time>2023-09-03T10:30:06Z</time>
      </trkpt>
      <trkpt lat="46.70355" lon="5.61545">
        <ele>399.8</ele>
        <time>2023-09-03T10:30:07Z</time>
      </trkpt>
      <trkpt lat="46.70348" lon="5.61533">
        <ele>399.2</ele>
        <time>2023-09-03T10:30:08Z</time>
      </trkpt>
      <trkpt lat="46.70346" lon="5.61529">
        <ele>399.2</ele>
        <time>2023-09-03T10:30:09Z</time>
      </trkpt>
      <trkpt lat="46.70341" lon="5.61521">
        <ele>399.2</ele>
        <time>2023-09-03T10:30:10Z</time>
      </trkpt>
      <trkpt lat="46.70335" lon="5.61512">
        <ele>399.2</ele>
        <time>2023-09-03T10:30:11Z</time>
      </trkpt>
      <trkpt lat="46.7033" lon="5.61503">
        <ele>399.2</ele>
        <time>2023-09-03T10:30:12Z</time>
      </trkpt>
      <trkpt lat="46.70324" lon="5.61494">
        <ele>398.6</ele>
        <time>2023-09-03T10:30:13Z</time>
      </trkpt>
      <trkpt lat="46.70319" lon="5.61485">
        <ele>398</ele>
        <time>2023-09-03T10:30:14Z</time>
      </trkpt>
      <trkpt lat="46.70313" lon="5.61476">
        <ele>398</ele>
        <time>2023-09-03T10:30:15Z</time>
      </trkpt>
      <trkpt lat="46.70302" lon="5.61464">
        <ele>398</ele>
        <time>2023-09-03T10:30:16Z</time>
      </trkpt>
      <trkpt lat="46.70299" lon="5.61461">
        <ele>397</ele>
        <time>2023-09-03T10:30:17Z</time>
      </trkpt>
      <trkpt lat="46.70287" lon="5.61452">
        <ele>396.4</ele>
        <time>2023-09-03T10:30:18Z</time>
      </trkpt>
      <trkpt lat="46.70282" lon="5.61451">
        <ele>396.4</ele>
        <time>2023-09-03T10:30:19Z</time>
      </trkpt>
      <trkpt lat="46.70273" lon="5.61448">
        <ele>396.4</ele>
        <time>2023-09-03T10:30:20Z</time>
      </trkpt>
      <trkpt lat="46.70259" lon="5.61447">
        <ele>396.4</ele>
        <time>2023-09-03T10:30:21Z</time>
      </trkpt>
      <trkpt lat="46.70254" lon="5.61448">
        <ele>396.4</ele>
        <time>2023-09-03T10:30:22Z</time>
      </trkpt>
      <trkpt lat="46.7024" lon="5.61448">
        <ele>396.4</ele>
        <time>2023-09-03T10:30:23Z</time>
      </trkpt>
      <trkpt lat="46.70235" lon="5.61449">
        <ele>396</ele>
        <time>2023-09-03T10:30:24Z</time>
      </trkpt>
      <trkpt lat="46.7022" lon="5.61449">
        <ele>396</ele>
        <time>2023-09-03T10:30:25Z</time>
      </trkpt>
      <trkpt lat="46.70215" lon="5.61449">
        <ele>396</ele>
        <time>2023-09-03T10:30:26Z</time>
      </trkpt>
      <trkpt lat="46.70201" lon="5.61449">
        <ele>396</ele>
        <time>2023-09-03T10:30:27Z</time>
      </trkpt>
      <trkpt lat="46.70196" lon="5.61449">
        <ele>396</ele>
        <time>2023-09-03T10:30:28Z</time>
      </trkpt>
      <trkpt lat="46.70187" lon="5.61448">
        <ele>395.4</ele>
        <time>2023-09-03T10:30:29Z</time>
      </trkpt>
      <trkpt lat="46.70179" lon="5.61446">
        <ele>395.4</ele>
        <time>2023-09-03T10:30:30Z</time>
      </trkpt>
      <trkpt lat="46.7017" lon="5.61445">
        <ele>395.4</ele>
        <time>2023-09-03T10:30:31Z</time>
      </trkpt>
      <trkpt lat="46.70162" lon="5.61443">
        <ele>396</ele>
        <time>2023-09-03T10:30:32Z</time>
      </trkpt>
      <trkpt lat="46.70154" lon="5.61441">
        <ele>396</ele>
        <time>2023-09-03T10:30:33Z</time>
      </trkpt>
      <trkpt lat="46.70146" lon="5.61439">
        <ele>396</ele>
        <time>2023-09-03T10:30:34Z</time>
      </trkpt>
      <trkpt lat="46.70135" lon="5.61437">
        <ele>396</ele>
        <time>2023-09-03T10:30:35Z</time>
      </trkpt>
      <trkpt lat="46.70131" lon="5.61436">
        <ele>396</ele>
        <time>2023-09-03T10:30:36Z</time>
      </trkpt>
      <trkpt lat="46.70124" lon="5.61434">
        <ele>395.8</ele>
        <time>2023-09-03T10:30:37Z</time>
      </trkpt>
      <trkpt lat="46.70117" lon="5.61433">
        <ele>395.8</ele>
        <time>2023-09-03T10:30:38Z</time>
      </trkpt>
      <trkpt lat="46.70108" lon="5.61432">
        <ele>395.8</ele>
        <time>2023-09-03T10:30:39Z</time>
      </trkpt>
      <trkpt lat="46.70104" lon="5.61431">
        <ele>396.6</ele>
        <time>2023-09-03T10:30:40Z</time>
      </trkpt>
      <trkpt lat="46.70098" lon="5.6143">
        <ele>396.6</ele>
        <time>2023-09-03T10:30:41Z</time>
      </trkpt>
      <trkpt lat="46.70088" lon="5.61427">
        <ele>396.6</ele>
        <time>2023-09-03T10:30:42Z</time>
      </trkpt>
      <trkpt lat="46.70085" lon="5.61427">
        <ele>396.6</ele>
        <time>2023-09-03T10:30:43Z</time>
      </trkpt>
      <trkpt lat="46.70075" lon="5.61425">
        <ele>396.6</ele>
        <time>2023-09-03T10:30:44Z</time>
      </trkpt>
      <trkpt lat="46.70072" lon="5.61424">
        <ele>396.4</ele>
        <time>2023-09-03T10:30:45Z</time>
      </trkpt>
      <trkpt lat="46.70065" lon="5.61423">
        <ele>397.2</ele>
        <time>2023-09-03T10:30:46Z</time>
      </trkpt>
      <trkpt lat="46.70059" lon="5.61423">
        <ele>397.2</ele>
        <time>2023-09-03T10:30:47Z</time>
      </trkpt>
      <trkpt lat="46.70049" lon="5.61421">
        <ele>397.2</ele>
        <time>2023-09-03T10:30:48Z</time>
      </trkpt>
      <trkpt lat="46.70046" lon="5.61421">
        <ele>397.2</ele>
        <time>2023-09-03T10:30:49Z</time>
      </trkpt>
      <trkpt lat="46.70039" lon="5.6142">
        <ele>397.4</ele>
        <time>2023-09-03T10:30:50Z</time>
      </trkpt>
      <trkpt lat="46.7003" lon="5.61418">
        <ele>397.4</ele>
        <time>2023-09-03T10:30:51Z</time>
      </trkpt>
      <trkpt lat="46.70027" lon="5.61417">
        <ele>397.4</ele>
        <time>2023-09-03T10:30:52Z</time>
      </trkpt>
      <trkpt lat="46.7002" lon="5.61416">
        <ele>397.4</ele>
        <time>2023-09-03T10:30:53Z</time>
      </trkpt>
      <trkpt lat="46.70014" lon="5.61416">
        <ele>397.4</ele>
        <time>2023-09-03T10:30:54Z</time>
      </trkpt>
      <trkpt lat="46.70008" lon="5.61415">
        <ele>397.4</ele>
        <time>2023-09-03T10:30:55Z</time>
      </trkpt>
      <trkpt lat="46.69997" lon="5.61413">
        <ele>398.4</ele>
        <time>2023-09-03T10:30:56Z</time>
      </trkpt>
      <trkpt lat="46.69994" lon="5.61412">
        <ele>398.4</ele>
        <time>2023-09-03T10:30:57Z</time>
      </trkpt>
      <trkpt lat="46.69984" lon="5.61408">
        <ele>398.4</ele>
        <time>2023-09-03T10:30:58Z</time>
      </trkpt>
      <trkpt lat="46.6998" lon="5.61407">
        <ele>398.4</ele>
        <time>2023-09-03T10:30:59Z</time>
      </trkpt>
      <trkpt lat="46.6997" lon="5.61402">
        <ele>398.4</ele>
        <time>2023-09-03T10:31:00Z</time>
      </trkpt>
      <trkpt lat="46.69967" lon="5.614">
        <ele>399.8</ele>
        <time>2023-09-03T10:31:01Z</time>
      </trkpt>
      <trkpt lat="46.69957" lon="5.61395">
        <ele>399.8</ele>
        <time>2023-09-03T10:31:02Z</time>
      </trkpt>
      <trkpt lat="46.69954" lon="5.61393">
        <ele>399.2</ele>
        <time>2023-09-03T10:31:03Z</time>
      </trkpt>
      <trkpt lat="46.69944" lon="5.61387">
        <ele>399</ele>
        <time>2023-09-03T10:31:04Z</time>
      </trkpt>
      <trkpt lat="46.69941" lon="5.61385">
        <ele>399</ele>
        <time>2023-09-03T10:31:05Z</time>
      </trkpt>
      <trkpt lat="46.69935" lon="5.61381">
        <ele>399</ele>
        <time>2023-09-03T10:31:06Z</time>
      </trkpt>
      <trkpt lat="46.69929" lon="5.61377">
        <ele>399</ele>
        <time>2023-09-03T10:31:07Z</time>
      </trkpt>
      <trkpt lat="46.69921" lon="5.61373">
        <ele>399</ele>
        <time>2023-09-03T10:31:08Z</time>
      </trkpt>
      <trkpt lat="46.69919" lon="5.61371">
        <ele>399.6</ele>
        <time>2023-09-03T10:31:09Z</time>
      </trkpt>
      <trkpt lat="46.69911" lon="5.61366">
        <ele>399.6</ele>
        <time>2023-09-03T10:31:10Z</time>
      </trkpt>
      <trkpt lat="46.69909" lon="5.61365">
        <ele>399.6</ele>
        <time>2023-09-03T10:31:11Z</time>
      </trkpt>
      <trkpt lat="46.69903" lon="5.61361">
        <ele>399.6</ele>
        <time>2023-09-03T10:31:12Z</time>
      </trkpt>
      <trkpt lat="46.699" lon="5.61359">
        <ele>399.6</ele>
        <time>2023-09-03T10:31:13Z</time>
      </trkpt>
      <trkpt lat="46.69896" lon="5.61356">
        <ele>401</ele>
        <time>2023-09-03T10:31:14Z</time>
      </trkpt>
      <trkpt lat="46.6989" lon="5.61352">
        <ele>401</ele>
        <time>2023-09-03T10:31:15Z</time>
      </trkpt>
      <trkpt lat="46.69888" lon="5.61351">
        <ele>401</ele>
        <time>2023-09-03T10:31:16Z</time>
      </trkpt>
      <trkpt lat="46.69882" lon="5.61346">
        <ele>401</ele>
        <time>2023-09-03T10:31:17Z</time>
      </trkpt>
      <trkpt lat="46.6988" lon="5.61345">
        <ele>401</ele>
        <time>2023-09-03T10:31:18Z</time>
      </trkpt>
      <trkpt lat="46.69876" lon="5.61342">
        <ele>401</ele>
        <time>2023-09-03T10:31:19Z</time>
      </trkpt>
      <trkpt lat="46.69872" lon="5.61338">
        <ele>401</ele>
        <time>2023-09-03T10:31:20Z</time>
      </trkpt>
      <trkpt lat="46.69866" lon="5.61333">
        <ele>401.6</ele>
        <time>2023-09-03T10:31:21Z</time>
      </trkpt>
      <trkpt lat="46.69864" lon="5.61332">
        <ele>401.6</ele>
        <time>2023-09-03T10:31:22Z</time>
      </trkpt>
      <trkpt lat="46.6986" lon="5.61328">
        <ele>401.6</ele>
        <time>2023-09-03T10:31:23Z</time>
      </trkpt>
      <trkpt lat="46.69856" lon="5.61325">
        <ele>401.6</ele>
        <time>2023-09-03T10:31:24Z</time>
      </trkpt>
      <trkpt lat="46.69853" lon="5.61322">
        <ele>401.6</ele>
        <time>2023-09-03T10:31:25Z</time>
      </trkpt>
      <trkpt lat="46.69849" lon="5.61319">
        <ele>401.6</ele>
        <time>2023-09-03T10:31:26Z</time>
      </trkpt>
      <trkpt lat="46.69843" lon="5.61313">
        <ele>401.4</ele>
        <time>2023-09-03T10:31:27Z</time>
      </trkpt>
      <trkpt lat="46.69841" lon="5.61311">
        <ele>401.4</ele>
        <time>2023-09-03T10:31:28Z</time>
      </trkpt>
      <trkpt lat="46.69837" lon="5.61307">
        <ele>401.4</ele>
        <time>2023-09-03T10:31:29Z</time>
      </trkpt>
      <trkpt lat="46.69833" lon="5.61303">
        <ele>401.6</ele>
        <time>2023-09-03T10:31:30Z</time>
      </trkpt>
      <trkpt lat="46.69825" lon="5.61297">
        <ele>401.6</ele>
        <time>2023-09-03T10:31:31Z</time>
      </trkpt>
      <trkpt lat="46.69823" lon="5.61295">
        <ele>401.4</ele>
        <time>2023-09-03T10:31:32Z</time>
      </trkpt>
      <trkpt lat="46.69815" lon="5.61289">
        <ele>401.4</ele>
        <time>2023-09-03T10:31:33Z</time>
      </trkpt>
      <trkpt lat="46.69813" lon="5.61287">
        <ele>401.4</ele>
        <time>2023-09-03T10:31:34Z</time>
      </trkpt>
      <trkpt lat="46.69808" lon="5.61283">
        <ele>401.4</ele>
        <time>2023-09-03T10:31:35Z</time>
      </trkpt>
      <trkpt lat="46.698" lon="5.61277">
        <ele>402</ele>
        <time>2023-09-03T10:31:36Z</time>
      </trkpt>
      <trkpt lat="46.69797" lon="5.61274">
        <ele>402</ele>
        <time>2023-09-03T10:31:37Z</time>
      </trkpt>
      <trkpt lat="46.69792" lon="5.6127">
        <ele>402</ele>
        <time>2023-09-03T10:31:38Z</time>
      </trkpt>
      <trkpt lat="46.69783" lon="5.61263">
        <ele>402</ele>
        <time>2023-09-03T10:31:39Z</time>
      </trkpt>
      <trkpt lat="46.69781" lon="5.61261">
        <ele>401.8</ele>
        <time>2023-09-03T10:31:40Z</time>
      </trkpt>
      <trkpt lat="46.69775" lon="5.61256">
        <ele>401.8</ele>
        <time>2023-09-03T10:31:41Z</time>
      </trkpt>
      <trkpt lat="46.69765" lon="5.61249">
        <ele>401.8</ele>
        <time>2023-09-03T10:31:42Z</time>
      </trkpt>
      <trkpt lat="46.69762" lon="5.61246">
        <ele>401.8</ele>
        <time>2023-09-03T10:31:43Z</time>
      </trkpt>
      <trkpt lat="46.69756" lon="5.61242">
        <ele>401.8</ele>
        <time>2023-09-03T10:31:44Z</time>
      </trkpt>
      <trkpt lat="46.69747" lon="5.61233">
        <ele>402.8</ele>
        <time>2023-09-03T10:31:45Z</time>
      </trkpt>
      <trkpt lat="46.69744" lon="5.6123">
        <ele>402.8</ele>
        <time>2023-09-03T10:31:46Z</time>
      </trkpt>
      <trkpt lat="46.69738" lon="5.61224">
        <ele>402.8</ele>
        <time>2023-09-03T10:31:47Z</time>
      </trkpt>
      <trkpt lat="46.69731" lon="5.61218">
        <ele>402.8</ele>
        <time>2023-09-03T10:31:48Z</time>
      </trkpt>
      <trkpt lat="46.69725" lon="5.61213">
        <ele>402.2</ele>
        <time>2023-09-03T10:31:49Z</time>
      </trkpt>
      <trkpt lat="46.69717" lon="5.6121">
        <ele>401.4</ele>
        <time>2023-09-03T10:31:50Z</time>
      </trkpt>
      <trkpt lat="46.6971" lon="5.61208">
        <ele>401.4</ele>
        <time>2023-09-03T10:31:51Z</time>
      </trkpt>
      <trkpt lat="46.69698" lon="5.61209">
        <ele>401.4</ele>
        <time>2023-09-03T10:31:52Z</time>
      </trkpt>
      <trkpt lat="46.69695" lon="5.6121">
        <ele>401.6</ele>
        <time>2023-09-03T10:31:53Z</time>
      </trkpt>
      <trkpt lat="46.69687" lon="5.61211">
        <ele>401.6</ele>
        <time>2023-09-03T10:31:54Z</time>
      </trkpt>
      <trkpt lat="46.69675" lon="5.61213">
        <ele>401.8</ele>
        <time>2023-09-03T10:31:55Z</time>
      </trkpt>
      <trkpt lat="46.69672" lon="5.61214">
        <ele>401.8</ele>
        <time>2023-09-03T10:31:56Z</time>
      </trkpt>
      <trkpt lat="46.69664" lon="5.61215">
        <ele>401.8</ele>
        <time>2023-09-03T10:31:57Z</time>
      </trkpt>
      <trkpt lat="46.69653" lon="5.61214">
        <ele>401.8</ele>
        <time>2023-09-03T10:31:58Z</time>
      </trkpt>
      <trkpt lat="46.69649" lon="5.61213">
        <ele>401.8</ele>
        <time>2023-09-03T10:31:59Z</time>
      </trkpt>
      <trkpt lat="46.69641" lon="5.6121">
        <ele>401.8</ele>
        <time>2023-09-03T10:32:00Z</time>
      </trkpt>
      <trkpt lat="46.69631" lon="5.61203">
        <ele>401.8</ele>
        <time>2023-09-03T10:32:01Z</time>
      </trkpt>
      <trkpt lat="46.69629" lon="5.612">
        <ele>401.8</ele>
        <time>2023-09-03T10:32:02Z</time>
      </trkpt>
      <trkpt lat="46.69623" lon="5.61196">
        <ele>402.2</ele>
        <time>2023-09-03T10:32:03Z</time>
      </trkpt>
      <trkpt lat="46.69615" lon="5.61188">
        <ele>402.2</ele>
        <time>2023-09-03T10:32:04Z</time>
      </trkpt>
      <trkpt lat="46.69613" lon="5.61185">
        <ele>402.2</ele>
        <time>2023-09-03T10:32:05Z</time>
      </trkpt>
      <trkpt lat="46.69608" lon="5.61179">
        <ele>401.6</ele>
        <time>2023-09-03T10:32:06Z</time>
      </trkpt>
      <trkpt lat="46.69602" lon="5.61171">
        <ele>401.8</ele>
        <time>2023-09-03T10:32:07Z</time>
      </trkpt>
      <trkpt lat="46.69599" lon="5.61168">
        <ele>401.8</ele>
        <time>2023-09-03T10:32:08Z</time>
      </trkpt>
      <trkpt lat="46.69595" lon="5.61163">
        <ele>401.8</ele>
        <time>2023-09-03T10:32:09Z</time>
      </trkpt>
      <trkpt lat="46.69589" lon="5.61154">
        <ele>401.8</ele>
        <time>2023-09-03T10:32:10Z</time>
      </trkpt>
      <trkpt lat="46.69587" lon="5.61151">
        <ele>401.8</ele>
        <time>2023-09-03T10:32:11Z</time>
      </trkpt>
      <trkpt lat="46.69583" lon="5.61146">
        <ele>401.4</ele>
        <time>2023-09-03T10:32:12Z</time>
      </trkpt>
      <trkpt lat="46.69578" lon="5.61137">
        <ele>401</ele>
        <time>2023-09-03T10:32:13Z</time>
      </trkpt>
      <trkpt lat="46.69576" lon="5.61134">
        <ele>401</ele>
        <time>2023-09-03T10:32:14Z</time>
      </trkpt>
      <trkpt lat="46.69571" lon="5.61126">
        <ele>401</ele>
        <time>2023-09-03T10:32:15Z</time>
      </trkpt>
      <trkpt lat="46.69569" lon="5.61123">
        <ele>401</ele>
        <time>2023-09-03T10:32:16Z</time>
      </trkpt>
      <trkpt lat="46.69564" lon="5.61114">
        <ele>401</ele>
        <time>2023-09-03T10:32:17Z</time>
      </trkpt>
      <trkpt lat="46.69561" lon="5.61111">
        <ele>400.4</ele>
        <time>2023-09-03T10:32:18Z</time>
      </trkpt>
      <trkpt lat="46.69557" lon="5.61105">
        <ele>400.4</ele>
        <time>2023-09-03T10:32:19Z</time>
      </trkpt>
      <trkpt lat="46.69551" lon="5.61097">
        <ele>400.4</ele>
        <time>2023-09-03T10:32:20Z</time>
      </trkpt>
      <trkpt lat="46.69549" lon="5.61094">
        <ele>400</ele>
        <time>2023-09-03T10:32:21Z</time>
      </trkpt>
      <trkpt lat="46.69546" lon="5.61089">
        <ele>399.8</ele>
        <time>2023-09-03T10:32:22Z</time>
      </trkpt>
      <trkpt lat="46.69541" lon="5.61085">
        <ele>399.8</ele>
        <time>2023-09-03T10:32:23Z</time>
      </trkpt>
      <trkpt lat="46.69537" lon="5.6108">
        <ele>399.8</ele>
        <time>2023-09-03T10:32:24Z</time>
      </trkpt>
      <trkpt lat="46.69531" lon="5.61073">
        <ele>399.8</ele>
        <time>2023-09-03T10:32:25Z</time>
      </trkpt>
      <trkpt lat="46.6953" lon="5.61071">
        <ele>399.6</ele>
        <time>2023-09-03T10:32:26Z</time>
      </trkpt>
      <trkpt lat="46.69526" lon="5.61067">
        <ele>399.2</ele>
        <time>2023-09-03T10:32:27Z</time>
      </trkpt>
      <trkpt lat="46.69521" lon="5.6106">
        <ele>399.2</ele>
        <time>2023-09-03T10:32:28Z</time>
      </trkpt>
      <trkpt lat="46.69519" lon="5.61058">
        <ele>399.2</ele>
        <time>2023-09-03T10:32:29Z</time>
      </trkpt>
      <trkpt lat="46.69516" lon="5.61054">
        <ele>398.8</ele>
        <time>2023-09-03T10:32:30Z</time>
      </trkpt>
      <trkpt lat="46.69512" lon="5.6105">
        <ele>399.2</ele>
        <time>2023-09-03T10:32:31Z</time>
      </trkpt>
      <trkpt lat="46.69507" lon="5.61044">
        <ele>399.2</ele>
        <time>2023-09-03T10:32:32Z</time>
      </trkpt>
      <trkpt lat="46.69506" lon="5.61042">
        <ele>399.2</ele>
        <time>2023-09-03T10:32:33Z</time>
      </trkpt>
      <trkpt lat="46.69501" lon="5.61037">
        <ele>399.2</ele>
        <time>2023-09-03T10:32:34Z</time>
      </trkpt>
      <trkpt lat="46.69499" lon="5.61036">
        <ele>399</ele>
        <time>2023-09-03T10:32:35Z</time>
      </trkpt>
      <trkpt lat="46.69495" lon="5.61031">
        <ele>399</ele>
        <time>2023-09-03T10:32:36Z</time>
      </trkpt>
      <trkpt lat="46.69494" lon="5.6103">
        <ele>399</ele>
        <time>2023-09-03T10:32:37Z</time>
      </trkpt>
      <trkpt lat="46.69493" lon="5.61028">
        <ele>399</ele>
        <time>2023-09-03T10:32:38Z</time>
      </trkpt>
      <trkpt lat="46.69493" lon="5.61028">
        <ele>399</ele>
        <time>2023-09-03T10:32:39Z</time>
      </trkpt>
      <trkpt lat="46.69493" lon="5.61028">
        <ele>399.4</ele>
        <time>2023-09-03T10:32:40Z</time>
      </trkpt>
      <trkpt lat="46.69493" lon="5.61028">
        <ele>399.4</ele>
        <time>2023-09-03T10:32:41Z</time>
      </trkpt>
      <trkpt lat="46.69499" lon="5.61015">
        <ele>403</ele>
        <time>2023-09-03T10:33:45Z</time>
      </trkpt>
      <trkpt lat="46.69497" lon="5.61016">
        <ele>403</ele>
        <time>2023-09-03T10:33:46Z</time>
      </trkpt>
      <trkpt lat="46.69496" lon="5.61015">
        <ele>403</ele>
        <time>2023-09-03T10:33:47Z</time>
      </trkpt>
      <trkpt lat="46.69495" lon="5.61016">
        <ele>403.2</ele>
        <time>2023-09-03T10:33:48Z</time>
      </trkpt>
      <trkpt lat="46.69494" lon="5.61014">
        <ele>403.2</ele>
        <time>2023-09-03T10:33:49Z</time>
      </trkpt>
      <trkpt lat="46.69492" lon="5.61014">
        <ele>403.2</ele>
        <time>2023-09-03T10:33:50Z</time>
      </trkpt>
      <trkpt lat="46.69491" lon="5.61014">
        <ele>403.2</ele>
        <time>2023-09-03T10:33:51Z</time>
      </trkpt>
      <trkpt lat="46.69491" lon="5.61014">
        <ele>403.4</ele>
        <time>2023-09-03T10:33:52Z</time>
      </trkpt>
      <trkpt lat="46.6949" lon="5.61013">
        <ele>403.4</ele>
        <time>2023-09-03T10:33:53Z</time>
      </trkpt>
      <trkpt lat="46.69488" lon="5.61012">
        <ele>403.4</ele>
        <time>2023-09-03T10:33:54Z</time>
      </trkpt>
      <trkpt lat="46.69488" lon="5.61012">
        <ele>403.4</ele>
        <time>2023-09-03T10:33:55Z</time>
      </trkpt>
      <trkpt lat="46.69497" lon="5.61018">
        <ele>403.4</ele>
        <time>2023-09-03T10:33:56Z</time>
      </trkpt>
      <trkpt lat="46.69503" lon="5.6103">
        <ele>406.4</ele>
        <time>2023-09-03T10:34:31Z</time>
      </trkpt>
      <trkpt lat="46.69503" lon="5.6103">
        <ele>406.4</ele>
        <time>2023-09-03T10:34:32Z</time>
      </trkpt>
      <trkpt lat="46.69495" lon="5.61027">
        <ele>406.6</ele>
        <time>2023-09-03T10:34:33Z</time>
      </trkpt>
      <trkpt lat="46.69495" lon="5.61027">
        <ele>406.6</ele>
        <time>2023-09-03T10:34:34Z</time>
      </trkpt>
      <trkpt lat="46.69491" lon="5.61022">
        <ele>417</ele>
        <time>2023-09-03T10:36:37Z</time>
      </trkpt>
      <trkpt lat="46.69489" lon="5.6102">
        <ele>417</ele>
        <time>2023-09-03T10:36:38Z</time>
      </trkpt>
      <trkpt lat="46.69487" lon="5.61017">
        <ele>417</ele>
        <time>2023-09-03T10:36:39Z</time>
      </trkpt>
      <trkpt lat="46.69486" lon="5.61016">
        <ele>417</ele>
        <time>2023-09-03T10:36:40Z</time>
      </trkpt>
      <trkpt lat="46.69483" lon="5.61013">
        <ele>417</ele>
        <time>2023-09-03T10:36:41Z</time>
      </trkpt>
      <trkpt lat="46.69481" lon="5.61011">
        <ele>418</ele>
        <time>2023-09-03T10:36:42Z</time>
      </trkpt>
      <trkpt lat="46.69478" lon="5.61008">
        <ele>418</ele>
        <time>2023-09-03T10:36:43Z</time>
      </trkpt>
      <trkpt lat="46.69477" lon="5.61008">
        <ele>418</ele>
        <time>2023-09-03T10:36:44Z</time>
      </trkpt>
      <trkpt lat="46.69474" lon="5.61004">
        <ele>418</ele>
        <time>2023-09-03T10:36:45Z</time>
      </trkpt>
      <trkpt lat="46.69473" lon="5.61003">
        <ele>418</ele>
        <time>2023-09-03T10:36:46Z</time>
      </trkpt>
      <trkpt lat="46.69471" lon="5.60999">
        <ele>418</ele>
        <time>2023-09-03T10:36:47Z</time>
      </trkpt>
      <trkpt lat="46.6947" lon="5.60997">
        <ele>418.2</ele>
        <time>2023-09-03T10:36:48Z</time>
      </trkpt>
      <trkpt lat="46.69468" lon="5.60994">
        <ele>418.2</ele>
        <time>2023-09-03T10:36:49Z</time>
      </trkpt>
      <trkpt lat="46.69465" lon="5.60989">
        <ele>418.2</ele>
        <time>2023-09-03T10:36:50Z</time>
      </trkpt>
      <trkpt lat="46.69464" lon="5.60987">
        <ele>418.2</ele>
        <time>2023-09-03T10:36:51Z</time>
      </trkpt>
      <trkpt lat="46.69452" lon="5.60941">
        <ele>414.6</ele>
        <time>2023-09-03T10:37:00Z</time>
      </trkpt>
      <trkpt lat="46.6945" lon="5.60937">
        <ele>414.6</ele>
        <time>2023-09-03T10:37:01Z</time>
      </trkpt>
      <trkpt lat="46.69449" lon="5.60933">
        <ele>419.2</ele>
        <time>2023-09-03T10:37:02Z</time>
      </trkpt>
      <trkpt lat="46.69445" lon="5.60924">
        <ele>419.2</ele>
        <time>2023-09-03T10:37:03Z</time>
      </trkpt>
      <trkpt lat="46.69443" lon="5.60921">
        <ele>420</ele>
        <time>2023-09-03T10:37:04Z</time>
      </trkpt>
      <trkpt lat="46.6944" lon="5.60915">
        <ele>420</ele>
        <time>2023-09-03T10:37:05Z</time>
      </trkpt>
      <trkpt lat="46.69435" lon="5.60907">
        <ele>420</ele>
        <time>2023-09-03T10:37:06Z</time>
      </trkpt>
      <trkpt lat="46.69431" lon="5.609">
        <ele>420</ele>
        <time>2023-09-03T10:37:07Z</time>
      </trkpt>
      <trkpt lat="46.69424" lon="5.60893">
        <ele>420</ele>
        <time>2023-09-03T10:37:08Z</time>
      </trkpt>
      <trkpt lat="46.69418" lon="5.60886">
        <ele>419.6</ele>
        <time>2023-09-03T10:37:09Z</time>
      </trkpt>
      <trkpt lat="46.6941" lon="5.60879">
        <ele>419.6</ele>
        <time>2023-09-03T10:37:10Z</time>
      </trkpt>
      <trkpt lat="46.69397" lon="5.60872">
        <ele>419.6</ele>
        <time>2023-09-03T10:37:11Z</time>
      </trkpt>
      <trkpt lat="46.69393" lon="5.6087">
        <ele>419.6</ele>
        <time>2023-09-03T10:37:12Z</time>
      </trkpt>
      <trkpt lat="46.69384" lon="5.60865">
        <ele>419.6</ele>
        <time>2023-09-03T10:37:13Z</time>
      </trkpt>
      <trkpt lat="46.69371" lon="5.60861">
        <ele>419.6</ele>
        <time>2023-09-03T10:37:14Z</time>
      </trkpt>
      <trkpt lat="46.69366" lon="5.6086">
        <ele>419.6</ele>
        <time>2023-09-03T10:37:15Z</time>
      </trkpt>
      <trkpt lat="46.69358" lon="5.60857">
        <ele>419.6</ele>
        <time>2023-09-03T10:37:16Z</time>
      </trkpt>
      <trkpt lat="46.69347" lon="5.60853">
        <ele>419.6</ele>
        <time>2023-09-03T10:37:17Z</time>
      </trkpt>
      <trkpt lat="46.69344" lon="5.60852">
        <ele>420.2</ele>
        <time>2023-09-03T10:37:18Z</time>
      </trkpt>
      <trkpt lat="46.69338" lon="5.6085">
        <ele>420.4</ele>
        <time>2023-09-03T10:37:19Z</time>
      </trkpt>
      <trkpt lat="46.69331" lon="5.60846">
        <ele>420.4</ele>
        <time>2023-09-03T10:37:20Z</time>
      </trkpt>
      <trkpt lat="46.69329" lon="5.60844">
        <ele>420.4</ele>
        <time>2023-09-03T10:37:21Z</time>
      </trkpt>
      <trkpt lat="46.69325" lon="5.6084">
        <ele>420.4</ele>
        <time>2023-09-03T10:37:22Z</time>
      </trkpt>
      <trkpt lat="46.69324" lon="5.60838">
        <ele>421.2</ele>
        <time>2023-09-03T10:37:23Z</time>
      </trkpt>
      <trkpt lat="46.69325" lon="5.60834">
        <ele>421.2</ele>
        <time>2023-09-03T10:37:24Z</time>
      </trkpt>
      <trkpt lat="46.69327" lon="5.60833">
        <ele>421.2</ele>
        <time>2023-09-03T10:37:25Z</time>
      </trkpt>
      <trkpt lat="46.69329" lon="5.60831">
        <ele>421.2</ele>
        <time>2023-09-03T10:37:26Z</time>
      </trkpt>
      <trkpt lat="46.69331" lon="5.60829">
        <ele>421.4</ele>
        <time>2023-09-03T10:37:27Z</time>
      </trkpt>
      <trkpt lat="46.69332" lon="5.60828">
        <ele>421.6</ele>
        <time>2023-09-03T10:37:38Z</time>
      </trkpt>
      <trkpt lat="46.69334" lon="5.60826">
        <ele>421.6</ele>
        <time>2023-09-03T10:37:39Z</time>
      </trkpt>
      <trkpt lat="46.69338" lon="5.60824">
        <ele>421.6</ele>
        <time>2023-09-03T10:37:40Z</time>
      </trkpt>
      <trkpt lat="46.69342" lon="5.60822">
        <ele>421.8</ele>
        <time>2023-09-03T10:37:41Z</time>
      </trkpt>
      <trkpt lat="46.69349" lon="5.60819">
        <ele>421.8</ele>
        <time>2023-09-03T10:37:42Z</time>
      </trkpt>
      <trkpt lat="46.69351" lon="5.60818">
        <ele>421.8</ele>
        <time>2023-09-03T10:37:43Z</time>
      </trkpt>
      <trkpt lat="46.69358" lon="5.60815">
        <ele>421.8</ele>
        <time>2023-09-03T10:37:44Z</time>
      </trkpt>
      <trkpt lat="46.69361" lon="5.60814">
        <ele>421.8</ele>
        <time>2023-09-03T10:37:45Z</time>
      </trkpt>
      <trkpt lat="46.69366" lon="5.60812">
        <ele>422.2</ele>
        <time>2023-09-03T10:37:46Z</time>
      </trkpt>
      <trkpt lat="46.69374" lon="5.60808">
        <ele>422.2</ele>
        <time>2023-09-03T10:37:47Z</time>
      </trkpt>
      <trkpt lat="46.69377" lon="5.60807">
        <ele>422.2</ele>
        <time>2023-09-03T10:37:48Z</time>
      </trkpt>
      <trkpt lat="46.69386" lon="5.60803">
        <ele>422.8</ele>
        <time>2023-09-03T10:37:49Z</time>
      </trkpt>
      <trkpt lat="46.69389" lon="5.60803">
        <ele>423</ele>
        <time>2023-09-03T10:37:50Z</time>
      </trkpt>
      <trkpt lat="46.69395" lon="5.608">
        <ele>423</ele>
        <time>2023-09-03T10:37:51Z</time>
      </trkpt>
      <trkpt lat="46.69402" lon="5.60797">
        <ele>423</ele>
        <time>2023-09-03T10:37:52Z</time>
      </trkpt>
      <trkpt lat="46.69408" lon="5.60794">
        <ele>423</ele>
        <time>2023-09-03T10:37:53Z</time>
      </trkpt>
      <trkpt lat="46.69415" lon="5.60792">
        <ele>423</ele>
        <time>2023-09-03T10:37:54Z</time>
      </trkpt>
      <trkpt lat="46.69421" lon="5.60789">
        <ele>423.4</ele>
        <time>2023-09-03T10:37:55Z</time>
      </trkpt>
      <trkpt lat="46.69431" lon="5.60783">
        <ele>423.4</ele>
        <time>2023-09-03T10:37:56Z</time>
      </trkpt>
      <trkpt lat="46.69435" lon="5.60781">
        <ele>423.4</ele>
        <time>2023-09-03T10:37:57Z</time>
      </trkpt>
      <trkpt lat="46.69445" lon="5.60775">
        <ele>424</ele>
        <time>2023-09-03T10:37:58Z</time>
      </trkpt>
      <trkpt lat="46.69448" lon="5.60772">
        <ele>424</ele>
        <time>2023-09-03T10:37:59Z</time>
      </trkpt>
      <trkpt lat="46.69458" lon="5.60764">
        <ele>424.2</ele>
        <time>2023-09-03T10:38:00Z</time>
      </trkpt>
      <trkpt lat="46.69461" lon="5.60761">
        <ele>424.2</ele>
        <time>2023-09-03T10:38:01Z</time>
      </trkpt>
      <trkpt lat="46.69468" lon="5.60755">
        <ele>424.2</ele>
        <time>2023-09-03T10:38:02Z</time>
      </trkpt>
      <trkpt lat="46.69475" lon="5.60748">
        <ele>424.2</ele>
        <time>2023-09-03T10:38:03Z</time>
      </trkpt>
      <trkpt lat="46.69482" lon="5.60741">
        <ele>424.2</ele>
        <time>2023-09-03T10:38:04Z</time>
      </trkpt>
      <trkpt lat="46.69488" lon="5.60734">
        <ele>424.2</ele>
        <time>2023-09-03T10:38:05Z</time>
      </trkpt>
      <trkpt lat="46.69495" lon="5.60726">
        <ele>424.2</ele>
        <time>2023-09-03T10:38:06Z</time>
      </trkpt>
      <trkpt lat="46.69502" lon="5.60718">
        <ele>424.2</ele>
        <time>2023-09-03T10:38:07Z</time>
      </trkpt>
      <trkpt lat="46.69509" lon="5.6071">
        <ele>424.4</ele>
        <time>2023-09-03T10:38:08Z</time>
      </trkpt>
      <trkpt lat="46.6952" lon="5.60697">
        <ele>424.4</ele>
        <time>2023-09-03T10:38:09Z</time>
      </trkpt>
      <trkpt lat="46.69523" lon="5.60693">
        <ele>424.4</ele>
        <time>2023-09-03T10:38:10Z</time>
      </trkpt>
      <trkpt lat="46.69534" lon="5.6068">
        <ele>424.4</ele>
        <time>2023-09-03T10:38:11Z</time>
      </trkpt>
      <trkpt lat="46.69538" lon="5.60675">
        <ele>424.4</ele>
        <time>2023-09-03T10:38:12Z</time>
      </trkpt>
      <trkpt lat="46.69546" lon="5.60667">
        <ele>424.4</ele>
        <time>2023-09-03T10:38:13Z</time>
      </trkpt>
      <trkpt lat="46.69553" lon="5.60658">
        <ele>424.6</ele>
        <time>2023-09-03T10:38:14Z</time>
      </trkpt>
      <trkpt lat="46.69564" lon="5.60644">
        <ele>424.6</ele>
        <time>2023-09-03T10:38:15Z</time>
      </trkpt>
      <trkpt lat="46.69567" lon="5.60639">
        <ele>424.6</ele>
        <time>2023-09-03T10:38:16Z</time>
      </trkpt>
      <trkpt lat="46.69576" lon="5.60626">
        <ele>424.6</ele>
        <time>2023-09-03T10:38:17Z</time>
      </trkpt>
      <trkpt lat="46.69579" lon="5.60623">
        <ele>424.6</ele>
        <time>2023-09-03T10:38:18Z</time>
      </trkpt>
      <trkpt lat="46.69585" lon="5.60613">
        <ele>424.4</ele>
        <time>2023-09-03T10:38:19Z</time>
      </trkpt>
      <trkpt lat="46.69586" lon="5.6061">
        <ele>424.4</ele>
        <time>2023-09-03T10:38:20Z</time>
      </trkpt>
      <trkpt lat="46.69588" lon="5.60605">
        <ele>424.4</ele>
        <time>2023-09-03T10:38:21Z</time>
      </trkpt>
      <trkpt lat="46.69589" lon="5.60601">
        <ele>424.4</ele>
        <time>2023-09-03T10:38:22Z</time>
      </trkpt>
      <trkpt lat="46.69587" lon="5.60598">
        <ele>424.4</ele>
        <time>2023-09-03T10:38:23Z</time>
      </trkpt>
      <trkpt lat="46.69584" lon="5.60602">
        <ele>424.4</ele>
        <time>2023-09-03T10:38:24Z</time>
      </trkpt>
      <trkpt lat="46.69583" lon="5.60603">
        <ele>424.4</ele>
        <time>2023-09-03T10:38:25Z</time>
      </trkpt>
      <trkpt lat="46.69581" lon="5.60606">
        <ele>424.4</ele>
        <time>2023-09-03T10:38:26Z</time>
      </trkpt>
      <trkpt lat="46.69578" lon="5.6061">
        <ele>424.2</ele>
        <time>2023-09-03T10:38:27Z</time>
      </trkpt>
      <trkpt lat="46.69577" lon="5.60611">
        <ele>424.2</ele>
        <time>2023-09-03T10:38:28Z</time>
      </trkpt>
      <trkpt lat="46.69574" lon="5.60614">
        <ele>424.2</ele>
        <time>2023-09-03T10:38:29Z</time>
      </trkpt>
      <trkpt lat="46.69574" lon="5.60615">
        <ele>424.2</ele>
        <time>2023-09-03T10:38:30Z</time>
      </trkpt>
      <trkpt lat="46.69571" lon="5.60619">
        <ele>424.4</ele>
        <time>2023-09-03T10:38:31Z</time>
      </trkpt>
      <trkpt lat="46.69571" lon="5.6062">
        <ele>424.4</ele>
        <time>2023-09-03T10:38:32Z</time>
      </trkpt>
      <trkpt lat="46.69569" lon="5.60623">
        <ele>424.4</ele>
        <time>2023-09-03T10:38:33Z</time>
      </trkpt>
      <trkpt lat="46.69566" lon="5.60628">
        <ele>424.4</ele>
        <time>2023-09-03T10:38:34Z</time>
      </trkpt>
      <trkpt lat="46.69565" lon="5.6063">
        <ele>424.4</ele>
        <time>2023-09-03T10:38:35Z</time>
      </trkpt>
      <trkpt lat="46.69563" lon="5.60633">
        <ele>424.4</ele>
        <time>2023-09-03T10:38:36Z</time>
      </trkpt>
      <trkpt lat="46.6956" lon="5.60636">
        <ele>424.4</ele>
        <time>2023-09-03T10:38:37Z</time>
      </trkpt>
      <trkpt lat="46.69558" lon="5.60639">
        <ele>424.2</ele>
        <time>2023-09-03T10:38:38Z</time>
      </trkpt>
      <trkpt lat="46.69555" lon="5.60644">
        <ele>424.2</ele>
        <time>2023-09-03T10:38:39Z</time>
      </trkpt>
      <trkpt lat="46.69553" lon="5.60645">
        <ele>424.6</ele>
        <time>2023-09-03T10:38:40Z</time>
      </trkpt>
      <trkpt lat="46.6955" lon="5.60649">
        <ele>424.6</ele>
        <time>2023-09-03T10:38:41Z</time>
      </trkpt>
      <trkpt lat="46.69549" lon="5.60651">
        <ele>424.6</ele>
        <time>2023-09-03T10:38:42Z</time>
      </trkpt>
      <trkpt lat="46.69546" lon="5.60654">
        <ele>424.6</ele>
        <time>2023-09-03T10:38:43Z</time>
      </trkpt>
      <trkpt lat="46.69543" lon="5.60657">
        <ele>424.6</ele>
        <time>2023-09-03T10:38:44Z</time>
      </trkpt>
      <trkpt lat="46.69542" lon="5.60658">
        <ele>424.4</ele>
        <time>2023-09-03T10:38:45Z</time>
      </trkpt>
      <trkpt lat="46.69538" lon="5.60662">
        <ele>424.6</ele>
        <time>2023-09-03T10:38:46Z</time>
      </trkpt>
      <trkpt lat="46.69537" lon="5.60664">
        <ele>424.6</ele>
        <time>2023-09-03T10:38:47Z</time>
      </trkpt>
      <trkpt lat="46.69535" lon="5.60666">
        <ele>424.6</ele>
        <time>2023-09-03T10:38:48Z</time>
      </trkpt>
      <trkpt lat="46.69531" lon="5.60671">
        <ele>424.4</ele>
        <time>2023-09-03T10:38:49Z</time>
      </trkpt>
      <trkpt lat="46.6953" lon="5.60672">
        <ele>424.2</ele>
        <time>2023-09-03T10:38:50Z</time>
      </trkpt>
      <trkpt lat="46.69526" lon="5.60676">
        <ele>424.2</ele>
        <time>2023-09-03T10:38:51Z</time>
      </trkpt>
      <trkpt lat="46.69525" lon="5.60677">
        <ele>424.2</ele>
        <time>2023-09-03T10:38:52Z</time>
      </trkpt>
      <trkpt lat="46.69523" lon="5.6068">
        <ele>424.2</ele>
        <time>2023-09-03T10:38:53Z</time>
      </trkpt>
      <trkpt lat="46.69521" lon="5.60682">
        <ele>424</ele>
        <time>2023-09-03T10:38:54Z</time>
      </trkpt>
      <trkpt lat="46.69518" lon="5.60685">
        <ele>424</ele>
        <time>2023-09-03T10:38:55Z</time>
      </trkpt>
      <trkpt lat="46.69516" lon="5.60688">
        <ele>424</ele>
        <time>2023-09-03T10:38:56Z</time>
      </trkpt>
      <trkpt lat="46.69514" lon="5.60691">
        <ele>424</ele>
        <time>2023-09-03T10:38:57Z</time>
      </trkpt>
      <trkpt lat="46.69512" lon="5.60693">
        <ele>424</ele>
        <time>2023-09-03T10:38:58Z</time>
      </trkpt>
      <trkpt lat="46.69509" lon="5.60697">
        <ele>424</ele>
        <time>2023-09-03T10:38:59Z</time>
      </trkpt>
      <trkpt lat="46.69508" lon="5.60698">
        <ele>423.6</ele>
        <time>2023-09-03T10:39:00Z</time>
      </trkpt>
      <trkpt lat="46.69506" lon="5.60701">
        <ele>423.6</ele>
        <time>2023-09-03T10:39:01Z</time>
      </trkpt>
      <trkpt lat="46.69503" lon="5.60705">
        <ele>423.6</ele>
        <time>2023-09-03T10:39:02Z</time>
      </trkpt>
      <trkpt lat="46.69502" lon="5.60706">
        <ele>423.2</ele>
        <time>2023-09-03T10:39:03Z</time>
      </trkpt>
      <trkpt lat="46.69499" lon="5.60709">
        <ele>423</ele>
        <time>2023-09-03T10:39:04Z</time>
      </trkpt>
      <trkpt lat="46.69498" lon="5.6071">
        <ele>423</ele>
        <time>2023-09-03T10:39:05Z</time>
      </trkpt>
      <trkpt lat="46.69495" lon="5.60712">
        <ele>423</ele>
        <time>2023-09-03T10:39:06Z</time>
      </trkpt>
      <trkpt lat="46.69493" lon="5.60715">
        <ele>423</ele>
        <time>2023-09-03T10:39:07Z</time>
      </trkpt>
      <trkpt lat="46.69491" lon="5.60717">
        <ele>422.6</ele>
        <time>2023-09-03T10:39:08Z</time>
      </trkpt>
      <trkpt lat="46.69488" lon="5.6072">
        <ele>422.6</ele>
        <time>2023-09-03T10:39:09Z</time>
      </trkpt>
      <trkpt lat="46.69487" lon="5.60721">
        <ele>422.6</ele>
        <time>2023-09-03T10:39:10Z</time>
      </trkpt>
      <trkpt lat="46.69483" lon="5.60725">
        <ele>422.6</ele>
        <time>2023-09-03T10:39:11Z</time>
      </trkpt>
      <trkpt lat="46.69482" lon="5.60726">
        <ele>422.6</ele>
        <time>2023-09-03T10:39:12Z</time>
      </trkpt>
      <trkpt lat="46.6948" lon="5.60728">
        <ele>422.2</ele>
        <time>2023-09-03T10:39:13Z</time>
      </trkpt>
      <trkpt lat="46.69478" lon="5.60731">
        <ele>422.2</ele>
        <time>2023-09-03T10:39:14Z</time>
      </trkpt>
      <trkpt lat="46.69476" lon="5.60734">
        <ele>422.2</ele>
        <time>2023-09-03T10:39:15Z</time>
      </trkpt>
      <trkpt lat="46.69472" lon="5.60737">
        <ele>422.2</ele>
        <time>2023-09-03T10:39:16Z</time>
      </trkpt>
      <trkpt lat="46.69471" lon="5.60738">
        <ele>421.8</ele>
        <time>2023-09-03T10:39:17Z</time>
      </trkpt>
      <trkpt lat="46.69468" lon="5.60742">
        <ele>421.8</ele>
        <time>2023-09-03T10:39:18Z</time>
      </trkpt>
      <trkpt lat="46.69467" lon="5.60743">
        <ele>421.6</ele>
        <time>2023-09-03T10:39:19Z</time>
      </trkpt>
      <trkpt lat="46.69464" lon="5.60746">
        <ele>421.6</ele>
        <time>2023-09-03T10:39:20Z</time>
      </trkpt>
      <trkpt lat="46.69461" lon="5.60749">
        <ele>421.4</ele>
        <time>2023-09-03T10:39:21Z</time>
      </trkpt>
      <trkpt lat="46.6946" lon="5.6075">
        <ele>421.4</ele>
        <time>2023-09-03T10:39:22Z</time>
      </trkpt>
      <trkpt lat="46.69456" lon="5.60753">
        <ele>421.4</ele>
        <time>2023-09-03T10:39:23Z</time>
      </trkpt>
      <trkpt lat="46.69455" lon="5.60755">
        <ele>421.4</ele>
        <time>2023-09-03T10:39:24Z</time>
      </trkpt>
      <trkpt lat="46.69452" lon="5.60757">
        <ele>421.4</ele>
        <time>2023-09-03T10:39:25Z</time>
      </trkpt>
      <trkpt lat="46.69449" lon="5.6076">
        <ele>421</ele>
        <time>2023-09-03T10:39:26Z</time>
      </trkpt>
      <trkpt lat="46.69448" lon="5.60761">
        <ele>420.8</ele>
        <time>2023-09-03T10:39:27Z</time>
      </trkpt>
      <trkpt lat="46.69444" lon="5.60764">
        <ele>420.8</ele>
        <time>2023-09-03T10:39:28Z</time>
      </trkpt>
      <trkpt lat="46.69443" lon="5.60765">
        <ele>420.8</ele>
        <time>2023-09-03T10:39:29Z</time>
      </trkpt>
      <trkpt lat="46.6944" lon="5.60767">
        <ele>420.8</ele>
        <time>2023-09-03T10:39:30Z</time>
      </trkpt>
      <trkpt lat="46.69437" lon="5.60769">
        <ele>420.8</ele>
        <time>2023-09-03T10:39:31Z</time>
      </trkpt>
      <trkpt lat="46.69433" lon="5.60772">
        <ele>420.4</ele>
        <time>2023-09-03T10:39:32Z</time>
      </trkpt>
      <trkpt lat="46.69432" lon="5.60773">
        <ele>420.4</ele>
        <time>2023-09-03T10:39:33Z</time>
      </trkpt>
      <trkpt lat="46.69429" lon="5.60774">
        <ele>420.4</ele>
        <time>2023-09-03T10:39:34Z</time>
      </trkpt>
      <trkpt lat="46.69425" lon="5.60776">
        <ele>420.4</ele>
        <time>2023-09-03T10:39:35Z</time>
      </trkpt>
      <trkpt lat="46.69424" lon="5.60777">
        <ele>419.8</ele>
        <time>2023-09-03T10:39:36Z</time>
      </trkpt>
      <trkpt lat="46.69421" lon="5.60778">
        <ele>419.6</ele>
        <time>2023-09-03T10:39:37Z</time>
      </trkpt>
      <trkpt lat="46.69417" lon="5.6078">
        <ele>419.6</ele>
        <time>2023-09-03T10:39:38Z</time>
      </trkpt>
      <trkpt lat="46.69416" lon="5.60781">
        <ele>419.6</ele>
        <time>2023-09-03T10:39:39Z</time>
      </trkpt>
      <trkpt lat="46.69413" lon="5.60782">
        <ele>419.4</ele>
        <time>2023-09-03T10:39:40Z</time>
      </trkpt>
      <trkpt lat="46.69411" lon="5.60783">
        <ele>419.2</ele>
        <time>2023-09-03T10:39:41Z</time>
      </trkpt>
      <trkpt lat="46.69408" lon="5.60784">
        <ele>419.2</ele>
        <time>2023-09-03T10:39:42Z</time>
      </trkpt>
      <trkpt lat="46.69405" lon="5.60786">
        <ele>419.2</ele>
        <time>2023-09-03T10:39:43Z</time>
      </trkpt>
      <trkpt lat="46.69402" lon="5.60787">
        <ele>419.2</ele>
        <time>2023-09-03T10:39:44Z</time>
      </trkpt>
      <trkpt lat="46.69399" lon="5.60789">
        <ele>418.8</ele>
        <time>2023-09-03T10:39:45Z</time>
      </trkpt>
      <trkpt lat="46.69396" lon="5.6079">
        <ele>418.8</ele>
        <time>2023-09-03T10:39:46Z</time>
      </trkpt>
      <trkpt lat="46.69394" lon="5.60791">
        <ele>418.8</ele>
        <time>2023-09-03T10:39:47Z</time>
      </trkpt>
      <trkpt lat="46.69391" lon="5.60792">
        <ele>418.8</ele>
        <time>2023-09-03T10:39:48Z</time>
      </trkpt>
      <trkpt lat="46.69388" lon="5.60793">
        <ele>418.2</ele>
        <time>2023-09-03T10:39:49Z</time>
      </trkpt>
      <trkpt lat="46.69384" lon="5.60795">
        <ele>418.2</ele>
        <time>2023-09-03T10:39:50Z</time>
      </trkpt>
      <trkpt lat="46.69383" lon="5.60795">
        <ele>418.2</ele>
        <time>2023-09-03T10:39:51Z</time>
      </trkpt>
      <trkpt lat="46.69379" lon="5.60797">
        <ele>418.2</ele>
        <time>2023-09-03T10:39:52Z</time>
      </trkpt>
      <trkpt lat="46.69378" lon="5.60797">
        <ele>418</ele>
        <time>2023-09-03T10:39:53Z</time>
      </trkpt>
      <trkpt lat="46.69374" lon="5.60799">
        <ele>417.8</ele>
        <time>2023-09-03T10:39:54Z</time>
      </trkpt>
      <trkpt lat="46.69372" lon="5.608">
        <ele>417.8</ele>
        <time>2023-09-03T10:39:55Z</time>
      </trkpt>
      <trkpt lat="46.69368" lon="5.60801">
        <ele>417.8</ele>
        <time>2023-09-03T10:39:56Z</time>
      </trkpt>
      <trkpt lat="46.69366" lon="5.60802">
        <ele>417.8</ele>
        <time>2023-09-03T10:39:57Z</time>
      </trkpt>
      <trkpt lat="46.69364" lon="5.60803">
        <ele>417.8</ele>
        <time>2023-09-03T10:39:58Z</time>
      </trkpt>
      <trkpt lat="46.69359" lon="5.60805">
        <ele>417.6</ele>
        <time>2023-09-03T10:39:59Z</time>
      </trkpt>
      <trkpt lat="46.69358" lon="5.60805">
        <ele>417.6</ele>
        <time>2023-09-03T10:40:00Z</time>
      </trkpt>
      <trkpt lat="46.69355" lon="5.60806">
        <ele>417.6</ele>
        <time>2023-09-03T10:40:01Z</time>
      </trkpt>
      <trkpt lat="46.69353" lon="5.60808">
        <ele>417</ele>
        <time>2023-09-03T10:40:02Z</time>
      </trkpt>
      <trkpt lat="46.6935" lon="5.60808">
        <ele>417.4</ele>
        <time>2023-09-03T10:40:03Z</time>
      </trkpt>
      <trkpt lat="46.69348" lon="5.60809">
        <ele>417.4</ele>
        <time>2023-09-03T10:40:04Z</time>
      </trkpt>
      <trkpt lat="46.69346" lon="5.60809">
        <ele>417.4</ele>
        <time>2023-09-03T10:40:05Z</time>
      </trkpt>
      <trkpt lat="46.69344" lon="5.6081">
        <ele>417.4</ele>
        <time>2023-09-03T10:40:06Z</time>
      </trkpt>
      <trkpt lat="46.69343" lon="5.6081">
        <ele>416.4</ele>
        <time>2023-09-03T10:40:07Z</time>
      </trkpt>
      <trkpt lat="46.69344" lon="5.6081">
        <ele>416.4</ele>
        <time>2023-09-03T10:40:08Z</time>
      </trkpt>
      <trkpt lat="46.69345" lon="5.60811">
        <ele>416.4</ele>
        <time>2023-09-03T10:40:09Z</time>
      </trkpt>
      <trkpt lat="46.69347" lon="5.60812">
        <ele>416.4</ele>
        <time>2023-09-03T10:40:10Z</time>
      </trkpt>
      <trkpt lat="46.69348" lon="5.60813">
        <ele>415.6</ele>
        <time>2023-09-03T10:40:11Z</time>
      </trkpt>
      <trkpt lat="46.6935" lon="5.60814">
        <ele>415.4</ele>
        <time>2023-09-03T10:40:12Z</time>
      </trkpt>
      <trkpt lat="46.69351" lon="5.60815">
        <ele>415.4</ele>
        <time>2023-09-03T10:40:13Z</time>
      </trkpt>
      <trkpt lat="46.69353" lon="5.60816">
        <ele>408.6</ele>
        <time>2023-09-03T10:40:35Z</time>
      </trkpt>
      <trkpt lat="46.69354" lon="5.60817">
        <ele>408.6</ele>
        <time>2023-09-03T10:40:36Z</time>
      </trkpt>
      <trkpt lat="46.69361" lon="5.60814">
        <ele>408.6</ele>
        <time>2023-09-03T10:40:37Z</time>
      </trkpt>
      <trkpt lat="46.69363" lon="5.60814">
        <ele>408.6</ele>
        <time>2023-09-03T10:40:38Z</time>
      </trkpt>
      <trkpt lat="46.69368" lon="5.60812">
        <ele>408.2</ele>
        <time>2023-09-03T10:40:39Z</time>
      </trkpt>
      <trkpt lat="46.69376" lon="5.60808">
        <ele>407.8</ele>
        <time>2023-09-03T10:40:40Z</time>
      </trkpt>
      <trkpt lat="46.69379" lon="5.60807">
        <ele>407.8</ele>
        <time>2023-09-03T10:40:41Z</time>
      </trkpt>
      <trkpt lat="46.69387" lon="5.60803">
        <ele>407.8</ele>
        <time>2023-09-03T10:40:42Z</time>
      </trkpt>
      <trkpt lat="46.6939" lon="5.60802">
        <ele>407.8</ele>
        <time>2023-09-03T10:40:43Z</time>
      </trkpt>
      <trkpt lat="46.69399" lon="5.60798">
        <ele>407.6</ele>
        <time>2023-09-03T10:40:44Z</time>
      </trkpt>
      <trkpt lat="46.69403" lon="5.60796">
        <ele>407.6</ele>
        <time>2023-09-03T10:40:45Z</time>
      </trkpt>
      <trkpt lat="46.69409" lon="5.60794">
        <ele>407.6</ele>
        <time>2023-09-03T10:40:46Z</time>
      </trkpt>
      <trkpt lat="46.69419" lon="5.60789">
        <ele>407.8</ele>
        <time>2023-09-03T10:40:47Z</time>
      </trkpt>
      <trkpt lat="46.69422" lon="5.60787">
        <ele>407.8</ele>
        <time>2023-09-03T10:40:48Z</time>
      </trkpt>
      <trkpt lat="46.69429" lon="5.60784">
        <ele>407.8</ele>
        <time>2023-09-03T10:40:49Z</time>
      </trkpt>
      <trkpt lat="46.6944" lon="5.60777">
        <ele>407.8</ele>
        <time>2023-09-03T10:40:50Z</time>
      </trkpt>
      <trkpt lat="46.69444" lon="5.60775">
        <ele>407.8</ele>
        <time>2023-09-03T10:40:51Z</time>
      </trkpt>
      <trkpt lat="46.69454" lon="5.60766">
        <ele>407.8</ele>
        <time>2023-09-03T10:40:52Z</time>
      </trkpt>
      <trkpt lat="46.69458" lon="5.60763">
        <ele>407.8</ele>
        <time>2023-09-03T10:40:53Z</time>
      </trkpt>
      <trkpt lat="46.69468" lon="5.60753">
        <ele>408</ele>
        <time>2023-09-03T10:40:54Z</time>
      </trkpt>
      <trkpt lat="46.69472" lon="5.6075">
        <ele>408</ele>
        <time>2023-09-03T10:40:55Z</time>
      </trkpt>
      <trkpt lat="46.69483" lon="5.60739">
        <ele>408</ele>
        <time>2023-09-03T10:40:56Z</time>
      </trkpt>
      <trkpt lat="46.69486" lon="5.60735">
        <ele>408</ele>
        <time>2023-09-03T10:40:57Z</time>
      </trkpt>
      <trkpt lat="46.69497" lon="5.60722">
        <ele>408.2</ele>
        <time>2023-09-03T10:40:58Z</time>
      </trkpt>
      <trkpt lat="46.69501" lon="5.60718">
        <ele>408.2</ele>
        <time>2023-09-03T10:40:59Z</time>
      </trkpt>
      <trkpt lat="46.69508" lon="5.60709">
        <ele>408.2</ele>
        <time>2023-09-03T10:41:00Z</time>
      </trkpt>
      <trkpt lat="46.69516" lon="5.607">
        <ele>408.2</ele>
        <time>2023-09-03T10:41:01Z</time>
      </trkpt>
      <trkpt lat="46.69523" lon="5.60691">
        <ele>408.2</ele>
        <time>2023-09-03T10:41:02Z</time>
      </trkpt>
      <trkpt lat="46.69535" lon="5.60677">
        <ele>408.2</ele>
        <time>2023-09-03T10:41:03Z</time>
      </trkpt>
      <trkpt lat="46.69539" lon="5.60672">
        <ele>408.2</ele>
        <time>2023-09-03T10:41:04Z</time>
      </trkpt>
      <trkpt lat="46.69547" lon="5.60663">
        <ele>408.2</ele>
        <time>2023-09-03T10:41:05Z</time>
      </trkpt>
      <trkpt lat="46.69555" lon="5.60653">
        <ele>408.2</ele>
        <time>2023-09-03T10:41:06Z</time>
      </trkpt>
      <trkpt lat="46.69563" lon="5.60643">
        <ele>408.2</ele>
        <time>2023-09-03T10:41:07Z</time>
      </trkpt>
      <trkpt lat="46.69574" lon="5.60625">
        <ele>408.2</ele>
        <time>2023-09-03T10:41:08Z</time>
      </trkpt>
      <trkpt lat="46.69578" lon="5.60619">
        <ele>408.2</ele>
        <time>2023-09-03T10:41:09Z</time>
      </trkpt>
      <trkpt lat="46.69585" lon="5.60606">
        <ele>408.2</ele>
        <time>2023-09-03T10:41:10Z</time>
      </trkpt>
      <trkpt lat="46.69595" lon="5.60586">
        <ele>408.6</ele>
        <time>2023-09-03T10:41:11Z</time>
      </trkpt>
      <trkpt lat="46.69598" lon="5.60579">
        <ele>408.4</ele>
        <time>2023-09-03T10:41:12Z</time>
      </trkpt>
      <trkpt lat="46.69603" lon="5.60565">
        <ele>408.4</ele>
        <time>2023-09-03T10:41:13Z</time>
      </trkpt>
      <trkpt lat="46.69612" lon="5.60543">
        <ele>408.4</ele>
        <time>2023-09-03T10:41:14Z</time>
      </trkpt>
      <trkpt lat="46.69615" lon="5.60536">
        <ele>408.4</ele>
        <time>2023-09-03T10:41:15Z</time>
      </trkpt>
      <trkpt lat="46.69624" lon="5.60514">
        <ele>408.4</ele>
        <time>2023-09-03T10:41:16Z</time>
      </trkpt>
      <trkpt lat="46.69627" lon="5.60507">
        <ele>408.4</ele>
        <time>2023-09-03T10:41:17Z</time>
      </trkpt>
      <trkpt lat="46.69633" lon="5.60492">
        <ele>408.4</ele>
        <time>2023-09-03T10:41:18Z</time>
      </trkpt>
      <trkpt lat="46.69643" lon="5.60472">
        <ele>408.4</ele>
        <time>2023-09-03T10:41:19Z</time>
      </trkpt>
      <trkpt lat="46.69646" lon="5.60465">
        <ele>408.4</ele>
        <time>2023-09-03T10:41:20Z</time>
      </trkpt>
      <trkpt lat="46.69654" lon="5.60452">
        <ele>408.2</ele>
        <time>2023-09-03T10:41:21Z</time>
      </trkpt>
      <trkpt lat="46.69661" lon="5.60442">
        <ele>408.2</ele>
        <time>2023-09-03T10:41:22Z</time>
      </trkpt>
      <trkpt lat="46.69668" lon="5.60434">
        <ele>408.2</ele>
        <time>2023-09-03T10:41:23Z</time>
      </trkpt>
      <trkpt lat="46.69679" lon="5.60424">
        <ele>408.2</ele>
        <time>2023-09-03T10:41:24Z</time>
      </trkpt>
      <trkpt lat="46.69682" lon="5.60421">
        <ele>408.8</ele>
        <time>2023-09-03T10:41:25Z</time>
      </trkpt>
      <trkpt lat="46.6969" lon="5.60415">
        <ele>408.8</ele>
        <time>2023-09-03T10:41:26Z</time>
      </trkpt>
      <trkpt lat="46.69698" lon="5.6041">
        <ele>408.6</ele>
        <time>2023-09-03T10:41:27Z</time>
      </trkpt>
      <trkpt lat="46.69711" lon="5.60404">
        <ele>408.6</ele>
        <time>2023-09-03T10:41:28Z</time>
      </trkpt>
      <trkpt lat="46.69715" lon="5.60402">
        <ele>408.6</ele>
        <time>2023-09-03T10:41:29Z</time>
      </trkpt>
      <trkpt lat="46.69728" lon="5.60396">
        <ele>408.6</ele>
        <time>2023-09-03T10:41:30Z</time>
      </trkpt>
      <trkpt lat="46.69732" lon="5.60395">
        <ele>408.8</ele>
        <time>2023-09-03T10:41:31Z</time>
      </trkpt>
      <trkpt lat="46.69745" lon="5.6039">
        <ele>408.8</ele>
        <time>2023-09-03T10:41:32Z</time>
      </trkpt>
      <trkpt lat="46.69749" lon="5.60389">
        <ele>408.8</ele>
        <time>2023-09-03T10:41:33Z</time>
      </trkpt>
      <trkpt lat="46.69758" lon="5.60386">
        <ele>408.8</ele>
        <time>2023-09-03T10:41:34Z</time>
      </trkpt>
      <trkpt lat="46.69768" lon="5.60385">
        <ele>409</ele>
        <time>2023-09-03T10:41:35Z</time>
      </trkpt>
      <trkpt lat="46.69771" lon="5.60385">
        <ele>409.2</ele>
        <time>2023-09-03T10:41:36Z</time>
      </trkpt>
      <trkpt lat="46.69777" lon="5.60385">
        <ele>409.2</ele>
        <time>2023-09-03T10:41:37Z</time>
      </trkpt>
      <trkpt lat="46.69785" lon="5.60384">
        <ele>409.2</ele>
        <time>2023-09-03T10:41:38Z</time>
      </trkpt>
      <trkpt lat="46.69788" lon="5.60383">
        <ele>409.6</ele>
        <time>2023-09-03T10:41:39Z</time>
      </trkpt>
      <trkpt lat="46.69798" lon="5.60381">
        <ele>409.4</ele>
        <time>2023-09-03T10:41:40Z</time>
      </trkpt>
      <trkpt lat="46.69801" lon="5.60379">
        <ele>409.4</ele>
        <time>2023-09-03T10:41:41Z</time>
      </trkpt>
      <trkpt lat="46.69807" lon="5.60376">
        <ele>409.4</ele>
        <time>2023-09-03T10:41:42Z</time>
      </trkpt>
      <trkpt lat="46.69814" lon="5.60372">
        <ele>409.4</ele>
        <time>2023-09-03T10:41:43Z</time>
      </trkpt>
      <trkpt lat="46.69823" lon="5.60365">
        <ele>409.4</ele>
        <time>2023-09-03T10:41:44Z</time>
      </trkpt>
      <trkpt lat="46.69826" lon="5.60362">
        <ele>410.2</ele>
        <time>2023-09-03T10:41:45Z</time>
      </trkpt>
      <trkpt lat="46.69835" lon="5.60354">
        <ele>410.2</ele>
        <time>2023-09-03T10:41:46Z</time>
      </trkpt>
      <trkpt lat="46.69838" lon="5.6035">
        <ele>410.2</ele>
        <time>2023-09-03T10:41:47Z</time>
      </trkpt>
      <trkpt lat="46.69847" lon="5.6034">
        <ele>410.2</ele>
        <time>2023-09-03T10:41:48Z</time>
      </trkpt>
      <trkpt lat="46.69849" lon="5.60335">
        <ele>410.4</ele>
        <time>2023-09-03T10:41:49Z</time>
      </trkpt>
      <trkpt lat="46.69854" lon="5.60326">
        <ele>406.8</ele>
        <time>2023-09-03T10:41:50Z</time>
      </trkpt>
      <trkpt lat="46.69858" lon="5.60317">
        <ele>406.8</ele>
        <time>2023-09-03T10:41:51Z</time>
      </trkpt>
      <trkpt lat="46.69862" lon="5.603">
        <ele>406.8</ele>
        <time>2023-09-03T10:41:52Z</time>
      </trkpt>
      <trkpt lat="46.69863" lon="5.60294">
        <ele>407.8</ele>
        <time>2023-09-03T10:41:53Z</time>
      </trkpt>
      <trkpt lat="46.69866" lon="5.60277">
        <ele>407.8</ele>
        <time>2023-09-03T10:41:54Z</time>
      </trkpt>
      <trkpt lat="46.69866" lon="5.60271">
        <ele>410.2</ele>
        <time>2023-09-03T10:41:55Z</time>
      </trkpt>
      <trkpt lat="46.69866" lon="5.60252">
        <ele>410.2</ele>
        <time>2023-09-03T10:41:56Z</time>
      </trkpt>
      <trkpt lat="46.69865" lon="5.60246">
        <ele>410.2</ele>
        <time>2023-09-03T10:41:57Z</time>
      </trkpt>
      <trkpt lat="46.69861" lon="5.60228">
        <ele>410</ele>
        <time>2023-09-03T10:41:58Z</time>
      </trkpt>
      <trkpt lat="46.69859" lon="5.60222">
        <ele>409.8</ele>
        <time>2023-09-03T10:41:59Z</time>
      </trkpt>
      <trkpt lat="46.69851" lon="5.60206">
        <ele>409.8</ele>
        <time>2023-09-03T10:42:00Z</time>
      </trkpt>
      <trkpt lat="46.69848" lon="5.60203">
        <ele>409.8</ele>
        <time>2023-09-03T10:42:01Z</time>
      </trkpt>
      <trkpt lat="46.69838" lon="5.60192">
        <ele>409.2</ele>
        <time>2023-09-03T10:42:02Z</time>
      </trkpt>
      <trkpt lat="46.69835" lon="5.60188">
        <ele>409.2</ele>
        <time>2023-09-03T10:42:03Z</time>
      </trkpt>
      <trkpt lat="46.69824" lon="5.60177">
        <ele>409</ele>
        <time>2023-09-03T10:42:04Z</time>
      </trkpt>
      <trkpt lat="46.69821" lon="5.60174">
        <ele>409</ele>
        <time>2023-09-03T10:42:05Z</time>
      </trkpt>
      <trkpt lat="46.69813" lon="5.60166">
        <ele>409</ele>
        <time>2023-09-03T10:42:06Z</time>
      </trkpt>
      <trkpt lat="46.69802" lon="5.60155">
        <ele>408.4</ele>
        <time>2023-09-03T10:42:07Z</time>
      </trkpt>
      <trkpt lat="46.69798" lon="5.60151">
        <ele>408</ele>
        <time>2023-09-03T10:42:08Z</time>
      </trkpt>
      <trkpt lat="46.69786" lon="5.60141">
        <ele>408</ele>
        <time>2023-09-03T10:42:09Z</time>
      </trkpt>
      <trkpt lat="46.69782" lon="5.60137">
        <ele>408</ele>
        <time>2023-09-03T10:42:10Z</time>
      </trkpt>
      <trkpt lat="46.6977" lon="5.60126">
        <ele>408</ele>
        <time>2023-09-03T10:42:11Z</time>
      </trkpt>
      <trkpt lat="46.69765" lon="5.60123">
        <ele>407.6</ele>
        <time>2023-09-03T10:42:12Z</time>
      </trkpt>
      <trkpt lat="46.69757" lon="5.60115">
        <ele>407.6</ele>
        <time>2023-09-03T10:42:13Z</time>
      </trkpt>
      <trkpt lat="46.69746" lon="5.60102">
        <ele>407.6</ele>
        <time>2023-09-03T10:42:14Z</time>
      </trkpt>
      <trkpt lat="46.69742" lon="5.60098">
        <ele>407.6</ele>
        <time>2023-09-03T10:42:15Z</time>
      </trkpt>
      <trkpt lat="46.69734" lon="5.60089">
        <ele>407.6</ele>
        <time>2023-09-03T10:42:16Z</time>
      </trkpt>
      <trkpt lat="46.69723" lon="5.60074">
        <ele>407.2</ele>
        <time>2023-09-03T10:42:17Z</time>
      </trkpt>
      <trkpt lat="46.6972" lon="5.60069">
        <ele>407.2</ele>
        <time>2023-09-03T10:42:18Z</time>
      </trkpt>
      <trkpt lat="46.69713" lon="5.60059">
        <ele>407.2</ele>
        <time>2023-09-03T10:42:19Z</time>
      </trkpt>
      <trkpt lat="46.69703" lon="5.60042">
        <ele>407.2</ele>
        <time>2023-09-03T10:42:20Z</time>
      </trkpt>
      <trkpt lat="46.697" lon="5.60037">
        <ele>407</ele>
        <time>2023-09-03T10:42:21Z</time>
      </trkpt>
      <trkpt lat="46.69693" lon="5.60025">
        <ele>406.6</ele>
        <time>2023-09-03T10:42:22Z</time>
      </trkpt>
      <trkpt lat="46.69683" lon="5.60009">
        <ele>406.6</ele>
        <time>2023-09-03T10:42:23Z</time>
      </trkpt>
      <trkpt lat="46.69679" lon="5.60003">
        <ele>406.6</ele>
        <time>2023-09-03T10:42:24Z</time>
      </trkpt>
      <trkpt lat="46.69672" lon="5.59993">
        <ele>406.6</ele>
        <time>2023-09-03T10:42:25Z</time>
      </trkpt>
      <trkpt lat="46.69661" lon="5.59978">
        <ele>406.2</ele>
        <time>2023-09-03T10:42:26Z</time>
      </trkpt>
      <trkpt lat="46.69656" lon="5.59973">
        <ele>405.8</ele>
        <time>2023-09-03T10:42:27Z</time>
      </trkpt>
      <trkpt lat="46.69643" lon="5.59961">
        <ele>405.8</ele>
        <time>2023-09-03T10:42:28Z</time>
      </trkpt>
      <trkpt lat="46.69638" lon="5.59958">
        <ele>405.8</ele>
        <time>2023-09-03T10:42:29Z</time>
      </trkpt>
      <trkpt lat="46.69624" lon="5.59948">
        <ele>405.8</ele>
        <time>2023-09-03T10:42:30Z</time>
      </trkpt>
      <trkpt lat="46.69619" lon="5.59945">
        <ele>405</ele>
        <time>2023-09-03T10:42:31Z</time>
      </trkpt>
      <trkpt lat="46.69609" lon="5.59938">
        <ele>405.2</ele>
        <time>2023-09-03T10:42:32Z</time>
      </trkpt>
      <trkpt lat="46.696" lon="5.59931">
        <ele>405.2</ele>
        <time>2023-09-03T10:42:33Z</time>
      </trkpt>
      <trkpt lat="46.6959" lon="5.59924">
        <ele>405.2</ele>
        <time>2023-09-03T10:42:34Z</time>
      </trkpt>
      <trkpt lat="46.69575" lon="5.59913">
        <ele>405.2</ele>
        <time>2023-09-03T10:42:35Z</time>
      </trkpt>
      <trkpt lat="46.6957" lon="5.5991">
        <ele>404.4</ele>
        <time>2023-09-03T10:42:36Z</time>
      </trkpt>
      <trkpt lat="46.69561" lon="5.59902">
        <ele>404.4</ele>
        <time>2023-09-03T10:42:37Z</time>
      </trkpt>
      <trkpt lat="46.69551" lon="5.59895">
        <ele>404.4</ele>
        <time>2023-09-03T10:42:38Z</time>
      </trkpt>
      <trkpt lat="46.69542" lon="5.59888">
        <ele>404.4</ele>
        <time>2023-09-03T10:42:39Z</time>
      </trkpt>
      <trkpt lat="46.69529" lon="5.59875">
        <ele>403.6</ele>
        <time>2023-09-03T10:42:40Z</time>
      </trkpt>
      <trkpt lat="46.69525" lon="5.5987">
        <ele>403.6</ele>
        <time>2023-09-03T10:42:41Z</time>
      </trkpt>
      <trkpt lat="46.69517" lon="5.5986">
        <ele>403.4</ele>
        <time>2023-09-03T10:42:42Z</time>
      </trkpt>
      <trkpt lat="46.69509" lon="5.5985">
        <ele>403.4</ele>
        <time>2023-09-03T10:42:43Z</time>
      </trkpt>
      <trkpt lat="46.69501" lon="5.5984">
        <ele>403.4</ele>
        <time>2023-09-03T10:42:44Z</time>
      </trkpt>
      <trkpt lat="46.6949" lon="5.59825">
        <ele>402.8</ele>
        <time>2023-09-03T10:42:45Z</time>
      </trkpt>
      <trkpt lat="46.69486" lon="5.5982">
        <ele>402.4</ele>
        <time>2023-09-03T10:42:46Z</time>
      </trkpt>
      <trkpt lat="46.69478" lon="5.59811">
        <ele>402.4</ele>
        <time>2023-09-03T10:42:47Z</time>
      </trkpt>
      <trkpt lat="46.69466" lon="5.59797">
        <ele>402.4</ele>
        <time>2023-09-03T10:42:48Z</time>
      </trkpt>
      <trkpt lat="46.69462" lon="5.59792">
        <ele>402.4</ele>
        <time>2023-09-03T10:42:49Z</time>
      </trkpt>
      <trkpt lat="46.69454" lon="5.59784">
        <ele>402</ele>
        <time>2023-09-03T10:42:50Z</time>
      </trkpt>
      <trkpt lat="46.69441" lon="5.59774">
        <ele>401.8</ele>
        <time>2023-09-03T10:42:51Z</time>
      </trkpt>
      <trkpt lat="46.69437" lon="5.5977">
        <ele>401.8</ele>
        <time>2023-09-03T10:42:52Z</time>
      </trkpt>
      <trkpt lat="46.69428" lon="5.59763">
        <ele>401.8</ele>
        <time>2023-09-03T10:42:53Z</time>
      </trkpt>
      <trkpt lat="46.69419" lon="5.59758">
        <ele>401.8</ele>
        <time>2023-09-03T10:42:54Z</time>
      </trkpt>
      <trkpt lat="46.69406" lon="5.5975">
        <ele>401.4</ele>
        <time>2023-09-03T10:42:55Z</time>
      </trkpt>
      <trkpt lat="46.69402" lon="5.59747">
        <ele>401.4</ele>
        <time>2023-09-03T10:42:56Z</time>
      </trkpt>
      <trkpt lat="46.69389" lon="5.59738">
        <ele>401.4</ele>
        <time>2023-09-03T10:42:57Z</time>
      </trkpt>
      <trkpt lat="46.69385" lon="5.59735">
        <ele>401.2</ele>
        <time>2023-09-03T10:42:58Z</time>
      </trkpt>
      <trkpt lat="46.69377" lon="5.59728">
        <ele>401.2</ele>
        <time>2023-09-03T10:42:59Z</time>
      </trkpt>
      <trkpt lat="46.69365" lon="5.59717">
        <ele>401</ele>
        <time>2023-09-03T10:43:00Z</time>
      </trkpt>
      <trkpt lat="46.69361" lon="5.59713">
        <ele>401</ele>
        <time>2023-09-03T10:43:01Z</time>
      </trkpt>
      <trkpt lat="46.69349" lon="5.59701">
        <ele>401</ele>
        <time>2023-09-03T10:43:02Z</time>
      </trkpt>
      <trkpt lat="46.69346" lon="5.59697">
        <ele>401</ele>
        <time>2023-09-03T10:43:03Z</time>
      </trkpt>
      <trkpt lat="46.69335" lon="5.59685">
        <ele>400.6</ele>
        <time>2023-09-03T10:43:04Z</time>
      </trkpt>
      <trkpt lat="46.69331" lon="5.5968">
        <ele>400.6</ele>
        <time>2023-09-03T10:43:05Z</time>
      </trkpt>
      <trkpt lat="46.6932" lon="5.59667">
        <ele>400.6</ele>
        <time>2023-09-03T10:43:06Z</time>
      </trkpt>
      <trkpt lat="46.69316" lon="5.59663">
        <ele>400.6</ele>
        <time>2023-09-03T10:43:07Z</time>
      </trkpt>
      <trkpt lat="46.69304" lon="5.5965">
        <ele>400.4</ele>
        <time>2023-09-03T10:43:08Z</time>
      </trkpt>
      <trkpt lat="46.69301" lon="5.59646">
        <ele>400.4</ele>
        <time>2023-09-03T10:43:09Z</time>
      </trkpt>
      <trkpt lat="46.69293" lon="5.59637">
        <ele>400.4</ele>
        <time>2023-09-03T10:43:10Z</time>
      </trkpt>
      <trkpt lat="46.69282" lon="5.59624">
        <ele>400.4</ele>
        <time>2023-09-03T10:43:11Z</time>
      </trkpt>
      <trkpt lat="46.69279" lon="5.59619">
        <ele>399.6</ele>
        <time>2023-09-03T10:43:12Z</time>
      </trkpt>
      <trkpt lat="46.69271" lon="5.59611">
        <ele>399.2</ele>
        <time>2023-09-03T10:43:13Z</time>
      </trkpt>
      <trkpt lat="46.6926" lon="5.59598">
        <ele>399.2</ele>
        <time>2023-09-03T10:43:14Z</time>
      </trkpt>
      <trkpt lat="46.69256" lon="5.59593">
        <ele>399.2</ele>
        <time>2023-09-03T10:43:15Z</time>
      </trkpt>
      <trkpt lat="46.69245" lon="5.5958">
        <ele>399.2</ele>
        <time>2023-09-03T10:43:16Z</time>
      </trkpt>
      <trkpt lat="46.69241" lon="5.59576">
        <ele>398.4</ele>
        <time>2023-09-03T10:43:17Z</time>
      </trkpt>
      <trkpt lat="46.6923" lon="5.59562">
        <ele>398.2</ele>
        <time>2023-09-03T10:43:18Z</time>
      </trkpt>
      <trkpt lat="46.69226" lon="5.59558">
        <ele>398.2</ele>
        <time>2023-09-03T10:43:19Z</time>
      </trkpt>
      <trkpt lat="46.69214" lon="5.59544">
        <ele>398.2</ele>
        <time>2023-09-03T10:43:20Z</time>
      </trkpt>
      <trkpt lat="46.6921" lon="5.5954">
        <ele>397.8</ele>
        <time>2023-09-03T10:43:21Z</time>
      </trkpt>
      <trkpt lat="46.69198" lon="5.59526">
        <ele>397.4</ele>
        <time>2023-09-03T10:43:22Z</time>
      </trkpt>
      <trkpt lat="46.69194" lon="5.59522">
        <ele>397.4</ele>
        <time>2023-09-03T10:43:23Z</time>
      </trkpt>
      <trkpt lat="46.69186" lon="5.59513">
        <ele>397.4</ele>
        <time>2023-09-03T10:43:24Z</time>
      </trkpt>
      <trkpt lat="46.69174" lon="5.595">
        <ele>397.4</ele>
        <time>2023-09-03T10:43:25Z</time>
      </trkpt>
      <trkpt lat="46.6917" lon="5.59495">
        <ele>396.4</ele>
        <time>2023-09-03T10:43:26Z</time>
      </trkpt>
      <trkpt lat="46.69162" lon="5.59486">
        <ele>396</ele>
        <time>2023-09-03T10:43:27Z</time>
      </trkpt>
      <trkpt lat="46.6915" lon="5.59473">
        <ele>396</ele>
        <time>2023-09-03T10:43:28Z</time>
      </trkpt>
      <trkpt lat="46.69146" lon="5.59468">
        <ele>396</ele>
        <time>2023-09-03T10:43:29Z</time>
      </trkpt>
      <trkpt lat="46.69139" lon="5.5946">
        <ele>395.4</ele>
        <time>2023-09-03T10:43:30Z</time>
      </trkpt>
      <trkpt lat="46.69131" lon="5.59451">
        <ele>395</ele>
        <time>2023-09-03T10:43:31Z</time>
      </trkpt>
      <trkpt lat="46.69119" lon="5.59438">
        <ele>395</ele>
        <time>2023-09-03T10:43:32Z</time>
      </trkpt>
      <trkpt lat="46.69115" lon="5.59434">
        <ele>395</ele>
        <time>2023-09-03T10:43:33Z</time>
      </trkpt>
      <trkpt lat="46.69107" lon="5.59426">
        <ele>395</ele>
        <time>2023-09-03T10:43:34Z</time>
      </trkpt>
      <trkpt lat="46.69094" lon="5.59415">
        <ele>395</ele>
        <time>2023-09-03T10:43:35Z</time>
      </trkpt>
      <trkpt lat="46.6909" lon="5.59411">
        <ele>394.4</ele>
        <time>2023-09-03T10:43:36Z</time>
      </trkpt>
      <trkpt lat="46.69077" lon="5.594">
        <ele>394.2</ele>
        <time>2023-09-03T10:43:37Z</time>
      </trkpt>
      <trkpt lat="46.69073" lon="5.59397">
        <ele>394.2</ele>
        <time>2023-09-03T10:43:38Z</time>
      </trkpt>
      <trkpt lat="46.6906" lon="5.59387">
        <ele>394.2</ele>
        <time>2023-09-03T10:43:39Z</time>
      </trkpt>
      <trkpt lat="46.69055" lon="5.59384">
        <ele>394.2</ele>
        <time>2023-09-03T10:43:40Z</time>
      </trkpt>
      <trkpt lat="46.69042" lon="5.59376">
        <ele>393</ele>
        <time>2023-09-03T10:43:41Z</time>
      </trkpt>
      <trkpt lat="46.69037" lon="5.59373">
        <ele>393</ele>
        <time>2023-09-03T10:43:42Z</time>
      </trkpt>
      <trkpt lat="46.69024" lon="5.59365">
        <ele>393</ele>
        <time>2023-09-03T10:43:43Z</time>
      </trkpt>
      <trkpt lat="46.69019" lon="5.59362">
        <ele>392.2</ele>
        <time>2023-09-03T10:43:44Z</time>
      </trkpt>
      <trkpt lat="46.6901" lon="5.59357">
        <ele>391.6</ele>
        <time>2023-09-03T10:43:45Z</time>
      </trkpt>
      <trkpt lat="46.68996" lon="5.59349">
        <ele>391.6</ele>
        <time>2023-09-03T10:43:46Z</time>
      </trkpt>
      <trkpt lat="46.68991" lon="5.59346">
        <ele>391.6</ele>
        <time>2023-09-03T10:43:47Z</time>
      </trkpt>
      <trkpt lat="46.68977" lon="5.59338">
        <ele>391.6</ele>
        <time>2023-09-03T10:43:48Z</time>
      </trkpt>
      <trkpt lat="46.68972" lon="5.59335">
        <ele>391.6</ele>
        <time>2023-09-03T10:43:49Z</time>
      </trkpt>
      <trkpt lat="46.68962" lon="5.59329">
        <ele>390.6</ele>
        <time>2023-09-03T10:43:50Z</time>
      </trkpt>
      <trkpt lat="46.68948" lon="5.5932">
        <ele>390.6</ele>
        <time>2023-09-03T10:43:51Z</time>
      </trkpt>
      <trkpt lat="46.68943" lon="5.59317">
        <ele>390.6</ele>
        <time>2023-09-03T10:43:52Z</time>
      </trkpt>
      <trkpt lat="46.68934" lon="5.5931">
        <ele>390</ele>
        <time>2023-09-03T10:43:53Z</time>
      </trkpt>
      <trkpt lat="46.68919" lon="5.593">
        <ele>390</ele>
        <time>2023-09-03T10:43:54Z</time>
      </trkpt>
      <trkpt lat="46.68915" lon="5.59296">
        <ele>389.6</ele>
        <time>2023-09-03T10:43:55Z</time>
      </trkpt>
      <trkpt lat="46.68906" lon="5.59288">
        <ele>389.6</ele>
        <time>2023-09-03T10:43:56Z</time>
      </trkpt>
      <trkpt lat="46.68892" lon="5.59277">
        <ele>388.6</ele>
        <time>2023-09-03T10:43:57Z</time>
      </trkpt>
      <trkpt lat="46.68887" lon="5.59272">
        <ele>388.6</ele>
        <time>2023-09-03T10:43:58Z</time>
      </trkpt>
      <trkpt lat="46.68873" lon="5.5926">
        <ele>388.4</ele>
        <time>2023-09-03T10:43:59Z</time>
      </trkpt>
      <trkpt lat="46.68868" lon="5.59256">
        <ele>388.4</ele>
        <time>2023-09-03T10:44:00Z</time>
      </trkpt>
      <trkpt lat="46.68859" lon="5.59247">
        <ele>388.4</ele>
        <time>2023-09-03T10:44:01Z</time>
      </trkpt>
      <trkpt lat="46.68845" lon="5.59235">
        <ele>387.8</ele>
        <time>2023-09-03T10:44:02Z</time>
      </trkpt>
      <trkpt lat="46.6884" lon="5.59231">
        <ele>387.4</ele>
        <time>2023-09-03T10:44:03Z</time>
      </trkpt>
      <trkpt lat="46.6883" lon="5.59223">
        <ele>387.4</ele>
        <time>2023-09-03T10:44:04Z</time>
      </trkpt>
      <trkpt lat="46.68815" lon="5.59211">
        <ele>387.4</ele>
        <time>2023-09-03T10:44:05Z</time>
      </trkpt>
      <trkpt lat="46.6881" lon="5.59207">
        <ele>387.4</ele>
        <time>2023-09-03T10:44:06Z</time>
      </trkpt>
      <trkpt lat="46.68795" lon="5.59196">
        <ele>386.6</ele>
        <time>2023-09-03T10:44:07Z</time>
      </trkpt>
      <trkpt lat="46.6879" lon="5.59192">
        <ele>386.6</ele>
        <time>2023-09-03T10:44:08Z</time>
      </trkpt>
      <trkpt lat="46.6878" lon="5.59185">
        <ele>386.6</ele>
        <time>2023-09-03T10:44:09Z</time>
      </trkpt>
      <trkpt lat="46.68764" lon="5.59174">
        <ele>386</ele>
        <time>2023-09-03T10:44:10Z</time>
      </trkpt>
      <trkpt lat="46.68759" lon="5.59171">
        <ele>386</ele>
        <time>2023-09-03T10:44:11Z</time>
      </trkpt>
      <trkpt lat="46.68743" lon="5.59161">
        <ele>386</ele>
        <time>2023-09-03T10:44:12Z</time>
      </trkpt>
      <trkpt lat="46.68737" lon="5.59158">
        <ele>386</ele>
        <time>2023-09-03T10:44:13Z</time>
      </trkpt>
      <trkpt lat="46.68727" lon="5.59151">
        <ele>386.2</ele>
        <time>2023-09-03T10:44:14Z</time>
      </trkpt>
      <trkpt lat="46.6871" lon="5.59142">
        <ele>386.2</ele>
        <time>2023-09-03T10:44:15Z</time>
      </trkpt>
      <trkpt lat="46.68705" lon="5.59139">
        <ele>385.2</ele>
        <time>2023-09-03T10:44:16Z</time>
      </trkpt>
      <trkpt lat="46.68694" lon="5.59133">
        <ele>384.8</ele>
        <time>2023-09-03T10:44:17Z</time>
      </trkpt>
      <trkpt lat="46.68679" lon="5.59125">
        <ele>384.8</ele>
        <time>2023-09-03T10:44:18Z</time>
      </trkpt>
      <trkpt lat="46.68673" lon="5.59122">
        <ele>384.8</ele>
        <time>2023-09-03T10:44:19Z</time>
      </trkpt>
      <trkpt lat="46.68657" lon="5.59114">
        <ele>384.2</ele>
        <time>2023-09-03T10:44:20Z</time>
      </trkpt>
      <trkpt lat="46.68652" lon="5.59111">
        <ele>383.8</ele>
        <time>2023-09-03T10:44:21Z</time>
      </trkpt>
      <trkpt lat="46.68637" lon="5.59103">
        <ele>383.8</ele>
        <time>2023-09-03T10:44:22Z</time>
      </trkpt>
      <trkpt lat="46.68631" lon="5.591">
        <ele>383.8</ele>
        <time>2023-09-03T10:44:23Z</time>
      </trkpt>
      <trkpt lat="46.68621" lon="5.59095">
        <ele>383.8</ele>
        <time>2023-09-03T10:44:24Z</time>
      </trkpt>
      <trkpt lat="46.68611" lon="5.59089">
        <ele>383.2</ele>
        <time>2023-09-03T10:44:25Z</time>
      </trkpt>
      <trkpt lat="46.68595" lon="5.59081">
        <ele>382.8</ele>
        <time>2023-09-03T10:44:26Z</time>
      </trkpt>
      <trkpt lat="46.6859" lon="5.59079">
        <ele>382.8</ele>
        <time>2023-09-03T10:44:27Z</time>
      </trkpt>
      <trkpt lat="46.6858" lon="5.59073">
        <ele>382.8</ele>
        <time>2023-09-03T10:44:28Z</time>
      </trkpt>
      <trkpt lat="46.68565" lon="5.59065">
        <ele>382.8</ele>
        <time>2023-09-03T10:44:29Z</time>
      </trkpt>
      <trkpt lat="46.6856" lon="5.59062">
        <ele>382.6</ele>
        <time>2023-09-03T10:44:30Z</time>
      </trkpt>
      <trkpt lat="46.68545" lon="5.59054">
        <ele>382</ele>
        <time>2023-09-03T10:44:31Z</time>
      </trkpt>
      <trkpt lat="46.6854" lon="5.59052">
        <ele>382</ele>
        <time>2023-09-03T10:44:32Z</time>
      </trkpt>
      <trkpt lat="46.6853" lon="5.59046">
        <ele>382</ele>
        <time>2023-09-03T10:44:33Z</time>
      </trkpt>
      <trkpt lat="46.68515" lon="5.59038">
        <ele>382</ele>
        <time>2023-09-03T10:44:34Z</time>
      </trkpt>
      <trkpt lat="46.6851" lon="5.59036">
        <ele>381.6</ele>
        <time>2023-09-03T10:44:35Z</time>
      </trkpt>
      <trkpt lat="46.685" lon="5.59031">
        <ele>381.6</ele>
        <time>2023-09-03T10:44:36Z</time>
      </trkpt>
      <trkpt lat="46.6849" lon="5.59026">
        <ele>381.6</ele>
        <time>2023-09-03T10:44:37Z</time>
      </trkpt>
      <trkpt lat="46.68476" lon="5.59018">
        <ele>381.6</ele>
        <time>2023-09-03T10:44:38Z</time>
      </trkpt>
      <trkpt lat="46.68471" lon="5.59015">
        <ele>380.6</ele>
        <time>2023-09-03T10:44:39Z</time>
      </trkpt>
      <trkpt lat="46.68462" lon="5.5901">
        <ele>381</ele>
        <time>2023-09-03T10:44:40Z</time>
      </trkpt>
      <trkpt lat="46.68453" lon="5.59005">
        <ele>381</ele>
        <time>2023-09-03T10:44:41Z</time>
      </trkpt>
      <trkpt lat="46.68444" lon="5.58999">
        <ele>381</ele>
        <time>2023-09-03T10:44:42Z</time>
      </trkpt>
      <trkpt lat="46.68435" lon="5.58993">
        <ele>381</ele>
        <time>2023-09-03T10:44:43Z</time>
      </trkpt>
      <trkpt lat="46.68426" lon="5.58988">
        <ele>380.2</ele>
        <time>2023-09-03T10:44:44Z</time>
      </trkpt>
      <trkpt lat="46.68417" lon="5.58982">
        <ele>379.8</ele>
        <time>2023-09-03T10:44:45Z</time>
      </trkpt>
      <trkpt lat="46.68404" lon="5.58972">
        <ele>379.8</ele>
        <time>2023-09-03T10:44:46Z</time>
      </trkpt>
      <trkpt lat="46.68399" lon="5.58968">
        <ele>379.8</ele>
        <time>2023-09-03T10:44:47Z</time>
      </trkpt>
      <trkpt lat="46.6839" lon="5.58961">
        <ele>379</ele>
        <time>2023-09-03T10:44:48Z</time>
      </trkpt>
      <trkpt lat="46.68382" lon="5.58953">
        <ele>379</ele>
        <time>2023-09-03T10:44:49Z</time>
      </trkpt>
      <trkpt lat="46.68373" lon="5.58945">
        <ele>379</ele>
        <time>2023-09-03T10:44:50Z</time>
      </trkpt>
      <trkpt lat="46.68364" lon="5.58937">
        <ele>379</ele>
        <time>2023-09-03T10:44:51Z</time>
      </trkpt>
      <trkpt lat="46.68352" lon="5.58923">
        <ele>379</ele>
        <time>2023-09-03T10:44:52Z</time>
      </trkpt>
      <trkpt lat="46.68348" lon="5.58919">
        <ele>378</ele>
        <time>2023-09-03T10:44:53Z</time>
      </trkpt>
      <trkpt lat="46.68335" lon="5.58906">
        <ele>378</ele>
        <time>2023-09-03T10:44:54Z</time>
      </trkpt>
      <trkpt lat="46.68331" lon="5.58902">
        <ele>378</ele>
        <time>2023-09-03T10:44:55Z</time>
      </trkpt>
      <trkpt lat="46.68319" lon="5.58889">
        <ele>378</ele>
        <time>2023-09-03T10:44:56Z</time>
      </trkpt>
      <trkpt lat="46.68314" lon="5.58885">
        <ele>377.4</ele>
        <time>2023-09-03T10:44:57Z</time>
      </trkpt>
      <trkpt lat="46.68306" lon="5.58876">
        <ele>377.2</ele>
        <time>2023-09-03T10:44:58Z</time>
      </trkpt>
      <trkpt lat="46.68297" lon="5.58868">
        <ele>377.2</ele>
        <time>2023-09-03T10:44:59Z</time>
      </trkpt>
      <trkpt lat="46.68289" lon="5.5886">
        <ele>377.2</ele>
        <time>2023-09-03T10:45:00Z</time>
      </trkpt>
      <trkpt lat="46.68275" lon="5.58849">
        <ele>377.2</ele>
        <time>2023-09-03T10:45:01Z</time>
      </trkpt>
      <trkpt lat="46.6827" lon="5.58845">
        <ele>376.2</ele>
        <time>2023-09-03T10:45:02Z</time>
      </trkpt>
      <trkpt lat="46.68261" lon="5.58838">
        <ele>376</ele>
        <time>2023-09-03T10:45:03Z</time>
      </trkpt>
      <trkpt lat="46.68246" lon="5.58828">
        <ele>376</ele>
        <time>2023-09-03T10:45:04Z</time>
      </trkpt>
      <trkpt lat="46.68241" lon="5.58825">
        <ele>376</ele>
        <time>2023-09-03T10:45:05Z</time>
      </trkpt>
      <trkpt lat="46.68227" lon="5.58816">
        <ele>376</ele>
        <time>2023-09-03T10:45:06Z</time>
      </trkpt>
      <trkpt lat="46.68222" lon="5.58813">
        <ele>375</ele>
        <time>2023-09-03T10:45:07Z</time>
      </trkpt>
      <trkpt lat="46.68206" lon="5.58805">
        <ele>373.8</ele>
        <time>2023-09-03T10:45:08Z</time>
      </trkpt>
      <trkpt lat="46.68201" lon="5.58802">
        <ele>373.8</ele>
        <time>2023-09-03T10:45:09Z</time>
      </trkpt>
      <trkpt lat="46.68191" lon="5.58797">
        <ele>373.8</ele>
        <time>2023-09-03T10:45:10Z</time>
      </trkpt>
      <trkpt lat="46.68176" lon="5.58789">
        <ele>373.8</ele>
        <time>2023-09-03T10:45:11Z</time>
      </trkpt>
      <trkpt lat="46.6817" lon="5.58786">
        <ele>373</ele>
        <time>2023-09-03T10:45:12Z</time>
      </trkpt>
      <trkpt lat="46.68155" lon="5.58779">
        <ele>373</ele>
        <time>2023-09-03T10:45:13Z</time>
      </trkpt>
      <trkpt lat="46.6815" lon="5.58776">
        <ele>373</ele>
        <time>2023-09-03T10:45:14Z</time>
      </trkpt>
      <trkpt lat="46.68134" lon="5.58769">
        <ele>373</ele>
        <time>2023-09-03T10:45:15Z</time>
      </trkpt>
      <trkpt lat="46.68129" lon="5.58767">
        <ele>372.2</ele>
        <time>2023-09-03T10:45:16Z</time>
      </trkpt>
      <trkpt lat="46.68119" lon="5.58762">
        <ele>372</ele>
        <time>2023-09-03T10:45:17Z</time>
      </trkpt>
      <trkpt lat="46.68104" lon="5.58754">
        <ele>372</ele>
        <time>2023-09-03T10:45:18Z</time>
      </trkpt>
      <trkpt lat="46.68099" lon="5.58752">
        <ele>372</ele>
        <time>2023-09-03T10:45:19Z</time>
      </trkpt>
      <trkpt lat="46.68089" lon="5.58747">
        <ele>371</ele>
        <time>2023-09-03T10:45:20Z</time>
      </trkpt>
      <trkpt lat="46.68079" lon="5.58742">
        <ele>370.8</ele>
        <time>2023-09-03T10:45:21Z</time>
      </trkpt>
      <trkpt lat="46.68064" lon="5.58735">
        <ele>370.8</ele>
        <time>2023-09-03T10:45:22Z</time>
      </trkpt>
      <trkpt lat="46.68059" lon="5.58732">
        <ele>370.8</ele>
        <time>2023-09-03T10:45:23Z</time>
      </trkpt>
      <trkpt lat="46.68044" lon="5.58725">
        <ele>370.8</ele>
        <time>2023-09-03T10:45:24Z</time>
      </trkpt>
      <trkpt lat="46.6804" lon="5.58723">
        <ele>370.2</ele>
        <time>2023-09-03T10:45:25Z</time>
      </trkpt>
      <trkpt lat="46.68025" lon="5.58715">
        <ele>369.8</ele>
        <time>2023-09-03T10:45:26Z</time>
      </trkpt>
      <trkpt lat="46.6802" lon="5.58713">
        <ele>369.8</ele>
        <time>2023-09-03T10:45:27Z</time>
      </trkpt>
      <trkpt lat="46.6801" lon="5.58708">
        <ele>369.8</ele>
        <time>2023-09-03T10:45:28Z</time>
      </trkpt>
      <trkpt lat="46.67996" lon="5.58701">
        <ele>369.4</ele>
        <time>2023-09-03T10:45:29Z</time>
      </trkpt>
      <trkpt lat="46.67991" lon="5.58699">
        <ele>369.2</ele>
        <time>2023-09-03T10:45:30Z</time>
      </trkpt>
      <trkpt lat="46.67981" lon="5.58694">
        <ele>369.2</ele>
        <time>2023-09-03T10:45:31Z</time>
      </trkpt>
      <trkpt lat="46.67967" lon="5.58687">
        <ele>369.2</ele>
        <time>2023-09-03T10:45:32Z</time>
      </trkpt>
      <trkpt lat="46.67963" lon="5.58685">
        <ele>368.6</ele>
        <time>2023-09-03T10:45:33Z</time>
      </trkpt>
      <trkpt lat="46.67949" lon="5.58678">
        <ele>368</ele>
        <time>2023-09-03T10:45:34Z</time>
      </trkpt>
      <trkpt lat="46.67944" lon="5.58676">
        <ele>368</ele>
        <time>2023-09-03T10:45:35Z</time>
      </trkpt>
      <trkpt lat="46.67931" lon="5.58669">
        <ele>368</ele>
        <time>2023-09-03T10:45:36Z</time>
      </trkpt>
      <trkpt lat="46.67926" lon="5.58667">
        <ele>368</ele>
        <time>2023-09-03T10:45:37Z</time>
      </trkpt>
      <trkpt lat="46.67917" lon="5.58662">
        <ele>368</ele>
        <time>2023-09-03T10:45:38Z</time>
      </trkpt>
      <trkpt lat="46.67904" lon="5.58656">
        <ele>367.2</ele>
        <time>2023-09-03T10:45:39Z</time>
      </trkpt>
      <trkpt lat="46.67899" lon="5.58654">
        <ele>367.2</ele>
        <time>2023-09-03T10:45:40Z</time>
      </trkpt>
      <trkpt lat="46.67886" lon="5.58647">
        <ele>367.2</ele>
        <time>2023-09-03T10:45:41Z</time>
      </trkpt>
      <trkpt lat="46.67881" lon="5.58645">
        <ele>366.4</ele>
        <time>2023-09-03T10:45:42Z</time>
      </trkpt>
      <trkpt lat="46.67872" lon="5.5864">
        <ele>366.4</ele>
        <time>2023-09-03T10:45:43Z</time>
      </trkpt>
      <trkpt lat="46.67863" lon="5.58636">
        <ele>366.8</ele>
        <time>2023-09-03T10:45:44Z</time>
      </trkpt>
      <trkpt lat="46.67849" lon="5.5863">
        <ele>366.8</ele>
        <time>2023-09-03T10:45:45Z</time>
      </trkpt>
      <trkpt lat="46.67845" lon="5.58628">
        <ele>366.8</ele>
        <time>2023-09-03T10:45:46Z</time>
      </trkpt>
      <trkpt lat="46.67831" lon="5.58621">
        <ele>366.2</ele>
        <time>2023-09-03T10:45:47Z</time>
      </trkpt>
      <trkpt lat="46.67826" lon="5.58619">
        <ele>365.6</ele>
        <time>2023-09-03T10:45:48Z</time>
      </trkpt>
      <trkpt lat="46.67812" lon="5.58612">
        <ele>365.6</ele>
        <time>2023-09-03T10:45:49Z</time>
      </trkpt>
      <trkpt lat="46.67807" lon="5.58609">
        <ele>365.6</ele>
        <time>2023-09-03T10:45:50Z</time>
      </trkpt>
      <trkpt lat="46.67798" lon="5.58605">
        <ele>365.6</ele>
        <time>2023-09-03T10:45:51Z</time>
      </trkpt>
      <trkpt lat="46.67783" lon="5.58597">
        <ele>365</ele>
        <time>2023-09-03T10:45:52Z</time>
      </trkpt>
      <trkpt lat="46.67778" lon="5.58595">
        <ele>365</ele>
        <time>2023-09-03T10:45:53Z</time>
      </trkpt>
      <trkpt lat="46.67764" lon="5.58587">
        <ele>365</ele>
        <time>2023-09-03T10:45:54Z</time>
      </trkpt>
      <trkpt lat="46.67759" lon="5.58584">
        <ele>365</ele>
        <time>2023-09-03T10:45:55Z</time>
      </trkpt>
      <trkpt lat="46.67749" lon="5.58579">
        <ele>364.2</ele>
        <time>2023-09-03T10:45:56Z</time>
      </trkpt>
      <trkpt lat="46.67735" lon="5.5857">
        <ele>364</ele>
        <time>2023-09-03T10:45:57Z</time>
      </trkpt>
      <trkpt lat="46.6773" lon="5.58566">
        <ele>364</ele>
        <time>2023-09-03T10:45:58Z</time>
      </trkpt>
      <trkpt lat="46.6772" lon="5.5856">
        <ele>364</ele>
        <time>2023-09-03T10:45:59Z</time>
      </trkpt>
      <trkpt lat="46.67705" lon="5.5855">
        <ele>364</ele>
        <time>2023-09-03T10:46:00Z</time>
      </trkpt>
      <trkpt lat="46.677" lon="5.58546">
        <ele>363</ele>
        <time>2023-09-03T10:46:01Z</time>
      </trkpt>
      <trkpt lat="46.6769" lon="5.58539">
        <ele>362.4</ele>
        <time>2023-09-03T10:46:02Z</time>
      </trkpt>
      <trkpt lat="46.67676" lon="5.58528">
        <ele>362.4</ele>
        <time>2023-09-03T10:46:03Z</time>
      </trkpt>
      <trkpt lat="46.67671" lon="5.58524">
        <ele>362.4</ele>
        <time>2023-09-03T10:46:04Z</time>
      </trkpt>
      <trkpt lat="46.67661" lon="5.58515">
        <ele>361.4</ele>
        <time>2023-09-03T10:46:05Z</time>
      </trkpt>
      <trkpt lat="46.67647" lon="5.58502">
        <ele>361.2</ele>
        <time>2023-09-03T10:46:06Z</time>
      </trkpt>
      <trkpt lat="46.67643" lon="5.58498">
        <ele>361.2</ele>
        <time>2023-09-03T10:46:07Z</time>
      </trkpt>
      <trkpt lat="46.67629" lon="5.58483">
        <ele>361.2</ele>
        <time>2023-09-03T10:46:08Z</time>
      </trkpt>
      <trkpt lat="46.67624" lon="5.58479">
        <ele>360.2</ele>
        <time>2023-09-03T10:46:09Z</time>
      </trkpt>
      <trkpt lat="46.67615" lon="5.58469">
        <ele>360.2</ele>
        <time>2023-09-03T10:46:10Z</time>
      </trkpt>
      <trkpt lat="46.67601" lon="5.58453">
        <ele>360</ele>
        <time>2023-09-03T10:46:11Z</time>
      </trkpt>
      <trkpt lat="46.67596" lon="5.58448">
        <ele>360</ele>
        <time>2023-09-03T10:46:12Z</time>
      </trkpt>
      <trkpt lat="46.67588" lon="5.58437">
        <ele>360</ele>
        <time>2023-09-03T10:46:13Z</time>
      </trkpt>
      <trkpt lat="46.67579" lon="5.58426">
        <ele>360</ele>
        <time>2023-09-03T10:46:14Z</time>
      </trkpt>
      <trkpt lat="46.67572" lon="5.58414">
        <ele>359</ele>
        <time>2023-09-03T10:46:15Z</time>
      </trkpt>
      <trkpt lat="46.67567" lon="5.58401">
        <ele>358.6</ele>
        <time>2023-09-03T10:46:16Z</time>
      </trkpt>
      <trkpt lat="46.67563" lon="5.58388">
        <ele>358.6</ele>
        <time>2023-09-03T10:46:17Z</time>
      </trkpt>
      <trkpt lat="46.67558" lon="5.58377">
        <ele>358.6</ele>
        <time>2023-09-03T10:46:18Z</time>
      </trkpt>
      <trkpt lat="46.67549" lon="5.58364">
        <ele>357.6</ele>
        <time>2023-09-03T10:46:19Z</time>
      </trkpt>
      <trkpt lat="46.67546" lon="5.58359">
        <ele>357.4</ele>
        <time>2023-09-03T10:46:20Z</time>
      </trkpt>
      <trkpt lat="46.6754" lon="5.5835">
        <ele>357.4</ele>
        <time>2023-09-03T10:46:21Z</time>
      </trkpt>
      <trkpt lat="46.67532" lon="5.58335">
        <ele>357.4</ele>
        <time>2023-09-03T10:46:22Z</time>
      </trkpt>
      <trkpt lat="46.6753" lon="5.5833">
        <ele>357.4</ele>
        <time>2023-09-03T10:46:23Z</time>
      </trkpt>
      <trkpt lat="46.67523" lon="5.58314">
        <ele>356.8</ele>
        <time>2023-09-03T10:46:24Z</time>
      </trkpt>
      <trkpt lat="46.67521" lon="5.58309">
        <ele>356.6</ele>
        <time>2023-09-03T10:46:25Z</time>
      </trkpt>
      <trkpt lat="46.67517" lon="5.58297">
        <ele>356.6</ele>
        <time>2023-09-03T10:46:26Z</time>
      </trkpt>
      <trkpt lat="46.67511" lon="5.5828">
        <ele>356.6</ele>
        <time>2023-09-03T10:46:27Z</time>
      </trkpt>
      <trkpt lat="46.67509" lon="5.58274">
        <ele>355.6</ele>
        <time>2023-09-03T10:46:28Z</time>
      </trkpt>
      <trkpt lat="46.67502" lon="5.58257">
        <ele>355</ele>
        <time>2023-09-03T10:46:29Z</time>
      </trkpt>
      <trkpt lat="46.675" lon="5.58252">
        <ele>355</ele>
        <time>2023-09-03T10:46:30Z</time>
      </trkpt>
      <trkpt lat="46.67495" lon="5.5824">
        <ele>355</ele>
        <time>2023-09-03T10:46:31Z</time>
      </trkpt>
      <trkpt lat="46.67489" lon="5.58225">
        <ele>354</ele>
        <time>2023-09-03T10:46:32Z</time>
      </trkpt>
      <trkpt lat="46.67486" lon="5.58221">
        <ele>354</ele>
        <time>2023-09-03T10:46:33Z</time>
      </trkpt>
      <trkpt lat="46.67481" lon="5.5821">
        <ele>353.4</ele>
        <time>2023-09-03T10:46:34Z</time>
      </trkpt>
      <trkpt lat="46.6748" lon="5.58208">
        <ele>353.4</ele>
        <time>2023-09-03T10:46:35Z</time>
      </trkpt>
      <trkpt lat="46.67477" lon="5.58202">
        <ele>353.4</ele>
        <time>2023-09-03T10:46:36Z</time>
      </trkpt>
      <trkpt lat="46.67475" lon="5.58199">
        <ele>353.4</ele>
        <time>2023-09-03T10:46:37Z</time>
      </trkpt>
      <trkpt lat="46.67473" lon="5.58196">
        <ele>352.6</ele>
        <time>2023-09-03T10:46:38Z</time>
      </trkpt>
      <trkpt lat="46.67472" lon="5.58193">
        <ele>352.6</ele>
        <time>2023-09-03T10:46:39Z</time>
      </trkpt>
      <trkpt lat="46.6747" lon="5.58191">
        <ele>352.4</ele>
        <time>2023-09-03T10:46:40Z</time>
      </trkpt>
      <trkpt lat="46.67469" lon="5.58188">
        <ele>352.4</ele>
        <time>2023-09-03T10:46:41Z</time>
      </trkpt>
      <trkpt lat="46.67467" lon="5.58185">
        <ele>338.6</ele>
        <time>2023-09-03T10:47:18Z</time>
      </trkpt>
      <trkpt lat="46.67465" lon="5.58183">
        <ele>337.8</ele>
        <time>2023-09-03T10:47:19Z</time>
      </trkpt>
      <trkpt lat="46.67464" lon="5.5818">
        <ele>337.8</ele>
        <time>2023-09-03T10:47:20Z</time>
      </trkpt>
      <trkpt lat="46.67461" lon="5.58174">
        <ele>337.8</ele>
        <time>2023-09-03T10:47:21Z</time>
      </trkpt>
      <trkpt lat="46.67455" lon="5.58166">
        <ele>337.8</ele>
        <time>2023-09-03T10:47:22Z</time>
      </trkpt>
      <trkpt lat="46.67452" lon="5.58162">
        <ele>337.8</ele>
        <time>2023-09-03T10:47:23Z</time>
      </trkpt>
      <trkpt lat="46.67446" lon="5.58153">
        <ele>336.8</ele>
        <time>2023-09-03T10:47:24Z</time>
      </trkpt>
      <trkpt lat="46.67443" lon="5.58149">
        <ele>336.2</ele>
        <time>2023-09-03T10:47:25Z</time>
      </trkpt>
      <trkpt lat="46.67436" lon="5.58139">
        <ele>336.2</ele>
        <time>2023-09-03T10:47:26Z</time>
      </trkpt>
      <trkpt lat="46.67433" lon="5.58135">
        <ele>336.2</ele>
        <time>2023-09-03T10:47:27Z</time>
      </trkpt>
      <trkpt lat="46.67428" lon="5.58128">
        <ele>335.2</ele>
        <time>2023-09-03T10:47:28Z</time>
      </trkpt>
      <trkpt lat="46.67422" lon="5.5812">
        <ele>334.6</ele>
        <time>2023-09-03T10:47:29Z</time>
      </trkpt>
      <trkpt lat="46.67416" lon="5.58113">
        <ele>334.6</ele>
        <time>2023-09-03T10:47:30Z</time>
      </trkpt>
      <trkpt lat="46.67409" lon="5.58106">
        <ele>334.6</ele>
        <time>2023-09-03T10:47:31Z</time>
      </trkpt>
      <trkpt lat="46.67401" lon="5.58096">
        <ele>334.6</ele>
        <time>2023-09-03T10:47:32Z</time>
      </trkpt>
      <trkpt lat="46.67399" lon="5.58093">
        <ele>333.6</ele>
        <time>2023-09-03T10:47:33Z</time>
      </trkpt>
      <trkpt lat="46.67395" lon="5.58088">
        <ele>332.6</ele>
        <time>2023-09-03T10:47:34Z</time>
      </trkpt>
      <trkpt lat="46.67394" lon="5.58083">
        <ele>332.6</ele>
        <time>2023-09-03T10:47:35Z</time>
      </trkpt>
      <trkpt lat="46.67394" lon="5.5808">
        <ele>332.6</ele>
        <time>2023-09-03T10:47:36Z</time>
      </trkpt>
      <trkpt lat="46.67396" lon="5.58078">
        <ele>332</ele>
        <time>2023-09-03T10:47:37Z</time>
      </trkpt>
      <trkpt lat="46.67399" lon="5.58076">
        <ele>331.8</ele>
        <time>2023-09-03T10:47:38Z</time>
      </trkpt>
      <trkpt lat="46.67402" lon="5.58075">
        <ele>331.8</ele>
        <time>2023-09-03T10:47:39Z</time>
      </trkpt>
      <trkpt lat="46.67405" lon="5.58075">
        <ele>331.8</ele>
        <time>2023-09-03T10:47:40Z</time>
      </trkpt>
      <trkpt lat="46.67407" lon="5.58077">
        <ele>331.8</ele>
        <time>2023-09-03T10:47:41Z</time>
      </trkpt>
      <trkpt lat="46.67408" lon="5.5808">
        <ele>331.2</ele>
        <time>2023-09-03T10:47:42Z</time>
      </trkpt>
      <trkpt lat="46.67407" lon="5.58083">
        <ele>331.2</ele>
        <time>2023-09-03T10:47:43Z</time>
      </trkpt>
      <trkpt lat="46.67404" lon="5.58083">
        <ele>331.2</ele>
        <time>2023-09-03T10:47:44Z</time>
      </trkpt>
      <trkpt lat="46.67403" lon="5.58083">
        <ele>331.2</ele>
        <time>2023-09-03T10:47:45Z</time>
      </trkpt>
      <trkpt lat="46.674" lon="5.5808">
        <ele>330.4</ele>
        <time>2023-09-03T10:47:46Z</time>
      </trkpt>
      <trkpt lat="46.67398" lon="5.5808">
        <ele>330</ele>
        <time>2023-09-03T10:47:47Z</time>
      </trkpt>
      <trkpt lat="46.67395" lon="5.5808">
        <ele>330</ele>
        <time>2023-09-03T10:47:48Z</time>
      </trkpt>
      <trkpt lat="46.67392" lon="5.5808">
        <ele>330</ele>
        <time>2023-09-03T10:47:49Z</time>
      </trkpt>
      <trkpt lat="46.67388" lon="5.58079">
        <ele>330</ele>
        <time>2023-09-03T10:47:50Z</time>
      </trkpt>
      <trkpt lat="46.67383" lon="5.58073">
        <ele>329.4</ele>
        <time>2023-09-03T10:47:51Z</time>
      </trkpt>
      <trkpt lat="46.67381" lon="5.58071">
        <ele>329</ele>
        <time>2023-09-03T10:47:52Z</time>
      </trkpt>
      <trkpt lat="46.67377" lon="5.58066">
        <ele>329</ele>
        <time>2023-09-03T10:47:53Z</time>
      </trkpt>
      <trkpt lat="46.67373" lon="5.58061">
        <ele>329</ele>
        <time>2023-09-03T10:47:54Z</time>
      </trkpt>
      <trkpt lat="46.67366" lon="5.58052">
        <ele>328.4</ele>
        <time>2023-09-03T10:47:55Z</time>
      </trkpt>
      <trkpt lat="46.67363" lon="5.58049">
        <ele>328</ele>
        <time>2023-09-03T10:47:56Z</time>
      </trkpt>
      <trkpt lat="46.67357" lon="5.58044">
        <ele>328</ele>
        <time>2023-09-03T10:47:57Z</time>
      </trkpt>
      <trkpt lat="46.67349" lon="5.58034">
        <ele>328</ele>
        <time>2023-09-03T10:47:58Z</time>
      </trkpt>
      <trkpt lat="46.67346" lon="5.58031">
        <ele>327.2</ele>
        <time>2023-09-03T10:47:59Z</time>
      </trkpt>
      <trkpt lat="46.6734" lon="5.58025">
        <ele>327.2</ele>
        <time>2023-09-03T10:48:00Z</time>
      </trkpt>
      <trkpt lat="46.67331" lon="5.58014">
        <ele>327</ele>
        <time>2023-09-03T10:48:01Z</time>
      </trkpt>
      <trkpt lat="46.67328" lon="5.5801">
        <ele>327</ele>
        <time>2023-09-03T10:48:02Z</time>
      </trkpt>
      <trkpt lat="46.67319" lon="5.57997">
        <ele>327</ele>
        <time>2023-09-03T10:48:03Z</time>
      </trkpt>
      <trkpt lat="46.67316" lon="5.57993">
        <ele>326.2</ele>
        <time>2023-09-03T10:48:04Z</time>
      </trkpt>
      <trkpt lat="46.6731" lon="5.57985">
        <ele>326</ele>
        <time>2023-09-03T10:48:05Z</time>
      </trkpt>
      <trkpt lat="46.67304" lon="5.57977">
        <ele>326</ele>
        <time>2023-09-03T10:48:06Z</time>
      </trkpt>
      <trkpt lat="46.67297" lon="5.57969">
        <ele>326</ele>
        <time>2023-09-03T10:48:07Z</time>
      </trkpt>
      <trkpt lat="46.6729" lon="5.57961">
        <ele>326</ele>
        <time>2023-09-03T10:48:08Z</time>
      </trkpt>
      <trkpt lat="46.67284" lon="5.57951">
        <ele>325</ele>
        <time>2023-09-03T10:48:09Z</time>
      </trkpt>
      <trkpt lat="46.67277" lon="5.57942">
        <ele>324</ele>
        <time>2023-09-03T10:48:10Z</time>
      </trkpt>
      <trkpt lat="46.67267" lon="5.57929">
        <ele>324</ele>
        <time>2023-09-03T10:48:11Z</time>
      </trkpt>
      <trkpt lat="46.67264" lon="5.57925">
        <ele>324</ele>
        <time>2023-09-03T10:48:12Z</time>
      </trkpt>
      <trkpt lat="46.67256" lon="5.57916">
        <ele>323.4</ele>
        <time>2023-09-03T10:48:13Z</time>
      </trkpt>
      <trkpt lat="46.67245" lon="5.57903">
        <ele>323.4</ele>
        <time>2023-09-03T10:48:14Z</time>
      </trkpt>
      <trkpt lat="46.67242" lon="5.57898">
        <ele>322.8</ele>
        <time>2023-09-03T10:48:15Z</time>
      </trkpt>
      <trkpt lat="46.67235" lon="5.57889">
        <ele>322.8</ele>
        <time>2023-09-03T10:48:16Z</time>
      </trkpt>
      <trkpt lat="46.67225" lon="5.57876">
        <ele>322.8</ele>
        <time>2023-09-03T10:48:17Z</time>
      </trkpt>
      <trkpt lat="46.67221" lon="5.57872">
        <ele>322.4</ele>
        <time>2023-09-03T10:48:18Z</time>
      </trkpt>
      <trkpt lat="46.67211" lon="5.57859">
        <ele>321.4</ele>
        <time>2023-09-03T10:48:19Z</time>
      </trkpt>
      <trkpt lat="46.67207" lon="5.57855">
        <ele>321.4</ele>
        <time>2023-09-03T10:48:20Z</time>
      </trkpt>
      <trkpt lat="46.67201" lon="5.57846">
        <ele>321.4</ele>
        <time>2023-09-03T10:48:21Z</time>
      </trkpt>
      <trkpt lat="46.6719" lon="5.57834">
        <ele>321.6</ele>
        <time>2023-09-03T10:48:22Z</time>
      </trkpt>
      <trkpt lat="46.67187" lon="5.5783">
        <ele>321</ele>
        <time>2023-09-03T10:48:23Z</time>
      </trkpt>
      <trkpt lat="46.6718" lon="5.57822">
        <ele>321</ele>
        <time>2023-09-03T10:48:24Z</time>
      </trkpt>
      <trkpt lat="46.67171" lon="5.5781">
        <ele>321</ele>
        <time>2023-09-03T10:48:25Z</time>
      </trkpt>
      <trkpt lat="46.67168" lon="5.57806">
        <ele>320.8</ele>
        <time>2023-09-03T10:48:26Z</time>
      </trkpt>
      <trkpt lat="46.67158" lon="5.57793">
        <ele>320.6</ele>
        <time>2023-09-03T10:48:27Z</time>
      </trkpt>
      <trkpt lat="46.67155" lon="5.57789">
        <ele>320.6</ele>
        <time>2023-09-03T10:48:28Z</time>
      </trkpt>
      <trkpt lat="46.67146" lon="5.57777">
        <ele>320.6</ele>
        <time>2023-09-03T10:48:29Z</time>
      </trkpt>
      <trkpt lat="46.67143" lon="5.57773">
        <ele>320.6</ele>
        <time>2023-09-03T10:48:30Z</time>
      </trkpt>
      <trkpt lat="46.67133" lon="5.57761">
        <ele>320.6</ele>
        <time>2023-09-03T10:48:31Z</time>
      </trkpt>
      <trkpt lat="46.6713" lon="5.57757">
        <ele>320.2</ele>
        <time>2023-09-03T10:48:32Z</time>
      </trkpt>
      <trkpt lat="46.67124" lon="5.57749">
        <ele>320.2</ele>
        <time>2023-09-03T10:48:33Z</time>
      </trkpt>
      <trkpt lat="46.67117" lon="5.57741">
        <ele>320.2</ele>
        <time>2023-09-03T10:48:34Z</time>
      </trkpt>
      <trkpt lat="46.67111" lon="5.57733">
        <ele>319.8</ele>
        <time>2023-09-03T10:48:35Z</time>
      </trkpt>
      <trkpt lat="46.67104" lon="5.57725">
        <ele>319.8</ele>
        <time>2023-09-03T10:48:36Z</time>
      </trkpt>
      <trkpt lat="46.67098" lon="5.57716">
        <ele>319.6</ele>
        <time>2023-09-03T10:48:37Z</time>
      </trkpt>
      <trkpt lat="46.67089" lon="5.57702">
        <ele>319.6</ele>
        <time>2023-09-03T10:48:38Z</time>
      </trkpt>
      <trkpt lat="46.67086" lon="5.57697">
        <ele>319.6</ele>
        <time>2023-09-03T10:48:39Z</time>
      </trkpt>
      <trkpt lat="46.67077" lon="5.57683">
        <ele>319.6</ele>
        <time>2023-09-03T10:48:40Z</time>
      </trkpt>
      <trkpt lat="46.67074" lon="5.57678">
        <ele>319.6</ele>
        <time>2023-09-03T10:48:41Z</time>
      </trkpt>
      <trkpt lat="46.67066" lon="5.57663">
        <ele>320.4</ele>
        <time>2023-09-03T10:48:42Z</time>
      </trkpt>
      <trkpt lat="46.67063" lon="5.57658">
        <ele>320.4</ele>
        <time>2023-09-03T10:48:43Z</time>
      </trkpt>
      <trkpt lat="46.67058" lon="5.57647">
        <ele>320.4</ele>
        <time>2023-09-03T10:48:44Z</time>
      </trkpt>
      <trkpt lat="46.6705" lon="5.57631">
        <ele>319.4</ele>
        <time>2023-09-03T10:48:45Z</time>
      </trkpt>
      <trkpt lat="46.67048" lon="5.57625">
        <ele>317.4</ele>
        <time>2023-09-03T10:48:46Z</time>
      </trkpt>
      <trkpt lat="46.67043" lon="5.57614">
        <ele>317.4</ele>
        <time>2023-09-03T10:48:47Z</time>
      </trkpt>
      <trkpt lat="46.67035" lon="5.57598">
        <ele>317.4</ele>
        <time>2023-09-03T10:48:48Z</time>
      </trkpt>
      <trkpt lat="46.67033" lon="5.57592">
        <ele>317.4</ele>
        <time>2023-09-03T10:48:49Z</time>
      </trkpt>
      <trkpt lat="46.67028" lon="5.57581">
        <ele>317.4</ele>
        <time>2023-09-03T10:48:50Z</time>
      </trkpt>
      <trkpt lat="46.67023" lon="5.5757">
        <ele>316.8</ele>
        <time>2023-09-03T10:48:51Z</time>
      </trkpt>
      <trkpt lat="46.67018" lon="5.5756">
        <ele>316.8</ele>
        <time>2023-09-03T10:48:52Z</time>
      </trkpt>
      <trkpt lat="46.67013" lon="5.57549">
        <ele>316.8</ele>
        <time>2023-09-03T10:48:53Z</time>
      </trkpt>
      <trkpt lat="46.67008" lon="5.57539">
        <ele>315.8</ele>
        <time>2023-09-03T10:48:54Z</time>
      </trkpt>
      <trkpt lat="46.67004" lon="5.57529">
        <ele>315.4</ele>
        <time>2023-09-03T10:48:55Z</time>
      </trkpt>
      <trkpt lat="46.67" lon="5.57518">
        <ele>315.4</ele>
        <time>2023-09-03T10:48:56Z</time>
      </trkpt>
      <trkpt lat="46.66996" lon="5.57502">
        <ele>315.4</ele>
        <time>2023-09-03T10:48:57Z</time>
      </trkpt>
      <trkpt lat="46.66996" lon="5.57496">
        <ele>314.4</ele>
        <time>2023-09-03T10:48:58Z</time>
      </trkpt>
      <trkpt lat="46.66994" lon="5.57485">
        <ele>314.2</ele>
        <time>2023-09-03T10:48:59Z</time>
      </trkpt>
      <trkpt lat="46.66991" lon="5.57469">
        <ele>314.2</ele>
        <time>2023-09-03T10:49:00Z</time>
      </trkpt>
      <trkpt lat="46.66991" lon="5.57463">
        <ele>314.2</ele>
        <time>2023-09-03T10:49:01Z</time>
      </trkpt>
      <trkpt lat="46.66989" lon="5.57453">
        <ele>314.2</ele>
        <time>2023-09-03T10:49:02Z</time>
      </trkpt>
      <trkpt lat="46.66985" lon="5.57437">
        <ele>314.2</ele>
        <time>2023-09-03T10:49:03Z</time>
      </trkpt>
      <trkpt lat="46.66984" lon="5.57432">
        <ele>313.2</ele>
        <time>2023-09-03T10:49:04Z</time>
      </trkpt>
      <trkpt lat="46.6698" lon="5.57417">
        <ele>313.2</ele>
        <time>2023-09-03T10:49:05Z</time>
      </trkpt>
      <trkpt lat="46.66979" lon="5.57413">
        <ele>313.2</ele>
        <time>2023-09-03T10:49:06Z</time>
      </trkpt>
      <trkpt lat="46.66974" lon="5.574">
        <ele>313.2</ele>
        <time>2023-09-03T10:49:07Z</time>
      </trkpt>
      <trkpt lat="46.66972" lon="5.57396">
        <ele>312.6</ele>
        <time>2023-09-03T10:49:08Z</time>
      </trkpt>
      <trkpt lat="46.66969" lon="5.57389">
        <ele>312.4</ele>
        <time>2023-09-03T10:49:09Z</time>
      </trkpt>
      <trkpt lat="46.66967" lon="5.57378">
        <ele>312.4</ele>
        <time>2023-09-03T10:49:10Z</time>
      </trkpt>
      <trkpt lat="46.66966" lon="5.57374">
        <ele>312.4</ele>
        <time>2023-09-03T10:49:11Z</time>
      </trkpt>
      <trkpt lat="46.66966" lon="5.57366">
        <ele>312.4</ele>
        <time>2023-09-03T10:49:12Z</time>
      </trkpt>
      <trkpt lat="46.66966" lon="5.57352">
        <ele>311.4</ele>
        <time>2023-09-03T10:49:13Z</time>
      </trkpt>
      <trkpt lat="46.66965" lon="5.57348">
        <ele>311.6</ele>
        <time>2023-09-03T10:49:14Z</time>
      </trkpt>
      <trkpt lat="46.66965" lon="5.57334">
        <ele>311.6</ele>
        <time>2023-09-03T10:49:15Z</time>
      </trkpt>
      <trkpt lat="46.66966" lon="5.5733">
        <ele>311.6</ele>
        <time>2023-09-03T10:49:16Z</time>
      </trkpt>
      <trkpt lat="46.66967" lon="5.57321">
        <ele>311.6</ele>
        <time>2023-09-03T10:49:17Z</time>
      </trkpt>
      <trkpt lat="46.66969" lon="5.57312">
        <ele>310.8</ele>
        <time>2023-09-03T10:49:18Z</time>
      </trkpt>
      <trkpt lat="46.66973" lon="5.57299">
        <ele>310.8</ele>
        <time>2023-09-03T10:49:19Z</time>
      </trkpt>
      <trkpt lat="46.66974" lon="5.57294">
        <ele>310.8</ele>
        <time>2023-09-03T10:49:20Z</time>
      </trkpt>
      <trkpt lat="46.66979" lon="5.57281">
        <ele>310.8</ele>
        <time>2023-09-03T10:49:21Z</time>
      </trkpt>
      <trkpt lat="46.66981" lon="5.57277">
        <ele>310.4</ele>
        <time>2023-09-03T10:49:22Z</time>
      </trkpt>
      <trkpt lat="46.66986" lon="5.57269">
        <ele>310</ele>
        <time>2023-09-03T10:49:23Z</time>
      </trkpt>
      <trkpt lat="46.66992" lon="5.57257">
        <ele>310</ele>
        <time>2023-09-03T10:49:24Z</time>
      </trkpt>
      <trkpt lat="46.66995" lon="5.57254">
        <ele>310</ele>
        <time>2023-09-03T10:49:25Z</time>
      </trkpt>
      <trkpt lat="46.67" lon="5.57247">
        <ele>310</ele>
        <time>2023-09-03T10:49:26Z</time>
      </trkpt>
      <trkpt lat="46.67004" lon="5.5724">
        <ele>310.6</ele>
        <time>2023-09-03T10:49:27Z</time>
      </trkpt>
      <trkpt lat="46.67009" lon="5.57235">
        <ele>310.6</ele>
        <time>2023-09-03T10:49:28Z</time>
      </trkpt>
      <trkpt lat="46.67018" lon="5.57227">
        <ele>310.6</ele>
        <time>2023-09-03T10:49:29Z</time>
      </trkpt>
      <trkpt lat="46.6702" lon="5.57225">
        <ele>310.6</ele>
        <time>2023-09-03T10:49:30Z</time>
      </trkpt>
      <trkpt lat="46.67026" lon="5.57221">
        <ele>310.6</ele>
        <time>2023-09-03T10:49:31Z</time>
      </trkpt>
      <trkpt lat="46.67034" lon="5.57218">
        <ele>311</ele>
        <time>2023-09-03T10:49:32Z</time>
      </trkpt>
      <trkpt lat="46.67037" lon="5.57217">
        <ele>311</ele>
        <time>2023-09-03T10:49:33Z</time>
      </trkpt>
      <trkpt lat="46.67042" lon="5.57216">
        <ele>311</ele>
        <time>2023-09-03T10:49:34Z</time>
      </trkpt>
      <trkpt lat="46.6705" lon="5.5721">
        <ele>311</ele>
        <time>2023-09-03T10:49:35Z</time>
      </trkpt>
      <trkpt lat="46.67052" lon="5.57207">
        <ele>311.6</ele>
        <time>2023-09-03T10:49:36Z</time>
      </trkpt>
      <trkpt lat="46.67057" lon="5.57197">
        <ele>311.6</ele>
        <time>2023-09-03T10:49:37Z</time>
      </trkpt>
      <trkpt lat="46.67057" lon="5.57193">
        <ele>311.4</ele>
        <time>2023-09-03T10:49:38Z</time>
      </trkpt>
      <trkpt lat="46.67058" lon="5.5718">
        <ele>311.4</ele>
        <time>2023-09-03T10:49:39Z</time>
      </trkpt>
      <trkpt lat="46.67058" lon="5.57175">
        <ele>311.4</ele>
        <time>2023-09-03T10:49:40Z</time>
      </trkpt>
      <trkpt lat="46.67056" lon="5.57167">
        <ele>311.4</ele>
        <time>2023-09-03T10:49:41Z</time>
      </trkpt>
      <trkpt lat="46.67049" lon="5.5716">
        <ele>311</ele>
        <time>2023-09-03T10:49:42Z</time>
      </trkpt>
      <trkpt lat="46.67046" lon="5.57158">
        <ele>311</ele>
        <time>2023-09-03T10:49:43Z</time>
      </trkpt>
      <trkpt lat="46.67037" lon="5.57155">
        <ele>311</ele>
        <time>2023-09-03T10:49:44Z</time>
      </trkpt>
      <trkpt lat="46.67034" lon="5.57154">
        <ele>311.2</ele>
        <time>2023-09-03T10:49:45Z</time>
      </trkpt>
      <trkpt lat="46.67029" lon="5.57154">
        <ele>311.4</ele>
        <time>2023-09-03T10:49:46Z</time>
      </trkpt>
      <trkpt lat="46.67023" lon="5.57152">
        <ele>311.4</ele>
        <time>2023-09-03T10:49:47Z</time>
      </trkpt>
      <trkpt lat="46.67018" lon="5.57148">
        <ele>311.4</ele>
        <time>2023-09-03T10:49:48Z</time>
      </trkpt>
      <trkpt lat="46.67014" lon="5.57143">
        <ele>311</ele>
        <time>2023-09-03T10:49:49Z</time>
      </trkpt>
      <trkpt lat="46.6701" lon="5.57137">
        <ele>311</ele>
        <time>2023-09-03T10:49:50Z</time>
      </trkpt>
      <trkpt lat="46.67006" lon="5.5713">
        <ele>311</ele>
        <time>2023-09-03T10:49:51Z</time>
      </trkpt>
      <trkpt lat="46.67002" lon="5.5712">
        <ele>311</ele>
        <time>2023-09-03T10:49:52Z</time>
      </trkpt>
      <trkpt lat="46.67" lon="5.57117">
        <ele>311</ele>
        <time>2023-09-03T10:49:53Z</time>
      </trkpt>
      <trkpt lat="46.66998" lon="5.5711">
        <ele>310.6</ele>
        <time>2023-09-03T10:49:54Z</time>
      </trkpt>
      <trkpt lat="46.66995" lon="5.57103">
        <ele>310.6</ele>
        <time>2023-09-03T10:49:55Z</time>
      </trkpt>
      <trkpt lat="46.66991" lon="5.57093">
        <ele>310.2</ele>
        <time>2023-09-03T10:49:56Z</time>
      </trkpt>
      <trkpt lat="46.66989" lon="5.57089">
        <ele>310.2</ele>
        <time>2023-09-03T10:49:57Z</time>
      </trkpt>
      <trkpt lat="46.66985" lon="5.57078">
        <ele>309.8</ele>
        <time>2023-09-03T10:49:58Z</time>
      </trkpt>
      <trkpt lat="46.66984" lon="5.57074">
        <ele>309.6</ele>
        <time>2023-09-03T10:49:59Z</time>
      </trkpt>
      <trkpt lat="46.6698" lon="5.57063">
        <ele>309.6</ele>
        <time>2023-09-03T10:50:00Z</time>
      </trkpt>
      <trkpt lat="46.66979" lon="5.5706">
        <ele>309.6</ele>
        <time>2023-09-03T10:50:01Z</time>
      </trkpt>
      <trkpt lat="46.66977" lon="5.57053">
        <ele>309.6</ele>
        <time>2023-09-03T10:50:02Z</time>
      </trkpt>
      <trkpt lat="46.66974" lon="5.57046">
        <ele>309</ele>
        <time>2023-09-03T10:50:03Z</time>
      </trkpt>
      <trkpt lat="46.66971" lon="5.57039">
        <ele>309</ele>
        <time>2023-09-03T10:50:04Z</time>
      </trkpt>
      <trkpt lat="46.66967" lon="5.57029">
        <ele>309</ele>
        <time>2023-09-03T10:50:05Z</time>
      </trkpt>
      <trkpt lat="46.66966" lon="5.57026">
        <ele>309</ele>
        <time>2023-09-03T10:50:06Z</time>
      </trkpt>
      <trkpt lat="46.66963" lon="5.57019">
        <ele>309</ele>
        <time>2023-09-03T10:50:07Z</time>
      </trkpt>
      <trkpt lat="46.66959" lon="5.57009">
        <ele>308</ele>
        <time>2023-09-03T10:50:08Z</time>
      </trkpt>
      <trkpt lat="46.66958" lon="5.57006">
        <ele>307.6</ele>
        <time>2023-09-03T10:50:09Z</time>
      </trkpt>
      <trkpt lat="46.66954" lon="5.56996">
        <ele>307.6</ele>
        <time>2023-09-03T10:50:10Z</time>
      </trkpt>
      <trkpt lat="46.66953" lon="5.56993">
        <ele>307.6</ele>
        <time>2023-09-03T10:50:11Z</time>
      </trkpt>
      <trkpt lat="46.66949" lon="5.56983">
        <ele>307.6</ele>
        <time>2023-09-03T10:50:12Z</time>
      </trkpt>
      <trkpt lat="46.66948" lon="5.5698">
        <ele>307.2</ele>
        <time>2023-09-03T10:50:13Z</time>
      </trkpt>
      <trkpt lat="46.66945" lon="5.56973">
        <ele>306.8</ele>
        <time>2023-09-03T10:50:14Z</time>
      </trkpt>
      <trkpt lat="46.66942" lon="5.56964">
        <ele>306.8</ele>
        <time>2023-09-03T10:50:15Z</time>
      </trkpt>
      <trkpt lat="46.6694" lon="5.5696">
        <ele>306.8</ele>
        <time>2023-09-03T10:50:16Z</time>
      </trkpt>
      <trkpt lat="46.66938" lon="5.56954">
        <ele>306</ele>
        <time>2023-09-03T10:50:17Z</time>
      </trkpt>
      <trkpt lat="46.66936" lon="5.56947">
        <ele>306</ele>
        <time>2023-09-03T10:50:18Z</time>
      </trkpt>
      <trkpt lat="46.66933" lon="5.56941">
        <ele>306</ele>
        <time>2023-09-03T10:50:19Z</time>
      </trkpt>
      <trkpt lat="46.66929" lon="5.56932">
        <ele>306</ele>
        <time>2023-09-03T10:50:20Z</time>
      </trkpt>
      <trkpt lat="46.66928" lon="5.56929">
        <ele>305.4</ele>
        <time>2023-09-03T10:50:21Z</time>
      </trkpt>
      <trkpt lat="46.66926" lon="5.56922">
        <ele>305.4</ele>
        <time>2023-09-03T10:50:22Z</time>
      </trkpt>
      <trkpt lat="46.66922" lon="5.56913">
        <ele>305.4</ele>
        <time>2023-09-03T10:50:23Z</time>
      </trkpt>
      <trkpt lat="46.66921" lon="5.5691">
        <ele>304.8</ele>
        <time>2023-09-03T10:50:24Z</time>
      </trkpt>
      <trkpt lat="46.66918" lon="5.569">
        <ele>304.8</ele>
        <time>2023-09-03T10:50:25Z</time>
      </trkpt>
      <trkpt lat="46.66916" lon="5.56897">
        <ele>304</ele>
        <time>2023-09-03T10:50:26Z</time>
      </trkpt>
      <trkpt lat="46.66914" lon="5.5689">
        <ele>303.8</ele>
        <time>2023-09-03T10:50:27Z</time>
      </trkpt>
      <trkpt lat="46.66911" lon="5.56879">
        <ele>303.8</ele>
        <time>2023-09-03T10:50:28Z</time>
      </trkpt>
      <trkpt lat="46.6691" lon="5.56876">
        <ele>303.8</ele>
        <time>2023-09-03T10:50:29Z</time>
      </trkpt>
      <trkpt lat="46.66907" lon="5.56865">
        <ele>302.8</ele>
        <time>2023-09-03T10:50:30Z</time>
      </trkpt>
      <trkpt lat="46.66906" lon="5.56861">
        <ele>302.8</ele>
        <time>2023-09-03T10:50:31Z</time>
      </trkpt>
      <trkpt lat="46.66902" lon="5.5685">
        <ele>302.8</ele>
        <time>2023-09-03T10:50:32Z</time>
      </trkpt>
      <trkpt lat="46.66901" lon="5.56846">
        <ele>302.8</ele>
        <time>2023-09-03T10:50:33Z</time>
      </trkpt>
      <trkpt lat="46.66898" lon="5.56835">
        <ele>302</ele>
        <time>2023-09-03T10:50:34Z</time>
      </trkpt>
      <trkpt lat="46.66897" lon="5.56831">
        <ele>302</ele>
        <time>2023-09-03T10:50:35Z</time>
      </trkpt>
      <trkpt lat="46.66894" lon="5.56823">
        <ele>301.8</ele>
        <time>2023-09-03T10:50:36Z</time>
      </trkpt>
      <trkpt lat="46.66891" lon="5.56811">
        <ele>301.8</ele>
        <time>2023-09-03T10:50:37Z</time>
      </trkpt>
      <trkpt lat="46.6689" lon="5.56807">
        <ele>301.8</ele>
        <time>2023-09-03T10:50:38Z</time>
      </trkpt>
      <trkpt lat="46.66888" lon="5.56799">
        <ele>301.4</ele>
        <time>2023-09-03T10:50:39Z</time>
      </trkpt>
      <trkpt lat="46.66884" lon="5.56787">
        <ele>301.2</ele>
        <time>2023-09-03T10:50:40Z</time>
      </trkpt>
      <trkpt lat="46.66883" lon="5.56783">
        <ele>301.2</ele>
        <time>2023-09-03T10:50:41Z</time>
      </trkpt>
      <trkpt lat="46.66881" lon="5.56774">
        <ele>301.2</ele>
        <time>2023-09-03T10:50:42Z</time>
      </trkpt>
      <trkpt lat="46.66879" lon="5.56766">
        <ele>300.2</ele>
        <time>2023-09-03T10:50:43Z</time>
      </trkpt>
      <trkpt lat="46.66876" lon="5.56753">
        <ele>300.2</ele>
        <time>2023-09-03T10:50:44Z</time>
      </trkpt>
      <trkpt lat="46.66875" lon="5.56748">
        <ele>300.2</ele>
        <time>2023-09-03T10:50:45Z</time>
      </trkpt>
      <trkpt lat="46.66872" lon="5.56735">
        <ele>300.2</ele>
        <time>2023-09-03T10:50:46Z</time>
      </trkpt>
      <trkpt lat="46.66871" lon="5.56731">
        <ele>300.2</ele>
        <time>2023-09-03T10:50:47Z</time>
      </trkpt>
      <trkpt lat="46.66869" lon="5.56722">
        <ele>300.2</ele>
        <time>2023-09-03T10:50:48Z</time>
      </trkpt>
      <trkpt lat="46.66866" lon="5.56709">
        <ele>300.2</ele>
        <time>2023-09-03T10:50:49Z</time>
      </trkpt>
      <trkpt lat="46.66866" lon="5.56705">
        <ele>300</ele>
        <time>2023-09-03T10:50:50Z</time>
      </trkpt>
      <trkpt lat="46.66863" lon="5.56691">
        <ele>300</ele>
        <time>2023-09-03T10:50:51Z</time>
      </trkpt>
      <trkpt lat="46.66862" lon="5.56686">
        <ele>300</ele>
        <time>2023-09-03T10:50:52Z</time>
      </trkpt>
      <trkpt lat="46.6686" lon="5.56672">
        <ele>299.4</ele>
        <time>2023-09-03T10:50:53Z</time>
      </trkpt>
      <trkpt lat="46.66859" lon="5.56668">
        <ele>299.2</ele>
        <time>2023-09-03T10:50:54Z</time>
      </trkpt>
      <trkpt lat="46.66858" lon="5.56654">
        <ele>299.2</ele>
        <time>2023-09-03T10:50:55Z</time>
      </trkpt>
      <trkpt lat="46.66857" lon="5.56649">
        <ele>299.2</ele>
        <time>2023-09-03T10:50:56Z</time>
      </trkpt>
      <trkpt lat="46.66856" lon="5.5664">
        <ele>298.6</ele>
        <time>2023-09-03T10:50:57Z</time>
      </trkpt>
      <trkpt lat="46.66854" lon="5.56625">
        <ele>298.2</ele>
        <time>2023-09-03T10:50:58Z</time>
      </trkpt>
      <trkpt lat="46.66854" lon="5.56621">
        <ele>298.2</ele>
        <time>2023-09-03T10:50:59Z</time>
      </trkpt>
      <trkpt lat="46.66853" lon="5.56611">
        <ele>298.2</ele>
        <time>2023-09-03T10:51:00Z</time>
      </trkpt>
      <trkpt lat="46.66852" lon="5.56597">
        <ele>298.2</ele>
        <time>2023-09-03T10:51:01Z</time>
      </trkpt>
      <trkpt lat="46.66851" lon="5.56592">
        <ele>297.8</ele>
        <time>2023-09-03T10:51:02Z</time>
      </trkpt>
      <trkpt lat="46.66851" lon="5.56578">
        <ele>297.8</ele>
        <time>2023-09-03T10:51:03Z</time>
      </trkpt>
      <trkpt lat="46.6685" lon="5.56573">
        <ele>297.8</ele>
        <time>2023-09-03T10:51:04Z</time>
      </trkpt>
      <trkpt lat="46.6685" lon="5.56559">
        <ele>297.8</ele>
        <time>2023-09-03T10:51:05Z</time>
      </trkpt>
      <trkpt lat="46.66849" lon="5.56554">
        <ele>297.2</ele>
        <time>2023-09-03T10:51:06Z</time>
      </trkpt>
      <trkpt lat="46.66849" lon="5.56545">
        <ele>296.8</ele>
        <time>2023-09-03T10:51:07Z</time>
      </trkpt>
      <trkpt lat="46.66849" lon="5.56531">
        <ele>296.8</ele>
        <time>2023-09-03T10:51:08Z</time>
      </trkpt>
      <trkpt lat="46.66849" lon="5.56526">
        <ele>296.8</ele>
        <time>2023-09-03T10:51:09Z</time>
      </trkpt>
      <trkpt lat="46.6685" lon="5.56512">
        <ele>296.8</ele>
        <time>2023-09-03T10:51:10Z</time>
      </trkpt>
      <trkpt lat="46.6685" lon="5.56508">
        <ele>296.8</ele>
        <time>2023-09-03T10:51:11Z</time>
      </trkpt>
      <trkpt lat="46.6685" lon="5.56493">
        <ele>296</ele>
        <time>2023-09-03T10:51:12Z</time>
      </trkpt>
      <trkpt lat="46.6685" lon="5.56488">
        <ele>296</ele>
        <time>2023-09-03T10:51:13Z</time>
      </trkpt>
      <trkpt lat="46.66851" lon="5.56474">
        <ele>296</ele>
        <time>2023-09-03T10:51:14Z</time>
      </trkpt>
      <trkpt lat="46.66851" lon="5.56469">
        <ele>296</ele>
        <time>2023-09-03T10:51:15Z</time>
      </trkpt>
      <trkpt lat="46.66851" lon="5.5646">
        <ele>295.4</ele>
        <time>2023-09-03T10:51:16Z</time>
      </trkpt>
      <trkpt lat="46.66851" lon="5.5645">
        <ele>295.4</ele>
        <time>2023-09-03T10:51:17Z</time>
      </trkpt>
      <trkpt lat="46.66852" lon="5.56436">
        <ele>295.4</ele>
        <time>2023-09-03T10:51:18Z</time>
      </trkpt>
      <trkpt lat="46.66853" lon="5.56431">
        <ele>295.4</ele>
        <time>2023-09-03T10:51:19Z</time>
      </trkpt>
      <trkpt lat="46.66854" lon="5.56421">
        <ele>295.4</ele>
        <time>2023-09-03T10:51:20Z</time>
      </trkpt>
      <trkpt lat="46.66855" lon="5.56407">
        <ele>295</ele>
        <time>2023-09-03T10:51:21Z</time>
      </trkpt>
      <trkpt lat="46.66856" lon="5.56402">
        <ele>295</ele>
        <time>2023-09-03T10:51:22Z</time>
      </trkpt>
      <trkpt lat="46.66857" lon="5.56392">
        <ele>295</ele>
        <time>2023-09-03T10:51:23Z</time>
      </trkpt>
      <trkpt lat="46.66858" lon="5.56381">
        <ele>294.8</ele>
        <time>2023-09-03T10:51:24Z</time>
      </trkpt>
      <trkpt lat="46.6686" lon="5.56366">
        <ele>294.8</ele>
        <time>2023-09-03T10:51:25Z</time>
      </trkpt>
      <trkpt lat="46.66861" lon="5.56361">
        <ele>294.8</ele>
        <time>2023-09-03T10:51:26Z</time>
      </trkpt>
      <trkpt lat="46.66863" lon="5.56351">
        <ele>294.8</ele>
        <time>2023-09-03T10:51:27Z</time>
      </trkpt>
      <trkpt lat="46.66865" lon="5.56336">
        <ele>294.2</ele>
        <time>2023-09-03T10:51:28Z</time>
      </trkpt>
      <trkpt lat="46.66866" lon="5.56331">
        <ele>294.4</ele>
        <time>2023-09-03T10:51:29Z</time>
      </trkpt>
      <trkpt lat="46.66868" lon="5.5632">
        <ele>294.4</ele>
        <time>2023-09-03T10:51:30Z</time>
      </trkpt>
      <trkpt lat="46.66871" lon="5.56304">
        <ele>294.4</ele>
        <time>2023-09-03T10:51:31Z</time>
      </trkpt>
      <trkpt lat="46.66872" lon="5.56299">
        <ele>294.4</ele>
        <time>2023-09-03T10:51:32Z</time>
      </trkpt>
      <trkpt lat="46.66874" lon="5.56289">
        <ele>294.4</ele>
        <time>2023-09-03T10:51:33Z</time>
      </trkpt>
      <trkpt lat="46.66877" lon="5.56273">
        <ele>293.8</ele>
        <time>2023-09-03T10:51:34Z</time>
      </trkpt>
      <trkpt lat="46.66878" lon="5.56268">
        <ele>293.8</ele>
        <time>2023-09-03T10:51:35Z</time>
      </trkpt>
      <trkpt lat="46.66882" lon="5.56252">
        <ele>293.8</ele>
        <time>2023-09-03T10:51:36Z</time>
      </trkpt>
      <trkpt lat="46.66883" lon="5.56247">
        <ele>293.8</ele>
        <time>2023-09-03T10:51:37Z</time>
      </trkpt>
      <trkpt lat="46.66886" lon="5.56231">
        <ele>293.8</ele>
        <time>2023-09-03T10:51:38Z</time>
      </trkpt>
      <trkpt lat="46.66887" lon="5.56226">
        <ele>293.8</ele>
        <time>2023-09-03T10:51:39Z</time>
      </trkpt>
      <trkpt lat="46.66891" lon="5.5621">
        <ele>293.6</ele>
        <time>2023-09-03T10:51:40Z</time>
      </trkpt>
      <trkpt lat="46.66892" lon="5.56205">
        <ele>293.6</ele>
        <time>2023-09-03T10:51:41Z</time>
      </trkpt>
      <trkpt lat="46.66895" lon="5.56195">
        <ele>293.4</ele>
        <time>2023-09-03T10:51:42Z</time>
      </trkpt>
      <trkpt lat="46.66898" lon="5.5618">
        <ele>293.4</ele>
        <time>2023-09-03T10:51:43Z</time>
      </trkpt>
      <trkpt lat="46.66899" lon="5.56175">
        <ele>293.2</ele>
        <time>2023-09-03T10:51:44Z</time>
      </trkpt>
      <trkpt lat="46.66903" lon="5.5616">
        <ele>293.2</ele>
        <time>2023-09-03T10:51:45Z</time>
      </trkpt>
      <trkpt lat="46.66904" lon="5.56155">
        <ele>293.2</ele>
        <time>2023-09-03T10:51:46Z</time>
      </trkpt>
      <trkpt lat="46.66907" lon="5.56141">
        <ele>293.2</ele>
        <time>2023-09-03T10:51:47Z</time>
      </trkpt>
      <trkpt lat="46.66909" lon="5.56136">
        <ele>293</ele>
        <time>2023-09-03T10:51:48Z</time>
      </trkpt>
      <trkpt lat="46.66911" lon="5.56127">
        <ele>293</ele>
        <time>2023-09-03T10:51:49Z</time>
      </trkpt>
      <trkpt lat="46.66914" lon="5.56113">
        <ele>293</ele>
        <time>2023-09-03T10:51:50Z</time>
      </trkpt>
      <trkpt lat="46.66915" lon="5.56109">
        <ele>293</ele>
        <time>2023-09-03T10:51:51Z</time>
      </trkpt>
      <trkpt lat="46.66917" lon="5.561">
        <ele>292.8</ele>
        <time>2023-09-03T10:51:52Z</time>
      </trkpt>
      <trkpt lat="46.66919" lon="5.56087">
        <ele>292.8</ele>
        <time>2023-09-03T10:51:53Z</time>
      </trkpt>
      <trkpt lat="46.6692" lon="5.56082">
        <ele>292.8</ele>
        <time>2023-09-03T10:51:54Z</time>
      </trkpt>
      <trkpt lat="46.66922" lon="5.56074">
        <ele>292.8</ele>
        <time>2023-09-03T10:51:55Z</time>
      </trkpt>
      <trkpt lat="46.66924" lon="5.56065">
        <ele>292.8</ele>
        <time>2023-09-03T10:51:56Z</time>
      </trkpt>
      <trkpt lat="46.66926" lon="5.56052">
        <ele>292.8</ele>
        <time>2023-09-03T10:51:57Z</time>
      </trkpt>
      <trkpt lat="46.66927" lon="5.56048">
        <ele>292.8</ele>
        <time>2023-09-03T10:51:58Z</time>
      </trkpt>
      <trkpt lat="46.66929" lon="5.5604">
        <ele>292.8</ele>
        <time>2023-09-03T10:51:59Z</time>
      </trkpt>
      <trkpt lat="46.66932" lon="5.56026">
        <ele>293.2</ele>
        <time>2023-09-03T10:52:00Z</time>
      </trkpt>
      <trkpt lat="46.66933" lon="5.56022">
        <ele>293</ele>
        <time>2023-09-03T10:52:01Z</time>
      </trkpt>
      <trkpt lat="46.66935" lon="5.56013">
        <ele>293</ele>
        <time>2023-09-03T10:52:02Z</time>
      </trkpt>
      <trkpt lat="46.66937" lon="5.55999">
        <ele>293</ele>
        <time>2023-09-03T10:52:03Z</time>
      </trkpt>
      <trkpt lat="46.66938" lon="5.55995">
        <ele>293</ele>
        <time>2023-09-03T10:52:04Z</time>
      </trkpt>
      <trkpt lat="46.6694" lon="5.55982">
        <ele>293</ele>
        <time>2023-09-03T10:52:05Z</time>
      </trkpt>
      <trkpt lat="46.66941" lon="5.55977">
        <ele>293</ele>
        <time>2023-09-03T10:52:06Z</time>
      </trkpt>
      <trkpt lat="46.66943" lon="5.55964">
        <ele>293</ele>
        <time>2023-09-03T10:52:07Z</time>
      </trkpt>
      <trkpt lat="46.66944" lon="5.5596">
        <ele>293</ele>
        <time>2023-09-03T10:52:08Z</time>
      </trkpt>
      <trkpt lat="46.66946" lon="5.55951">
        <ele>293</ele>
        <time>2023-09-03T10:52:09Z</time>
      </trkpt>
      <trkpt lat="46.66948" lon="5.55937">
        <ele>293.2</ele>
        <time>2023-09-03T10:52:10Z</time>
      </trkpt>
      <trkpt lat="46.66949" lon="5.55933">
        <ele>293.2</ele>
        <time>2023-09-03T10:52:11Z</time>
      </trkpt>
      <trkpt lat="46.66951" lon="5.5592">
        <ele>293.2</ele>
        <time>2023-09-03T10:52:12Z</time>
      </trkpt>
      <trkpt lat="46.66952" lon="5.55915">
        <ele>293.2</ele>
        <time>2023-09-03T10:52:13Z</time>
      </trkpt>
      <trkpt lat="46.66954" lon="5.55902">
        <ele>293.2</ele>
        <time>2023-09-03T10:52:14Z</time>
      </trkpt>
      <trkpt lat="46.66955" lon="5.55897">
        <ele>293</ele>
        <time>2023-09-03T10:52:15Z</time>
      </trkpt>
      <trkpt lat="46.66956" lon="5.55888">
        <ele>293</ele>
        <time>2023-09-03T10:52:16Z</time>
      </trkpt>
      <trkpt lat="46.66958" lon="5.5588">
        <ele>293</ele>
        <time>2023-09-03T10:52:17Z</time>
      </trkpt>
      <trkpt lat="46.6696" lon="5.55871">
        <ele>293</ele>
        <time>2023-09-03T10:52:18Z</time>
      </trkpt>
      <trkpt lat="46.66962" lon="5.55858">
        <ele>293.6</ele>
        <time>2023-09-03T10:52:19Z</time>
      </trkpt>
      <trkpt lat="46.66963" lon="5.55854">
        <ele>293.6</ele>
        <time>2023-09-03T10:52:20Z</time>
      </trkpt>
      <trkpt lat="46.66965" lon="5.55846">
        <ele>293.6</ele>
        <time>2023-09-03T10:52:21Z</time>
      </trkpt>
      <trkpt lat="46.66966" lon="5.55837">
        <ele>293</ele>
        <time>2023-09-03T10:52:22Z</time>
      </trkpt>
      <trkpt lat="46.66968" lon="5.55829">
        <ele>293</ele>
        <time>2023-09-03T10:52:23Z</time>
      </trkpt>
      <trkpt lat="46.6697" lon="5.55816">
        <ele>293</ele>
        <time>2023-09-03T10:52:24Z</time>
      </trkpt>
      <trkpt lat="46.6697" lon="5.55812">
        <ele>292.8</ele>
        <time>2023-09-03T10:52:25Z</time>
      </trkpt>
      <trkpt lat="46.66972" lon="5.55799">
        <ele>292.8</ele>
        <time>2023-09-03T10:52:26Z</time>
      </trkpt>
      <trkpt lat="46.66972" lon="5.55795">
        <ele>292.8</ele>
        <time>2023-09-03T10:52:27Z</time>
      </trkpt>
      <trkpt lat="46.66973" lon="5.55783">
        <ele>292.8</ele>
        <time>2023-09-03T10:52:28Z</time>
      </trkpt>
      <trkpt lat="46.66974" lon="5.55779">
        <ele>292.4</ele>
        <time>2023-09-03T10:52:29Z</time>
      </trkpt>
      <trkpt lat="46.66975" lon="5.5577">
        <ele>292.4</ele>
        <time>2023-09-03T10:52:30Z</time>
      </trkpt>
      <trkpt lat="46.66975" lon="5.55758">
        <ele>292.4</ele>
        <time>2023-09-03T10:52:31Z</time>
      </trkpt>
      <trkpt lat="46.66976" lon="5.55754">
        <ele>292.4</ele>
        <time>2023-09-03T10:52:32Z</time>
      </trkpt>
      <trkpt lat="46.66976" lon="5.55746">
        <ele>292.4</ele>
        <time>2023-09-03T10:52:33Z</time>
      </trkpt>
      <trkpt lat="46.66976" lon="5.55737">
        <ele>292.4</ele>
        <time>2023-09-03T10:52:34Z</time>
      </trkpt>
      <trkpt lat="46.66976" lon="5.55729">
        <ele>292.4</ele>
        <time>2023-09-03T10:52:35Z</time>
      </trkpt>
      <trkpt lat="46.66976" lon="5.5572">
        <ele>291.8</ele>
        <time>2023-09-03T10:52:36Z</time>
      </trkpt>
      <trkpt lat="46.66976" lon="5.55711">
        <ele>291.8</ele>
        <time>2023-09-03T10:52:37Z</time>
      </trkpt>
      <trkpt lat="46.66976" lon="5.55701">
        <ele>291.8</ele>
        <time>2023-09-03T10:52:38Z</time>
      </trkpt>
      <trkpt lat="46.66977" lon="5.55693">
        <ele>291.8</ele>
        <time>2023-09-03T10:52:39Z</time>
      </trkpt>
      <trkpt lat="46.66977" lon="5.55685">
        <ele>291.8</ele>
        <time>2023-09-03T10:52:40Z</time>
      </trkpt>
      <trkpt lat="46.66976" lon="5.55671">
        <ele>291.8</ele>
        <time>2023-09-03T10:52:41Z</time>
      </trkpt>
      <trkpt lat="46.66976" lon="5.55667">
        <ele>291.2</ele>
        <time>2023-09-03T10:52:42Z</time>
      </trkpt>
      <trkpt lat="46.66975" lon="5.55658">
        <ele>291.2</ele>
        <time>2023-09-03T10:52:43Z</time>
      </trkpt>
      <trkpt lat="46.66973" lon="5.55646">
        <ele>291.2</ele>
        <time>2023-09-03T10:52:44Z</time>
      </trkpt>
      <trkpt lat="46.66973" lon="5.55642">
        <ele>291.2</ele>
        <time>2023-09-03T10:52:45Z</time>
      </trkpt>
      <trkpt lat="46.66972" lon="5.55629">
        <ele>291</ele>
        <time>2023-09-03T10:52:46Z</time>
      </trkpt>
      <trkpt lat="46.66971" lon="5.55625">
        <ele>290.8</ele>
        <time>2023-09-03T10:52:47Z</time>
      </trkpt>
      <trkpt lat="46.66969" lon="5.55612">
        <ele>290.8</ele>
        <time>2023-09-03T10:52:48Z</time>
      </trkpt>
      <trkpt lat="46.66968" lon="5.55607">
        <ele>290.8</ele>
        <time>2023-09-03T10:52:49Z</time>
      </trkpt>
      <trkpt lat="46.66966" lon="5.55594">
        <ele>290.8</ele>
        <time>2023-09-03T10:52:50Z</time>
      </trkpt>
      <trkpt lat="46.66965" lon="5.55589">
        <ele>290.8</ele>
        <time>2023-09-03T10:52:51Z</time>
      </trkpt>
      <trkpt lat="46.66964" lon="5.5558">
        <ele>290.6</ele>
        <time>2023-09-03T10:52:52Z</time>
      </trkpt>
      <trkpt lat="46.66962" lon="5.55571">
        <ele>290.6</ele>
        <time>2023-09-03T10:52:53Z</time>
      </trkpt>
      <trkpt lat="46.66959" lon="5.55558">
        <ele>290.6</ele>
        <time>2023-09-03T10:52:54Z</time>
      </trkpt>
      <trkpt lat="46.66958" lon="5.55554">
        <ele>290</ele>
        <time>2023-09-03T10:52:55Z</time>
      </trkpt>
      <trkpt lat="46.66956" lon="5.55545">
        <ele>290.2</ele>
        <time>2023-09-03T10:52:56Z</time>
      </trkpt>
      <trkpt lat="46.66953" lon="5.55531">
        <ele>290.2</ele>
        <time>2023-09-03T10:52:57Z</time>
      </trkpt>
      <trkpt lat="46.66952" lon="5.55527">
        <ele>290.2</ele>
        <time>2023-09-03T10:52:58Z</time>
      </trkpt>
      <trkpt lat="46.66951" lon="5.55518">
        <ele>290.2</ele>
        <time>2023-09-03T10:52:59Z</time>
      </trkpt>
      <trkpt lat="46.66949" lon="5.55509">
        <ele>289.4</ele>
        <time>2023-09-03T10:53:00Z</time>
      </trkpt>
      <trkpt lat="46.66947" lon="5.555">
        <ele>289.4</ele>
        <time>2023-09-03T10:53:01Z</time>
      </trkpt>
      <trkpt lat="46.66945" lon="5.55492">
        <ele>289.4</ele>
        <time>2023-09-03T10:53:02Z</time>
      </trkpt>
      <trkpt lat="46.66943" lon="5.55483">
        <ele>289.4</ele>
        <time>2023-09-03T10:53:03Z</time>
      </trkpt>
      <trkpt lat="46.6694" lon="5.55474">
        <ele>289.4</ele>
        <time>2023-09-03T10:53:04Z</time>
      </trkpt>
      <trkpt lat="46.66939" lon="5.55465">
        <ele>289.2</ele>
        <time>2023-09-03T10:53:05Z</time>
      </trkpt>
      <trkpt lat="46.66937" lon="5.55456">
        <ele>289.2</ele>
        <time>2023-09-03T10:53:06Z</time>
      </trkpt>
      <trkpt lat="46.66935" lon="5.55447">
        <ele>289.2</ele>
        <time>2023-09-03T10:53:07Z</time>
      </trkpt>
      <trkpt lat="46.66933" lon="5.55438">
        <ele>289.2</ele>
        <time>2023-09-03T10:53:08Z</time>
      </trkpt>
      <trkpt lat="46.66931" lon="5.55429">
        <ele>288.4</ele>
        <time>2023-09-03T10:53:09Z</time>
      </trkpt>
      <trkpt lat="46.6693" lon="5.5542">
        <ele>288.4</ele>
        <time>2023-09-03T10:53:10Z</time>
      </trkpt>
      <trkpt lat="46.66929" lon="5.55411">
        <ele>288.4</ele>
        <time>2023-09-03T10:53:11Z</time>
      </trkpt>
      <trkpt lat="46.66927" lon="5.55397">
        <ele>288.4</ele>
        <time>2023-09-03T10:53:12Z</time>
      </trkpt>
      <trkpt lat="46.66927" lon="5.55393">
        <ele>288.2</ele>
        <time>2023-09-03T10:53:13Z</time>
      </trkpt>
      <trkpt lat="46.66926" lon="5.55384">
        <ele>288.2</ele>
        <time>2023-09-03T10:53:14Z</time>
      </trkpt>
      <trkpt lat="46.66925" lon="5.55371">
        <ele>288.2</ele>
        <time>2023-09-03T10:53:15Z</time>
      </trkpt>
      <trkpt lat="46.66925" lon="5.55367">
        <ele>288.2</ele>
        <time>2023-09-03T10:53:16Z</time>
      </trkpt>
      <trkpt lat="46.66924" lon="5.55358">
        <ele>288.2</ele>
        <time>2023-09-03T10:53:17Z</time>
      </trkpt>
      <trkpt lat="46.66924" lon="5.5535">
        <ele>287.8</ele>
        <time>2023-09-03T10:53:18Z</time>
      </trkpt>
      <trkpt lat="46.66924" lon="5.55341">
        <ele>287.8</ele>
        <time>2023-09-03T10:53:19Z</time>
      </trkpt>
      <trkpt lat="46.66923" lon="5.55333">
        <ele>287.8</ele>
        <time>2023-09-03T10:53:20Z</time>
      </trkpt>
      <trkpt lat="46.66922" lon="5.5532">
        <ele>287.8</ele>
        <time>2023-09-03T10:53:21Z</time>
      </trkpt>
      <trkpt lat="46.66922" lon="5.55316">
        <ele>287.8</ele>
        <time>2023-09-03T10:53:22Z</time>
      </trkpt>
      <trkpt lat="46.66921" lon="5.55307">
        <ele>287.4</ele>
        <time>2023-09-03T10:53:23Z</time>
      </trkpt>
      <trkpt lat="46.66921" lon="5.55295">
        <ele>287.4</ele>
        <time>2023-09-03T10:53:24Z</time>
      </trkpt>
      <trkpt lat="46.6692" lon="5.55291">
        <ele>287</ele>
        <time>2023-09-03T10:53:25Z</time>
      </trkpt>
      <trkpt lat="46.6692" lon="5.55283">
        <ele>287</ele>
        <time>2023-09-03T10:53:26Z</time>
      </trkpt>
      <trkpt lat="46.66919" lon="5.55271">
        <ele>287</ele>
        <time>2023-09-03T10:53:27Z</time>
      </trkpt>
      <trkpt lat="46.66918" lon="5.55267">
        <ele>287</ele>
        <time>2023-09-03T10:53:28Z</time>
      </trkpt>
      <trkpt lat="46.66917" lon="5.55255">
        <ele>287</ele>
        <time>2023-09-03T10:53:29Z</time>
      </trkpt>
      <trkpt lat="46.66917" lon="5.55251">
        <ele>287</ele>
        <time>2023-09-03T10:53:30Z</time>
      </trkpt>
      <trkpt lat="46.66916" lon="5.55242">
        <ele>287</ele>
        <time>2023-09-03T10:53:31Z</time>
      </trkpt>
      <trkpt lat="46.66915" lon="5.55234">
        <ele>286.4</ele>
        <time>2023-09-03T10:53:32Z</time>
      </trkpt>
      <trkpt lat="46.66914" lon="5.55226">
        <ele>286.4</ele>
        <time>2023-09-03T10:53:33Z</time>
      </trkpt>
      <trkpt lat="46.66913" lon="5.55214">
        <ele>286.4</ele>
        <time>2023-09-03T10:53:34Z</time>
      </trkpt>
      <trkpt lat="46.66912" lon="5.5521">
        <ele>286.4</ele>
        <time>2023-09-03T10:53:35Z</time>
      </trkpt>
      <trkpt lat="46.66911" lon="5.55202">
        <ele>286.4</ele>
        <time>2023-09-03T10:53:36Z</time>
      </trkpt>
      <trkpt lat="46.6691" lon="5.55191">
        <ele>286</ele>
        <time>2023-09-03T10:53:37Z</time>
      </trkpt>
      <trkpt lat="46.66909" lon="5.55187">
        <ele>286</ele>
        <time>2023-09-03T10:53:38Z</time>
      </trkpt>
      <trkpt lat="46.66908" lon="5.55177">
        <ele>286</ele>
        <time>2023-09-03T10:53:39Z</time>
      </trkpt>
      <trkpt lat="46.66908" lon="5.55173">
        <ele>286</ele>
        <time>2023-09-03T10:53:40Z</time>
      </trkpt>
      <trkpt lat="46.66906" lon="5.55164">
        <ele>285.4</ele>
        <time>2023-09-03T10:53:41Z</time>
      </trkpt>
      <trkpt lat="46.66906" lon="5.55161">
        <ele>285.4</ele>
        <time>2023-09-03T10:53:42Z</time>
      </trkpt>
      <trkpt lat="46.66905" lon="5.55153">
        <ele>285.4</ele>
        <time>2023-09-03T10:53:43Z</time>
      </trkpt>
      <trkpt lat="46.66905" lon="5.5515">
        <ele>285.4</ele>
        <time>2023-09-03T10:53:44Z</time>
      </trkpt>
      <trkpt lat="46.66908" lon="5.55144">
        <ele>285.4</ele>
        <time>2023-09-03T10:53:45Z</time>
      </trkpt>
      <trkpt lat="46.66909" lon="5.55142">
        <ele>285.4</ele>
        <time>2023-09-03T10:53:46Z</time>
      </trkpt>
      <trkpt lat="46.66914" lon="5.55141">
        <ele>286</ele>
        <time>2023-09-03T10:53:47Z</time>
      </trkpt>
      <trkpt lat="46.66916" lon="5.55141">
        <ele>286</ele>
        <time>2023-09-03T10:53:48Z</time>
      </trkpt>
      <trkpt lat="46.66922" lon="5.55142">
        <ele>286</ele>
        <time>2023-09-03T10:53:49Z</time>
      </trkpt>
      <trkpt lat="46.66924" lon="5.55142">
        <ele>286</ele>
        <time>2023-09-03T10:53:50Z</time>
      </trkpt>
      <trkpt lat="46.66932" lon="5.55143">
        <ele>286.2</ele>
        <time>2023-09-03T10:53:51Z</time>
      </trkpt>
      <trkpt lat="46.66934" lon="5.55143">
        <ele>286.2</ele>
        <time>2023-09-03T10:53:52Z</time>
      </trkpt>
      <trkpt lat="46.66941" lon="5.55144">
        <ele>286.2</ele>
        <time>2023-09-03T10:53:53Z</time>
      </trkpt>
      <trkpt lat="46.66944" lon="5.55145">
        <ele>286.8</ele>
        <time>2023-09-03T10:53:54Z</time>
      </trkpt>
      <trkpt lat="46.66948" lon="5.55146">
        <ele>287</ele>
        <time>2023-09-03T10:53:55Z</time>
      </trkpt>
      <trkpt lat="46.66953" lon="5.55147">
        <ele>287</ele>
        <time>2023-09-03T10:53:56Z</time>
      </trkpt>
      <trkpt lat="46.66961" lon="5.55149">
        <ele>287</ele>
        <time>2023-09-03T10:53:57Z</time>
      </trkpt>
      <trkpt lat="46.66964" lon="5.55149">
        <ele>287</ele>
        <time>2023-09-03T10:53:58Z</time>
      </trkpt>
      <trkpt lat="46.66973" lon="5.55151">
        <ele>287.4</ele>
        <time>2023-09-03T10:53:59Z</time>
      </trkpt>
      <trkpt lat="46.66976" lon="5.55151">
        <ele>287.6</ele>
        <time>2023-09-03T10:54:00Z</time>
      </trkpt>
      <trkpt lat="46.66985" lon="5.55152">
        <ele>287.6</ele>
        <time>2023-09-03T10:54:01Z</time>
      </trkpt>
      <trkpt lat="46.66989" lon="5.55153">
        <ele>287.6</ele>
        <time>2023-09-03T10:54:02Z</time>
      </trkpt>
      <trkpt lat="46.66999" lon="5.55154">
        <ele>288.2</ele>
        <time>2023-09-03T10:54:03Z</time>
      </trkpt>
      <trkpt lat="46.67002" lon="5.55155">
        <ele>288.6</ele>
        <time>2023-09-03T10:54:04Z</time>
      </trkpt>
      <trkpt lat="46.67009" lon="5.55156">
        <ele>288.6</ele>
        <time>2023-09-03T10:54:05Z</time>
      </trkpt>
      <trkpt lat="46.67016" lon="5.55157">
        <ele>288.6</ele>
        <time>2023-09-03T10:54:06Z</time>
      </trkpt>
      <trkpt lat="46.67022" lon="5.55158">
        <ele>289.2</ele>
        <time>2023-09-03T10:54:07Z</time>
      </trkpt>
      <trkpt lat="46.6703" lon="5.55159">
        <ele>289.2</ele>
        <time>2023-09-03T10:54:08Z</time>
      </trkpt>
      <trkpt lat="46.67037" lon="5.55159">
        <ele>289.2</ele>
        <time>2023-09-03T10:54:09Z</time>
      </trkpt>
      <trkpt lat="46.67045" lon="5.55162">
        <ele>289.2</ele>
        <time>2023-09-03T10:54:10Z</time>
      </trkpt>
      <trkpt lat="46.67051" lon="5.55163">
        <ele>289.2</ele>
        <time>2023-09-03T10:54:11Z</time>
      </trkpt>
      <trkpt lat="46.67059" lon="5.55166">
        <ele>289.8</ele>
        <time>2023-09-03T10:54:12Z</time>
      </trkpt>
      <trkpt lat="46.67071" lon="5.55169">
        <ele>290</ele>
        <time>2023-09-03T10:54:13Z</time>
      </trkpt>
      <trkpt lat="46.67075" lon="5.5517">
        <ele>290</ele>
        <time>2023-09-03T10:54:14Z</time>
      </trkpt>
      <trkpt lat="46.67086" lon="5.55174">
        <ele>290</ele>
        <time>2023-09-03T10:54:15Z</time>
      </trkpt>
      <trkpt lat="46.67089" lon="5.55175">
        <ele>290.6</ele>
        <time>2023-09-03T10:54:16Z</time>
      </trkpt>
      <trkpt lat="46.67096" lon="5.55176">
        <ele>290.6</ele>
        <time>2023-09-03T10:54:17Z</time>
      </trkpt>
      <trkpt lat="46.67103" lon="5.55178">
        <ele>290.8</ele>
        <time>2023-09-03T10:54:18Z</time>
      </trkpt>
      <trkpt lat="46.6711" lon="5.55179">
        <ele>290.8</ele>
        <time>2023-09-03T10:54:19Z</time>
      </trkpt>
      <trkpt lat="46.67118" lon="5.55179">
        <ele>290.8</ele>
        <time>2023-09-03T10:54:20Z</time>
      </trkpt>
      <trkpt lat="46.67125" lon="5.55177">
        <ele>291.6</ele>
        <time>2023-09-03T10:54:21Z</time>
      </trkpt>
      <trkpt lat="46.67134" lon="5.55175">
        <ele>291.8</ele>
        <time>2023-09-03T10:54:22Z</time>
      </trkpt>
      <trkpt lat="46.67136" lon="5.55174">
        <ele>291.8</ele>
        <time>2023-09-03T10:54:23Z</time>
      </trkpt>
      <trkpt lat="46.67136" lon="5.55174">
        <ele>291.8</ele>
        <time>2023-09-03T10:54:24Z</time>
      </trkpt>
      <trkpt lat="46.67147" lon="5.55174">
        <ele>291.8</ele>
        <time>2023-09-03T10:54:25Z</time>
      </trkpt>
      <trkpt lat="46.67153" lon="5.55174">
        <ele>292.6</ele>
        <time>2023-09-03T10:54:26Z</time>
      </trkpt>
      <trkpt lat="46.67159" lon="5.55174">
        <ele>292.6</ele>
        <time>2023-09-03T10:54:27Z</time>
      </trkpt>
      <trkpt lat="46.67169" lon="5.55173">
        <ele>292.6</ele>
        <time>2023-09-03T10:54:28Z</time>
      </trkpt>
      <trkpt lat="46.67172" lon="5.55173">
        <ele>292.6</ele>
        <time>2023-09-03T10:54:29Z</time>
      </trkpt>
      <trkpt lat="46.67175" lon="5.55176">
        <ele>293.6</ele>
        <time>2023-09-03T10:54:30Z</time>
      </trkpt>
      <trkpt lat="46.67185" lon="5.55181">
        <ele>293.6</ele>
        <time>2023-09-03T10:54:31Z</time>
      </trkpt>
      <trkpt lat="46.67189" lon="5.55181">
        <ele>293.6</ele>
        <time>2023-09-03T10:54:32Z</time>
      </trkpt>
      <trkpt lat="46.67195" lon="5.55182">
        <ele>293.6</ele>
        <time>2023-09-03T10:54:33Z</time>
      </trkpt>
      <trkpt lat="46.672" lon="5.55182">
        <ele>293.6</ele>
        <time>2023-09-03T10:54:34Z</time>
      </trkpt>
      <trkpt lat="46.67203" lon="5.55181">
        <ele>294.2</ele>
        <time>2023-09-03T10:54:35Z</time>
      </trkpt>
      <trkpt lat="46.67203" lon="5.55178">
        <ele>294.2</ele>
        <time>2023-09-03T10:54:36Z</time>
      </trkpt>
      <trkpt lat="46.67203" lon="5.55172">
        <ele>294.4</ele>
        <time>2023-09-03T10:54:37Z</time>
      </trkpt>
      <trkpt lat="46.67204" lon="5.55171">
        <ele>294.4</ele>
        <time>2023-09-03T10:54:38Z</time>
      </trkpt>
      <trkpt lat="46.67204" lon="5.55167">
        <ele>294.4</ele>
        <time>2023-09-03T10:54:39Z</time>
      </trkpt>
      <trkpt lat="46.67205" lon="5.55163">
        <ele>295</ele>
        <time>2023-09-03T10:54:40Z</time>
      </trkpt>
      <trkpt lat="46.67205" lon="5.55158">
        <ele>295.2</ele>
        <time>2023-09-03T10:54:41Z</time>
      </trkpt>
      <trkpt lat="46.67206" lon="5.55154">
        <ele>295.2</ele>
        <time>2023-09-03T10:54:42Z</time>
      </trkpt>
      <trkpt lat="46.67207" lon="5.5515">
        <ele>295.2</ele>
        <time>2023-09-03T10:54:43Z</time>
      </trkpt>
      <trkpt lat="46.67207" lon="5.55147">
        <ele>295.2</ele>
        <time>2023-09-03T10:54:44Z</time>
      </trkpt>
      <trkpt lat="46.67208" lon="5.55144">
        <ele>295.6</ele>
        <time>2023-09-03T10:54:45Z</time>
      </trkpt>
      <trkpt lat="46.67208" lon="5.55144">
        <ele>295.6</ele>
        <time>2023-09-03T10:54:46Z</time>
      </trkpt>
      <trkpt lat="46.67209" lon="5.55139">
        <ele>295.6</ele>
        <time>2023-09-03T10:54:47Z</time>
      </trkpt>
      <trkpt lat="46.67209" lon="5.55138">
        <ele>295.6</ele>
        <time>2023-09-03T10:54:48Z</time>
      </trkpt>
      <trkpt lat="46.67208" lon="5.55131">
        <ele>296</ele>
        <time>2023-09-03T10:54:49Z</time>
      </trkpt>
      <trkpt lat="46.67209" lon="5.5513">
        <ele>296</ele>
        <time>2023-09-03T10:54:50Z</time>
      </trkpt>
      <trkpt lat="46.6721" lon="5.55124">
        <ele>296.2</ele>
        <time>2023-09-03T10:54:51Z</time>
      </trkpt>
      <trkpt lat="46.67211" lon="5.55118">
        <ele>296.2</ele>
        <time>2023-09-03T10:54:52Z</time>
      </trkpt>
      <trkpt lat="46.67212" lon="5.55113">
        <ele>296.2</ele>
        <time>2023-09-03T10:54:53Z</time>
      </trkpt>
      <trkpt lat="46.67214" lon="5.55106">
        <ele>296.2</ele>
        <time>2023-09-03T10:54:54Z</time>
      </trkpt>
      <trkpt lat="46.67215" lon="5.55103">
        <ele>296.6</ele>
        <time>2023-09-03T10:54:55Z</time>
      </trkpt>
      <trkpt lat="46.67217" lon="5.55095">
        <ele>296.8</ele>
        <time>2023-09-03T10:54:56Z</time>
      </trkpt>
      <trkpt lat="46.67218" lon="5.55091">
        <ele>296.8</ele>
        <time>2023-09-03T10:54:57Z</time>
      </trkpt>
      <trkpt lat="46.67218" lon="5.55086">
        <ele>296.8</ele>
        <time>2023-09-03T10:54:58Z</time>
      </trkpt>
      <trkpt lat="46.67219" lon="5.55081">
        <ele>296.8</ele>
        <time>2023-09-03T10:54:59Z</time>
      </trkpt>
      <trkpt lat="46.6722" lon="5.55077">
        <ele>296.8</ele>
        <time>2023-09-03T10:55:00Z</time>
      </trkpt>
      <trkpt lat="46.6722" lon="5.55072">
        <ele>297.2</ele>
        <time>2023-09-03T10:55:01Z</time>
      </trkpt>
      <trkpt lat="46.6722" lon="5.55069">
        <ele>297.2</ele>
        <time>2023-09-03T10:55:02Z</time>
      </trkpt>
      <trkpt lat="46.67221" lon="5.55066">
        <ele>297.2</ele>
        <time>2023-09-03T10:55:03Z</time>
      </trkpt>
      <trkpt lat="46.67223" lon="5.55062">
        <ele>297</ele>
        <time>2023-09-03T10:55:04Z</time>
      </trkpt>
      <trkpt lat="46.67224" lon="5.55061">
        <ele>297.2</ele>
        <time>2023-09-03T10:55:05Z</time>
      </trkpt>
      <trkpt lat="46.67226" lon="5.5506">
        <ele>297.2</ele>
        <time>2023-09-03T10:55:06Z</time>
      </trkpt>
      <trkpt lat="46.67227" lon="5.5506">
        <ele>297.2</ele>
        <time>2023-09-03T10:55:07Z</time>
      </trkpt>
      <trkpt lat="46.67229" lon="5.5506">
        <ele>297.2</ele>
        <time>2023-09-03T10:55:08Z</time>
      </trkpt>
      <trkpt lat="46.67233" lon="5.55061">
        <ele>297.4</ele>
        <time>2023-09-03T10:55:09Z</time>
      </trkpt>
      <trkpt lat="46.67234" lon="5.55062">
        <ele>297.6</ele>
        <time>2023-09-03T10:55:10Z</time>
      </trkpt>
      <trkpt lat="46.67237" lon="5.55064">
        <ele>297.6</ele>
        <time>2023-09-03T10:55:11Z</time>
      </trkpt>
      <trkpt lat="46.67239" lon="5.55064">
        <ele>297.6</ele>
        <time>2023-09-03T10:55:12Z</time>
      </trkpt>
      <trkpt lat="46.67243" lon="5.55067">
        <ele>297.8</ele>
        <time>2023-09-03T10:55:13Z</time>
      </trkpt>
      <trkpt lat="46.67244" lon="5.55068">
        <ele>298.2</ele>
        <time>2023-09-03T10:55:14Z</time>
      </trkpt>
      <trkpt lat="46.6725" lon="5.55072">
        <ele>298.2</ele>
        <time>2023-09-03T10:55:15Z</time>
      </trkpt>
      <trkpt lat="46.67251" lon="5.55073">
        <ele>298.2</ele>
        <time>2023-09-03T10:55:16Z</time>
      </trkpt>
      <trkpt lat="46.67255" lon="5.55076">
        <ele>298.6</ele>
        <time>2023-09-03T10:55:17Z</time>
      </trkpt>
      <trkpt lat="46.67262" lon="5.5508">
        <ele>299</ele>
        <time>2023-09-03T10:55:18Z</time>
      </trkpt>
      <trkpt lat="46.67264" lon="5.55082">
        <ele>299</ele>
        <time>2023-09-03T10:55:19Z</time>
      </trkpt>
      <trkpt lat="46.67271" lon="5.55086">
        <ele>299</ele>
        <time>2023-09-03T10:55:20Z</time>
      </trkpt>
      <trkpt lat="46.67273" lon="5.55088">
        <ele>299</ele>
        <time>2023-09-03T10:55:21Z</time>
      </trkpt>
      <trkpt lat="46.67278" lon="5.5509">
        <ele>299.6</ele>
        <time>2023-09-03T10:55:22Z</time>
      </trkpt>
      <trkpt lat="46.67282" lon="5.55093">
        <ele>299.8</ele>
        <time>2023-09-03T10:55:23Z</time>
      </trkpt>
      <trkpt lat="46.67287" lon="5.55095">
        <ele>299.8</ele>
        <time>2023-09-03T10:55:24Z</time>
      </trkpt>
      <trkpt lat="46.67291" lon="5.55098">
        <ele>299.8</ele>
        <time>2023-09-03T10:55:25Z</time>
      </trkpt>
      <trkpt lat="46.67295" lon="5.55101">
        <ele>300.6</ele>
        <time>2023-09-03T10:55:26Z</time>
      </trkpt>
      <trkpt lat="46.67299" lon="5.55104">
        <ele>301</ele>
        <time>2023-09-03T10:55:27Z</time>
      </trkpt>
      <trkpt lat="46.67304" lon="5.55108">
        <ele>301</ele>
        <time>2023-09-03T10:55:28Z</time>
      </trkpt>
      <trkpt lat="46.67305" lon="5.5511">
        <ele>301</ele>
        <time>2023-09-03T10:55:29Z</time>
      </trkpt>
      <trkpt lat="46.67308" lon="5.55112">
        <ele>301</ele>
        <time>2023-09-03T10:55:30Z</time>
      </trkpt>
      <trkpt lat="46.67311" lon="5.55115">
        <ele>301</ele>
        <time>2023-09-03T10:55:31Z</time>
      </trkpt>
      <trkpt lat="46.67312" lon="5.55115">
        <ele>302</ele>
        <time>2023-09-03T10:55:32Z</time>
      </trkpt>
      <trkpt lat="46.67315" lon="5.55118">
        <ele>302.2</ele>
        <time>2023-09-03T10:55:33Z</time>
      </trkpt>
      <trkpt lat="46.67316" lon="5.55119">
        <ele>302.2</ele>
        <time>2023-09-03T10:55:34Z</time>
      </trkpt>
      <trkpt lat="46.67318" lon="5.55122">
        <ele>302.2</ele>
        <time>2023-09-03T10:55:35Z</time>
      </trkpt>
      <trkpt lat="46.67318" lon="5.55123">
        <ele>302.4</ele>
        <time>2023-09-03T10:55:36Z</time>
      </trkpt>
      <trkpt lat="46.67321" lon="5.55126">
        <ele>302.4</ele>
        <time>2023-09-03T10:55:37Z</time>
      </trkpt>
      <trkpt lat="46.67323" lon="5.55128">
        <ele>302.4</ele>
        <time>2023-09-03T10:55:38Z</time>
      </trkpt>
      <trkpt lat="46.67325" lon="5.5513">
        <ele>302.4</ele>
        <time>2023-09-03T10:55:39Z</time>
      </trkpt>
      <trkpt lat="46.67328" lon="5.55131">
        <ele>302.4</ele>
        <time>2023-09-03T10:55:40Z</time>
      </trkpt>
      <trkpt lat="46.6733" lon="5.55134">
        <ele>302.6</ele>
        <time>2023-09-03T10:55:41Z</time>
      </trkpt>
      <trkpt lat="46.67333" lon="5.55137">
        <ele>303</ele>
        <time>2023-09-03T10:55:42Z</time>
      </trkpt>
      <trkpt lat="46.67335" lon="5.55139">
        <ele>303</ele>
        <time>2023-09-03T10:55:43Z</time>
      </trkpt>
      <trkpt lat="46.67338" lon="5.5514">
        <ele>303</ele>
        <time>2023-09-03T10:55:44Z</time>
      </trkpt>
      <trkpt lat="46.6734" lon="5.55142">
        <ele>303.4</ele>
        <time>2023-09-03T10:55:45Z</time>
      </trkpt>
      <trkpt lat="46.67343" lon="5.55144">
        <ele>303.6</ele>
        <time>2023-09-03T10:55:46Z</time>
      </trkpt>
      <trkpt lat="46.67345" lon="5.55145">
        <ele>303.6</ele>
        <time>2023-09-03T10:55:47Z</time>
      </trkpt>
      <trkpt lat="46.67347" lon="5.55148">
        <ele>303.6</ele>
        <time>2023-09-03T10:55:48Z</time>
      </trkpt>
      <trkpt lat="46.67349" lon="5.55149">
        <ele>303.6</ele>
        <time>2023-09-03T10:55:49Z</time>
      </trkpt>
      <trkpt lat="46.67351" lon="5.55151">
        <ele>304.2</ele>
        <time>2023-09-03T10:55:50Z</time>
      </trkpt>
      <trkpt lat="46.67353" lon="5.55153">
        <ele>304.2</ele>
        <time>2023-09-03T10:55:51Z</time>
      </trkpt>
      <trkpt lat="46.67356" lon="5.55154">
        <ele>304.4</ele>
        <time>2023-09-03T10:55:52Z</time>
      </trkpt>
      <trkpt lat="46.67358" lon="5.55156">
        <ele>304.4</ele>
        <time>2023-09-03T10:55:53Z</time>
      </trkpt>
      <trkpt lat="46.67361" lon="5.55158">
        <ele>304.4</ele>
        <time>2023-09-03T10:55:54Z</time>
      </trkpt>
      <trkpt lat="46.67363" lon="5.55161">
        <ele>305.2</ele>
        <time>2023-09-03T10:55:55Z</time>
      </trkpt>
      <trkpt lat="46.67366" lon="5.55163">
        <ele>305.2</ele>
        <time>2023-09-03T10:55:56Z</time>
      </trkpt>
      <trkpt lat="46.6737" lon="5.55167">
        <ele>305.6</ele>
        <time>2023-09-03T10:55:57Z</time>
      </trkpt>
      <trkpt lat="46.67371" lon="5.55168">
        <ele>305.6</ele>
        <time>2023-09-03T10:55:58Z</time>
      </trkpt>
      <trkpt lat="46.67375" lon="5.55171">
        <ele>305.6</ele>
        <time>2023-09-03T10:55:59Z</time>
      </trkpt>
      <trkpt lat="46.67377" lon="5.55172">
        <ele>306.2</ele>
        <time>2023-09-03T10:56:00Z</time>
      </trkpt>
      <trkpt lat="46.6738" lon="5.55175">
        <ele>306.2</ele>
        <time>2023-09-03T10:56:01Z</time>
      </trkpt>
      <trkpt lat="46.67382" lon="5.55177">
        <ele>306.4</ele>
        <time>2023-09-03T10:56:02Z</time>
      </trkpt>
      <trkpt lat="46.67385" lon="5.55179">
        <ele>306.4</ele>
        <time>2023-09-03T10:56:03Z</time>
      </trkpt>
      <trkpt lat="46.67386" lon="5.5518">
        <ele>307</ele>
        <time>2023-09-03T10:56:04Z</time>
      </trkpt>
      <trkpt lat="46.67388" lon="5.55182">
        <ele>307.2</ele>
        <time>2023-09-03T10:56:05Z</time>
      </trkpt>
      <trkpt lat="46.67391" lon="5.55186">
        <ele>307.2</ele>
        <time>2023-09-03T10:56:06Z</time>
      </trkpt>
      <trkpt lat="46.67392" lon="5.55187">
        <ele>307.2</ele>
        <time>2023-09-03T10:56:07Z</time>
      </trkpt>
      <trkpt lat="46.67395" lon="5.55189">
        <ele>307.2</ele>
        <time>2023-09-03T10:56:08Z</time>
      </trkpt>
      <trkpt lat="46.67396" lon="5.5519">
        <ele>307.8</ele>
        <time>2023-09-03T10:56:09Z</time>
      </trkpt>
      <trkpt lat="46.67398" lon="5.55193">
        <ele>307.8</ele>
        <time>2023-09-03T10:56:10Z</time>
      </trkpt>
      <trkpt lat="46.67399" lon="5.55197">
        <ele>308</ele>
        <time>2023-09-03T10:56:11Z</time>
      </trkpt>
      <trkpt lat="46.674" lon="5.55199">
        <ele>308</ele>
        <time>2023-09-03T10:56:12Z</time>
      </trkpt>
      <trkpt lat="46.674" lon="5.55202">
        <ele>308.4</ele>
        <time>2023-09-03T10:56:13Z</time>
      </trkpt>
      <trkpt lat="46.67399" lon="5.55206">
        <ele>308.2</ele>
        <time>2023-09-03T10:56:14Z</time>
      </trkpt>
      <trkpt lat="46.67398" lon="5.5521">
        <ele>308.2</ele>
        <time>2023-09-03T10:56:15Z</time>
      </trkpt>
      <trkpt lat="46.67397" lon="5.55212">
        <ele>308.2</ele>
        <time>2023-09-03T10:56:16Z</time>
      </trkpt>
      <trkpt lat="46.67396" lon="5.55214">
        <ele>308.4</ele>
        <time>2023-09-03T10:56:17Z</time>
      </trkpt>
      <trkpt lat="46.67395" lon="5.55218">
        <ele>308.2</ele>
        <time>2023-09-03T10:56:18Z</time>
      </trkpt>
      <trkpt lat="46.67394" lon="5.55221">
        <ele>308.2</ele>
        <time>2023-09-03T10:56:19Z</time>
      </trkpt>
      <trkpt lat="46.67393" lon="5.55224">
        <ele>308.2</ele>
        <time>2023-09-03T10:56:20Z</time>
      </trkpt>
      <trkpt lat="46.67392" lon="5.55227">
        <ele>308.2</ele>
        <time>2023-09-03T10:56:21Z</time>
      </trkpt>
      <trkpt lat="46.67392" lon="5.5523">
        <ele>308.2</ele>
        <time>2023-09-03T10:56:22Z</time>
      </trkpt>
      <trkpt lat="46.67391" lon="5.55234">
        <ele>308.2</ele>
        <time>2023-09-03T10:56:23Z</time>
      </trkpt>
      <trkpt lat="46.6739" lon="5.55238">
        <ele>308</ele>
        <time>2023-09-03T10:56:24Z</time>
      </trkpt>
      <trkpt lat="46.67389" lon="5.55239">
        <ele>308</ele>
        <time>2023-09-03T10:56:25Z</time>
      </trkpt>
      <trkpt lat="46.67389" lon="5.55244">
        <ele>308</ele>
        <time>2023-09-03T10:56:26Z</time>
      </trkpt>
      <trkpt lat="46.67389" lon="5.55245">
        <ele>307.4</ele>
        <time>2023-09-03T10:56:27Z</time>
      </trkpt>
      <trkpt lat="46.67389" lon="5.55248">
        <ele>307</ele>
        <time>2023-09-03T10:56:28Z</time>
      </trkpt>
      <trkpt lat="46.6739" lon="5.5525">
        <ele>307</ele>
        <time>2023-09-03T10:56:29Z</time>
      </trkpt>
      <trkpt lat="46.67391" lon="5.55252">
        <ele>307</ele>
        <time>2023-09-03T10:56:30Z</time>
      </trkpt>
      <trkpt lat="46.67393" lon="5.55254">
        <ele>307</ele>
        <time>2023-09-03T10:56:31Z</time>
      </trkpt>
      <trkpt lat="46.67394" lon="5.55255">
        <ele>306.6</ele>
        <time>2023-09-03T10:56:32Z</time>
      </trkpt>
      <trkpt lat="46.67396" lon="5.55255">
        <ele>306.4</ele>
        <time>2023-09-03T10:56:33Z</time>
      </trkpt>
      <trkpt lat="46.67397" lon="5.55255">
        <ele>306.4</ele>
        <time>2023-09-03T10:56:34Z</time>
      </trkpt>
      <trkpt lat="46.67399" lon="5.55256">
        <ele>306.4</ele>
        <time>2023-09-03T10:56:35Z</time>
      </trkpt>
      <trkpt lat="46.67401" lon="5.55257">
        <ele>306.2</ele>
        <time>2023-09-03T10:56:36Z</time>
      </trkpt>
      <trkpt lat="46.67403" lon="5.55258">
        <ele>305.8</ele>
        <time>2023-09-03T10:56:37Z</time>
      </trkpt>
      <trkpt lat="46.67404" lon="5.5526">
        <ele>305.8</ele>
        <time>2023-09-03T10:56:38Z</time>
      </trkpt>
      <trkpt lat="46.67404" lon="5.55262">
        <ele>305.8</ele>
        <time>2023-09-03T10:56:39Z</time>
      </trkpt>
      <trkpt lat="46.67405" lon="5.55264">
        <ele>305.4</ele>
        <time>2023-09-03T10:56:40Z</time>
      </trkpt>
      <trkpt lat="46.67406" lon="5.55265">
        <ele>305.4</ele>
        <time>2023-09-03T10:56:41Z</time>
      </trkpt>
      <trkpt lat="46.67407" lon="5.55266">
        <ele>304.8</ele>
        <time>2023-09-03T10:56:42Z</time>
      </trkpt>
      <trkpt lat="46.67409" lon="5.55267">
        <ele>304.8</ele>
        <time>2023-09-03T10:56:43Z</time>
      </trkpt>
      <trkpt lat="46.6741" lon="5.55268">
        <ele>304.8</ele>
        <time>2023-09-03T10:56:44Z</time>
      </trkpt>
      <trkpt lat="46.67412" lon="5.55269">
        <ele>304.8</ele>
        <time>2023-09-03T10:56:45Z</time>
      </trkpt>
      <trkpt lat="46.67414" lon="5.55271">
        <ele>304.6</ele>
        <time>2023-09-03T10:56:46Z</time>
      </trkpt>
      <trkpt lat="46.67416" lon="5.55274">
        <ele>304.6</ele>
        <time>2023-09-03T10:56:47Z</time>
      </trkpt>
      <trkpt lat="46.67416" lon="5.55276">
        <ele>304.6</ele>
        <time>2023-09-03T10:56:48Z</time>
      </trkpt>
      <trkpt lat="46.67417" lon="5.55278">
        <ele>305.2</ele>
        <time>2023-09-03T10:56:49Z</time>
      </trkpt>
      <trkpt lat="46.67418" lon="5.5528">
        <ele>305.2</ele>
        <time>2023-09-03T10:56:50Z</time>
      </trkpt>
      <trkpt lat="46.67419" lon="5.55282">
        <ele>305.2</ele>
        <time>2023-09-03T10:56:51Z</time>
      </trkpt>
      <trkpt lat="46.6742" lon="5.55283">
        <ele>305.2</ele>
        <time>2023-09-03T10:56:52Z</time>
      </trkpt>
      <trkpt lat="46.67421" lon="5.55283">
        <ele>305.2</ele>
        <time>2023-09-03T10:56:53Z</time>
      </trkpt>
      <trkpt lat="46.67421" lon="5.55283">
        <ele>305.2</ele>
        <time>2023-09-03T10:56:54Z</time>
      </trkpt>
      <trkpt lat="46.67421" lon="5.55283">
        <ele>305</ele>
        <time>2023-09-03T10:56:55Z</time>
      </trkpt>
      <trkpt lat="46.67427" lon="5.5529">
        <ele>307.4</ele>
        <time>2023-09-03T10:57:56Z</time>
      </trkpt>
      <trkpt lat="46.67427" lon="5.5529">
        <ele>307.4</ele>
        <time>2023-09-03T10:57:57Z</time>
      </trkpt>
      <trkpt lat="46.67427" lon="5.5529">
        <ele>307.8</ele>
        <time>2023-09-03T10:57:58Z</time>
      </trkpt>
      <trkpt lat="46.67428" lon="5.55291">
        <ele>307.8</ele>
        <time>2023-09-03T10:57:59Z</time>
      </trkpt>
      <trkpt lat="46.67428" lon="5.5529">
        <ele>307.8</ele>
        <time>2023-09-03T10:58:00Z</time>
      </trkpt>
      <trkpt lat="46.67429" lon="5.5529">
        <ele>307.8</ele>
        <time>2023-09-03T10:58:01Z</time>
      </trkpt>
      <trkpt lat="46.67429" lon="5.55291">
        <ele>308.2</ele>
        <time>2023-09-03T10:58:02Z</time>
      </trkpt>
      <trkpt lat="46.67429" lon="5.55291">
        <ele>308.4</ele>
        <time>2023-09-03T10:58:03Z</time>
      </trkpt>
      <trkpt lat="46.6743" lon="5.55292">
        <ele>308.4</ele>
        <time>2023-09-03T10:58:04Z</time>
      </trkpt>
      <trkpt lat="46.67429" lon="5.55293">
        <ele>308.4</ele>
        <time>2023-09-03T10:58:05Z</time>
      </trkpt>
      <trkpt lat="46.67429" lon="5.55294">
        <ele>308.4</ele>
        <time>2023-09-03T10:58:06Z</time>
      </trkpt>
      <trkpt lat="46.67428" lon="5.55297">
        <ele>308.4</ele>
        <time>2023-09-03T10:58:07Z</time>
      </trkpt>
      <trkpt lat="46.67429" lon="5.55298">
        <ele>309</ele>
        <time>2023-09-03T10:58:08Z</time>
      </trkpt>
      <trkpt lat="46.6743" lon="5.55298">
        <ele>309</ele>
        <time>2023-09-03T10:58:09Z</time>
      </trkpt>
      <trkpt lat="46.67429" lon="5.553">
        <ele>309</ele>
        <time>2023-09-03T10:58:10Z</time>
      </trkpt>
      <trkpt lat="46.67429" lon="5.55302">
        <ele>309</ele>
        <time>2023-09-03T10:58:11Z</time>
      </trkpt>
      <trkpt lat="46.67431" lon="5.55303">
        <ele>309</ele>
        <time>2023-09-03T10:58:12Z</time>
      </trkpt>
      <trkpt lat="46.67433" lon="5.55304">
        <ele>309.6</ele>
        <time>2023-09-03T10:58:13Z</time>
      </trkpt>
      <trkpt lat="46.67435" lon="5.55305">
        <ele>309.6</ele>
        <time>2023-09-03T10:58:14Z</time>
      </trkpt>
      <trkpt lat="46.67438" lon="5.55305">
        <ele>309.6</ele>
        <time>2023-09-03T10:58:15Z</time>
      </trkpt>
      <trkpt lat="46.67439" lon="5.55304">
        <ele>309.6</ele>
        <time>2023-09-03T10:58:16Z</time>
      </trkpt>
      <trkpt lat="46.67441" lon="5.55304">
        <ele>310.4</ele>
        <time>2023-09-03T10:58:17Z</time>
      </trkpt>
      <trkpt lat="46.67444" lon="5.55302">
        <ele>310.4</ele>
        <time>2023-09-03T10:58:18Z</time>
      </trkpt>
      <trkpt lat="46.67445" lon="5.55303">
        <ele>310.4</ele>
        <time>2023-09-03T10:58:19Z</time>
      </trkpt>
      <trkpt lat="46.67445" lon="5.55304">
        <ele>310.4</ele>
        <time>2023-09-03T10:58:20Z</time>
      </trkpt>
      <trkpt lat="46.67445" lon="5.55306">
        <ele>310.8</ele>
        <time>2023-09-03T10:58:21Z</time>
      </trkpt>
      <trkpt lat="46.67446" lon="5.55307">
        <ele>310.8</ele>
        <time>2023-09-03T10:58:22Z</time>
      </trkpt>
      <trkpt lat="46.67446" lon="5.55308">
        <ele>311</ele>
        <time>2023-09-03T10:58:23Z</time>
      </trkpt>
      <trkpt lat="46.67447" lon="5.55309">
        <ele>311</ele>
        <time>2023-09-03T10:58:24Z</time>
      </trkpt>
      <trkpt lat="46.67447" lon="5.5531">
        <ele>311.4</ele>
        <time>2023-09-03T10:58:25Z</time>
      </trkpt>
      <trkpt lat="46.67451" lon="5.55319">
        <ele>311.4</ele>
        <time>2023-09-03T10:58:26Z</time>
      </trkpt>
      <trkpt lat="46.67453" lon="5.55321">
        <ele>311.4</ele>
        <time>2023-09-03T10:58:27Z</time>
      </trkpt>
      <trkpt lat="46.67453" lon="5.55321">
        <ele>311.4</ele>
        <time>2023-09-03T10:58:28Z</time>
      </trkpt>
      <trkpt lat="46.67452" lon="5.55339">
        <ele>311.8</ele>
        <time>2023-09-03T10:58:29Z</time>
      </trkpt>
      <trkpt lat="46.67452" lon="5.55339">
        <ele>312</ele>
        <time>2023-09-03T10:58:30Z</time>
      </trkpt>
      <trkpt lat="46.67533" lon="5.55381">
        <ele>320.6</ele>
        <time>2023-09-03T11:00:07Z</time>
      </trkpt>
      <trkpt lat="46.67534" lon="5.55381">
        <ele>320.6</ele>
        <time>2023-09-03T11:00:08Z</time>
      </trkpt>
      <trkpt lat="46.67535" lon="5.55381">
        <ele>321.4</ele>
        <time>2023-09-03T11:00:09Z</time>
      </trkpt>
      <trkpt lat="46.67535" lon="5.55382">
        <ele>321.4</ele>
        <time>2023-09-03T11:00:10Z</time>
      </trkpt>
      <trkpt lat="46.67535" lon="5.55384">
        <ele>322</ele>
        <time>2023-09-03T11:00:11Z</time>
      </trkpt>
      <trkpt lat="46.67537" lon="5.55385">
        <ele>322</ele>
        <time>2023-09-03T11:00:12Z</time>
      </trkpt>
      <trkpt lat="46.67539" lon="5.55387">
        <ele>322</ele>
        <time>2023-09-03T11:00:13Z</time>
      </trkpt>
      <trkpt lat="46.6754" lon="5.55388">
        <ele>322.4</ele>
        <time>2023-09-03T11:00:14Z</time>
      </trkpt>
      <trkpt lat="46.67543" lon="5.55389">
        <ele>322.4</ele>
        <time>2023-09-03T11:00:15Z</time>
      </trkpt>
      <trkpt lat="46.67544" lon="5.55389">
        <ele>322.4</ele>
        <time>2023-09-03T11:00:16Z</time>
      </trkpt>
      <trkpt lat="46.67545" lon="5.55389">
        <ele>322.4</ele>
        <time>2023-09-03T11:00:17Z</time>
      </trkpt>
      <trkpt lat="46.67549" lon="5.55389">
        <ele>322.8</ele>
        <time>2023-09-03T11:00:18Z</time>
      </trkpt>
      <trkpt lat="46.6755" lon="5.55389">
        <ele>322.8</ele>
        <time>2023-09-03T11:00:19Z</time>
      </trkpt>
      <trkpt lat="46.67552" lon="5.55387">
        <ele>322.8</ele>
        <time>2023-09-03T11:00:20Z</time>
      </trkpt>
      <trkpt lat="46.67556" lon="5.55387">
        <ele>322.8</ele>
        <time>2023-09-03T11:00:21Z</time>
      </trkpt>
      <trkpt lat="46.67557" lon="5.55386">
        <ele>322.8</ele>
        <time>2023-09-03T11:00:22Z</time>
      </trkpt>
      <trkpt lat="46.67559" lon="5.55386">
        <ele>322.8</ele>
        <time>2023-09-03T11:00:23Z</time>
      </trkpt>
      <trkpt lat="46.67561" lon="5.55386">
        <ele>323</ele>
        <time>2023-09-03T11:00:24Z</time>
      </trkpt>
      <trkpt lat="46.67564" lon="5.55385">
        <ele>323</ele>
        <time>2023-09-03T11:00:25Z</time>
      </trkpt>
      <trkpt lat="46.67565" lon="5.55385">
        <ele>323</ele>
        <time>2023-09-03T11:00:26Z</time>
      </trkpt>
      <trkpt lat="46.67567" lon="5.55385">
        <ele>323.6</ele>
        <time>2023-09-03T11:00:27Z</time>
      </trkpt>
      <trkpt lat="46.67571" lon="5.55385">
        <ele>323.6</ele>
        <time>2023-09-03T11:00:28Z</time>
      </trkpt>
      <trkpt lat="46.67572" lon="5.55385">
        <ele>323.6</ele>
        <time>2023-09-03T11:00:29Z</time>
      </trkpt>
      <trkpt lat="46.67575" lon="5.55385">
        <ele>323.6</ele>
        <time>2023-09-03T11:00:30Z</time>
      </trkpt>
      <trkpt lat="46.67578" lon="5.55385">
        <ele>324</ele>
        <time>2023-09-03T11:00:31Z</time>
      </trkpt>
      <trkpt lat="46.67581" lon="5.55384">
        <ele>324</ele>
        <time>2023-09-03T11:00:32Z</time>
      </trkpt>
      <trkpt lat="46.67585" lon="5.55382">
        <ele>324</ele>
        <time>2023-09-03T11:00:33Z</time>
      </trkpt>
      <trkpt lat="46.67586" lon="5.55381">
        <ele>324</ele>
        <time>2023-09-03T11:00:34Z</time>
      </trkpt>
      <trkpt lat="46.67589" lon="5.5538">
        <ele>324</ele>
        <time>2023-09-03T11:00:35Z</time>
      </trkpt>
      <trkpt lat="46.67593" lon="5.55379">
        <ele>324.2</ele>
        <time>2023-09-03T11:00:36Z</time>
      </trkpt>
      <trkpt lat="46.67594" lon="5.55379">
        <ele>324.4</ele>
        <time>2023-09-03T11:00:37Z</time>
      </trkpt>
      <trkpt lat="46.67599" lon="5.55378">
        <ele>324.4</ele>
        <time>2023-09-03T11:00:38Z</time>
      </trkpt>
      <trkpt lat="46.67601" lon="5.55378">
        <ele>324.4</ele>
        <time>2023-09-03T11:00:39Z</time>
      </trkpt>
      <trkpt lat="46.67605" lon="5.55378">
        <ele>324.6</ele>
        <time>2023-09-03T11:00:40Z</time>
      </trkpt>
      <trkpt lat="46.67607" lon="5.55378">
        <ele>324.6</ele>
        <time>2023-09-03T11:00:41Z</time>
      </trkpt>
      <trkpt lat="46.6761" lon="5.55378">
        <ele>324.6</ele>
        <time>2023-09-03T11:00:42Z</time>
      </trkpt>
      <trkpt lat="46.67614" lon="5.55378">
        <ele>324.6</ele>
        <time>2023-09-03T11:00:43Z</time>
      </trkpt>
      <trkpt lat="46.67616" lon="5.55378">
        <ele>324.6</ele>
        <time>2023-09-03T11:00:44Z</time>
      </trkpt>
      <trkpt lat="46.67619" lon="5.5538">
        <ele>324.6</ele>
        <time>2023-09-03T11:00:45Z</time>
      </trkpt>
      <trkpt lat="46.67621" lon="5.55384">
        <ele>324.6</ele>
        <time>2023-09-03T11:00:46Z</time>
      </trkpt>
      <trkpt lat="46.67622" lon="5.55387">
        <ele>324.6</ele>
        <time>2023-09-03T11:00:47Z</time>
      </trkpt>
      <trkpt lat="46.67623" lon="5.55392">
        <ele>324.6</ele>
        <time>2023-09-03T11:00:48Z</time>
      </trkpt>
      <trkpt lat="46.67623" lon="5.55394">
        <ele>324.6</ele>
        <time>2023-09-03T11:00:49Z</time>
      </trkpt>
      <trkpt lat="46.67623" lon="5.55398">
        <ele>324.6</ele>
        <time>2023-09-03T11:00:50Z</time>
      </trkpt>
      <trkpt lat="46.67623" lon="5.55401">
        <ele>324.6</ele>
        <time>2023-09-03T11:00:51Z</time>
      </trkpt>
      <trkpt lat="46.67622" lon="5.55406">
        <ele>324.6</ele>
        <time>2023-09-03T11:00:52Z</time>
      </trkpt>
      <trkpt lat="46.67622" lon="5.55408">
        <ele>324.6</ele>
        <time>2023-09-03T11:00:53Z</time>
      </trkpt>
      <trkpt lat="46.67621" lon="5.5541">
        <ele>324.6</ele>
        <time>2023-09-03T11:00:54Z</time>
      </trkpt>
      <trkpt lat="46.67621" lon="5.55412">
        <ele>324.4</ele>
        <time>2023-09-03T11:00:55Z</time>
      </trkpt>
      <trkpt lat="46.67621" lon="5.55415">
        <ele>324.4</ele>
        <time>2023-09-03T11:00:56Z</time>
      </trkpt>
      <trkpt lat="46.67621" lon="5.55417">
        <ele>324.4</ele>
        <time>2023-09-03T11:01:02Z</time>
      </trkpt>
      <trkpt lat="46.67621" lon="5.55419">
        <ele>324.4</ele>
        <time>2023-09-03T11:01:03Z</time>
      </trkpt>
      <trkpt lat="46.67621" lon="5.55421">
        <ele>324.2</ele>
        <time>2023-09-03T11:01:04Z</time>
      </trkpt>
      <trkpt lat="46.6762" lon="5.55427">
        <ele>324.2</ele>
        <time>2023-09-03T11:01:05Z</time>
      </trkpt>
      <trkpt lat="46.6762" lon="5.55429">
        <ele>324.2</ele>
        <time>2023-09-03T11:01:06Z</time>
      </trkpt>
      <trkpt lat="46.6762" lon="5.55433">
        <ele>324.2</ele>
        <time>2023-09-03T11:01:07Z</time>
      </trkpt>
      <trkpt lat="46.67621" lon="5.55434">
        <ele>324.2</ele>
        <time>2023-09-03T11:01:08Z</time>
      </trkpt>
      <trkpt lat="46.67622" lon="5.55437">
        <ele>324.2</ele>
        <time>2023-09-03T11:01:09Z</time>
      </trkpt>
      <trkpt lat="46.67622" lon="5.55443">
        <ele>324.2</ele>
        <time>2023-09-03T11:01:10Z</time>
      </trkpt>
      <trkpt lat="46.67622" lon="5.55445">
        <ele>324.2</ele>
        <time>2023-09-03T11:01:11Z</time>
      </trkpt>
      <trkpt lat="46.67622" lon="5.55451">
        <ele>324</ele>
        <time>2023-09-03T11:01:12Z</time>
      </trkpt>
      <trkpt lat="46.67622" lon="5.55453">
        <ele>324</ele>
        <time>2023-09-03T11:01:13Z</time>
      </trkpt>
      <trkpt lat="46.67622" lon="5.55457">
        <ele>324</ele>
        <time>2023-09-03T11:01:14Z</time>
      </trkpt>
      <trkpt lat="46.67622" lon="5.55461">
        <ele>324</ele>
        <time>2023-09-03T11:01:15Z</time>
      </trkpt>
      <trkpt lat="46.67621" lon="5.55465">
        <ele>324</ele>
        <time>2023-09-03T11:01:16Z</time>
      </trkpt>
      <trkpt lat="46.67621" lon="5.55471">
        <ele>324</ele>
        <time>2023-09-03T11:01:17Z</time>
      </trkpt>
      <trkpt lat="46.67622" lon="5.55473">
        <ele>323.8</ele>
        <time>2023-09-03T11:01:18Z</time>
      </trkpt>
      <trkpt lat="46.67622" lon="5.55476">
        <ele>323.8</ele>
        <time>2023-09-03T11:01:19Z</time>
      </trkpt>
      <trkpt lat="46.67622" lon="5.55478">
        <ele>323.8</ele>
        <time>2023-09-03T11:01:20Z</time>
      </trkpt>
      <trkpt lat="46.67622" lon="5.5548">
        <ele>323.4</ele>
        <time>2023-09-03T11:01:21Z</time>
      </trkpt>
      <trkpt lat="46.67622" lon="5.55481">
        <ele>323.2</ele>
        <time>2023-09-03T11:01:22Z</time>
      </trkpt>
      <trkpt lat="46.67621" lon="5.55482">
        <ele>323.2</ele>
        <time>2023-09-03T11:01:23Z</time>
      </trkpt>
      <trkpt lat="46.67621" lon="5.55483">
        <ele>323.2</ele>
        <time>2023-09-03T11:01:24Z</time>
      </trkpt>
      <trkpt lat="46.67621" lon="5.55485">
        <ele>323.2</ele>
        <time>2023-09-03T11:01:25Z</time>
      </trkpt>
      <trkpt lat="46.67624" lon="5.55485">
        <ele>323.2</ele>
        <time>2023-09-03T11:01:26Z</time>
      </trkpt>
      <trkpt lat="46.67624" lon="5.55486">
        <ele>322.8</ele>
        <time>2023-09-03T11:01:27Z</time>
      </trkpt>
      <trkpt lat="46.67626" lon="5.55487">
        <ele>322.8</ele>
        <time>2023-09-03T11:01:28Z</time>
      </trkpt>
      <trkpt lat="46.67626" lon="5.55487">
        <ele>322.8</ele>
        <time>2023-09-03T11:01:29Z</time>
      </trkpt>
      <trkpt lat="46.67625" lon="5.55488">
        <ele>322.8</ele>
        <time>2023-09-03T11:01:30Z</time>
      </trkpt>
      <trkpt lat="46.67625" lon="5.55488">
        <ele>322.8</ele>
        <time>2023-09-03T11:01:31Z</time>
      </trkpt>
      <trkpt lat="46.67625" lon="5.55488">
        <ele>322.8</ele>
        <time>2023-09-03T11:01:32Z</time>
      </trkpt>
      <trkpt lat="46.67626" lon="5.55489">
        <ele>323.6</ele>
        <time>2023-09-03T11:01:41Z</time>
      </trkpt>
      <trkpt lat="46.67626" lon="5.55487">
        <ele>323.6</ele>
        <time>2023-09-03T11:01:42Z</time>
      </trkpt>
      <trkpt lat="46.67627" lon="5.55482">
        <ele>323.6</ele>
        <time>2023-09-03T11:01:43Z</time>
      </trkpt>
      <trkpt lat="46.67627" lon="5.5548">
        <ele>323.6</ele>
        <time>2023-09-03T11:01:44Z</time>
      </trkpt>
      <trkpt lat="46.67627" lon="5.55475">
        <ele>323</ele>
        <time>2023-09-03T11:01:45Z</time>
      </trkpt>
      <trkpt lat="46.67627" lon="5.55473">
        <ele>322.8</ele>
        <time>2023-09-03T11:01:46Z</time>
      </trkpt>
      <trkpt lat="46.67626" lon="5.55467">
        <ele>322.8</ele>
        <time>2023-09-03T11:01:47Z</time>
      </trkpt>
      <trkpt lat="46.67626" lon="5.55465">
        <ele>322.8</ele>
        <time>2023-09-03T11:01:48Z</time>
      </trkpt>
      <trkpt lat="46.67627" lon="5.55462">
        <ele>322.4</ele>
        <time>2023-09-03T11:01:49Z</time>
      </trkpt>
      <trkpt lat="46.67626" lon="5.55459">
        <ele>322.2</ele>
        <time>2023-09-03T11:01:50Z</time>
      </trkpt>
      <trkpt lat="46.67627" lon="5.55455">
        <ele>322.2</ele>
        <time>2023-09-03T11:01:51Z</time>
      </trkpt>
      <trkpt lat="46.67627" lon="5.5545">
        <ele>322.2</ele>
        <time>2023-09-03T11:01:52Z</time>
      </trkpt>
      <trkpt lat="46.67627" lon="5.55441">
        <ele>321.6</ele>
        <time>2023-09-03T11:01:53Z</time>
      </trkpt>
      <trkpt lat="46.67627" lon="5.55438">
        <ele>321.6</ele>
        <time>2023-09-03T11:01:54Z</time>
      </trkpt>
      <trkpt lat="46.67627" lon="5.55429">
        <ele>321.4</ele>
        <time>2023-09-03T11:01:55Z</time>
      </trkpt>
      <trkpt lat="46.67627" lon="5.55426">
        <ele>321.4</ele>
        <time>2023-09-03T11:01:56Z</time>
      </trkpt>
      <trkpt lat="46.67628" lon="5.5542">
        <ele>321.4</ele>
        <time>2023-09-03T11:01:57Z</time>
      </trkpt>
      <trkpt lat="46.67628" lon="5.55415">
        <ele>320.8</ele>
        <time>2023-09-03T11:01:58Z</time>
      </trkpt>
      <trkpt lat="46.67628" lon="5.55409">
        <ele>320.6</ele>
        <time>2023-09-03T11:01:59Z</time>
      </trkpt>
      <trkpt lat="46.67628" lon="5.55404">
        <ele>320.6</ele>
        <time>2023-09-03T11:02:00Z</time>
      </trkpt>
      <trkpt lat="46.67629" lon="5.55398">
        <ele>320.6</ele>
        <time>2023-09-03T11:02:01Z</time>
      </trkpt>
      <trkpt lat="46.67629" lon="5.55393">
        <ele>320.6</ele>
        <time>2023-09-03T11:02:02Z</time>
      </trkpt>
      <trkpt lat="46.67631" lon="5.55389">
        <ele>320.6</ele>
        <time>2023-09-03T11:02:03Z</time>
      </trkpt>
      <trkpt lat="46.67632" lon="5.55381">
        <ele>320.4</ele>
        <time>2023-09-03T11:02:04Z</time>
      </trkpt>
      <trkpt lat="46.67632" lon="5.55378">
        <ele>320.4</ele>
        <time>2023-09-03T11:02:05Z</time>
      </trkpt>
      <trkpt lat="46.67633" lon="5.5537">
        <ele>320.4</ele>
        <time>2023-09-03T11:02:06Z</time>
      </trkpt>
      <trkpt lat="46.67634" lon="5.55367">
        <ele>320.4</ele>
        <time>2023-09-03T11:02:07Z</time>
      </trkpt>
      <trkpt lat="46.67634" lon="5.55362">
        <ele>319.4</ele>
        <time>2023-09-03T11:02:08Z</time>
      </trkpt>
      <trkpt lat="46.67634" lon="5.55356">
        <ele>318.8</ele>
        <time>2023-09-03T11:02:09Z</time>
      </trkpt>
      <trkpt lat="46.67635" lon="5.5535">
        <ele>318.8</ele>
        <time>2023-09-03T11:02:10Z</time>
      </trkpt>
      <trkpt lat="46.67635" lon="5.55341">
        <ele>318.8</ele>
        <time>2023-09-03T11:02:11Z</time>
      </trkpt>
      <trkpt lat="46.67636" lon="5.55338">
        <ele>318.2</ele>
        <time>2023-09-03T11:02:12Z</time>
      </trkpt>
      <trkpt lat="46.67636" lon="5.55332">
        <ele>317.8</ele>
        <time>2023-09-03T11:02:13Z</time>
      </trkpt>
      <trkpt lat="46.67637" lon="5.55323">
        <ele>317.8</ele>
        <time>2023-09-03T11:02:14Z</time>
      </trkpt>
      <trkpt lat="46.67637" lon="5.5532">
        <ele>317.8</ele>
        <time>2023-09-03T11:02:15Z</time>
      </trkpt>
      <trkpt lat="46.67638" lon="5.55314">
        <ele>317.2</ele>
        <time>2023-09-03T11:02:16Z</time>
      </trkpt>
      <trkpt lat="46.67639" lon="5.55306">
        <ele>316.8</ele>
        <time>2023-09-03T11:02:17Z</time>
      </trkpt>
      <trkpt lat="46.67639" lon="5.55303">
        <ele>316.8</ele>
        <time>2023-09-03T11:02:18Z</time>
      </trkpt>
      <trkpt lat="46.67639" lon="5.55298">
        <ele>316.8</ele>
        <time>2023-09-03T11:02:19Z</time>
      </trkpt>
      <trkpt lat="46.67638" lon="5.55291">
        <ele>316.8</ele>
        <time>2023-09-03T11:02:20Z</time>
      </trkpt>
      <trkpt lat="46.67637" lon="5.55288">
        <ele>316.8</ele>
        <time>2023-09-03T11:02:21Z</time>
      </trkpt>
      <trkpt lat="46.67634" lon="5.55284">
        <ele>315.8</ele>
        <time>2023-09-03T11:02:22Z</time>
      </trkpt>
      <trkpt lat="46.6763" lon="5.55279">
        <ele>315.2</ele>
        <time>2023-09-03T11:02:23Z</time>
      </trkpt>
      <trkpt lat="46.67629" lon="5.55277">
        <ele>315.2</ele>
        <time>2023-09-03T11:02:24Z</time>
      </trkpt>
      <trkpt lat="46.67624" lon="5.55274">
        <ele>315.2</ele>
        <time>2023-09-03T11:02:25Z</time>
      </trkpt>
      <trkpt lat="46.67622" lon="5.55273">
        <ele>314.2</ele>
        <time>2023-09-03T11:02:26Z</time>
      </trkpt>
      <trkpt lat="46.67617" lon="5.5527">
        <ele>314.2</ele>
        <time>2023-09-03T11:02:27Z</time>
      </trkpt>
      <trkpt lat="46.67615" lon="5.55269">
        <ele>313.6</ele>
        <time>2023-09-03T11:02:28Z</time>
      </trkpt>
      <trkpt lat="46.67611" lon="5.55268">
        <ele>313.6</ele>
        <time>2023-09-03T11:02:29Z</time>
      </trkpt>
      <trkpt lat="46.67606" lon="5.55264">
        <ele>312.6</ele>
        <time>2023-09-03T11:02:30Z</time>
      </trkpt>
      <trkpt lat="46.67604" lon="5.55263">
        <ele>312.4</ele>
        <time>2023-09-03T11:02:31Z</time>
      </trkpt>
      <trkpt lat="46.676" lon="5.55261">
        <ele>312.4</ele>
        <time>2023-09-03T11:02:32Z</time>
      </trkpt>
      <trkpt lat="46.67597" lon="5.5526">
        <ele>312.4</ele>
        <time>2023-09-03T11:02:33Z</time>
      </trkpt>
      <trkpt lat="46.67594" lon="5.55259">
        <ele>312.4</ele>
        <time>2023-09-03T11:02:34Z</time>
      </trkpt>
      <trkpt lat="46.6759" lon="5.55258">
        <ele>311.4</ele>
        <time>2023-09-03T11:02:35Z</time>
      </trkpt>
      <trkpt lat="46.67586" lon="5.55258">
        <ele>310.8</ele>
        <time>2023-09-03T11:02:36Z</time>
      </trkpt>
      <trkpt lat="46.67584" lon="5.55258">
        <ele>310.8</ele>
        <time>2023-09-03T11:02:37Z</time>
      </trkpt>
      <trkpt lat="46.67579" lon="5.55257">
        <ele>310.8</ele>
        <time>2023-09-03T11:02:38Z</time>
      </trkpt>
      <trkpt lat="46.67578" lon="5.55256">
        <ele>309.8</ele>
        <time>2023-09-03T11:02:39Z</time>
      </trkpt>
      <trkpt lat="46.67573" lon="5.55257">
        <ele>309.6</ele>
        <time>2023-09-03T11:02:40Z</time>
      </trkpt>
      <trkpt lat="46.67571" lon="5.55257">
        <ele>309.6</ele>
        <time>2023-09-03T11:02:41Z</time>
      </trkpt>
      <trkpt lat="46.67568" lon="5.55259">
        <ele>309.6</ele>
        <time>2023-09-03T11:02:42Z</time>
      </trkpt>
      <trkpt lat="46.67566" lon="5.55263">
        <ele>309.6</ele>
        <time>2023-09-03T11:02:43Z</time>
      </trkpt>
      <trkpt lat="46.67565" lon="5.55268">
        <ele>309</ele>
        <time>2023-09-03T11:02:44Z</time>
      </trkpt>
      <trkpt lat="46.67563" lon="5.55274">
        <ele>309</ele>
        <time>2023-09-03T11:02:45Z</time>
      </trkpt>
      <trkpt lat="46.67563" lon="5.55277">
        <ele>309</ele>
        <time>2023-09-03T11:02:46Z</time>
      </trkpt>
      <trkpt lat="46.67562" lon="5.5528">
        <ele>309</ele>
        <time>2023-09-03T11:02:47Z</time>
      </trkpt>
      <trkpt lat="46.67562" lon="5.55284">
        <ele>309</ele>
        <time>2023-09-03T11:02:48Z</time>
      </trkpt>
      <trkpt lat="46.67561" lon="5.55288">
        <ele>309</ele>
        <time>2023-09-03T11:02:49Z</time>
      </trkpt>
      <trkpt lat="46.6756" lon="5.55292">
        <ele>309.2</ele>
        <time>2023-09-03T11:02:50Z</time>
      </trkpt>
      <trkpt lat="46.6756" lon="5.55296">
        <ele>309.2</ele>
        <time>2023-09-03T11:02:51Z</time>
      </trkpt>
      <trkpt lat="46.67559" lon="5.553">
        <ele>309.2</ele>
        <time>2023-09-03T11:02:52Z</time>
      </trkpt>
      <trkpt lat="46.67559" lon="5.55304">
        <ele>309</ele>
        <time>2023-09-03T11:02:53Z</time>
      </trkpt>
      <trkpt lat="46.67558" lon="5.55309">
        <ele>309</ele>
        <time>2023-09-03T11:02:54Z</time>
      </trkpt>
      <trkpt lat="46.67558" lon="5.55311">
        <ele>309</ele>
        <time>2023-09-03T11:02:55Z</time>
      </trkpt>
      <trkpt lat="46.67559" lon="5.55314">
        <ele>309</ele>
        <time>2023-09-03T11:02:56Z</time>
      </trkpt>
      <trkpt lat="46.6756" lon="5.55317">
        <ele>309.2</ele>
        <time>2023-09-03T11:02:57Z</time>
      </trkpt>
      <trkpt lat="46.6756" lon="5.55321">
        <ele>309.2</ele>
        <time>2023-09-03T11:02:58Z</time>
      </trkpt>
      <trkpt lat="46.6756" lon="5.55326">
        <ele>309.2</ele>
        <time>2023-09-03T11:02:59Z</time>
      </trkpt>
      <trkpt lat="46.6756" lon="5.55328">
        <ele>309.2</ele>
        <time>2023-09-03T11:03:00Z</time>
      </trkpt>
      <trkpt lat="46.6756" lon="5.55331">
        <ele>309.2</ele>
        <time>2023-09-03T11:03:01Z</time>
      </trkpt>
      <trkpt lat="46.6756" lon="5.55335">
        <ele>309.2</ele>
        <time>2023-09-03T11:03:02Z</time>
      </trkpt>
      <trkpt lat="46.6756" lon="5.55339">
        <ele>309.6</ele>
        <time>2023-09-03T11:03:03Z</time>
      </trkpt>
      <trkpt lat="46.6756" lon="5.55343">
        <ele>309.6</ele>
        <time>2023-09-03T11:03:04Z</time>
      </trkpt>
      <trkpt lat="46.67561" lon="5.55349">
        <ele>309.6</ele>
        <time>2023-09-03T11:03:05Z</time>
      </trkpt>
      <trkpt lat="46.67561" lon="5.55351">
        <ele>309.6</ele>
        <time>2023-09-03T11:03:06Z</time>
      </trkpt>
      <trkpt lat="46.6756" lon="5.55355">
        <ele>310</ele>
        <time>2023-09-03T11:03:07Z</time>
      </trkpt>
      <trkpt lat="46.67561" lon="5.55358">
        <ele>309.8</ele>
        <time>2023-09-03T11:03:08Z</time>
      </trkpt>
      <trkpt lat="46.67561" lon="5.55362">
        <ele>309.8</ele>
        <time>2023-09-03T11:03:09Z</time>
      </trkpt>
      <trkpt lat="46.67561" lon="5.55366">
        <ele>309.8</ele>
        <time>2023-09-03T11:03:10Z</time>
      </trkpt>
      <trkpt lat="46.67561" lon="5.55371">
        <ele>309.8</ele>
        <time>2023-09-03T11:03:11Z</time>
      </trkpt>
      <trkpt lat="46.67561" lon="5.55372">
        <ele>309.8</ele>
        <time>2023-09-03T11:03:12Z</time>
      </trkpt>
      <trkpt lat="46.67559" lon="5.55375">
        <ele>309.8</ele>
        <time>2023-09-03T11:03:13Z</time>
      </trkpt>
      <trkpt lat="46.67559" lon="5.55377">
        <ele>309.8</ele>
        <time>2023-09-03T11:03:14Z</time>
      </trkpt>
      <trkpt lat="46.67559" lon="5.5538">
        <ele>309.8</ele>
        <time>2023-09-03T11:03:15Z</time>
      </trkpt>
      <trkpt lat="46.6756" lon="5.55382">
        <ele>310</ele>
        <time>2023-09-03T11:03:16Z</time>
      </trkpt>
      <trkpt lat="46.6756" lon="5.55386">
        <ele>309.6</ele>
        <time>2023-09-03T11:03:17Z</time>
      </trkpt>
      <trkpt lat="46.6756" lon="5.55387">
        <ele>309.6</ele>
        <time>2023-09-03T11:03:18Z</time>
      </trkpt>
      <trkpt lat="46.6756" lon="5.5539">
        <ele>309.6</ele>
        <time>2023-09-03T11:03:19Z</time>
      </trkpt>
      <trkpt lat="46.6756" lon="5.55392">
        <ele>309.6</ele>
        <time>2023-09-03T11:03:20Z</time>
      </trkpt>
      <trkpt lat="46.6756" lon="5.55396">
        <ele>309</ele>
        <time>2023-09-03T11:03:21Z</time>
      </trkpt>
      <trkpt lat="46.6756" lon="5.55397">
        <ele>309.2</ele>
        <time>2023-09-03T11:03:22Z</time>
      </trkpt>
      <trkpt lat="46.67561" lon="5.554">
        <ele>309.2</ele>
        <time>2023-09-03T11:03:23Z</time>
      </trkpt>
      <trkpt lat="46.67561" lon="5.55401">
        <ele>309.2</ele>
        <time>2023-09-03T11:03:24Z</time>
      </trkpt>
      <trkpt lat="46.67562" lon="5.55403">
        <ele>308.6</ele>
        <time>2023-09-03T11:03:25Z</time>
      </trkpt>
      <trkpt lat="46.67563" lon="5.55404">
        <ele>308.4</ele>
        <time>2023-09-03T11:03:26Z</time>
      </trkpt>
      <trkpt lat="46.67564" lon="5.55405">
        <ele>308.4</ele>
        <time>2023-09-03T11:03:27Z</time>
      </trkpt>
      <trkpt lat="46.67566" lon="5.55407">
        <ele>308.4</ele>
        <time>2023-09-03T11:03:28Z</time>
      </trkpt>
      <trkpt lat="46.67568" lon="5.55409">
        <ele>308.4</ele>
        <time>2023-09-03T11:03:29Z</time>
      </trkpt>
      <trkpt lat="46.67569" lon="5.55411">
        <ele>307.4</ele>
        <time>2023-09-03T11:03:30Z</time>
      </trkpt>
      <trkpt lat="46.67569" lon="5.55414">
        <ele>307.4</ele>
        <time>2023-09-03T11:03:31Z</time>
      </trkpt>
      <trkpt lat="46.6757" lon="5.55416">
        <ele>307.4</ele>
        <time>2023-09-03T11:03:32Z</time>
      </trkpt>
      <trkpt lat="46.6757" lon="5.55418">
        <ele>307.4</ele>
        <time>2023-09-03T11:03:33Z</time>
      </trkpt>
      <trkpt lat="46.6757" lon="5.55419">
        <ele>307.4</ele>
        <time>2023-09-03T11:03:34Z</time>
      </trkpt>
      <trkpt lat="46.6757" lon="5.55421">
        <ele>307.4</ele>
        <time>2023-09-03T11:03:35Z</time>
      </trkpt>
      <trkpt lat="46.67571" lon="5.55423">
        <ele>307.2</ele>
        <time>2023-09-03T11:03:36Z</time>
      </trkpt>
      <trkpt lat="46.67571" lon="5.55424">
        <ele>307.2</ele>
        <time>2023-09-03T11:03:37Z</time>
      </trkpt>
      <trkpt lat="46.67571" lon="5.55425">
        <ele>307.2</ele>
        <time>2023-09-03T11:03:38Z</time>
      </trkpt>
      <trkpt lat="46.67571" lon="5.55425">
        <ele>307</ele>
        <time>2023-09-03T11:03:39Z</time>
      </trkpt>
      <trkpt lat="46.67571" lon="5.55425">
        <ele>307</ele>
        <time>2023-09-03T11:03:40Z</time>
      </trkpt>
      <trkpt lat="46.67571" lon="5.55425">
        <ele>307</ele>
        <time>2023-09-03T11:03:41Z</time>
      </trkpt>
      <trkpt lat="46.6757" lon="5.5543">
        <ele>306.8</ele>
        <time>2023-09-03T11:03:46Z</time>
      </trkpt>
      <trkpt lat="46.67572" lon="5.55431">
        <ele>306.8</ele>
        <time>2023-09-03T11:03:47Z</time>
      </trkpt>
      <trkpt lat="46.67572" lon="5.55431">
        <ele>306.8</ele>
        <time>2023-09-03T11:03:48Z</time>
      </trkpt>
      <trkpt lat="46.67572" lon="5.55431">
        <ele>306.8</ele>
        <time>2023-09-03T11:03:49Z</time>
      </trkpt>
      <trkpt lat="46.67563" lon="5.55425">
        <ele>306.6</ele>
        <time>2023-09-03T11:03:53Z</time>
      </trkpt>
      <trkpt lat="46.67563" lon="5.55423">
        <ele>306.8</ele>
        <time>2023-09-03T11:03:54Z</time>
      </trkpt>
      <trkpt lat="46.67562" lon="5.5542">
        <ele>306.8</ele>
        <time>2023-09-03T11:03:55Z</time>
      </trkpt>
      <trkpt lat="46.67562" lon="5.55419">
        <ele>306.8</ele>
        <time>2023-09-03T11:03:56Z</time>
      </trkpt>
      <trkpt lat="46.6756" lon="5.55417">
        <ele>306.8</ele>
        <time>2023-09-03T11:03:57Z</time>
      </trkpt>
      <trkpt lat="46.67559" lon="5.55415">
        <ele>306.8</ele>
        <time>2023-09-03T11:03:58Z</time>
      </trkpt>
      <trkpt lat="46.67557" lon="5.55413">
        <ele>306.8</ele>
        <time>2023-09-03T11:03:59Z</time>
      </trkpt>
      <trkpt lat="46.67556" lon="5.55411">
        <ele>306.8</ele>
        <time>2023-09-03T11:04:00Z</time>
      </trkpt>
      <trkpt lat="46.67553" lon="5.55407">
        <ele>306.8</ele>
        <time>2023-09-03T11:04:01Z</time>
      </trkpt>
      <trkpt lat="46.67552" lon="5.55406">
        <ele>306.8</ele>
        <time>2023-09-03T11:04:02Z</time>
      </trkpt>
      <trkpt lat="46.6755" lon="5.55404">
        <ele>306.4</ele>
        <time>2023-09-03T11:04:03Z</time>
      </trkpt>
      <trkpt lat="46.67549" lon="5.55401">
        <ele>306.2</ele>
        <time>2023-09-03T11:04:04Z</time>
      </trkpt>
      <trkpt lat="46.67549" lon="5.55398">
        <ele>306.2</ele>
        <time>2023-09-03T11:04:05Z</time>
      </trkpt>
      <trkpt lat="46.67549" lon="5.55396">
        <ele>306.2</ele>
        <time>2023-09-03T11:04:06Z</time>
      </trkpt>
      <trkpt lat="46.67549" lon="5.55392">
        <ele>305.4</ele>
        <time>2023-09-03T11:04:07Z</time>
      </trkpt>
      <trkpt lat="46.6755" lon="5.5539">
        <ele>304.8</ele>
        <time>2023-09-03T11:04:08Z</time>
      </trkpt>
      <trkpt lat="46.67549" lon="5.55388">
        <ele>304.8</ele>
        <time>2023-09-03T11:04:09Z</time>
      </trkpt>
      <trkpt lat="46.67549" lon="5.55386">
        <ele>304.8</ele>
        <time>2023-09-03T11:04:10Z</time>
      </trkpt>
      <trkpt lat="46.67548" lon="5.55386">
        <ele>304.8</ele>
        <time>2023-09-03T11:04:11Z</time>
      </trkpt>
      <trkpt lat="46.67547" lon="5.55385">
        <ele>304.6</ele>
        <time>2023-09-03T11:04:12Z</time>
      </trkpt>
      <trkpt lat="46.67546" lon="5.55385">
        <ele>304.6</ele>
        <time>2023-09-03T11:04:13Z</time>
      </trkpt>
      <trkpt lat="46.67545" lon="5.55386">
        <ele>304.6</ele>
        <time>2023-09-03T11:04:14Z</time>
      </trkpt>
      <trkpt lat="46.67543" lon="5.55386">
        <ele>304.6</ele>
        <time>2023-09-03T11:04:15Z</time>
      </trkpt>
      <trkpt lat="46.67541" lon="5.55386">
        <ele>304.6</ele>
        <time>2023-09-03T11:04:16Z</time>
      </trkpt>
      <trkpt lat="46.6754" lon="5.55386">
        <ele>304</ele>
        <time>2023-09-03T11:04:17Z</time>
      </trkpt>
      <trkpt lat="46.6754" lon="5.55384">
        <ele>304</ele>
        <time>2023-09-03T11:04:18Z</time>
      </trkpt>
      <trkpt lat="46.67539" lon="5.55385">
        <ele>304</ele>
        <time>2023-09-03T11:04:19Z</time>
      </trkpt>
      <trkpt lat="46.67539" lon="5.55386">
        <ele>303.8</ele>
        <time>2023-09-03T11:04:20Z</time>
      </trkpt>
      <trkpt lat="46.67538" lon="5.55386">
        <ele>303.8</ele>
        <time>2023-09-03T11:04:21Z</time>
      </trkpt>
      <trkpt lat="46.67538" lon="5.55387">
        <ele>303.8</ele>
        <time>2023-09-03T11:04:22Z</time>
      </trkpt>
      <trkpt lat="46.67537" lon="5.55389">
        <ele>303.8</ele>
        <time>2023-09-03T11:04:23Z</time>
      </trkpt>
      <trkpt lat="46.67536" lon="5.55389">
        <ele>303.8</ele>
        <time>2023-09-03T11:04:24Z</time>
      </trkpt>
      <trkpt lat="46.67535" lon="5.5539">
        <ele>303.8</ele>
        <time>2023-09-03T11:04:25Z</time>
      </trkpt>
      <trkpt lat="46.67534" lon="5.5539">
        <ele>303.8</ele>
        <time>2023-09-03T11:04:26Z</time>
      </trkpt>
      <trkpt lat="46.67533" lon="5.5539">
        <ele>303.8</ele>
        <time>2023-09-03T11:04:27Z</time>
      </trkpt>
      <trkpt lat="46.67531" lon="5.55391">
        <ele>303.8</ele>
        <time>2023-09-03T11:04:28Z</time>
      </trkpt>
      <trkpt lat="46.67529" lon="5.55392">
        <ele>303.8</ele>
        <time>2023-09-03T11:04:29Z</time>
      </trkpt>
      <trkpt lat="46.67528" lon="5.55393">
        <ele>303.6</ele>
        <time>2023-09-03T11:04:30Z</time>
      </trkpt>
      <trkpt lat="46.67527" lon="5.55393">
        <ele>303.6</ele>
        <time>2023-09-03T11:04:31Z</time>
      </trkpt>
      <trkpt lat="46.67525" lon="5.55394">
        <ele>303.6</ele>
        <time>2023-09-03T11:04:32Z</time>
      </trkpt>
      <trkpt lat="46.67524" lon="5.55394">
        <ele>303.8</ele>
        <time>2023-09-03T11:04:40Z</time>
      </trkpt>
      <trkpt lat="46.67523" lon="5.55395">
        <ele>303.8</ele>
        <time>2023-09-03T11:04:41Z</time>
      </trkpt>
      <trkpt lat="46.67521" lon="5.55396">
        <ele>303.8</ele>
        <time>2023-09-03T11:04:42Z</time>
      </trkpt>
      <trkpt lat="46.6752" lon="5.55396">
        <ele>304</ele>
        <time>2023-09-03T11:04:43Z</time>
      </trkpt>
      <trkpt lat="46.67519" lon="5.55397">
        <ele>304</ele>
        <time>2023-09-03T11:04:44Z</time>
      </trkpt>
      <trkpt lat="46.67517" lon="5.55395">
        <ele>304</ele>
        <time>2023-09-03T11:04:45Z</time>
      </trkpt>
      <trkpt lat="46.67516" lon="5.55394">
        <ele>304</ele>
        <time>2023-09-03T11:04:46Z</time>
      </trkpt>
      <trkpt lat="46.67514" lon="5.55393">
        <ele>304</ele>
        <time>2023-09-03T11:04:47Z</time>
      </trkpt>
      <trkpt lat="46.67512" lon="5.55392">
        <ele>304</ele>
        <time>2023-09-03T11:04:48Z</time>
      </trkpt>
      <trkpt lat="46.67511" lon="5.55391">
        <ele>304.2</ele>
        <time>2023-09-03T11:04:49Z</time>
      </trkpt>
      <trkpt lat="46.6751" lon="5.5539">
        <ele>304.2</ele>
        <time>2023-09-03T11:04:50Z</time>
      </trkpt>
      <trkpt lat="46.67507" lon="5.55388">
        <ele>304.2</ele>
        <time>2023-09-03T11:04:51Z</time>
      </trkpt>
      <trkpt lat="46.67505" lon="5.55386">
        <ele>304.4</ele>
        <time>2023-09-03T11:04:52Z</time>
      </trkpt>
      <trkpt lat="46.67503" lon="5.55384">
        <ele>304.4</ele>
        <time>2023-09-03T11:04:53Z</time>
      </trkpt>
      <trkpt lat="46.67501" lon="5.55383">
        <ele>304.4</ele>
        <time>2023-09-03T11:04:54Z</time>
      </trkpt>
      <trkpt lat="46.67499" lon="5.55381">
        <ele>304.4</ele>
        <time>2023-09-03T11:04:55Z</time>
      </trkpt>
      <trkpt lat="46.67496" lon="5.55379">
        <ele>304.4</ele>
        <time>2023-09-03T11:04:56Z</time>
      </trkpt>
      <trkpt lat="46.67494" lon="5.55378">
        <ele>304.6</ele>
        <time>2023-09-03T11:04:57Z</time>
      </trkpt>
      <trkpt lat="46.67492" lon="5.55376">
        <ele>304.6</ele>
        <time>2023-09-03T11:04:58Z</time>
      </trkpt>
      <trkpt lat="46.6749" lon="5.55375">
        <ele>305.2</ele>
        <time>2023-09-03T11:05:10Z</time>
      </trkpt>
      <trkpt lat="46.67488" lon="5.55373">
        <ele>305.2</ele>
        <time>2023-09-03T11:05:11Z</time>
      </trkpt>
      <trkpt lat="46.67486" lon="5.55371">
        <ele>305.2</ele>
        <time>2023-09-03T11:05:12Z</time>
      </trkpt>
      <trkpt lat="46.67484" lon="5.5537">
        <ele>305.2</ele>
        <time>2023-09-03T11:05:13Z</time>
      </trkpt>
      <trkpt lat="46.67482" lon="5.55368">
        <ele>305.2</ele>
        <time>2023-09-03T11:05:14Z</time>
      </trkpt>
      <trkpt lat="46.67468" lon="5.55358">
        <ele>305.6</ele>
        <time>2023-09-03T11:05:18Z</time>
      </trkpt>
      <trkpt lat="46.67466" lon="5.55356">
        <ele>306.2</ele>
        <time>2023-09-03T11:05:19Z</time>
      </trkpt>
      <trkpt lat="46.67464" lon="5.55353">
        <ele>306</ele>
        <time>2023-09-03T11:05:20Z</time>
      </trkpt>
      <trkpt lat="46.67463" lon="5.55352">
        <ele>306</ele>
        <time>2023-09-03T11:05:21Z</time>
      </trkpt>
      <trkpt lat="46.67461" lon="5.5535">
        <ele>306</ele>
        <time>2023-09-03T11:05:22Z</time>
      </trkpt>
      <trkpt lat="46.6746" lon="5.55348">
        <ele>306.6</ele>
        <time>2023-09-03T11:05:23Z</time>
      </trkpt>
      <trkpt lat="46.67459" lon="5.55346">
        <ele>306.8</ele>
        <time>2023-09-03T11:05:24Z</time>
      </trkpt>
      <trkpt lat="46.67458" lon="5.55344">
        <ele>306.8</ele>
        <time>2023-09-03T11:05:25Z</time>
      </trkpt>
      <trkpt lat="46.67454" lon="5.55341">
        <ele>306.8</ele>
        <time>2023-09-03T11:05:26Z</time>
      </trkpt>
      <trkpt lat="46.67452" lon="5.55341">
        <ele>307.2</ele>
        <time>2023-09-03T11:05:27Z</time>
      </trkpt>
      <trkpt lat="46.67451" lon="5.55341">
        <ele>307.2</ele>
        <time>2023-09-03T11:05:28Z</time>
      </trkpt>
      <trkpt lat="46.67449" lon="5.5534">
        <ele>307.2</ele>
        <time>2023-09-03T11:05:29Z</time>
      </trkpt>
      <trkpt lat="46.67449" lon="5.55339">
        <ele>307.4</ele>
        <time>2023-09-03T11:05:30Z</time>
      </trkpt>
      <trkpt lat="46.67447" lon="5.55337">
        <ele>307.4</ele>
        <time>2023-09-03T11:05:31Z</time>
      </trkpt>
      <trkpt lat="46.67444" lon="5.55336">
        <ele>307.4</ele>
        <time>2023-09-03T11:05:32Z</time>
      </trkpt>
      <trkpt lat="46.67441" lon="5.55333">
        <ele>308</ele>
        <time>2023-09-03T11:05:33Z</time>
      </trkpt>
      <trkpt lat="46.6744" lon="5.55331">
        <ele>308.2</ele>
        <time>2023-09-03T11:05:34Z</time>
      </trkpt>
      <trkpt lat="46.6744" lon="5.5533">
        <ele>308.2</ele>
        <time>2023-09-03T11:05:35Z</time>
      </trkpt>
      <trkpt lat="46.67437" lon="5.55327">
        <ele>308.2</ele>
        <time>2023-09-03T11:05:36Z</time>
      </trkpt>
      <trkpt lat="46.67428" lon="5.55325">
        <ele>308.2</ele>
        <time>2023-09-03T11:05:37Z</time>
      </trkpt>
      <trkpt lat="46.67424" lon="5.55324">
        <ele>308.2</ele>
        <time>2023-09-03T11:05:38Z</time>
      </trkpt>
      <trkpt lat="46.67416" lon="5.55321">
        <ele>308.2</ele>
        <time>2023-09-03T11:05:39Z</time>
      </trkpt>
      <trkpt lat="46.6741" lon="5.55311">
        <ele>308.2</ele>
        <time>2023-09-03T11:05:40Z</time>
      </trkpt>
      <trkpt lat="46.67408" lon="5.55308">
        <ele>308.2</ele>
        <time>2023-09-03T11:05:41Z</time>
      </trkpt>
      <trkpt lat="46.67403" lon="5.553">
        <ele>308.2</ele>
        <time>2023-09-03T11:05:42Z</time>
      </trkpt>
      <trkpt lat="46.67403" lon="5.55299">
        <ele>307.8</ele>
        <time>2023-09-03T11:05:43Z</time>
      </trkpt>
      <trkpt lat="46.67401" lon="5.55295">
        <ele>307.8</ele>
        <time>2023-09-03T11:05:44Z</time>
      </trkpt>
      <trkpt lat="46.674" lon="5.55294">
        <ele>307.8</ele>
        <time>2023-09-03T11:05:45Z</time>
      </trkpt>
      <trkpt lat="46.67399" lon="5.55292">
        <ele>307.4</ele>
        <time>2023-09-03T11:05:46Z</time>
      </trkpt>
      <trkpt lat="46.67398" lon="5.55291">
        <ele>307.4</ele>
        <time>2023-09-03T11:05:47Z</time>
      </trkpt>
      <trkpt lat="46.67397" lon="5.55291">
        <ele>307</ele>
        <time>2023-09-03T11:05:48Z</time>
      </trkpt>
      <trkpt lat="46.67396" lon="5.55293">
        <ele>307</ele>
        <time>2023-09-03T11:05:49Z</time>
      </trkpt>
      <trkpt lat="46.67394" lon="5.55293">
        <ele>307</ele>
        <time>2023-09-03T11:05:50Z</time>
      </trkpt>
      <trkpt lat="46.67393" lon="5.55295">
        <ele>306.4</ele>
        <time>2023-09-03T11:05:51Z</time>
      </trkpt>
      <trkpt lat="46.67392" lon="5.55296">
        <ele>306.2</ele>
        <time>2023-09-03T11:05:52Z</time>
      </trkpt>
      <trkpt lat="46.67391" lon="5.55298">
        <ele>306.2</ele>
        <time>2023-09-03T11:05:53Z</time>
      </trkpt>
      <trkpt lat="46.6739" lon="5.553">
        <ele>306.2</ele>
        <time>2023-09-03T11:05:54Z</time>
      </trkpt>
      <trkpt lat="46.67389" lon="5.55301">
        <ele>305.6</ele>
        <time>2023-09-03T11:05:55Z</time>
      </trkpt>
      <trkpt lat="46.67389" lon="5.55302">
        <ele>305.6</ele>
        <time>2023-09-03T11:05:56Z</time>
      </trkpt>
      <trkpt lat="46.67388" lon="5.55304">
        <ele>305</ele>
        <time>2023-09-03T11:05:57Z</time>
      </trkpt>
      <trkpt lat="46.67387" lon="5.55305">
        <ele>305</ele>
        <time>2023-09-03T11:05:58Z</time>
      </trkpt>
      <trkpt lat="46.67387" lon="5.55306">
        <ele>304.4</ele>
        <time>2023-09-03T11:05:59Z</time>
      </trkpt>
      <trkpt lat="46.67386" lon="5.55308">
        <ele>304.2</ele>
        <time>2023-09-03T11:06:00Z</time>
      </trkpt>
      <trkpt lat="46.67387" lon="5.55309">
        <ele>304.2</ele>
        <time>2023-09-03T11:06:01Z</time>
      </trkpt>
      <trkpt lat="46.67389" lon="5.55309">
        <ele>304.2</ele>
        <time>2023-09-03T11:06:02Z</time>
      </trkpt>
      <trkpt lat="46.67391" lon="5.55308">
        <ele>304.2</ele>
        <time>2023-09-03T11:06:03Z</time>
      </trkpt>
      <trkpt lat="46.67392" lon="5.55308">
        <ele>303.6</ele>
        <time>2023-09-03T11:06:04Z</time>
      </trkpt>
      <trkpt lat="46.67393" lon="5.55308">
        <ele>303.2</ele>
        <time>2023-09-03T11:06:05Z</time>
      </trkpt>
      <trkpt lat="46.67393" lon="5.55308">
        <ele>303.2</ele>
        <time>2023-09-03T11:06:06Z</time>
      </trkpt>
      <trkpt lat="46.67393" lon="5.55308">
        <ele>303.2</ele>
        <time>2023-09-03T11:06:07Z</time>
      </trkpt>
      <trkpt lat="46.67393" lon="5.55308">
        <ele>303.2</ele>
        <time>2023-09-03T11:06:08Z</time>
      </trkpt>
      <trkpt lat="46.67393" lon="5.55308">
        <ele>302.8</ele>
        <time>2023-09-03T11:06:09Z</time>
      </trkpt>
      <trkpt lat="46.67381" lon="5.55292">
        <ele>219.6</ele>
        <time>2023-09-03T11:08:29Z</time>
      </trkpt>
      <trkpt lat="46.6738" lon="5.5529">
        <ele>219.6</ele>
        <time>2023-09-03T11:08:30Z</time>
      </trkpt>
      <trkpt lat="46.6738" lon="5.55288">
        <ele>219.6</ele>
        <time>2023-09-03T11:08:31Z</time>
      </trkpt>
      <trkpt lat="46.67381" lon="5.55285">
        <ele>218.6</ele>
        <time>2023-09-03T11:08:32Z</time>
      </trkpt>
      <trkpt lat="46.67382" lon="5.55283">
        <ele>218</ele>
        <time>2023-09-03T11:08:33Z</time>
      </trkpt>
      <trkpt lat="46.67384" lon="5.5528">
        <ele>218</ele>
        <time>2023-09-03T11:08:34Z</time>
      </trkpt>
      <trkpt lat="46.67385" lon="5.55276">
        <ele>218</ele>
        <time>2023-09-03T11:08:35Z</time>
      </trkpt>
      <trkpt lat="46.67387" lon="5.55273">
        <ele>218</ele>
        <time>2023-09-03T11:08:36Z</time>
      </trkpt>
      <trkpt lat="46.6739" lon="5.55269">
        <ele>217.2</ele>
        <time>2023-09-03T11:08:37Z</time>
      </trkpt>
      <trkpt lat="46.6739" lon="5.55267">
        <ele>217</ele>
        <time>2023-09-03T11:08:38Z</time>
      </trkpt>
      <trkpt lat="46.67393" lon="5.55262">
        <ele>217</ele>
        <time>2023-09-03T11:08:39Z</time>
      </trkpt>
      <trkpt lat="46.67394" lon="5.5526">
        <ele>217</ele>
        <time>2023-09-03T11:08:40Z</time>
      </trkpt>
      <trkpt lat="46.67396" lon="5.55254">
        <ele>216</ele>
        <time>2023-09-03T11:08:41Z</time>
      </trkpt>
      <trkpt lat="46.67396" lon="5.55251">
        <ele>215.6</ele>
        <time>2023-09-03T11:08:42Z</time>
      </trkpt>
      <trkpt lat="46.67397" lon="5.55248">
        <ele>215.6</ele>
        <time>2023-09-03T11:08:43Z</time>
      </trkpt>
      <trkpt lat="46.67398" lon="5.55243">
        <ele>215.6</ele>
        <time>2023-09-03T11:08:44Z</time>
      </trkpt>
      <trkpt lat="46.67399" lon="5.55239">
        <ele>215.6</ele>
        <time>2023-09-03T11:08:45Z</time>
      </trkpt>
      <trkpt lat="46.67399" lon="5.55234">
        <ele>214.8</ele>
        <time>2023-09-03T11:08:46Z</time>
      </trkpt>
      <trkpt lat="46.674" lon="5.55229">
        <ele>214.4</ele>
        <time>2023-09-03T11:08:47Z</time>
      </trkpt>
      <trkpt lat="46.674" lon="5.55222">
        <ele>214.4</ele>
        <time>2023-09-03T11:08:48Z</time>
      </trkpt>
      <trkpt lat="46.674" lon="5.5522">
        <ele>214.4</ele>
        <time>2023-09-03T11:08:49Z</time>
      </trkpt>
      <trkpt lat="46.674" lon="5.55215">
        <ele>213.6</ele>
        <time>2023-09-03T11:08:50Z</time>
      </trkpt>
      <trkpt lat="46.67401" lon="5.55211">
        <ele>213.6</ele>
        <time>2023-09-03T11:08:51Z</time>
      </trkpt>
      <trkpt lat="46.67402" lon="5.55206">
        <ele>213.6</ele>
        <time>2023-09-03T11:08:52Z</time>
      </trkpt>
      <trkpt lat="46.67402" lon="5.55201">
        <ele>213.6</ele>
        <time>2023-09-03T11:08:53Z</time>
      </trkpt>
      <trkpt lat="46.67402" lon="5.55195">
        <ele>213.6</ele>
        <time>2023-09-03T11:08:54Z</time>
      </trkpt>
      <trkpt lat="46.67401" lon="5.55192">
        <ele>212.6</ele>
        <time>2023-09-03T11:08:55Z</time>
      </trkpt>
      <trkpt lat="46.67402" lon="5.55187">
        <ele>212</ele>
        <time>2023-09-03T11:08:56Z</time>
      </trkpt>
      <trkpt lat="46.67402" lon="5.55182">
        <ele>212</ele>
        <time>2023-09-03T11:08:57Z</time>
      </trkpt>
      <trkpt lat="46.67403" lon="5.55177">
        <ele>212</ele>
        <time>2023-09-03T11:08:58Z</time>
      </trkpt>
      <trkpt lat="46.67404" lon="5.55173">
        <ele>211.4</ele>
        <time>2023-09-03T11:08:59Z</time>
      </trkpt>
      <trkpt lat="46.67407" lon="5.55167">
        <ele>211.2</ele>
        <time>2023-09-03T11:09:00Z</time>
      </trkpt>
      <trkpt lat="46.67408" lon="5.55166">
        <ele>211.2</ele>
        <time>2023-09-03T11:09:01Z</time>
      </trkpt>
      <trkpt lat="46.67409" lon="5.55161">
        <ele>211.2</ele>
        <time>2023-09-03T11:09:02Z</time>
      </trkpt>
      <trkpt lat="46.6741" lon="5.55157">
        <ele>211.2</ele>
        <time>2023-09-03T11:09:03Z</time>
      </trkpt>
      <trkpt lat="46.67411" lon="5.55153">
        <ele>211.2</ele>
        <time>2023-09-03T11:09:04Z</time>
      </trkpt>
      <trkpt lat="46.67413" lon="5.55149">
        <ele>211</ele>
        <time>2023-09-03T11:09:05Z</time>
      </trkpt>
      <trkpt lat="46.67414" lon="5.55142">
        <ele>211</ele>
        <time>2023-09-03T11:09:06Z</time>
      </trkpt>
      <trkpt lat="46.67415" lon="5.55139">
        <ele>211</ele>
        <time>2023-09-03T11:09:07Z</time>
      </trkpt>
      <trkpt lat="46.67417" lon="5.55132">
        <ele>211.8</ele>
        <time>2023-09-03T11:09:08Z</time>
      </trkpt>
      <trkpt lat="46.67418" lon="5.55129">
        <ele>211.8</ele>
        <time>2023-09-03T11:09:09Z</time>
      </trkpt>
      <trkpt lat="46.67419" lon="5.55124">
        <ele>212</ele>
        <time>2023-09-03T11:09:10Z</time>
      </trkpt>
      <trkpt lat="46.67421" lon="5.55116">
        <ele>212</ele>
        <time>2023-09-03T11:09:11Z</time>
      </trkpt>
      <trkpt lat="46.67421" lon="5.55113">
        <ele>212</ele>
        <time>2023-09-03T11:09:12Z</time>
      </trkpt>
      <trkpt lat="46.67422" lon="5.55108">
        <ele>212.4</ele>
        <time>2023-09-03T11:09:13Z</time>
      </trkpt>
      <trkpt lat="46.67424" lon="5.55103">
        <ele>212.4</ele>
        <time>2023-09-03T11:09:14Z</time>
      </trkpt>
      <trkpt lat="46.67424" lon="5.55099">
        <ele>212.6</ele>
        <time>2023-09-03T11:09:15Z</time>
      </trkpt>
      <trkpt lat="46.67425" lon="5.55095">
        <ele>212.6</ele>
        <time>2023-09-03T11:09:16Z</time>
      </trkpt>
      <trkpt lat="46.67425" lon="5.55093">
        <ele>213.2</ele>
        <time>2023-09-03T11:09:17Z</time>
      </trkpt>
      <trkpt lat="46.67425" lon="5.55089">
        <ele>213.4</ele>
        <time>2023-09-03T11:09:18Z</time>
      </trkpt>
      <trkpt lat="46.67427" lon="5.55079">
        <ele>213.4</ele>
        <time>2023-09-03T11:09:19Z</time>
      </trkpt>
      <trkpt lat="46.67427" lon="5.55076">
        <ele>213.4</ele>
        <time>2023-09-03T11:09:20Z</time>
      </trkpt>
      <trkpt lat="46.67429" lon="5.55071">
        <ele>213.4</ele>
        <time>2023-09-03T11:09:21Z</time>
      </trkpt>
      <trkpt lat="46.6743" lon="5.55065">
        <ele>214</ele>
        <time>2023-09-03T11:09:22Z</time>
      </trkpt>
      <trkpt lat="46.67431" lon="5.55059">
        <ele>214.6</ele>
        <time>2023-09-03T11:09:23Z</time>
      </trkpt>
      <trkpt lat="46.67432" lon="5.55053">
        <ele>214.6</ele>
        <time>2023-09-03T11:09:24Z</time>
      </trkpt>
      <trkpt lat="46.67434" lon="5.55048">
        <ele>214.6</ele>
        <time>2023-09-03T11:09:25Z</time>
      </trkpt>
      <trkpt lat="46.67435" lon="5.55042">
        <ele>214.6</ele>
        <time>2023-09-03T11:09:26Z</time>
      </trkpt>
      <trkpt lat="46.67436" lon="5.55036">
        <ele>215.6</ele>
        <time>2023-09-03T11:09:27Z</time>
      </trkpt>
      <trkpt lat="46.67439" lon="5.55027">
        <ele>216</ele>
        <time>2023-09-03T11:09:28Z</time>
      </trkpt>
      <trkpt lat="46.67439" lon="5.55024">
        <ele>216</ele>
        <time>2023-09-03T11:09:29Z</time>
      </trkpt>
      <trkpt lat="46.67442" lon="5.55016">
        <ele>216</ele>
        <time>2023-09-03T11:09:30Z</time>
      </trkpt>
      <trkpt lat="46.67444" lon="5.55013">
        <ele>216</ele>
        <time>2023-09-03T11:09:31Z</time>
      </trkpt>
      <trkpt lat="46.67447" lon="5.55005">
        <ele>217</ele>
        <time>2023-09-03T11:09:32Z</time>
      </trkpt>
      <trkpt lat="46.67448" lon="5.55002">
        <ele>217.4</ele>
        <time>2023-09-03T11:09:33Z</time>
      </trkpt>
      <trkpt lat="46.6745" lon="5.54996">
        <ele>217.4</ele>
        <time>2023-09-03T11:09:34Z</time>
      </trkpt>
      <trkpt lat="46.67452" lon="5.54991">
        <ele>217.4</ele>
        <time>2023-09-03T11:09:35Z</time>
      </trkpt>
      <trkpt lat="46.67454" lon="5.54983">
        <ele>218.4</ele>
        <time>2023-09-03T11:09:36Z</time>
      </trkpt>
      <trkpt lat="46.67454" lon="5.5498">
        <ele>219.2</ele>
        <time>2023-09-03T11:09:37Z</time>
      </trkpt>
      <trkpt lat="46.67457" lon="5.54971">
        <ele>219.2</ele>
        <time>2023-09-03T11:09:38Z</time>
      </trkpt>
      <trkpt lat="46.67457" lon="5.54967">
        <ele>219.2</ele>
        <time>2023-09-03T11:09:39Z</time>
      </trkpt>
      <trkpt lat="46.67459" lon="5.54962">
        <ele>220.2</ele>
        <time>2023-09-03T11:09:40Z</time>
      </trkpt>
      <trkpt lat="46.6746" lon="5.54956">
        <ele>220.2</ele>
        <time>2023-09-03T11:09:41Z</time>
      </trkpt>
      <trkpt lat="46.67461" lon="5.5495">
        <ele>220.2</ele>
        <time>2023-09-03T11:09:42Z</time>
      </trkpt>
      <trkpt lat="46.67461" lon="5.54945">
        <ele>220.2</ele>
        <time>2023-09-03T11:09:43Z</time>
      </trkpt>
      <trkpt lat="46.67463" lon="5.54941">
        <ele>220.2</ele>
        <time>2023-09-03T11:09:44Z</time>
      </trkpt>
      <trkpt lat="46.67464" lon="5.54935">
        <ele>220.8</ele>
        <time>2023-09-03T11:09:45Z</time>
      </trkpt>
      <trkpt lat="46.67466" lon="5.54926">
        <ele>220.8</ele>
        <time>2023-09-03T11:09:46Z</time>
      </trkpt>
      <trkpt lat="46.67466" lon="5.54923">
        <ele>220.8</ele>
        <time>2023-09-03T11:09:47Z</time>
      </trkpt>
      <trkpt lat="46.67469" lon="5.54915">
        <ele>220.8</ele>
        <time>2023-09-03T11:09:48Z</time>
      </trkpt>
      <trkpt lat="46.67469" lon="5.54912">
        <ele>220.8</ele>
        <time>2023-09-03T11:09:49Z</time>
      </trkpt>
      <trkpt lat="46.67472" lon="5.54907">
        <ele>221</ele>
        <time>2023-09-03T11:09:50Z</time>
      </trkpt>
      <trkpt lat="46.67475" lon="5.54899">
        <ele>221.2</ele>
        <time>2023-09-03T11:09:51Z</time>
      </trkpt>
      <trkpt lat="46.67476" lon="5.54896">
        <ele>221.2</ele>
        <time>2023-09-03T11:09:52Z</time>
      </trkpt>
      <trkpt lat="46.67479" lon="5.54892">
        <ele>221.2</ele>
        <time>2023-09-03T11:09:53Z</time>
      </trkpt>
      <trkpt lat="46.6748" lon="5.5489">
        <ele>221.4</ele>
        <time>2023-09-03T11:09:54Z</time>
      </trkpt>
      <trkpt lat="46.67481" lon="5.54886">
        <ele>221.8</ele>
        <time>2023-09-03T11:09:55Z</time>
      </trkpt>
      <trkpt lat="46.67482" lon="5.54886">
        <ele>221.8</ele>
        <time>2023-09-03T11:09:56Z</time>
      </trkpt>
      <trkpt lat="46.67483" lon="5.54885">
        <ele>221.8</ele>
        <time>2023-09-03T11:09:57Z</time>
      </trkpt>
      <trkpt lat="46.67486" lon="5.54886">
        <ele>222.8</ele>
        <time>2023-09-03T11:09:58Z</time>
      </trkpt>
      <trkpt lat="46.67488" lon="5.54887">
        <ele>223.2</ele>
        <time>2023-09-03T11:09:59Z</time>
      </trkpt>
      <trkpt lat="46.67492" lon="5.54888">
        <ele>223.2</ele>
        <time>2023-09-03T11:10:00Z</time>
      </trkpt>
      <trkpt lat="46.67495" lon="5.54889">
        <ele>223.2</ele>
        <time>2023-09-03T11:10:01Z</time>
      </trkpt>
      <trkpt lat="46.67498" lon="5.5489">
        <ele>223.2</ele>
        <time>2023-09-03T11:10:02Z</time>
      </trkpt>
      <trkpt lat="46.67503" lon="5.54891">
        <ele>223.8</ele>
        <time>2023-09-03T11:10:03Z</time>
      </trkpt>
      <trkpt lat="46.67504" lon="5.54892">
        <ele>223.8</ele>
        <time>2023-09-03T11:10:04Z</time>
      </trkpt>
      <trkpt lat="46.67506" lon="5.54893">
        <ele>224.2</ele>
        <time>2023-09-03T11:10:05Z</time>
      </trkpt>
      <trkpt lat="46.67506" lon="5.54892">
        <ele>224.2</ele>
        <time>2023-09-03T11:10:06Z</time>
      </trkpt>
      <trkpt lat="46.67507" lon="5.54891">
        <ele>224.2</ele>
        <time>2023-09-03T11:10:07Z</time>
      </trkpt>
      <trkpt lat="46.67507" lon="5.54891">
        <ele>225</ele>
        <time>2023-09-03T11:10:08Z</time>
      </trkpt>
      <trkpt lat="46.67508" lon="5.5489">
        <ele>225.4</ele>
        <time>2023-09-03T11:10:09Z</time>
      </trkpt>
      <trkpt lat="46.67508" lon="5.54889">
        <ele>228.8</ele>
        <time>2023-09-03T11:10:24Z</time>
      </trkpt>
      <trkpt lat="46.67508" lon="5.54888">
        <ele>228.8</ele>
        <time>2023-09-03T11:10:25Z</time>
      </trkpt>
      <trkpt lat="46.67509" lon="5.54887">
        <ele>228.8</ele>
        <time>2023-09-03T11:10:26Z</time>
      </trkpt>
      <trkpt lat="46.67509" lon="5.54887">
        <ele>230.2</ele>
        <time>2023-09-03T11:10:27Z</time>
      </trkpt>
      <trkpt lat="46.6751" lon="5.54886">
        <ele>230.2</ele>
        <time>2023-09-03T11:10:28Z</time>
      </trkpt>
      <trkpt lat="46.6751" lon="5.54885">
        <ele>230.2</ele>
        <time>2023-09-03T11:10:29Z</time>
      </trkpt>
      <trkpt lat="46.67508" lon="5.54884">
        <ele>230.2</ele>
        <time>2023-09-03T11:10:30Z</time>
      </trkpt>
      <trkpt lat="46.67505" lon="5.54882">
        <ele>231.2</ele>
        <time>2023-09-03T11:10:31Z</time>
      </trkpt>
      <trkpt lat="46.67504" lon="5.54881">
        <ele>231.4</ele>
        <time>2023-09-03T11:10:32Z</time>
      </trkpt>
      <trkpt lat="46.67503" lon="5.5488">
        <ele>231.4</ele>
        <time>2023-09-03T11:10:33Z</time>
      </trkpt>
      <trkpt lat="46.675" lon="5.54879">
        <ele>231.4</ele>
        <time>2023-09-03T11:10:34Z</time>
      </trkpt>
      <trkpt lat="46.67499" lon="5.54879">
        <ele>232.2</ele>
        <time>2023-09-03T11:10:35Z</time>
      </trkpt>
      <trkpt lat="46.67496" lon="5.54879">
        <ele>232.2</ele>
        <time>2023-09-03T11:10:36Z</time>
      </trkpt>
      <trkpt lat="46.67495" lon="5.54878">
        <ele>232.2</ele>
        <time>2023-09-03T11:10:37Z</time>
      </trkpt>
      <trkpt lat="46.67493" lon="5.54878">
        <ele>232.2</ele>
        <time>2023-09-03T11:10:38Z</time>
      </trkpt>
      <trkpt lat="46.67491" lon="5.54878">
        <ele>232.2</ele>
        <time>2023-09-03T11:10:39Z</time>
      </trkpt>
      <trkpt lat="46.6749" lon="5.5488">
        <ele>233</ele>
        <time>2023-09-03T11:10:40Z</time>
      </trkpt>
      <trkpt lat="46.6749" lon="5.5488">
        <ele>233</ele>
        <time>2023-09-03T11:10:41Z</time>
      </trkpt>
      <trkpt lat="46.6748" lon="5.54881">
        <ele>234.6</ele>
        <time>2023-09-03T11:10:49Z</time>
      </trkpt>
      <trkpt lat="46.67479" lon="5.54883">
        <ele>234.6</ele>
        <time>2023-09-03T11:10:50Z</time>
      </trkpt>
      <trkpt lat="46.67477" lon="5.54885">
        <ele>234.6</ele>
        <time>2023-09-03T11:10:51Z</time>
      </trkpt>
      <trkpt lat="46.67476" lon="5.54888">
        <ele>234.6</ele>
        <time>2023-09-03T11:10:52Z</time>
      </trkpt>
      <trkpt lat="46.67476" lon="5.5489">
        <ele>235.4</ele>
        <time>2023-09-03T11:10:53Z</time>
      </trkpt>
      <trkpt lat="46.67474" lon="5.54895">
        <ele>235.8</ele>
        <time>2023-09-03T11:10:54Z</time>
      </trkpt>
      <trkpt lat="46.67474" lon="5.54897">
        <ele>235.8</ele>
        <time>2023-09-03T11:10:55Z</time>
      </trkpt>
      <trkpt lat="46.67472" lon="5.549">
        <ele>235.8</ele>
        <time>2023-09-03T11:10:56Z</time>
      </trkpt>
      <trkpt lat="46.6747" lon="5.54905">
        <ele>235.8</ele>
        <time>2023-09-03T11:10:57Z</time>
      </trkpt>
      <trkpt lat="46.6747" lon="5.54907">
        <ele>236.4</ele>
        <time>2023-09-03T11:10:58Z</time>
      </trkpt>
      <trkpt lat="46.67468" lon="5.5491">
        <ele>236.4</ele>
        <time>2023-09-03T11:10:59Z</time>
      </trkpt>
      <trkpt lat="46.67466" lon="5.54913">
        <ele>236.4</ele>
        <time>2023-09-03T11:11:00Z</time>
      </trkpt>
      <trkpt lat="46.67464" lon="5.54916">
        <ele>236.4</ele>
        <time>2023-09-03T11:11:01Z</time>
      </trkpt>
      <trkpt lat="46.67461" lon="5.54919">
        <ele>236.6</ele>
        <time>2023-09-03T11:11:02Z</time>
      </trkpt>
      <trkpt lat="46.6746" lon="5.5492">
        <ele>236.6</ele>
        <time>2023-09-03T11:11:03Z</time>
      </trkpt>
      <trkpt lat="46.67458" lon="5.54922">
        <ele>236.6</ele>
        <time>2023-09-03T11:11:04Z</time>
      </trkpt>
      <trkpt lat="46.67454" lon="5.54922">
        <ele>236.6</ele>
        <time>2023-09-03T11:11:05Z</time>
      </trkpt>
      <trkpt lat="46.67453" lon="5.54921">
        <ele>236.6</ele>
        <time>2023-09-03T11:11:06Z</time>
      </trkpt>
      <trkpt lat="46.6745" lon="5.5492">
        <ele>236.6</ele>
        <time>2023-09-03T11:11:07Z</time>
      </trkpt>
      <trkpt lat="46.67446" lon="5.54918">
        <ele>236.6</ele>
        <time>2023-09-03T11:11:08Z</time>
      </trkpt>
      <trkpt lat="46.67444" lon="5.54917">
        <ele>236.6</ele>
        <time>2023-09-03T11:11:09Z</time>
      </trkpt>
      <trkpt lat="46.67441" lon="5.54916">
        <ele>236.6</ele>
        <time>2023-09-03T11:11:10Z</time>
      </trkpt>
      <trkpt lat="46.67439" lon="5.54917">
        <ele>236.6</ele>
        <time>2023-09-03T11:11:11Z</time>
      </trkpt>
      <trkpt lat="46.67436" lon="5.5492">
        <ele>237</ele>
        <time>2023-09-03T11:11:12Z</time>
      </trkpt>
      <trkpt lat="46.67433" lon="5.54923">
        <ele>237</ele>
        <time>2023-09-03T11:11:13Z</time>
      </trkpt>
      <trkpt lat="46.6743" lon="5.54926">
        <ele>237</ele>
        <time>2023-09-03T11:11:14Z</time>
      </trkpt>
      <trkpt lat="46.67427" lon="5.54929">
        <ele>237</ele>
        <time>2023-09-03T11:11:15Z</time>
      </trkpt>
      <trkpt lat="46.67424" lon="5.54933">
        <ele>237</ele>
        <time>2023-09-03T11:11:16Z</time>
      </trkpt>
      <trkpt lat="46.6742" lon="5.54939">
        <ele>237</ele>
        <time>2023-09-03T11:11:17Z</time>
      </trkpt>
      <trkpt lat="46.67419" lon="5.54941">
        <ele>237</ele>
        <time>2023-09-03T11:11:18Z</time>
      </trkpt>
      <trkpt lat="46.67415" lon="5.54947">
        <ele>237</ele>
        <time>2023-09-03T11:11:19Z</time>
      </trkpt>
      <trkpt lat="46.67413" lon="5.54949">
        <ele>237</ele>
        <time>2023-09-03T11:11:20Z</time>
      </trkpt>
      <trkpt lat="46.67409" lon="5.54954">
        <ele>237</ele>
        <time>2023-09-03T11:11:21Z</time>
      </trkpt>
      <trkpt lat="46.67407" lon="5.54956">
        <ele>237</ele>
        <time>2023-09-03T11:11:22Z</time>
      </trkpt>
      <trkpt lat="46.67405" lon="5.5496">
        <ele>237</ele>
        <time>2023-09-03T11:11:23Z</time>
      </trkpt>
      <trkpt lat="46.67401" lon="5.54965">
        <ele>237</ele>
        <time>2023-09-03T11:11:24Z</time>
      </trkpt>
      <trkpt lat="46.674" lon="5.54967">
        <ele>236.6</ele>
        <time>2023-09-03T11:11:25Z</time>
      </trkpt>
      <trkpt lat="46.67397" lon="5.54969">
        <ele>236.6</ele>
        <time>2023-09-03T11:11:26Z</time>
      </trkpt>
      <trkpt lat="46.67393" lon="5.54973">
        <ele>236.6</ele>
        <time>2023-09-03T11:11:27Z</time>
      </trkpt>
      <trkpt lat="46.67392" lon="5.54974">
        <ele>236.6</ele>
        <time>2023-09-03T11:11:28Z</time>
      </trkpt>
      <trkpt lat="46.67389" lon="5.54979">
        <ele>236.6</ele>
        <time>2023-09-03T11:11:29Z</time>
      </trkpt>
      <trkpt lat="46.67388" lon="5.54981">
        <ele>236</ele>
        <time>2023-09-03T11:11:30Z</time>
      </trkpt>
      <trkpt lat="46.67385" lon="5.54986">
        <ele>236.2</ele>
        <time>2023-09-03T11:11:31Z</time>
      </trkpt>
      <trkpt lat="46.67384" lon="5.54987">
        <ele>236.2</ele>
        <time>2023-09-03T11:11:32Z</time>
      </trkpt>
      <trkpt lat="46.67381" lon="5.54992">
        <ele>236.2</ele>
        <time>2023-09-03T11:11:33Z</time>
      </trkpt>
      <trkpt lat="46.6738" lon="5.54994">
        <ele>236.2</ele>
        <time>2023-09-03T11:11:34Z</time>
      </trkpt>
      <trkpt lat="46.67377" lon="5.55">
        <ele>236.2</ele>
        <time>2023-09-03T11:11:35Z</time>
      </trkpt>
      <trkpt lat="46.67376" lon="5.55002">
        <ele>236</ele>
        <time>2023-09-03T11:11:36Z</time>
      </trkpt>
      <trkpt lat="46.67374" lon="5.55007">
        <ele>236</ele>
        <time>2023-09-03T11:11:37Z</time>
      </trkpt>
      <trkpt lat="46.67372" lon="5.55011">
        <ele>236</ele>
        <time>2023-09-03T11:11:38Z</time>
      </trkpt>
      <trkpt lat="46.67368" lon="5.55017">
        <ele>236</ele>
        <time>2023-09-03T11:11:39Z</time>
      </trkpt>
      <trkpt lat="46.67367" lon="5.55019">
        <ele>236</ele>
        <time>2023-09-03T11:11:40Z</time>
      </trkpt>
      <trkpt lat="46.67365" lon="5.55023">
        <ele>236</ele>
        <time>2023-09-03T11:11:41Z</time>
      </trkpt>
      <trkpt lat="46.67362" lon="5.5503">
        <ele>236</ele>
        <time>2023-09-03T11:11:42Z</time>
      </trkpt>
      <trkpt lat="46.67361" lon="5.55032">
        <ele>236</ele>
        <time>2023-09-03T11:11:43Z</time>
      </trkpt>
      <trkpt lat="46.67358" lon="5.55038">
        <ele>236</ele>
        <time>2023-09-03T11:11:44Z</time>
      </trkpt>
      <trkpt lat="46.67357" lon="5.5504">
        <ele>236.2</ele>
        <time>2023-09-03T11:11:45Z</time>
      </trkpt>
      <trkpt lat="46.67354" lon="5.55044">
        <ele>236.2</ele>
        <time>2023-09-03T11:11:46Z</time>
      </trkpt>
      <trkpt lat="46.67351" lon="5.5505">
        <ele>236.2</ele>
        <time>2023-09-03T11:11:47Z</time>
      </trkpt>
      <trkpt lat="46.6735" lon="5.55053">
        <ele>236.2</ele>
        <time>2023-09-03T11:11:48Z</time>
      </trkpt>
      <trkpt lat="46.67347" lon="5.55059">
        <ele>236.2</ele>
        <time>2023-09-03T11:11:49Z</time>
      </trkpt>
      <trkpt lat="46.67346" lon="5.55061">
        <ele>236.2</ele>
        <time>2023-09-03T11:11:50Z</time>
      </trkpt>
      <trkpt lat="46.67343" lon="5.55065">
        <ele>236.2</ele>
        <time>2023-09-03T11:11:51Z</time>
      </trkpt>
      <trkpt lat="46.67341" lon="5.55069">
        <ele>236.6</ele>
        <time>2023-09-03T11:11:52Z</time>
      </trkpt>
      <trkpt lat="46.67339" lon="5.55072">
        <ele>237</ele>
        <time>2023-09-03T11:11:53Z</time>
      </trkpt>
      <trkpt lat="46.67337" lon="5.55077">
        <ele>237</ele>
        <time>2023-09-03T11:11:54Z</time>
      </trkpt>
      <trkpt lat="46.67335" lon="5.55081">
        <ele>237</ele>
        <time>2023-09-03T11:11:55Z</time>
      </trkpt>
      <trkpt lat="46.67333" lon="5.55085">
        <ele>237</ele>
        <time>2023-09-03T11:11:56Z</time>
      </trkpt>
      <trkpt lat="46.6733" lon="5.55092">
        <ele>237</ele>
        <time>2023-09-03T11:11:57Z</time>
      </trkpt>
      <trkpt lat="46.67329" lon="5.55095">
        <ele>237.4</ele>
        <time>2023-09-03T11:11:58Z</time>
      </trkpt>
      <trkpt lat="46.67327" lon="5.55099">
        <ele>237.4</ele>
        <time>2023-09-03T11:11:59Z</time>
      </trkpt>
      <trkpt lat="46.67325" lon="5.55105">
        <ele>237.4</ele>
        <time>2023-09-03T11:12:00Z</time>
      </trkpt>
      <trkpt lat="46.67324" lon="5.55107">
        <ele>237</ele>
        <time>2023-09-03T11:12:01Z</time>
      </trkpt>
      <trkpt lat="46.67321" lon="5.55112">
        <ele>237</ele>
        <time>2023-09-03T11:12:02Z</time>
      </trkpt>
      <trkpt lat="46.6732" lon="5.55113">
        <ele>237</ele>
        <time>2023-09-03T11:12:03Z</time>
      </trkpt>
      <trkpt lat="46.67318" lon="5.55116">
        <ele>237</ele>
        <time>2023-09-03T11:12:04Z</time>
      </trkpt>
      <trkpt lat="46.67317" lon="5.55117">
        <ele>237</ele>
        <time>2023-09-03T11:12:05Z</time>
      </trkpt>
      <trkpt lat="46.67317" lon="5.55119">
        <ele>237</ele>
        <time>2023-09-03T11:12:06Z</time>
      </trkpt>
      <trkpt lat="46.67317" lon="5.55122">
        <ele>237</ele>
        <time>2023-09-03T11:12:07Z</time>
      </trkpt>
      <trkpt lat="46.67319" lon="5.55126">
        <ele>237</ele>
        <time>2023-09-03T11:12:08Z</time>
      </trkpt>
      <trkpt lat="46.67319" lon="5.55127">
        <ele>237</ele>
        <time>2023-09-03T11:12:09Z</time>
      </trkpt>
      <trkpt lat="46.67322" lon="5.55129">
        <ele>236.8</ele>
        <time>2023-09-03T11:12:10Z</time>
      </trkpt>
      <trkpt lat="46.67323" lon="5.55129">
        <ele>236.8</ele>
        <time>2023-09-03T11:12:11Z</time>
      </trkpt>
      <trkpt lat="46.67327" lon="5.55131">
        <ele>237</ele>
        <time>2023-09-03T11:12:12Z</time>
      </trkpt>
      <trkpt lat="46.67328" lon="5.55132">
        <ele>237</ele>
        <time>2023-09-03T11:12:13Z</time>
      </trkpt>
      <trkpt lat="46.67331" lon="5.55134">
        <ele>237</ele>
        <time>2023-09-03T11:12:14Z</time>
      </trkpt>
      <trkpt lat="46.67333" lon="5.55136">
        <ele>237</ele>
        <time>2023-09-03T11:12:15Z</time>
      </trkpt>
      <trkpt lat="46.67335" lon="5.55138">
        <ele>237.4</ele>
        <time>2023-09-03T11:12:16Z</time>
      </trkpt>
      <trkpt lat="46.67336" lon="5.55139">
        <ele>237.4</ele>
        <time>2023-09-03T11:12:17Z</time>
      </trkpt>
      <trkpt lat="46.67338" lon="5.5514">
        <ele>237.4</ele>
        <time>2023-09-03T11:12:18Z</time>
      </trkpt>
      <trkpt lat="46.67338" lon="5.55141">
        <ele>238.2</ele>
        <time>2023-09-03T11:12:19Z</time>
      </trkpt>
      <trkpt lat="46.67338" lon="5.55141">
        <ele>238.4</ele>
        <time>2023-09-03T11:12:20Z</time>
      </trkpt>
      <trkpt lat="46.67338" lon="5.55141">
        <ele>238.4</ele>
        <time>2023-09-03T11:12:21Z</time>
      </trkpt>
      <trkpt lat="46.6734" lon="5.55142">
        <ele>240.2</ele>
        <time>2023-09-03T11:12:33Z</time>
      </trkpt>
      <trkpt lat="46.67341" lon="5.55143">
        <ele>240.4</ele>
        <time>2023-09-03T11:12:34Z</time>
      </trkpt>
      <trkpt lat="46.67342" lon="5.55144">
        <ele>240.4</ele>
        <time>2023-09-03T11:12:35Z</time>
      </trkpt>
      <trkpt lat="46.67343" lon="5.55146">
        <ele>240.4</ele>
        <time>2023-09-03T11:12:36Z</time>
      </trkpt>
      <trkpt lat="46.67345" lon="5.55149">
        <ele>241</ele>
        <time>2023-09-03T11:12:37Z</time>
      </trkpt>
      <trkpt lat="46.67346" lon="5.5515">
        <ele>241</ele>
        <time>2023-09-03T11:12:38Z</time>
      </trkpt>
      <trkpt lat="46.67349" lon="5.55153">
        <ele>241.2</ele>
        <time>2023-09-03T11:12:39Z</time>
      </trkpt>
      <trkpt lat="46.6735" lon="5.55154">
        <ele>241.2</ele>
        <time>2023-09-03T11:12:40Z</time>
      </trkpt>
      <trkpt lat="46.67352" lon="5.55157">
        <ele>241.2</ele>
        <time>2023-09-03T11:12:41Z</time>
      </trkpt>
      <trkpt lat="46.67353" lon="5.55158">
        <ele>241.8</ele>
        <time>2023-09-03T11:12:42Z</time>
      </trkpt>
      <trkpt lat="46.67355" lon="5.5516">
        <ele>242.2</ele>
        <time>2023-09-03T11:12:43Z</time>
      </trkpt>
      <trkpt lat="46.67358" lon="5.55164">
        <ele>242.2</ele>
        <time>2023-09-03T11:12:44Z</time>
      </trkpt>
      <trkpt lat="46.67359" lon="5.55165">
        <ele>242.2</ele>
        <time>2023-09-03T11:12:45Z</time>
      </trkpt>
      <trkpt lat="46.67362" lon="5.55168">
        <ele>242.8</ele>
        <time>2023-09-03T11:12:46Z</time>
      </trkpt>
      <trkpt lat="46.67363" lon="5.5517">
        <ele>243.2</ele>
        <time>2023-09-03T11:12:47Z</time>
      </trkpt>
      <trkpt lat="46.67366" lon="5.55172">
        <ele>243.2</ele>
        <time>2023-09-03T11:12:48Z</time>
      </trkpt>
      <trkpt lat="46.67368" lon="5.55174">
        <ele>243.2</ele>
        <time>2023-09-03T11:12:49Z</time>
      </trkpt>
      <trkpt lat="46.67371" lon="5.55176">
        <ele>243.2</ele>
        <time>2023-09-03T11:12:50Z</time>
      </trkpt>
      <trkpt lat="46.67373" lon="5.55177">
        <ele>243.6</ele>
        <time>2023-09-03T11:12:51Z</time>
      </trkpt>
      <trkpt lat="46.67374" lon="5.55177">
        <ele>243.8</ele>
        <time>2023-09-03T11:12:52Z</time>
      </trkpt>
      <trkpt lat="46.67374" lon="5.55177">
        <ele>243.8</ele>
        <time>2023-09-03T11:12:53Z</time>
      </trkpt>
      <trkpt lat="46.67373" lon="5.55176">
        <ele>243.8</ele>
        <time>2023-09-03T11:12:54Z</time>
      </trkpt>
      <trkpt lat="46.67373" lon="5.55176">
        <ele>243.8</ele>
        <time>2023-09-03T11:12:55Z</time>
      </trkpt>
      <trkpt lat="46.67369" lon="5.55178">
        <ele>231.2</ele>
        <time>2023-09-03T11:13:43Z</time>
      </trkpt>
      <trkpt lat="46.6737" lon="5.5518">
        <ele>231.2</ele>
        <time>2023-09-03T11:13:44Z</time>
      </trkpt>
      <trkpt lat="46.67371" lon="5.55182">
        <ele>231.2</ele>
        <time>2023-09-03T11:13:45Z</time>
      </trkpt>
      <trkpt lat="46.67372" lon="5.55184">
        <ele>230.2</ele>
        <time>2023-09-03T11:13:46Z</time>
      </trkpt>
      <trkpt lat="46.67374" lon="5.55187">
        <ele>229.8</ele>
        <time>2023-09-03T11:13:47Z</time>
      </trkpt>
      <trkpt lat="46.67375" lon="5.55188">
        <ele>229.8</ele>
        <time>2023-09-03T11:13:48Z</time>
      </trkpt>
      <trkpt lat="46.67377" lon="5.55191">
        <ele>229.8</ele>
        <time>2023-09-03T11:13:49Z</time>
      </trkpt>
      <trkpt lat="46.67379" lon="5.55193">
        <ele>229.4</ele>
        <time>2023-09-03T11:13:50Z</time>
      </trkpt>
      <trkpt lat="46.67381" lon="5.55195">
        <ele>229.2</ele>
        <time>2023-09-03T11:13:51Z</time>
      </trkpt>
      <trkpt lat="46.67384" lon="5.55198">
        <ele>229.2</ele>
        <time>2023-09-03T11:13:52Z</time>
      </trkpt>
      <trkpt lat="46.67384" lon="5.55199">
        <ele>229.2</ele>
        <time>2023-09-03T11:13:53Z</time>
      </trkpt>
      <trkpt lat="46.67386" lon="5.55203">
        <ele>229.2</ele>
        <time>2023-09-03T11:13:54Z</time>
      </trkpt>
      <trkpt lat="46.67386" lon="5.55205">
        <ele>229.2</ele>
        <time>2023-09-03T11:13:55Z</time>
      </trkpt>
      <trkpt lat="46.67386" lon="5.55208">
        <ele>229.4</ele>
        <time>2023-09-03T11:13:56Z</time>
      </trkpt>
      <trkpt lat="46.67386" lon="5.5521">
        <ele>229.4</ele>
        <time>2023-09-03T11:13:57Z</time>
      </trkpt>
      <trkpt lat="46.67385" lon="5.55212">
        <ele>229.4</ele>
        <time>2023-09-03T11:13:58Z</time>
      </trkpt>
      <trkpt lat="46.67385" lon="5.55215">
        <ele>229.4</ele>
        <time>2023-09-03T11:13:59Z</time>
      </trkpt>
      <trkpt lat="46.67387" lon="5.55218">
        <ele>229.2</ele>
        <time>2023-09-03T11:14:00Z</time>
      </trkpt>
      <trkpt lat="46.67388" lon="5.55224">
        <ele>229</ele>
        <time>2023-09-03T11:14:01Z</time>
      </trkpt>
      <trkpt lat="46.67388" lon="5.55226">
        <ele>229</ele>
        <time>2023-09-03T11:14:02Z</time>
      </trkpt>
      <trkpt lat="46.67387" lon="5.55231">
        <ele>229</ele>
        <time>2023-09-03T11:14:03Z</time>
      </trkpt>
      <trkpt lat="46.67385" lon="5.55235">
        <ele>229</ele>
        <time>2023-09-03T11:14:04Z</time>
      </trkpt>
      <trkpt lat="46.67384" lon="5.5524">
        <ele>228.8</ele>
        <time>2023-09-03T11:14:05Z</time>
      </trkpt>
      <trkpt lat="46.67384" lon="5.55242">
        <ele>228.6</ele>
        <time>2023-09-03T11:14:06Z</time>
      </trkpt>
      <trkpt lat="46.67382" lon="5.55249">
        <ele>228.6</ele>
        <time>2023-09-03T11:14:07Z</time>
      </trkpt>
      <trkpt lat="46.67382" lon="5.55251">
        <ele>228.6</ele>
        <time>2023-09-03T11:14:08Z</time>
      </trkpt>
      <trkpt lat="46.67382" lon="5.55256">
        <ele>227.6</ele>
        <time>2023-09-03T11:14:09Z</time>
      </trkpt>
      <trkpt lat="46.67381" lon="5.55261">
        <ele>228</ele>
        <time>2023-09-03T11:14:10Z</time>
      </trkpt>
      <trkpt lat="46.6738" lon="5.55265">
        <ele>228</ele>
        <time>2023-09-03T11:14:11Z</time>
      </trkpt>
      <trkpt lat="46.67379" lon="5.55271">
        <ele>228</ele>
        <time>2023-09-03T11:14:12Z</time>
      </trkpt>
      <trkpt lat="46.67378" lon="5.55273">
        <ele>228</ele>
        <time>2023-09-03T11:14:13Z</time>
      </trkpt>
      <trkpt lat="46.67377" lon="5.55277">
        <ele>228.2</ele>
        <time>2023-09-03T11:14:14Z</time>
      </trkpt>
      <trkpt lat="46.67376" lon="5.55281">
        <ele>228</ele>
        <time>2023-09-03T11:14:15Z</time>
      </trkpt>
      <trkpt lat="46.67375" lon="5.55286">
        <ele>228</ele>
        <time>2023-09-03T11:14:16Z</time>
      </trkpt>
      <trkpt lat="46.67374" lon="5.55288">
        <ele>228</ele>
        <time>2023-09-03T11:14:17Z</time>
      </trkpt>
      <trkpt lat="46.67373" lon="5.55291">
        <ele>228</ele>
        <time>2023-09-03T11:14:18Z</time>
      </trkpt>
      <trkpt lat="46.67372" lon="5.55293">
        <ele>228.8</ele>
        <time>2023-09-03T11:14:19Z</time>
      </trkpt>
      <trkpt lat="46.67371" lon="5.55296">
        <ele>229</ele>
        <time>2023-09-03T11:14:23Z</time>
      </trkpt>
      <trkpt lat="46.67371" lon="5.55298">
        <ele>229.4</ele>
        <time>2023-09-03T11:14:24Z</time>
      </trkpt>
      <trkpt lat="46.6737" lon="5.55301">
        <ele>229.4</ele>
        <time>2023-09-03T11:14:25Z</time>
      </trkpt>
      <trkpt lat="46.67368" lon="5.55304">
        <ele>229.4</ele>
        <time>2023-09-03T11:14:26Z</time>
      </trkpt>
      <trkpt lat="46.67367" lon="5.55307">
        <ele>229.4</ele>
        <time>2023-09-03T11:14:27Z</time>
      </trkpt>
      <trkpt lat="46.67365" lon="5.55311">
        <ele>229.8</ele>
        <time>2023-09-03T11:14:28Z</time>
      </trkpt>
      <trkpt lat="46.67364" lon="5.55314">
        <ele>229.8</ele>
        <time>2023-09-03T11:14:29Z</time>
      </trkpt>
      <trkpt lat="46.67362" lon="5.55318">
        <ele>229.8</ele>
        <time>2023-09-03T11:14:30Z</time>
      </trkpt>
      <trkpt lat="46.67361" lon="5.55322">
        <ele>229.8</ele>
        <time>2023-09-03T11:14:31Z</time>
      </trkpt>
      <trkpt lat="46.6736" lon="5.55325">
        <ele>230.4</ele>
        <time>2023-09-03T11:14:32Z</time>
      </trkpt>
      <trkpt lat="46.67358" lon="5.55331">
        <ele>230.8</ele>
        <time>2023-09-03T11:14:33Z</time>
      </trkpt>
      <trkpt lat="46.67357" lon="5.55333">
        <ele>230.8</ele>
        <time>2023-09-03T11:14:34Z</time>
      </trkpt>
      <trkpt lat="46.67354" lon="5.55338">
        <ele>230.8</ele>
        <time>2023-09-03T11:14:35Z</time>
      </trkpt>
      <trkpt lat="46.67354" lon="5.5534">
        <ele>231.6</ele>
        <time>2023-09-03T11:14:36Z</time>
      </trkpt>
      <trkpt lat="46.67353" lon="5.55346">
        <ele>231.4</ele>
        <time>2023-09-03T11:14:37Z</time>
      </trkpt>
      <trkpt lat="46.67353" lon="5.55347">
        <ele>231.4</ele>
        <time>2023-09-03T11:14:38Z</time>
      </trkpt>
      <trkpt lat="46.67351" lon="5.55351">
        <ele>231.4</ele>
        <time>2023-09-03T11:14:39Z</time>
      </trkpt>
      <trkpt lat="46.67351" lon="5.55353">
        <ele>231.4</ele>
        <time>2023-09-03T11:14:40Z</time>
      </trkpt>
      <trkpt lat="46.6735" lon="5.55357">
        <ele>232.4</ele>
        <time>2023-09-03T11:14:41Z</time>
      </trkpt>
      <trkpt lat="46.6735" lon="5.55359">
        <ele>232.4</ele>
        <time>2023-09-03T11:14:42Z</time>
      </trkpt>
      <trkpt lat="46.67347" lon="5.55363">
        <ele>232.4</ele>
        <time>2023-09-03T11:14:43Z</time>
      </trkpt>
      <trkpt lat="46.67347" lon="5.55364">
        <ele>232.4</ele>
        <time>2023-09-03T11:14:44Z</time>
      </trkpt>
      <trkpt lat="46.67345" lon="5.55368">
        <ele>232.4</ele>
        <time>2023-09-03T11:14:45Z</time>
      </trkpt>
      <trkpt lat="46.67344" lon="5.55369">
        <ele>232.8</ele>
        <time>2023-09-03T11:14:46Z</time>
      </trkpt>
      <trkpt lat="46.67342" lon="5.55371">
        <ele>232.8</ele>
        <time>2023-09-03T11:14:47Z</time>
      </trkpt>
      <trkpt lat="46.67341" lon="5.55374">
        <ele>232.8</ele>
        <time>2023-09-03T11:14:48Z</time>
      </trkpt>
      <trkpt lat="46.67339" lon="5.55378">
        <ele>232.8</ele>
        <time>2023-09-03T11:14:49Z</time>
      </trkpt>
      <trkpt lat="46.67338" lon="5.55383">
        <ele>232.2</ele>
        <time>2023-09-03T11:14:50Z</time>
      </trkpt>
      <trkpt lat="46.67337" lon="5.55385">
        <ele>232.2</ele>
        <time>2023-09-03T11:14:51Z</time>
      </trkpt>
      <trkpt lat="46.67336" lon="5.55388">
        <ele>232.2</ele>
        <time>2023-09-03T11:14:52Z</time>
      </trkpt>
      <trkpt lat="46.67335" lon="5.55394">
        <ele>232.2</ele>
        <time>2023-09-03T11:14:53Z</time>
      </trkpt>
      <trkpt lat="46.67334" lon="5.55395">
        <ele>232.2</ele>
        <time>2023-09-03T11:14:54Z</time>
      </trkpt>
      <trkpt lat="46.67334" lon="5.55398">
        <ele>231.8</ele>
        <time>2023-09-03T11:14:55Z</time>
      </trkpt>
      <trkpt lat="46.67333" lon="5.55401">
        <ele>231.4</ele>
        <time>2023-09-03T11:14:56Z</time>
      </trkpt>
      <trkpt lat="46.67333" lon="5.55402">
        <ele>231.4</ele>
        <time>2023-09-03T11:14:57Z</time>
      </trkpt>
      <trkpt lat="46.67332" lon="5.55404">
        <ele>231.4</ele>
        <time>2023-09-03T11:14:58Z</time>
      </trkpt>
      <trkpt lat="46.67332" lon="5.55406">
        <ele>231.2</ele>
        <time>2023-09-03T11:14:59Z</time>
      </trkpt>
      <trkpt lat="46.67332" lon="5.55407">
        <ele>231</ele>
        <time>2023-09-03T11:15:00Z</time>
      </trkpt>
      <trkpt lat="46.67332" lon="5.55407">
        <ele>231</ele>
        <time>2023-09-03T11:15:01Z</time>
      </trkpt>
      <trkpt lat="46.67332" lon="5.55407">
        <ele>231</ele>
        <time>2023-09-03T11:15:02Z</time>
      </trkpt>
      <trkpt lat="46.67332" lon="5.55407">
        <ele>230.8</ele>
        <time>2023-09-03T11:15:03Z</time>
      </trkpt>
      <trkpt lat="46.67331" lon="5.55409">
        <ele>230.6</ele>
        <time>2023-09-03T11:15:08Z</time>
      </trkpt>
      <trkpt lat="46.6733" lon="5.55411">
        <ele>230.4</ele>
        <time>2023-09-03T11:15:09Z</time>
      </trkpt>
      <trkpt lat="46.6733" lon="5.55414">
        <ele>230.4</ele>
        <time>2023-09-03T11:15:10Z</time>
      </trkpt>
      <trkpt lat="46.67329" lon="5.55417">
        <ele>230.4</ele>
        <time>2023-09-03T11:15:11Z</time>
      </trkpt>
      <trkpt lat="46.67328" lon="5.5542">
        <ele>230.4</ele>
        <time>2023-09-03T11:15:12Z</time>
      </trkpt>
      <trkpt lat="46.67327" lon="5.55424">
        <ele>230.4</ele>
        <time>2023-09-03T11:15:13Z</time>
      </trkpt>
      <trkpt lat="46.67327" lon="5.55429">
        <ele>230.4</ele>
        <time>2023-09-03T11:15:14Z</time>
      </trkpt>
      <trkpt lat="46.67327" lon="5.55431">
        <ele>230.4</ele>
        <time>2023-09-03T11:15:15Z</time>
      </trkpt>
      <trkpt lat="46.67326" lon="5.55435">
        <ele>230.4</ele>
        <time>2023-09-03T11:15:16Z</time>
      </trkpt>
      <trkpt lat="46.67326" lon="5.5544">
        <ele>230.4</ele>
        <time>2023-09-03T11:15:17Z</time>
      </trkpt>
      <trkpt lat="46.67326" lon="5.55442">
        <ele>230.4</ele>
        <time>2023-09-03T11:15:18Z</time>
      </trkpt>
      <trkpt lat="46.67326" lon="5.55445">
        <ele>230.6</ele>
        <time>2023-09-03T11:15:19Z</time>
      </trkpt>
      <trkpt lat="46.67327" lon="5.55451">
        <ele>230.6</ele>
        <time>2023-09-03T11:15:20Z</time>
      </trkpt>
      <trkpt lat="46.67327" lon="5.55453">
        <ele>230.6</ele>
        <time>2023-09-03T11:15:21Z</time>
      </trkpt>
      <trkpt lat="46.67327" lon="5.55455">
        <ele>230.6</ele>
        <time>2023-09-03T11:15:22Z</time>
      </trkpt>
      <trkpt lat="46.67326" lon="5.55459">
        <ele>230.8</ele>
        <time>2023-09-03T11:15:23Z</time>
      </trkpt>
      <trkpt lat="46.67327" lon="5.5546">
        <ele>230.8</ele>
        <time>2023-09-03T11:15:24Z</time>
      </trkpt>
      <trkpt lat="46.67326" lon="5.55465">
        <ele>230.8</ele>
        <time>2023-09-03T11:15:25Z</time>
      </trkpt>
      <trkpt lat="46.67327" lon="5.55467">
        <ele>230.8</ele>
        <time>2023-09-03T11:15:26Z</time>
      </trkpt>
      <trkpt lat="46.67328" lon="5.55472">
        <ele>231</ele>
        <time>2023-09-03T11:15:27Z</time>
      </trkpt>
      <trkpt lat="46.67329" lon="5.55473">
        <ele>231</ele>
        <time>2023-09-03T11:15:28Z</time>
      </trkpt>
      <trkpt lat="46.6733" lon="5.55476">
        <ele>231</ele>
        <time>2023-09-03T11:15:29Z</time>
      </trkpt>
      <trkpt lat="46.67332" lon="5.55478">
        <ele>231</ele>
        <time>2023-09-03T11:15:30Z</time>
      </trkpt>
      <trkpt lat="46.67332" lon="5.5548">
        <ele>231.6</ele>
        <time>2023-09-03T11:15:31Z</time>
      </trkpt>
      <trkpt lat="46.67333" lon="5.55482">
        <ele>231.2</ele>
        <time>2023-09-03T11:15:32Z</time>
      </trkpt>
      <trkpt lat="46.67333" lon="5.55484">
        <ele>231.2</ele>
        <time>2023-09-03T11:15:33Z</time>
      </trkpt>
      <trkpt lat="46.67334" lon="5.55486">
        <ele>231.2</ele>
        <time>2023-09-03T11:15:34Z</time>
      </trkpt>
      <trkpt lat="46.67335" lon="5.55488">
        <ele>231.2</ele>
        <time>2023-09-03T11:15:35Z</time>
      </trkpt>
      <trkpt lat="46.67336" lon="5.55488">
        <ele>231.2</ele>
        <time>2023-09-03T11:15:36Z</time>
      </trkpt>
      <trkpt lat="46.67338" lon="5.55488">
        <ele>231.8</ele>
        <time>2023-09-03T11:15:37Z</time>
      </trkpt>
      <trkpt lat="46.67339" lon="5.55488">
        <ele>231.8</ele>
        <time>2023-09-03T11:15:38Z</time>
      </trkpt>
      <trkpt lat="46.6734" lon="5.55488">
        <ele>231.8</ele>
        <time>2023-09-03T11:15:39Z</time>
      </trkpt>
      <trkpt lat="46.67341" lon="5.55489">
        <ele>232.6</ele>
        <time>2023-09-03T11:15:40Z</time>
      </trkpt>
      <trkpt lat="46.67343" lon="5.5549">
        <ele>232.8</ele>
        <time>2023-09-03T11:15:41Z</time>
      </trkpt>
      <trkpt lat="46.67344" lon="5.55491">
        <ele>232.8</ele>
        <time>2023-09-03T11:15:42Z</time>
      </trkpt>
      <trkpt lat="46.67345" lon="5.55492">
        <ele>232.8</ele>
        <time>2023-09-03T11:15:43Z</time>
      </trkpt>
      <trkpt lat="46.67347" lon="5.55492">
        <ele>232.8</ele>
        <time>2023-09-03T11:15:44Z</time>
      </trkpt>
      <trkpt lat="46.67348" lon="5.55491">
        <ele>233.4</ele>
        <time>2023-09-03T11:15:45Z</time>
      </trkpt>
      <trkpt lat="46.6735" lon="5.5549">
        <ele>233.8</ele>
        <time>2023-09-03T11:15:46Z</time>
      </trkpt>
      <trkpt lat="46.67352" lon="5.55489">
        <ele>233.8</ele>
        <time>2023-09-03T11:15:47Z</time>
      </trkpt>
      <trkpt lat="46.67353" lon="5.55488">
        <ele>233.8</ele>
        <time>2023-09-03T11:15:48Z</time>
      </trkpt>
      <trkpt lat="46.67356" lon="5.55486">
        <ele>234.4</ele>
        <time>2023-09-03T11:15:49Z</time>
      </trkpt>
      <trkpt lat="46.67357" lon="5.55485">
        <ele>234.6</ele>
        <time>2023-09-03T11:15:50Z</time>
      </trkpt>
      <trkpt lat="46.67358" lon="5.55483">
        <ele>234.6</ele>
        <time>2023-09-03T11:15:51Z</time>
      </trkpt>
      <trkpt lat="46.67359" lon="5.55482">
        <ele>234.6</ele>
        <time>2023-09-03T11:15:52Z</time>
      </trkpt>
      <trkpt lat="46.6736" lon="5.55478">
        <ele>234.6</ele>
        <time>2023-09-03T11:15:53Z</time>
      </trkpt>
      <trkpt lat="46.6736" lon="5.55477">
        <ele>234.4</ele>
        <time>2023-09-03T11:15:54Z</time>
      </trkpt>
      <trkpt lat="46.6736" lon="5.55472">
        <ele>234.4</ele>
        <time>2023-09-03T11:15:55Z</time>
      </trkpt>
      <trkpt lat="46.67361" lon="5.55471">
        <ele>234.4</ele>
        <time>2023-09-03T11:15:56Z</time>
      </trkpt>
      <trkpt lat="46.67362" lon="5.55468">
        <ele>234.4</ele>
        <time>2023-09-03T11:15:57Z</time>
      </trkpt>
      <trkpt lat="46.67363" lon="5.55465">
        <ele>234.4</ele>
        <time>2023-09-03T11:15:58Z</time>
      </trkpt>
      <trkpt lat="46.67363" lon="5.5546">
        <ele>234.6</ele>
        <time>2023-09-03T11:15:59Z</time>
      </trkpt>
      <trkpt lat="46.67364" lon="5.55459">
        <ele>234.6</ele>
        <time>2023-09-03T11:16:00Z</time>
      </trkpt>
      <trkpt lat="46.67365" lon="5.55454">
        <ele>234.6</ele>
        <time>2023-09-03T11:16:01Z</time>
      </trkpt>
      <trkpt lat="46.67365" lon="5.55452">
        <ele>235.4</ele>
        <time>2023-09-03T11:16:02Z</time>
      </trkpt>
      <trkpt lat="46.67366" lon="5.55449">
        <ele>235.4</ele>
        <time>2023-09-03T11:16:03Z</time>
      </trkpt>
      <trkpt lat="46.67367" lon="5.55446">
        <ele>235.4</ele>
        <time>2023-09-03T11:16:04Z</time>
      </trkpt>
      <trkpt lat="46.67368" lon="5.55443">
        <ele>235.4</ele>
        <time>2023-09-03T11:16:05Z</time>
      </trkpt>
      <trkpt lat="46.67369" lon="5.55438">
        <ele>235.4</ele>
        <time>2023-09-03T11:16:06Z</time>
      </trkpt>
      <trkpt lat="46.67369" lon="5.55437">
        <ele>236.2</ele>
        <time>2023-09-03T11:16:07Z</time>
      </trkpt>
      <trkpt lat="46.6737" lon="5.55433">
        <ele>236.2</ele>
        <time>2023-09-03T11:16:08Z</time>
      </trkpt>
      <trkpt lat="46.67371" lon="5.55431">
        <ele>236.6</ele>
        <time>2023-09-03T11:16:09Z</time>
      </trkpt>
      <trkpt lat="46.67372" lon="5.55428">
        <ele>236.6</ele>
        <time>2023-09-03T11:16:10Z</time>
      </trkpt>
      <trkpt lat="46.67373" lon="5.55426">
        <ele>236.6</ele>
        <time>2023-09-03T11:16:11Z</time>
      </trkpt>
      <trkpt lat="46.67374" lon="5.55423">
        <ele>237.4</ele>
        <time>2023-09-03T11:16:12Z</time>
      </trkpt>
      <trkpt lat="46.67376" lon="5.5542">
        <ele>237.6</ele>
        <time>2023-09-03T11:16:13Z</time>
      </trkpt>
      <trkpt lat="46.67376" lon="5.5542">
        <ele>237.6</ele>
        <time>2023-09-03T11:16:14Z</time>
      </trkpt>
      <trkpt lat="46.67377" lon="5.55415">
        <ele>237.6</ele>
        <time>2023-09-03T11:16:15Z</time>
      </trkpt>
      <trkpt lat="46.67377" lon="5.55414">
        <ele>238</ele>
        <time>2023-09-03T11:16:16Z</time>
      </trkpt>
      <trkpt lat="46.67378" lon="5.55412">
        <ele>238.6</ele>
        <time>2023-09-03T11:16:17Z</time>
      </trkpt>
      <trkpt lat="46.67379" lon="5.55409">
        <ele>238.6</ele>
        <time>2023-09-03T11:16:18Z</time>
      </trkpt>
      <trkpt lat="46.6738" lon="5.55407">
        <ele>238.6</ele>
        <time>2023-09-03T11:16:19Z</time>
      </trkpt>
      <trkpt lat="46.67381" lon="5.55403">
        <ele>238.6</ele>
        <time>2023-09-03T11:16:20Z</time>
      </trkpt>
      <trkpt lat="46.67381" lon="5.554">
        <ele>238.6</ele>
        <time>2023-09-03T11:16:21Z</time>
      </trkpt>
      <trkpt lat="46.67381" lon="5.55393">
        <ele>238.6</ele>
        <time>2023-09-03T11:16:22Z</time>
      </trkpt>
      <trkpt lat="46.67381" lon="5.55391">
        <ele>239.2</ele>
        <time>2023-09-03T11:16:23Z</time>
      </trkpt>
      <trkpt lat="46.67381" lon="5.55387">
        <ele>239.2</ele>
        <time>2023-09-03T11:16:24Z</time>
      </trkpt>
      <trkpt lat="46.67381" lon="5.55384">
        <ele>239.2</ele>
        <time>2023-09-03T11:16:25Z</time>
      </trkpt>
      <trkpt lat="46.67381" lon="5.55381">
        <ele>240.2</ele>
        <time>2023-09-03T11:16:26Z</time>
      </trkpt>
      <trkpt lat="46.67381" lon="5.55379">
        <ele>240.4</ele>
        <time>2023-09-03T11:16:27Z</time>
      </trkpt>
      <trkpt lat="46.67382" lon="5.55377">
        <ele>240.4</ele>
        <time>2023-09-03T11:16:28Z</time>
      </trkpt>
      <trkpt lat="46.67382" lon="5.55375">
        <ele>240.4</ele>
        <time>2023-09-03T11:16:29Z</time>
      </trkpt>
      <trkpt lat="46.67383" lon="5.55374">
        <ele>240.8</ele>
        <time>2023-09-03T11:16:30Z</time>
      </trkpt>
      <trkpt lat="46.67383" lon="5.5537">
        <ele>241</ele>
        <time>2023-09-03T11:16:31Z</time>
      </trkpt>
      <trkpt lat="46.67384" lon="5.55369">
        <ele>241</ele>
        <time>2023-09-03T11:16:32Z</time>
      </trkpt>
      <trkpt lat="46.67385" lon="5.55366">
        <ele>241</ele>
        <time>2023-09-03T11:16:33Z</time>
      </trkpt>
      <trkpt lat="46.67385" lon="5.55364">
        <ele>241.4</ele>
        <time>2023-09-03T11:16:34Z</time>
      </trkpt>
      <trkpt lat="46.67386" lon="5.55361">
        <ele>241.4</ele>
        <time>2023-09-03T11:16:35Z</time>
      </trkpt>
      <trkpt lat="46.67387" lon="5.5536">
        <ele>241.2</ele>
        <time>2023-09-03T11:16:36Z</time>
      </trkpt>
      <trkpt lat="46.67387" lon="5.55362">
        <ele>241.2</ele>
        <time>2023-09-03T11:16:37Z</time>
      </trkpt>
      <trkpt lat="46.67387" lon="5.55364">
        <ele>241.2</ele>
        <time>2023-09-03T11:16:38Z</time>
      </trkpt>
      <trkpt lat="46.67387" lon="5.55366">
        <ele>241.2</ele>
        <time>2023-09-03T11:16:39Z</time>
      </trkpt>
      <trkpt lat="46.67387" lon="5.55368">
        <ele>241.4</ele>
        <time>2023-09-03T11:16:40Z</time>
      </trkpt>
      <trkpt lat="46.67387" lon="5.5537">
        <ele>241.4</ele>
        <time>2023-09-03T11:16:41Z</time>
      </trkpt>
      <trkpt lat="46.67388" lon="5.55372">
        <ele>241.4</ele>
        <time>2023-09-03T11:16:42Z</time>
      </trkpt>
      <trkpt lat="46.67388" lon="5.55374">
        <ele>242</ele>
        <time>2023-09-03T11:16:50Z</time>
      </trkpt>
      <trkpt lat="46.67388" lon="5.55376">
        <ele>242.6</ele>
        <time>2023-09-03T11:16:51Z</time>
      </trkpt>
      <trkpt lat="46.67388" lon="5.55378">
        <ele>242.6</ele>
        <time>2023-09-03T11:16:52Z</time>
      </trkpt>
      <trkpt lat="46.67388" lon="5.5538">
        <ele>242.6</ele>
        <time>2023-09-03T11:16:53Z</time>
      </trkpt>
      <trkpt lat="46.67388" lon="5.55382">
        <ele>243.2</ele>
        <time>2023-09-03T11:16:54Z</time>
      </trkpt>
      <trkpt lat="46.67386" lon="5.55388">
        <ele>243.2</ele>
        <time>2023-09-03T11:16:55Z</time>
      </trkpt>
      <trkpt lat="46.67384" lon="5.55394">
        <ele>243.6</ele>
        <time>2023-09-03T11:16:56Z</time>
      </trkpt>
      <trkpt lat="46.67383" lon="5.55395">
        <ele>243.6</ele>
        <time>2023-09-03T11:16:57Z</time>
      </trkpt>
      <trkpt lat="46.67383" lon="5.55401">
        <ele>243.6</ele>
        <time>2023-09-03T11:16:58Z</time>
      </trkpt>
      <trkpt lat="46.67383" lon="5.55403">
        <ele>244.4</ele>
        <time>2023-09-03T11:16:59Z</time>
      </trkpt>
      <trkpt lat="46.67383" lon="5.55407">
        <ele>244.6</ele>
        <time>2023-09-03T11:17:00Z</time>
      </trkpt>
      <trkpt lat="46.67382" lon="5.55409">
        <ele>244.6</ele>
        <time>2023-09-03T11:17:01Z</time>
      </trkpt>
      <trkpt lat="46.67381" lon="5.55412">
        <ele>244.6</ele>
        <time>2023-09-03T11:17:02Z</time>
      </trkpt>
      <trkpt lat="46.67384" lon="5.55414">
        <ele>245.4</ele>
        <time>2023-09-03T11:17:03Z</time>
      </trkpt>
      <trkpt lat="46.67385" lon="5.55415">
        <ele>246</ele>
        <time>2023-09-03T11:17:04Z</time>
      </trkpt>
      <trkpt lat="46.67387" lon="5.55416">
        <ele>246</ele>
        <time>2023-09-03T11:17:05Z</time>
      </trkpt>
      <trkpt lat="46.6739" lon="5.55417">
        <ele>246</ele>
        <time>2023-09-03T11:17:06Z</time>
      </trkpt>
      <trkpt lat="46.67393" lon="5.55419">
        <ele>246</ele>
        <time>2023-09-03T11:17:07Z</time>
      </trkpt>
      <trkpt lat="46.67395" lon="5.55421">
        <ele>247</ele>
        <time>2023-09-03T11:17:08Z</time>
      </trkpt>
      <trkpt lat="46.67396" lon="5.55422">
        <ele>247.4</ele>
        <time>2023-09-03T11:17:09Z</time>
      </trkpt>
      <trkpt lat="46.674" lon="5.55422">
        <ele>247.4</ele>
        <time>2023-09-03T11:17:10Z</time>
      </trkpt>
      <trkpt lat="46.67401" lon="5.55422">
        <ele>247.4</ele>
        <time>2023-09-03T11:17:11Z</time>
      </trkpt>
      <trkpt lat="46.67405" lon="5.55424">
        <ele>247.4</ele>
        <time>2023-09-03T11:17:12Z</time>
      </trkpt>
      <trkpt lat="46.67406" lon="5.55424">
        <ele>248</ele>
        <time>2023-09-03T11:17:13Z</time>
      </trkpt>
      <trkpt lat="46.67409" lon="5.55426">
        <ele>249</ele>
        <time>2023-09-03T11:17:14Z</time>
      </trkpt>
      <trkpt lat="46.6741" lon="5.55427">
        <ele>249</ele>
        <time>2023-09-03T11:17:15Z</time>
      </trkpt>
      <trkpt lat="46.67413" lon="5.55428">
        <ele>249</ele>
        <time>2023-09-03T11:17:16Z</time>
      </trkpt>
      <trkpt lat="46.67415" lon="5.55429">
        <ele>249</ele>
        <time>2023-09-03T11:17:17Z</time>
      </trkpt>
      <trkpt lat="46.67416" lon="5.55431">
        <ele>250.2</ele>
        <time>2023-09-03T11:17:18Z</time>
      </trkpt>
      <trkpt lat="46.67418" lon="5.55432">
        <ele>250.2</ele>
        <time>2023-09-03T11:17:19Z</time>
      </trkpt>
      <trkpt lat="46.67419" lon="5.55434">
        <ele>250.2</ele>
        <time>2023-09-03T11:17:20Z</time>
      </trkpt>
      <trkpt lat="46.6742" lon="5.55435">
        <ele>251.2</ele>
        <time>2023-09-03T11:17:21Z</time>
      </trkpt>
      <trkpt lat="46.67422" lon="5.55436">
        <ele>251.6</ele>
        <time>2023-09-03T11:17:22Z</time>
      </trkpt>
      <trkpt lat="46.67426" lon="5.55436">
        <ele>251.6</ele>
        <time>2023-09-03T11:17:23Z</time>
      </trkpt>
      <trkpt lat="46.67428" lon="5.55436">
        <ele>251.6</ele>
        <time>2023-09-03T11:17:24Z</time>
      </trkpt>
      <trkpt lat="46.6743" lon="5.55435">
        <ele>252.4</ele>
        <time>2023-09-03T11:17:25Z</time>
      </trkpt>
      <trkpt lat="46.67431" lon="5.55435">
        <ele>252.4</ele>
        <time>2023-09-03T11:17:26Z</time>
      </trkpt>
      <trkpt lat="46.67432" lon="5.55434">
        <ele>252.4</ele>
        <time>2023-09-03T11:17:27Z</time>
      </trkpt>
      <trkpt lat="46.67433" lon="5.55433">
        <ele>252.4</ele>
        <time>2023-09-03T11:17:28Z</time>
      </trkpt>
      <trkpt lat="46.67434" lon="5.55432">
        <ele>252.4</ele>
        <time>2023-09-03T11:17:29Z</time>
      </trkpt>
      <trkpt lat="46.67435" lon="5.55431">
        <ele>252.4</ele>
        <time>2023-09-03T11:17:30Z</time>
      </trkpt>
      <trkpt lat="46.67438" lon="5.55427">
        <ele>253.2</ele>
        <time>2023-09-03T11:17:31Z</time>
      </trkpt>
      <trkpt lat="46.67439" lon="5.55425">
        <ele>253.2</ele>
        <time>2023-09-03T11:17:32Z</time>
      </trkpt>
      <trkpt lat="46.67442" lon="5.55421">
        <ele>253.4</ele>
        <time>2023-09-03T11:17:33Z</time>
      </trkpt>
      <trkpt lat="46.67443" lon="5.5542">
        <ele>253.4</ele>
        <time>2023-09-03T11:17:34Z</time>
      </trkpt>
      <trkpt lat="46.67444" lon="5.55418">
        <ele>254.4</ele>
        <time>2023-09-03T11:17:35Z</time>
      </trkpt>
      <trkpt lat="46.67446" lon="5.55414">
        <ele>254.4</ele>
        <time>2023-09-03T11:17:36Z</time>
      </trkpt>
      <trkpt lat="46.67446" lon="5.55412">
        <ele>254.4</ele>
        <time>2023-09-03T11:17:37Z</time>
      </trkpt>
      <trkpt lat="46.67447" lon="5.5541">
        <ele>254.4</ele>
        <time>2023-09-03T11:17:38Z</time>
      </trkpt>
      <trkpt lat="46.67448" lon="5.55408">
        <ele>254.4</ele>
        <time>2023-09-03T11:17:39Z</time>
      </trkpt>
      <trkpt lat="46.67448" lon="5.55406">
        <ele>255.4</ele>
        <time>2023-09-03T11:17:40Z</time>
      </trkpt>
      <trkpt lat="46.67448" lon="5.55404">
        <ele>255.6</ele>
        <time>2023-09-03T11:17:41Z</time>
      </trkpt>
      <trkpt lat="46.67448" lon="5.55401">
        <ele>255.6</ele>
        <time>2023-09-03T11:17:42Z</time>
      </trkpt>
      <trkpt lat="46.67449" lon="5.55398">
        <ele>255.6</ele>
        <time>2023-09-03T11:17:43Z</time>
      </trkpt>
      <trkpt lat="46.67451" lon="5.55394">
        <ele>256.4</ele>
        <time>2023-09-03T11:17:44Z</time>
      </trkpt>
      <trkpt lat="46.67452" lon="5.55393">
        <ele>256.6</ele>
        <time>2023-09-03T11:17:45Z</time>
      </trkpt>
      <trkpt lat="46.67455" lon="5.5539">
        <ele>256.6</ele>
        <time>2023-09-03T11:17:46Z</time>
      </trkpt>
      <trkpt lat="46.67455" lon="5.55386">
        <ele>256.6</ele>
        <time>2023-09-03T11:17:47Z</time>
      </trkpt>
      <trkpt lat="46.67456" lon="5.55382">
        <ele>256.6</ele>
        <time>2023-09-03T11:17:48Z</time>
      </trkpt>
      <trkpt lat="46.67458" lon="5.55378">
        <ele>256.6</ele>
        <time>2023-09-03T11:17:49Z</time>
      </trkpt>
      <trkpt lat="46.6746" lon="5.55374">
        <ele>257.8</ele>
        <time>2023-09-03T11:17:50Z</time>
      </trkpt>
      <trkpt lat="46.67462" lon="5.55372">
        <ele>257.8</ele>
        <time>2023-09-03T11:17:51Z</time>
      </trkpt>
      <trkpt lat="46.67464" lon="5.5537">
        <ele>257.8</ele>
        <time>2023-09-03T11:17:52Z</time>
      </trkpt>
      <trkpt lat="46.67465" lon="5.55369">
        <ele>257.8</ele>
        <time>2023-09-03T11:17:53Z</time>
      </trkpt>
      <trkpt lat="46.67468" lon="5.55369">
        <ele>258.8</ele>
        <time>2023-09-03T11:17:54Z</time>
      </trkpt>
      <trkpt lat="46.67469" lon="5.55369">
        <ele>258.8</ele>
        <time>2023-09-03T11:17:55Z</time>
      </trkpt>
      <trkpt lat="46.6747" lon="5.55367">
        <ele>259.4</ele>
        <time>2023-09-03T11:17:56Z</time>
      </trkpt>
      <trkpt lat="46.67471" lon="5.55367">
        <ele>259.4</ele>
        <time>2023-09-03T11:17:57Z</time>
      </trkpt>
      <trkpt lat="46.67473" lon="5.55368">
        <ele>259.4</ele>
        <time>2023-09-03T11:17:58Z</time>
      </trkpt>
      <trkpt lat="46.67473" lon="5.55366">
        <ele>259.4</ele>
        <time>2023-09-03T11:17:59Z</time>
      </trkpt>
      <trkpt lat="46.67473" lon="5.55365">
        <ele>260.2</ele>
        <time>2023-09-03T11:18:00Z</time>
      </trkpt>
      <trkpt lat="46.67474" lon="5.55363">
        <ele>260.2</ele>
        <time>2023-09-03T11:18:01Z</time>
      </trkpt>
      <trkpt lat="46.67474" lon="5.55365">
        <ele>260.4</ele>
        <time>2023-09-03T11:18:02Z</time>
      </trkpt>
      <trkpt lat="46.67474" lon="5.55367">
        <ele>260.4</ele>
        <time>2023-09-03T11:18:03Z</time>
      </trkpt>
      <trkpt lat="46.67476" lon="5.55367">
        <ele>260.4</ele>
        <time>2023-09-03T11:18:04Z</time>
      </trkpt>
      <trkpt lat="46.67476" lon="5.55367">
        <ele>261.4</ele>
        <time>2023-09-03T11:18:05Z</time>
      </trkpt>
      <trkpt lat="46.67477" lon="5.55366">
        <ele>261.4</ele>
        <time>2023-09-03T11:18:06Z</time>
      </trkpt>
      <trkpt lat="46.67477" lon="5.55366">
        <ele>261.4</ele>
        <time>2023-09-03T11:18:07Z</time>
      </trkpt>
      <trkpt lat="46.67477" lon="5.55366">
        <ele>261.8</ele>
        <time>2023-09-03T11:18:08Z</time>
      </trkpt>
      <trkpt lat="46.67481" lon="5.55362">
        <ele>261.8</ele>
        <time>2023-09-03T11:18:09Z</time>
      </trkpt>
      <trkpt lat="46.67483" lon="5.55356">
        <ele>261.8</ele>
        <time>2023-09-03T11:18:10Z</time>
      </trkpt>
      <trkpt lat="46.67483" lon="5.55352">
        <ele>261.8</ele>
        <time>2023-09-03T11:18:11Z</time>
      </trkpt>
      <trkpt lat="46.67483" lon="5.55351">
        <ele>262.8</ele>
        <time>2023-09-03T11:18:12Z</time>
      </trkpt>
      <trkpt lat="46.67484" lon="5.5535">
        <ele>262.8</ele>
        <time>2023-09-03T11:18:13Z</time>
      </trkpt>
      <trkpt lat="46.67484" lon="5.5535">
        <ele>262.8</ele>
        <time>2023-09-03T11:18:14Z</time>
      </trkpt>
      <trkpt lat="46.67484" lon="5.55349">
        <ele>262.8</ele>
        <time>2023-09-03T11:18:15Z</time>
      </trkpt>
      <trkpt lat="46.67485" lon="5.55348">
        <ele>263.4</ele>
        <time>2023-09-03T11:18:16Z</time>
      </trkpt>
      <trkpt lat="46.67485" lon="5.55342">
        <ele>263.6</ele>
        <time>2023-09-03T11:18:17Z</time>
      </trkpt>
      <trkpt lat="46.67485" lon="5.55339">
        <ele>263.6</ele>
        <time>2023-09-03T11:18:18Z</time>
      </trkpt>
      <trkpt lat="46.67485" lon="5.55338">
        <ele>263.6</ele>
        <time>2023-09-03T11:18:19Z</time>
      </trkpt>
      <trkpt lat="46.67486" lon="5.55335">
        <ele>264.4</ele>
        <time>2023-09-03T11:18:20Z</time>
      </trkpt>
      <trkpt lat="46.67486" lon="5.55334">
        <ele>264.6</ele>
        <time>2023-09-03T11:18:21Z</time>
      </trkpt>
      <trkpt lat="46.67488" lon="5.55334">
        <ele>264.6</ele>
        <time>2023-09-03T11:18:22Z</time>
      </trkpt>
      <trkpt lat="46.67491" lon="5.55333">
        <ele>264.6</ele>
        <time>2023-09-03T11:18:23Z</time>
      </trkpt>
      <trkpt lat="46.67492" lon="5.55333">
        <ele>264.6</ele>
        <time>2023-09-03T11:18:24Z</time>
      </trkpt>
      <trkpt lat="46.67493" lon="5.55333">
        <ele>264.6</ele>
        <time>2023-09-03T11:18:25Z</time>
      </trkpt>
      <trkpt lat="46.67494" lon="5.55331">
        <ele>265.2</ele>
        <time>2023-09-03T11:18:26Z</time>
      </trkpt>
      <trkpt lat="46.67494" lon="5.55331">
        <ele>265.2</ele>
        <time>2023-09-03T11:18:27Z</time>
      </trkpt>
      <trkpt lat="46.67494" lon="5.55331">
        <ele>265.4</ele>
        <time>2023-09-03T11:18:28Z</time>
      </trkpt>
      <trkpt lat="46.6749" lon="5.55356">
        <ele>304.6</ele>
        <time>2023-09-03T11:24:24Z</time>
      </trkpt>
      <trkpt lat="46.67491" lon="5.55355">
        <ele>304.6</ele>
        <time>2023-09-03T11:24:25Z</time>
      </trkpt>
      <trkpt lat="46.67491" lon="5.55353">
        <ele>304.6</ele>
        <time>2023-09-03T11:24:26Z</time>
      </trkpt>
      <trkpt lat="46.67489" lon="5.55352">
        <ele>305</ele>
        <time>2023-09-03T11:24:27Z</time>
      </trkpt>
      <trkpt lat="46.67489" lon="5.5535">
        <ele>305</ele>
        <time>2023-09-03T11:24:28Z</time>
      </trkpt>
      <trkpt lat="46.67488" lon="5.55348">
        <ele>305</ele>
        <time>2023-09-03T11:24:29Z</time>
      </trkpt>
      <trkpt lat="46.67487" lon="5.55346">
        <ele>305</ele>
        <time>2023-09-03T11:24:30Z</time>
      </trkpt>
      <trkpt lat="46.67486" lon="5.55343">
        <ele>305</ele>
        <time>2023-09-03T11:24:31Z</time>
      </trkpt>
      <trkpt lat="46.67485" lon="5.55342">
        <ele>305.2</ele>
        <time>2023-09-03T11:24:32Z</time>
      </trkpt>
      <trkpt lat="46.67485" lon="5.55342">
        <ele>306.6</ele>
        <time>2023-09-03T11:24:33Z</time>
      </trkpt>
      <trkpt lat="46.67484" lon="5.55342">
        <ele>306.6</ele>
        <time>2023-09-03T11:24:34Z</time>
      </trkpt>
      <trkpt lat="46.67482" lon="5.5534">
        <ele>306.6</ele>
        <time>2023-09-03T11:24:35Z</time>
      </trkpt>
      <trkpt lat="46.67481" lon="5.55338">
        <ele>306.2</ele>
        <time>2023-09-03T11:24:36Z</time>
      </trkpt>
      <trkpt lat="46.67481" lon="5.55336">
        <ele>306.2</ele>
        <time>2023-09-03T11:24:37Z</time>
      </trkpt>
      <trkpt lat="46.6748" lon="5.55334">
        <ele>306.4</ele>
        <time>2023-09-03T11:24:38Z</time>
      </trkpt>
      <trkpt lat="46.67478" lon="5.55335">
        <ele>306.4</ele>
        <time>2023-09-03T11:24:39Z</time>
      </trkpt>
      <trkpt lat="46.67478" lon="5.55334">
        <ele>306.4</ele>
        <time>2023-09-03T11:24:40Z</time>
      </trkpt>
      <trkpt lat="46.67477" lon="5.55333">
        <ele>306.6</ele>
        <time>2023-09-03T11:24:41Z</time>
      </trkpt>
      <trkpt lat="46.67476" lon="5.55332">
        <ele>306.8</ele>
        <time>2023-09-03T11:24:42Z</time>
      </trkpt>
      <trkpt lat="46.67475" lon="5.55331">
        <ele>306.8</ele>
        <time>2023-09-03T11:24:43Z</time>
      </trkpt>
      <trkpt lat="46.67474" lon="5.5533">
        <ele>306.8</ele>
        <time>2023-09-03T11:24:44Z</time>
      </trkpt>
      <trkpt lat="46.67473" lon="5.55329">
        <ele>307.4</ele>
        <time>2023-09-03T11:24:45Z</time>
      </trkpt>
      <trkpt lat="46.6747" lon="5.55327">
        <ele>307.6</ele>
        <time>2023-09-03T11:24:46Z</time>
      </trkpt>
      <trkpt lat="46.67469" lon="5.55326">
        <ele>307.6</ele>
        <time>2023-09-03T11:24:47Z</time>
      </trkpt>
      <trkpt lat="46.67466" lon="5.55323">
        <ele>307.6</ele>
        <time>2023-09-03T11:24:48Z</time>
      </trkpt>
      <trkpt lat="46.67465" lon="5.55322">
        <ele>307.6</ele>
        <time>2023-09-03T11:24:49Z</time>
      </trkpt>
      <trkpt lat="46.67462" lon="5.5532">
        <ele>308.4</ele>
        <time>2023-09-03T11:24:50Z</time>
      </trkpt>
      <trkpt lat="46.67461" lon="5.5532">
        <ele>308.4</ele>
        <time>2023-09-03T11:24:51Z</time>
      </trkpt>
      <trkpt lat="46.67458" lon="5.55317">
        <ele>308.4</ele>
        <time>2023-09-03T11:24:52Z</time>
      </trkpt>
      <trkpt lat="46.67457" lon="5.55315">
        <ele>308.4</ele>
        <time>2023-09-03T11:24:53Z</time>
      </trkpt>
      <trkpt lat="46.67454" lon="5.5531">
        <ele>309.2</ele>
        <time>2023-09-03T11:24:54Z</time>
      </trkpt>
      <trkpt lat="46.67453" lon="5.55307">
        <ele>309.2</ele>
        <time>2023-09-03T11:24:55Z</time>
      </trkpt>
      <trkpt lat="46.6745" lon="5.55301">
        <ele>309.2</ele>
        <time>2023-09-03T11:24:56Z</time>
      </trkpt>
      <trkpt lat="46.67446" lon="5.55294">
        <ele>309.2</ele>
        <time>2023-09-03T11:24:57Z</time>
      </trkpt>
      <trkpt lat="46.67439" lon="5.55288">
        <ele>310</ele>
        <time>2023-09-03T11:24:58Z</time>
      </trkpt>
      <trkpt lat="46.67436" lon="5.55286">
        <ele>310</ele>
        <time>2023-09-03T11:24:59Z</time>
      </trkpt>
      <trkpt lat="46.6743" lon="5.55282">
        <ele>310</ele>
        <time>2023-09-03T11:25:00Z</time>
      </trkpt>
      <trkpt lat="46.67425" lon="5.55278">
        <ele>310</ele>
        <time>2023-09-03T11:25:01Z</time>
      </trkpt>
      <trkpt lat="46.67419" lon="5.55279">
        <ele>310.2</ele>
        <time>2023-09-03T11:25:02Z</time>
      </trkpt>
      <trkpt lat="46.67415" lon="5.55279">
        <ele>310.2</ele>
        <time>2023-09-03T11:25:03Z</time>
      </trkpt>
      <trkpt lat="46.6741" lon="5.55281">
        <ele>310.4</ele>
        <time>2023-09-03T11:25:04Z</time>
      </trkpt>
      <trkpt lat="46.67409" lon="5.55282">
        <ele>310.4</ele>
        <time>2023-09-03T11:25:05Z</time>
      </trkpt>
      <trkpt lat="46.67404" lon="5.55285">
        <ele>310.4</ele>
        <time>2023-09-03T11:25:06Z</time>
      </trkpt>
      <trkpt lat="46.67403" lon="5.55285">
        <ele>310.4</ele>
        <time>2023-09-03T11:25:07Z</time>
      </trkpt>
      <trkpt lat="46.674" lon="5.55287">
        <ele>310.4</ele>
        <time>2023-09-03T11:25:08Z</time>
      </trkpt>
      <trkpt lat="46.67399" lon="5.55288">
        <ele>309.8</ele>
        <time>2023-09-03T11:25:09Z</time>
      </trkpt>
      <trkpt lat="46.67396" lon="5.55293">
        <ele>309.8</ele>
        <time>2023-09-03T11:25:10Z</time>
      </trkpt>
      <trkpt lat="46.67395" lon="5.55294">
        <ele>309.8</ele>
        <time>2023-09-03T11:25:11Z</time>
      </trkpt>
      <trkpt lat="46.67394" lon="5.55297">
        <ele>309.8</ele>
        <time>2023-09-03T11:25:12Z</time>
      </trkpt>
      <trkpt lat="46.67393" lon="5.55299">
        <ele>309</ele>
        <time>2023-09-03T11:25:13Z</time>
      </trkpt>
      <trkpt lat="46.67392" lon="5.55301">
        <ele>309</ele>
        <time>2023-09-03T11:25:14Z</time>
      </trkpt>
      <trkpt lat="46.67393" lon="5.55302">
        <ele>309</ele>
        <time>2023-09-03T11:25:15Z</time>
      </trkpt>
      <trkpt lat="46.67394" lon="5.55302">
        <ele>309</ele>
        <time>2023-09-03T11:25:16Z</time>
      </trkpt>
      <trkpt lat="46.67396" lon="5.55302">
        <ele>308.6</ele>
        <time>2023-09-03T11:25:17Z</time>
      </trkpt>
      <trkpt lat="46.67397" lon="5.55302">
        <ele>308.4</ele>
        <time>2023-09-03T11:25:18Z</time>
      </trkpt>
      <trkpt lat="46.67397" lon="5.55302">
        <ele>308.4</ele>
        <time>2023-09-03T11:25:19Z</time>
      </trkpt>
      <trkpt lat="46.67397" lon="5.55302">
        <ele>308.4</ele>
        <time>2023-09-03T11:25:20Z</time>
      </trkpt>
      <trkpt lat="46.67397" lon="5.55302">
        <ele>307.6</ele>
        <time>2023-09-03T11:25:21Z</time>
      </trkpt>
    </trkseg>
  </trk>
</gpx>